# Wetter Temperatur Luftdruck Luftfeuchtigkeit Sichtweite Windgeschwindigkeit Windrichtung Zeit
1 Clouds 27 1011 75 10000 2.57 110 14:22 01.02.2023
2 Clouds 27 1011 74 10000 2.57 110 13:19 01.02.2023
3 Clouds 28 1010 71 10000 3.6 100 12:26 01.02.2023
4 Clouds 29 1009 71 10000 3.09 120 11:49 01.02.2023
5 Clouds 31 1009 62 10000 5.14 120 08:41 01.02.2023
6 Clouds 23 1011 79 10000 1.54 20 23:58 31.01.2023
7 Clouds 24 1010 77 10000 1.03 0 21:26 31.01.2023
8 Clouds 24 1011 78 10000 1.54 140 19:24 31.01.2023
9 Clouds 24 1012 74 10000 2.06 120 17:54 31.01.2023
10 Clouds 25 1012 74 10000 3.09 130 15:36 31.01.2023
11 Clouds 25 1012 74 10000 3.09 130 15:18 31.01.2023
12 Clouds 25 1012 71 10000 4.12 120 13:43 31.01.2023
13 Clouds 27 1010 67 10000 6.17 90 11:41 31.01.2023
14 Clouds 28 1010 65 10000 4.12 100 10:26 31.01.2023
15 Clouds 28 1009 62 10000 5.66 70 09:44 31.01.2023
16 Clouds 30 1010 60 10000 6.17 110 08:56 31.01.2023
17 Clouds 30 1010 60 10000 6.69 110 07:59 31.01.2023
18 Clouds 28 1012 66 10000 4.12 100 03:39 31.01.2023
19 Clouds 25 1011 76 10000 2.06 90 23:29 30.01.2023
20 Clouds 25 1010 76 10000 1.03 0 22:50 30.01.2023
21 Clouds 25 1010 76 10000 2.06 100 21:48 30.01.2023
22 Clouds 25 1010 76 10000 3.6 110 20:44 30.01.2023
23 Clouds 25 1011 75 10000 3.09 100 18:26 30.01.2023
24 Clouds 26 1011 74 10000 1.03 0 17:25 30.01.2023
25 Clouds 26 1012 71 10000 4.12 90 14:47 30.01.2023
26 Clouds 26 1012 71 10000 3.09 120 13:39 30.01.2023
27 Clouds 27 1011 65 10000 5.66 70 12:18 30.01.2023
28 Clouds 29 1009 61 10000 7.2 80 10:20 30.01.2023
29 Clouds 29 1009 58 10000 7.2 80 09:53 30.01.2023
30 Clouds 30 1009 56 10000 9.39 76 08:19 30.01.2023
31 Clouds 30 1012 59 10000 6.71 114 04:30 30.01.2023
32 Clouds 24 1012 79 10000 1.54 230 23:35 29.01.2023
33 Clouds 23 1012 80 10000 1.54 230 22:56 29.01.2023
34 Clouds 23 1012 80 10000 1.54 230 22:21 29.01.2023
35 Clouds 24 1011 78 10000 1.03 0 20:52 29.01.2023
36 Clouds 24 1011 78 10000 1.03 0 20:19 29.01.2023
37 Clouds 24 1011 79 10000 1.03 0 19:32 29.01.2023
38 Clouds 24 1012 73 10000 2.68 8 17:52 29.01.2023
39 Clouds 24 1012 73 10000 2.57 110 16:22 29.01.2023
40 Clouds 25 1012 73 10000 2.57 120 15:51 29.01.2023
41 Clouds 25 1012 70 10000 4.12 100 13:58 29.01.2023
42 Clouds 26 1012 68 10000 5.14 90 12:58 29.01.2023
43 Clouds 26 1011 67 10000 5.14 90 12:36 29.01.2023
44 Clouds 26 1011 67 10000 5.14 90 12:18 29.01.2023
45 Clouds 26 1011 66 10000 4.63 90 11:36 29.01.2023
46 Clouds 28 1010 62 10000 6.69 90 10:38 29.01.2023
47 Clouds 28 1010 61 10000 1.54 0 07:57 29.01.2023
48 Clouds 27 1013 65 10000 2.57 290 03:43 29.01.2023
49 Clouds 24 1011 76 10000 1.79 359 23:49 28.01.2023
50 Clouds 24 1009 74 10000 3.09 250 20:50 28.01.2023
51 Clouds 24 1009 71 10000 3.09 250 19:54 28.01.2023
52 Clouds 24 1010 69 10000 2.57 70 18:49 28.01.2023
53 Clouds 25 1011 65 10000 3.09 70 17:24 28.01.2023
54 Clouds 25 1011 66 10000 3.09 80 16:28 28.01.2023
55 Clouds 25 1011 70 10000 3.09 100 15:59 28.01.2023
56 Clouds 25 1011 70 10000 3.09 100 15:22 28.01.2023
57 Clouds 26 1011 63 10000 4.12 90 13:47 28.01.2023
58 Clouds 26 1010 66 10000 6.17 80 11:55 28.01.2023
59 Clouds 27 1009 62 10000 6.69 80 10:35 28.01.2023
60 Clouds 28 1008 60 10000 5.14 70 09:21 28.01.2023
61 Clouds 26 1010 74 10000 2.06 220 01:51 28.01.2023
62 Clouds 24 1010 82 9000 1.54 200 00:27 28.01.2023
63 Clouds 25 1008 76 10000 3.13 40 21:56 27.01.2023
64 Clouds 25 1009 78 10000 2.24 21 18:57 27.01.2023
65 Clouds 25 1009 78 10000 3.13 21 17:58 27.01.2023
66 Clouds 25 1010 78 10000 2.57 360 17:20 27.01.2023
67 Clouds 26 1009 76 10000 0.89 10 16:35 27.01.2023
68 Clouds 26 1009 73 10000 1.03 0 15:25 27.01.2023
69 Clouds 26 1009 74 10000 1.03 0 14:26 27.01.2023
70 Clouds 26 1009 73 10000 2.57 40 13:32 27.01.2023
71 Clouds 28 1007 65 10000 5.36 62 08:48 27.01.2023
72 Clouds 28 1008 67 9000 5.81 345 06:29 27.01.2023
73 Clouds 24 1010 77 10000 3.13 352 00:27 27.01.2023
74 Rain 24 1009 78 10000 2.24 29 21:52 26.01.2023
75 Clouds 24 1009 80 10000 3.13 10 20:40 26.01.2023
76 Clouds 25 1009 80 10000 1.79 3 19:57 26.01.2023
77 Clouds 25 1010 78 10000 1.54 40 17:56 26.01.2023
78 Clouds 25 1011 77 10000 2.57 100 16:30 26.01.2023
79 Clouds 25 1011 77 10000 2.57 110 15:58 26.01.2023
80 Clouds 25 1011 77 10000 2.57 110 15:38 26.01.2023
81 Clouds 25 1011 77 10000 2.57 110 15:20 26.01.2023
82 Clouds 26 1011 74 10000 3.6 110 13:32 26.01.2023
83 Clouds 26 1010 74 10000 0.45 15 12:24 26.01.2023
84 Clouds 28 1009 66 10000 4.12 100 10:33 26.01.2023
85 Clouds 29 1008 62 10000 5.66 80 09:44 26.01.2023
86 Clouds 30 1007 58 10000 4.63 100 08:40 26.01.2023
87 Clouds 29 1010 54 10000 3.09 0 06:27 26.01.2023
88 Clouds 23 1011 81 10000 1.34 7 23:40 25.01.2023
89 Clouds 23 1010 78 10000 1.54 170 22:36 25.01.2023
90 Clouds 23 1010 77 10000 1.03 0 21:25 25.01.2023
91 Clouds 24 1010 77 10000 1.03 0 20:48 25.01.2023
92 Clouds 24 1010 76 10000 1.03 0 18:24 25.01.2023
93 Clouds 24 1011 75 10000 1.34 18 15:58 25.01.2023
94 Clouds 25 1011 73 10000 3.09 100 14:30 25.01.2023
95 Clouds 26 1010 68 10000 4.63 80 11:53 25.01.2023
96 Clouds 28 1008 58 10000 7.2 80 09:52 25.01.2023
97 Clouds 28 1010 63 10000 8.5 67 09:18 25.01.2023
98 Clouds 30 1010 48 10000 9.77 70 06:18 25.01.2023
99 Clouds 25 1010 75 10000 3.6 100 00:27 25.01.2023
100 Clouds 25 1009 74 10000 2.06 100 21:55 24.01.2023
101 Clouds 25 1009 74 10000 2.06 100 21:26 24.01.2023
102 Clouds 26 1010 72 10000 3.09 100 19:28 24.01.2023
103 Clouds 26 1010 69 10000 1.54 130 18:29 24.01.2023
104 Clouds 26 1011 71 10000 2.24 20 17:18 24.01.2023
105 Clouds 26 1011 74 10000 3.58 18 16:52 24.01.2023
106 Clouds 28 1010 65 10000 4.12 90 13:57 24.01.2023
107 Clouds 28 1009 63 10000 4.63 90 12:21 24.01.2023
108 Clouds 31 1008 53 10000 7.2 80 09:36 24.01.2023
109 Clouds 32 1008 48 10000 5.66 70 08:20 24.01.2023
110 Clouds 31 1007 57 10000 5.14 80 07:49 24.01.2023
111 Clouds 28 1012 69 10000 3.09 10 02:54 24.01.2023
112 Clouds 25 1012 76 9000 2.06 40 00:41 24.01.2023
113 Clouds 25 1011 77 10000 1.79 7 23:29 23.01.2023
114 Clouds 25 1009 77 10000 1.54 10 21:39 23.01.2023
115 Clouds 25 1009 79 10000 1.03 0 19:29 23.01.2023
116 Clouds 26 1010 76 10000 2.57 100 17:32 23.01.2023
117 Clouds 26 1010 75 10000 2.57 110 15:33 23.01.2023
118 Clouds 27 1010 73 10000 3.09 70 13:57 23.01.2023
119 Clouds 27 1009 72 10000 3.09 70 13:21 23.01.2023
120 Clouds 28 1009 69 10000 3.09 90 12:34 23.01.2023
121 Clouds 29 1008 66 10000 4.12 110 11:29 23.01.2023
122 Clouds 32 1006 54 10000 4.63 110 08:25 23.01.2023
123 Clouds 28 1010 67 9000 1.34 9 02:23 23.01.2023
124 Clouds 24 1009 83 9000 1.03 0 22:49 22.01.2023
125 Clouds 25 1009 82 10000 1.54 40 21:19 22.01.2023
126 Clouds 25 1008 81 10000 1.03 150 20:24 22.01.2023
127 Clouds 25 1009 81 10000 1.03 0 19:45 22.01.2023
128 Clouds 25 1010 81 10000 0.51 0 18:49 22.01.2023
129 Clouds 26 1010 80 10000 0.51 0 17:56 22.01.2023
130 Clouds 26 1010 80 10000 1.34 15 17:25 22.01.2023
131 Clouds 27 1010 75 10000 2.06 340 15:34 22.01.2023
132 Clouds 27 1011 77 10000 2.06 100 14:54 22.01.2023
133 Clouds 27 1010 76 10000 3.09 100 13:39 22.01.2023
134 Clouds 27 1010 73 10000 3.09 80 12:34 22.01.2023
135 Clouds 28 1009 71 10000 4.63 100 11:35 22.01.2023
136 Clouds 30 1008 66 10000 4.63 100 09:35 22.01.2023
137 Clouds 30 1009 61 10000 5.14 90 06:40 22.01.2023
138 Clouds 26 1012 81 10000 2.57 10 01:46 22.01.2023
139 Clouds 24 1011 86 9000 1.54 50 23:31 21.01.2023
140 Clouds 24 1010 87 10000 2.24 10 22:18 21.01.2023
141 Clouds 25 1010 79 10000 1.79 16 19:47 21.01.2023
142 Clouds 25 1011 82 10000 0 0 17:22 21.01.2023
143 Clouds 26 1012 79 10000 0.51 0 14:34 21.01.2023
144 Clouds 27 1011 73 10000 3.09 70 12:57 21.01.2023
145 Clouds 27 1011 72 10000 3.09 70 12:35 21.01.2023
146 Clouds 27 1010 71 10000 5.14 60 10:56 21.01.2023
147 Clouds 27 1009 74 9000 2.57 20 09:29 21.01.2023
148 Clouds 29 1012 66 10000 5.66 70 04:34 21.01.2023
149 Clouds 25 1010 80 10000 1.54 150 22:29 20.01.2023
150 Clouds 25 1010 77 10000 0 0 21:38 20.01.2023
151 Clouds 25 1010 76 10000 2.57 90 20:57 20.01.2023
152 Clouds 25 1011 76 10000 1.03 0 19:45 20.01.2023
153 Clouds 26 1012 80 10000 1.03 0 16:44 20.01.2023
154 Clouds 26 1012 79 10000 2.57 90 14:46 20.01.2023
155 Clouds 26 1011 79 10000 3.6 110 13:51 20.01.2023
156 Clouds 28 1009 70 10000 4.63 110 10:24 20.01.2023
157 Clouds 29 1009 65 10000 8.23 70 08:53 20.01.2023
158 Rain 29 1011 69 10000 7.2 110 05:54 20.01.2023
159 Rain 29 1011 69 10000 7.2 110 05:54 20.01.2023
160 Clouds 28 1013 70 10000 1.54 20 02:30 20.01.2023
161 Clouds 28 1013 70 10000 1.54 20 02:30 20.01.2023
162 Clouds 25 1011 78 10000 1.34 349 22:33 19.01.2023
163 Clouds 25 1010 78 10000 1.54 260 20:32 19.01.2023
164 Clouds 26 1011 77 10000 0.51 0 19:29 19.01.2023
165 Clouds 26 1012 73 10000 1.03 0 16:51 19.01.2023
166 Clouds 27 1012 69 10000 5.14 80 13:29 19.01.2023
167 Clouds 29 1010 61 10000 4.63 80 09:36 19.01.2023
168 Clouds 26 1013 76 10000 1.79 28 00:45 19.01.2023
169 Clouds 25 1011 81 10000 1.34 25 22:24 18.01.2023
170 Clouds 26 1011 79 10000 2.06 250 20:20 18.01.2023
171 Clouds 25 1011 79 10000 1.03 0 19:37 18.01.2023
172 Rain 26 1012 77 10000 0.51 0 17:51 18.01.2023
173 Clouds 26 1012 78 10000 0.89 12 15:48 18.01.2023
174 Clouds 26 1013 77 10000 2.06 110 13:49 18.01.2023
175 Clouds 27 1011 75 10000 3.09 110 11:28 18.01.2023
176 Clouds 28 1010 74 10000 4.47 29 09:22 18.01.2023
177 Clouds 27 1014 78 10000 2.57 260 02:29 18.01.2023
178 Clouds 26 1012 84 10000 1.79 50 00:19 18.01.2023
179 Clouds 25 1010 83 10000 1.54 20 20:40 17.01.2023
180 Clouds 25 1011 83 10000 2.06 20 19:35 17.01.2023
181 Clouds 26 1011 81 10000 1.54 10 18:36 17.01.2023
182 Clouds 26 1012 81 10000 1.79 14 17:31 17.01.2023
183 Rain 26 1012 81 10000 2.24 21 14:57 17.01.2023
184 Rain 26 1013 81 10000 2.06 100 14:24 17.01.2023
185 Clouds 26 1012 80 10000 0.89 22 13:27 17.01.2023
186 Rain 27 1011 78 10000 3.6 100 11:44 17.01.2023
187 Rain 28 1009 73 10000 4.02 355 09:35 17.01.2023
188 Clouds 29 1010 70 10000 4.12 130 08:20 17.01.2023
189 Clouds 30 1010 65 10000 4.02 76 05:51 17.01.2023
190 Clouds 26 1011 76 10000 1.03 0 00:57 17.01.2023
191 Clouds 26 1011 77 10000 1.54 280 23:45 16.01.2023
192 Clouds 26 1009 77 10000 0.51 0 21:59 16.01.2023
193 Clouds 25 1009 78 10000 1.54 120 20:49 16.01.2023
194 Clouds 25 1009 79 10000 1.54 130 19:42 16.01.2023
195 Clouds 26 1010 75 10000 1.03 0 18:55 16.01.2023
196 Clouds 26 1010 75 10000 1.03 0 18:21 16.01.2023
197 Clouds 26 1010 75 10000 2.57 100 17:35 16.01.2023
198 Clouds 26 1010 75 10000 2.57 100 15:49 16.01.2023
199 Clouds 26 1010 73 10000 2.06 120 13:39 16.01.2023
200 Clouds 28 1009 64 10000 4.12 60 11:57 16.01.2023
201 Clouds 29 1007 61 10000 6.17 80 10:20 16.01.2023
202 Clouds 24 1008 97 7000 1.54 350 23:38 15.01.2023
203 Clouds 24 1007 97 5000 1.54 50 22:27 15.01.2023
204 Clouds 25 1007 94 9000 1.54 270 20:41 15.01.2023
205 Clouds 24 1007 94 9000 2.24 10 19:59 15.01.2023
206 Rain 25 1008 92 8000 1.34 344 17:55 15.01.2023
207 Rain 25 1008 93 8000 2.06 100 16:18 15.01.2023
208 Clouds 26 1007 88 10000 1.54 270 12:34 15.01.2023
209 Clouds 26 1006 90 9000 1.03 0 11:36 15.01.2023
210 Clouds 27 1005 81 10000 3.09 10 10:30 15.01.2023
211 Clouds 27 1004 81 10000 2.57 340 09:35 15.01.2023
212 Clouds 25 1008 88 9000 2.57 10 01:48 15.01.2023
213 Clouds 25 1006 89 9000 1.03 0 23:20 14.01.2023
214 Clouds 24 1006 91 10000 1.54 140 21:59 14.01.2023
215 Clouds 24 1006 91 10000 1.54 140 21:36 14.01.2023
216 Clouds 24 1006 91 10000 1.54 140 21:18 14.01.2023
217 Rain 25 1006 87 10000 0 0 20:39 14.01.2023
218 Clouds 25 1007 90 9000 1.54 0 18:40 14.01.2023
219 Rain 25 1008 88 10000 1.03 0 16:59 14.01.2023
220 Rain 26 1008 85 10000 2.06 120 15:28 14.01.2023
221 Rain 26 1008 85 9000 1.54 140 14:25 14.01.2023
222 Rain 26 1007 85 10000 2.06 120 13:41 14.01.2023
223 Rain 26 1007 84 10000 3.6 110 11:39 14.01.2023
224 Clouds 26 1006 84 10000 3.09 130 10:46 14.01.2023
225 Clouds 26 1006 84 10000 3.09 130 10:46 14.01.2023
226 Clouds 26 1006 84 10000 3.09 130 10:46 14.01.2023
227 Clouds 28 1005 73 10000 3.13 212 08:19 14.01.2023
228 Clouds 24 1008 82 9000 1.54 30 23:30 13.01.2023
229 Clouds 24 1007 82 9000 2.24 6 22:45 13.01.2023
230 Clouds 24 1007 82 9000 2.06 340 22:20 13.01.2023
231 Clouds 25 1007 79 10000 2.06 330 21:34 13.01.2023
232 Clouds 25 1008 77 10000 1.03 0 19:38 13.01.2023
233 Clouds 25 1008 77 10000 1.03 0 18:21 13.01.2023
234 Clouds 26 1009 75 10000 2.06 110 16:24 13.01.2023
235 Clouds 27 1009 76 10000 3.6 110 13:19 13.01.2023
236 Clouds 27 1009 75 10000 3.6 110 12:20 13.01.2023
237 Clouds 28 1008 69 10000 2.06 160 10:26 13.01.2023
238 Clouds 29 1008 69 9000 2.06 200 09:45 13.01.2023
239 Clouds 29 1008 66 9000 2.24 133 08:55 13.01.2023
240 Clouds 30 1007 66 9000 3.58 181 08:21 13.01.2023
241 Clouds 30 1009 67 9000 5.36 205 06:52 13.01.2023
242 Clouds 29 1011 63 9000 0.51 0 04:43 13.01.2023
243 Clouds 25 1011 89 10000 1.03 200 23:58 12.01.2023
244 Clouds 25 1010 88 10000 1.03 0 22:43 12.01.2023
245 Clouds 25 1010 81 10000 2.06 80 20:55 12.01.2023
246 Clouds 25 1011 78 10000 1.54 20 19:44 12.01.2023
247 Clouds 25 1012 80 10000 1.03 0 17:35 12.01.2023
248 Clouds 25 1012 80 10000 1.03 0 16:25 12.01.2023
249 Clouds 26 1012 76 10000 3.09 110 14:45 12.01.2023
250 Clouds 26 1012 76 10000 3.09 110 14:22 12.01.2023
251 Clouds 27 1011 72 10000 3.09 80 12:50 12.01.2023
252 Clouds 29 1010 64 10000 4.12 90 10:38 12.01.2023
253 Clouds 31 1009 55 10000 5.14 110 08:31 12.01.2023
254 Clouds 29 1010 68 10000 5.14 360 05:26 12.01.2023
255 Clouds 25 1012 79 10000 1.03 60 23:59 11.01.2023
256 Clouds 25 1012 79 10000 1.03 60 23:41 11.01.2023
257 Clouds 25 1012 79 10000 1.03 60 23:21 11.01.2023
258 Clouds 25 1011 78 10000 0 0 21:46 11.01.2023
259 Clouds 25 1011 78 10000 1.03 0 20:26 11.01.2023
260 Clouds 25 1012 77 10000 2.06 40 18:39 11.01.2023
261 Clouds 26 1012 76 10000 2.57 100 16:49 11.01.2023
262 Clouds 26 1012 75 10000 2.57 120 14:57 11.01.2023
263 Clouds 26 1011 71 10000 3.09 110 12:50 11.01.2023
264 Clouds 27 1010 69 10000 3.6 80 11:54 11.01.2023
265 Clouds 28 1010 66 10000 4.63 70 10:32 11.01.2023
266 Clouds 30 1009 59 10000 2.68 355 08:19 11.01.2023
267 Clouds 31 1009 60 10000 2.06 0 07:25 11.01.2023
268 Clouds 25 1012 80 10000 1.03 0 00:42 11.01.2023
269 Clouds 25 1010 82 10000 1.34 55 22:46 10.01.2023
270 Clouds 24 1010 82 10000 1.34 6 21:33 10.01.2023
271 Clouds 24 1010 81 10000 0 0 20:39 10.01.2023
272 Clouds 25 1011 80 10000 0 0 19:38 10.01.2023
273 Clouds 25 1011 81 10000 0 0 18:47 10.01.2023
274 Clouds 25 1012 80 10000 1.03 0 17:58 10.01.2023
275 Clouds 25 1012 79 10000 2.06 90 16:39 10.01.2023
276 Clouds 25 1012 76 10000 2.57 70 15:31 10.01.2023
277 Rain 26 1012 76 10000 1.54 100 14:31 10.01.2023
278 Clouds 27 1011 72 10000 2.57 110 12:22 10.01.2023
279 Clouds 29 1009 64 10000 2.57 140 09:21 10.01.2023
280 Clouds 29 1008 63 9000 1.54 160 08:29 10.01.2023
281 Clouds 29 1009 66 9000 2.68 168 07:26 10.01.2023
282 Clouds 28 1012 69 9000 2.68 49 04:54 10.01.2023
283 Clouds 24 1012 82 10000 1.03 40 23:28 09.01.2023
284 Clouds 24 1011 83 10000 1.03 290 21:51 09.01.2023
285 Clouds 24 1011 81 10000 2.57 290 20:44 09.01.2023
286 Clouds 24 1011 81 10000 1.03 250 19:22 09.01.2023
287 Clouds 25 1013 77 10000 2.06 140 17:54 09.01.2023
288 Clouds 25 1013 76 10000 2.06 140 17:24 09.01.2023
289 Clouds 26 1013 75 10000 2.57 100 16:32 09.01.2023
290 Clouds 25 1013 77 10000 3.09 120 15:26 09.01.2023
291 Clouds 26 1013 75 10000 2.06 110 14:43 09.01.2023
292 Clouds 26 1013 74 10000 3.09 90 13:25 09.01.2023
293 Clouds 27 1013 74 10000 3.6 100 12:48 09.01.2023
294 Clouds 27 1012 75 10000 3.13 356 11:21 09.01.2023
295 Clouds 28 1010 67 10000 3.13 207 08:43 09.01.2023
296 Clouds 29 1012 62 10000 4.92 200 06:39 09.01.2023
297 Clouds 27 1015 66 10000 1.54 220 02:54 09.01.2023
298 Clouds 23 1014 82 10000 1.79 17 22:54 08.01.2023
299 Clouds 23 1013 81 10000 1.03 0 21:23 08.01.2023
300 Clouds 24 1013 80 10000 1.03 0 20:57 08.01.2023
301 Clouds 24 1013 77 10000 1.54 40 19:44 08.01.2023
302 Clouds 25 1015 73 10000 1.54 50 17:41 08.01.2023
303 Clouds 25 1015 74 10000 1.54 50 17:19 08.01.2023
304 Clouds 25 1015 75 10000 3.6 100 15:39 08.01.2023
305 Clouds 25 1015 73 10000 3.6 110 14:20 08.01.2023
306 Clouds 25 1014 71 10000 3.6 100 13:32 08.01.2023
307 Clouds 26 1014 70 10000 3.09 110 12:59 08.01.2023
308 Clouds 27 1013 65 10000 4.63 100 11:37 08.01.2023
309 Clouds 28 1012 65 10000 5.66 110 09:37 08.01.2023
310 Clouds 28 1011 67 10000 4.63 80 08:33 08.01.2023
311 Clouds 27 1015 71 10000 5.66 90 04:26 08.01.2023
312 Clouds 24 1013 80 10000 1.03 0 23:23 07.01.2023
313 Clouds 24 1013 80 10000 1.03 0 22:39 07.01.2023
314 Clouds 24 1013 80 10000 0.51 0 21:59 07.01.2023
315 Clouds 24 1012 80 10000 1.54 320 20:59 07.01.2023
316 Clouds 24 1012 80 10000 1.54 320 20:25 07.01.2023
317 Clouds 24 1013 76 10000 2.06 340 19:23 07.01.2023
318 Clouds 24 1013 73 10000 3.09 30 18:18 07.01.2023
319 Clouds 24 1013 73 10000 2.06 90 17:40 07.01.2023
320 Clouds 25 1014 74 10000 3.6 60 16:41 07.01.2023
321 Clouds 25 1014 74 10000 3.6 60 16:20 07.01.2023
322 Clouds 25 1014 74 10000 2.06 90 15:38 07.01.2023
323 Clouds 25 1014 74 10000 2.06 90 15:18 07.01.2023
324 Clouds 26 1014 71 10000 1.54 100 13:58 07.01.2023
325 Clouds 26 1013 70 10000 1.54 100 13:40 07.01.2023
326 Clouds 26 1013 68 10000 4.63 70 12:44 07.01.2023
327 Clouds 27 1012 67 10000 4.63 60 11:59 07.01.2023
328 Clouds 28 1011 66 10000 4.63 80 10:27 07.01.2023
329 Clouds 29 1010 65 10000 4.63 90 08:48 07.01.2023
330 Clouds 30 1010 60 10000 6.17 100 07:47 07.01.2023
331 Clouds 30 1010 60 10000 6.17 100 07:20 07.01.2023
332 Clouds 29 1012 60 10000 6.17 80 05:21 07.01.2023
333 Clouds 24 1012 82 10000 1.54 120 22:57 06.01.2023
334 Clouds 24 1011 83 10000 1.54 120 22:20 06.01.2023
335 Clouds 24 1011 82 10000 1.03 0 21:44 06.01.2023
336 Clouds 25 1011 82 10000 1.54 80 20:32 06.01.2023
337 Clouds 25 1012 85 10000 1.54 110 19:41 06.01.2023
338 Clouds 25 1012 86 10000 1.54 110 19:23 06.01.2023
339 Clouds 25 1012 85 10000 2.06 50 18:54 06.01.2023
340 Clouds 24 1013 89 10000 5.25 75 17:41 06.01.2023
341 Clouds 25 1013 84 10000 3.09 100 16:51 06.01.2023
342 Clouds 25 1013 85 10000 3.09 100 16:20 06.01.2023
343 Clouds 25 1013 86 10000 4.12 100 15:50 06.01.2023
344 Clouds 25 1013 86 10000 3.6 90 14:55 06.01.2023
345 Clouds 25 1012 92 9000 1.54 50 12:55 06.01.2023
346 Clouds 25 1011 92 9000 1.54 30 10:59 06.01.2023
347 Rain 26 1012 86 9000 3.6 110 09:32 06.01.2023
348 Rain 27 1011 89 9000 1.79 358 07:57 06.01.2023
349 Clouds 26 1014 88 9000 2.57 20 01:52 06.01.2023
350 Clouds 24 1012 95 8000 1.03 40 22:55 05.01.2023
351 Clouds 24 1012 95 8000 1.03 40 22:55 05.01.2023
352 Clouds 24 1011 95 8000 2.06 30 21:54 05.01.2023
353 Clouds 24 1011 93 6000 0.51 0 19:46 05.01.2023
354 Clouds 24 1012 94 6000 1.54 360 17:28 05.01.2023
355 Clouds 24 1013 92 8000 2.06 320 16:28 05.01.2023
356 Clouds 24 1013 92 10000 2.06 20 15:47 05.01.2023
357 Clouds 24 1012 94 8000 1.54 80 14:51 05.01.2023
358 Clouds 24 1012 91 10000 2.06 0 12:44 05.01.2023
359 Rain 25 1011 91 10000 3.6 340 11:54 05.01.2023
360 Rain 25 1010 92 5000 2.57 340 09:55 05.01.2023
361 Rain 25 1012 93 8000 3.09 360 08:31 05.01.2023
362 Rain 25 1012 94 6000 2.57 340 07:20 05.01.2023
363 Rain 26 1012 90 8000 2.57 0 06:35 05.01.2023
364 Rain 24 1011 94 8000 2.06 140 23:26 04.01.2023
365 Rain 24 1010 93 8000 1.54 210 21:33 04.01.2023
366 Rain 24 1009 89 9000 1.03 0 20:55 04.01.2023
367 Rain 24 1010 92 9000 1.34 356 19:57 04.01.2023
368 Rain 24 1010 92 9000 1.34 18 19:33 04.01.2023
369 Clouds 24 1010 88 10000 2.06 0 18:37 04.01.2023
370 Rain 24 1011 93 10000 2.06 350 16:32 04.01.2023
371 Rain 24 1011 93 10000 2.06 350 16:32 04.01.2023
372 Clouds 24 1011 94 10000 2.06 350 15:48 04.01.2023
373 Rain 24 1012 93 9000 1.54 0 14:22 04.01.2023
374 Clouds 26 1010 84 10000 2.06 100 11:41 04.01.2023
375 Clouds 26 1010 84 10000 2.06 100 11:20 04.01.2023
376 Rain 27 1010 77 10000 4.12 100 10:42 04.01.2023
377 Clouds 27 1010 76 10000 4.12 100 10:21 04.01.2023
378 Clouds 28 1009 72 10000 2.06 20 08:49 04.01.2023
379 Clouds 27 1012 72 10000 3.58 355 02:53 04.01.2023
380 Clouds 25 1011 82 10000 2.06 30 00:31 04.01.2023
381 Clouds 25 1010 84 10000 1.54 40 23:34 03.01.2023
382 Clouds 25 1010 86 10000 2.06 330 22:41 03.01.2023
383 Clouds 25 1010 86 10000 0 0 20:52 03.01.2023
384 Clouds 25 1010 86 10000 1.03 0 19:21 03.01.2023
385 Rain 25 1011 84 10000 2.06 330 16:55 03.01.2023
386 Clouds 25 1011 90 10000 1.03 0 15:54 03.01.2023
387 Clouds 25 1011 89 9000 1.03 0 13:53 03.01.2023
388 Clouds 26 1011 89 9000 1.79 75 13:29 03.01.2023
389 Clouds 26 1011 90 9000 1.54 0 12:57 03.01.2023
390 Clouds 26 1011 90 9000 1.54 0 12:57 03.01.2023
391 Rain 26 1011 90 9000 2.24 74 12:29 03.01.2023
392 Clouds 26 1009 90 9000 0.89 1 10:30 03.01.2023
393 Rain 28 1010 83 8000 1.54 220 06:21 03.01.2023
394 Clouds 27 1011 83 10000 2.06 40 04:18 03.01.2023
395 Clouds 25 1013 93 8000 2.68 350 03:42 03.01.2023
396 Clouds 24 1012 94 9000 1.54 330 00:36 03.01.2023
397 Clouds 25 1011 95 8000 1.03 70 22:41 02.01.2023
398 Clouds 25 1011 94 7000 1.79 3 21:55 02.01.2023
399 Clouds 25 1011 94 10000 1.03 0 20:39 02.01.2023
400 Clouds 26 1011 88 9000 2.06 170 19:28 02.01.2023
401 Clouds 26 1012 87 10000 2.68 12 16:56 02.01.2023
402 Clouds 27 1012 81 10000 1.54 100 14:46 02.01.2023
403 Clouds 28 1011 79 10000 1.54 120 12:57 02.01.2023
404 Clouds 28 1011 76 10000 2.57 120 11:40 02.01.2023
405 Clouds 30 1010 67 10000 4.12 30 09:48 02.01.2023
406 Clouds 31 1009 64 10000 1.79 79 07:32 02.01.2023
407 Clouds 25 1013 90 10000 0.51 0 00:40 02.01.2023
408 Clouds 25 1011 93 10000 1.79 13 21:55 01.01.2023
409 Clouds 25 1011 93 10000 1.03 0 21:22 01.01.2023
410 Clouds 25 1012 93 10000 1.54 10 20:45 01.01.2023
411 Rain 25 1012 92 8000 1.03 0 19:42 01.01.2023
412 Clouds 27 1013 83 10000 0 0 17:55 01.01.2023
413 Clouds 27 1013 81 10000 0.45 22 17:20 01.01.2023
414 Clouds 27 1013 81 10000 0.51 0 16:31 01.01.2023
415 Clouds 27 1013 80 10000 2.57 110 14:47 01.01.2023
416 Clouds 28 1013 78 10000 3.09 110 13:29 01.01.2023
417 Clouds 28 1012 78 10000 4.12 90 12:32 01.01.2023
418 Clouds 29 1012 77 10000 3.09 100 11:36 01.01.2023
419 Clouds 30 1010 73 10000 1.79 25 09:53 01.01.2023
420 Clouds 30 1010 71 10000 2.24 22 08:48 01.01.2023
421 Clouds 30 1009 71 10000 2.68 333 08:18 01.01.2023
422 Clouds 30 1009 71 10000 2.68 333 08:18 01.01.2023
423 Clouds 29 1010 74 10000 3.51 96 06:54 01.01.2023
424 Clouds 26 1012 85 7000 0 0 00:44 01.01.2023
425 Clouds 25 1012 86 6000 1.34 70 23:41 31.12.2022
426 Clouds 26 1011 85 6000 1.03 0 22:31 31.12.2022
427 Clouds 26 1011 85 7000 1.54 40 21:25 31.12.2022
428 Smoke 25 1010 86 5000 1.34 82 20:41 31.12.2022
429 Smoke 26 1011 83 5000 1.34 65 19:18 31.12.2022
430 Smoke 26 1011 83 3500 1.03 0 18:39 31.12.2022
431 Smoke 26 1011 82 3500 1.03 0 18:18 31.12.2022
432 Clouds 26 1012 81 8000 0.51 0 17:42 31.12.2022
433 Clouds 26 1012 80 8000 1.34 6 16:32 31.12.2022
434 Clouds 27 1012 78 9000 1.54 230 15:54 31.12.2022
435 Clouds 27 1012 78 9000 2.24 32 14:35 31.12.2022
436 Clouds 27 1012 77 9000 1.79 32 13:28 31.12.2022
437 Clouds 27 1012 76 9000 1.34 353 12:25 31.12.2022
438 Clouds 28 1012 76 10000 1.03 0 11:57 31.12.2022
439 Clouds 28 1011 76 10000 1.03 0 11:38 31.12.2022
440 Clouds 28 1010 73 10000 2.06 150 10:20 31.12.2022
441 Clouds 28 1010 72 10000 4.02 181 09:50 31.12.2022
442 Rain 29 1010 71 9000 2.57 210 08:39 31.12.2022
443 Clouds 30 1013 65 10000 1.54 250 05:40 31.12.2022
444 Clouds 25 1013 83 10000 1.6 65 00:34 31.12.2022
445 Clouds 25 1012 84 10000 1.03 0 23:24 30.12.2022
446 Clouds 24 1011 84 10000 0.51 0 22:19 30.12.2022
447 Clouds 25 1011 84 10000 1.03 0 21:38 30.12.2022
448 Clouds 25 1011 84 10000 1.03 0 21:19 30.12.2022
449 Clouds 26 1011 80 10000 2.06 40 18:35 30.12.2022
450 Clouds 26 1011 80 10000 3.09 110 17:35 30.12.2022
451 Clouds 26 1012 79 10000 1.54 140 16:49 30.12.2022
452 Clouds 27 1012 76 10000 2.06 120 14:55 30.12.2022
453 Clouds 28 1012 70 10000 2.06 70 12:56 30.12.2022
454 Clouds 31 1009 66 10000 2.06 60 08:24 30.12.2022
455 Clouds 29 1012 72 10000 2.68 0 03:58 30.12.2022
456 Clouds 28 1012 76 10000 2.06 10 02:27 30.12.2022
457 Clouds 24 1011 86 10000 1.54 0 23:46 29.12.2022
458 Clouds 25 1010 86 10000 1.03 0 21:56 29.12.2022
459 Clouds 24 1010 86 10000 1.03 0 21:25 29.12.2022
460 Clouds 24 1010 87 10000 2.06 320 20:46 29.12.2022
461 Clouds 25 1011 88 9000 0.45 18 19:21 29.12.2022
462 Clouds 25 1011 84 10000 2.68 343 17:53 29.12.2022
463 Rain 26 1011 83 10000 1.54 0 17:26 29.12.2022
464 Clouds 26 1012 81 10000 1.79 7 16:54 29.12.2022
465 Clouds 27 1012 78 10000 2.06 10 15:55 29.12.2022
466 Clouds 27 1012 73 10000 1.03 0 13:41 29.12.2022
467 Clouds 28 1011 72 10000 3.6 10 11:54 29.12.2022
468 Clouds 29 1009 65 10000 4.12 40 09:53 29.12.2022
469 Clouds 26 1012 73 10000 4.02 353 03:41 29.12.2022
470 Clouds 25 1011 76 10000 1.79 14 23:29 28.12.2022
471 Clouds 24 1011 78 10000 1.54 320 22:19 28.12.2022
472 Clouds 25 1011 77 10000 2.06 0 21:20 28.12.2022
473 Clouds 26 1011 78 10000 2.24 357 19:57 28.12.2022
474 Clouds 25 1012 79 10000 1.34 358 18:26 28.12.2022
475 Clouds 25 1012 77 10000 1.34 16 16:21 28.12.2022
476 Clouds 26 1013 75 10000 2.68 38 13:59 28.12.2022
477 Clouds 26 1012 74 10000 1.79 23 12:48 28.12.2022
478 Clouds 26 1012 72 10000 2.57 80 11:33 28.12.2022
479 Clouds 28 1011 66 10000 4.63 120 09:32 28.12.2022
480 Clouds 29 1011 61 10000 5.66 120 07:32 28.12.2022
481 Clouds 30 1012 64 10000 2.57 110 06:45 28.12.2022
482 Clouds 24 1013 76 10000 1.79 341 00:56 28.12.2022
483 Clouds 24 1011 78 10000 0 0 21:29 27.12.2022
484 Clouds 24 1012 73 10000 1.03 0 19:50 27.12.2022
485 Clouds 25 1013 70 10000 3.09 60 18:21 27.12.2022
486 Clouds 25 1013 72 10000 2.06 30 16:59 27.12.2022
487 Clouds 25 1013 71 10000 4.12 70 15:53 27.12.2022
488 Clouds 25 1013 73 10000 3.6 110 14:20 27.12.2022
489 Clouds 25 1012 73 10000 1.34 18 12:22 27.12.2022
490 Clouds 26 1011 69 10000 3.09 120 09:47 27.12.2022
491 Clouds 27 1011 69 10000 3.09 120 09:23 27.12.2022
492 Clouds 28 1011 65 10000 4.12 150 08:44 27.12.2022
493 Clouds 27 1014 67 10000 4.12 100 04:33 27.12.2022
494 Clouds 24 1013 75 10000 2.06 100 23:25 26.12.2022
495 Clouds 24 1013 77 10000 2.57 70 21:39 26.12.2022
496 Clouds 24 1013 76 10000 1.54 50 20:43 26.12.2022
497 Clouds 24 1014 74 10000 3.6 110 18:50 26.12.2022
498 Clouds 24 1014 74 10000 3.6 110 17:52 26.12.2022
499 Clouds 24 1014 74 10000 3.6 110 16:37 26.12.2022
500 Clouds 24 1014 76 10000 3.6 110 14:48 26.12.2022
501 Clouds 25 1013 73 10000 4.12 110 12:52 26.12.2022
502 Clouds 27 1011 62 10000 4.12 100 08:52 26.12.2022
503 Clouds 24 1013 74 10000 1.79 353 00:25 26.12.2022
504 Clouds 24 1013 74 10000 2.06 140 23:38 25.12.2022
505 Clouds 24 1012 74 10000 1.54 20 22:38 25.12.2022
506 Clouds 24 1012 73 10000 2.06 70 21:49 25.12.2022
507 Clouds 24 1012 74 10000 2.57 120 18:51 25.12.2022
508 Clouds 24 1012 74 10000 3.6 120 17:52 25.12.2022
509 Clouds 24 1012 74 10000 3.6 120 17:34 25.12.2022
510 Clouds 24 1013 69 10000 4.12 100 15:41 25.12.2022
511 Clouds 25 1012 67 10000 5.14 80 12:45 25.12.2022
512 Clouds 26 1010 62 10000 5.14 90 09:28 25.12.2022
513 Clouds 24 1011 70 10000 2.24 359 23:51 24.12.2022
514 Clouds 24 1010 68 10000 1.34 26 21:50 24.12.2022
515 Clouds 25 1010 64 10000 4.63 70 18:32 24.12.2022
516 Clouds 25 1010 64 10000 5.14 80 16:45 24.12.2022
517 Clouds 25 1010 66 10000 4.63 90 14:53 24.12.2022
518 Clouds 25 1009 65 10000 6.69 80 12:43 24.12.2022
519 Clouds 26 1009 62 10000 6.69 80 11:26 24.12.2022
520 Clouds 26 1008 62 10000 7.2 70 10:21 24.12.2022
521 Clouds 27 1008 60 10000 9.39 82 09:36 24.12.2022
522 Clouds 29 1008 56 10000 8.23 70 06:21 24.12.2022
523 Clouds 27 1010 65 10000 2.68 3 02:24 24.12.2022
524 Clouds 25 1009 72 10000 1.54 170 23:37 23.12.2022
525 Clouds 25 1008 71 10000 2.68 27 22:27 23.12.2022
526 Clouds 25 1008 71 10000 0.51 0 20:40 23.12.2022
527 Clouds 25 1008 73 10000 3.13 358 19:39 23.12.2022
528 Clouds 25 1008 73 10000 3.13 358 19:39 23.12.2022
529 Clouds 25 1008 72 10000 4.02 32 19:21 23.12.2022
530 Clouds 26 1008 69 10000 1.79 13 18:39 23.12.2022
531 Clouds 26 1008 68 10000 1.03 0 18:19 23.12.2022
532 Clouds 26 1009 67 10000 3.09 90 16:34 23.12.2022
533 Clouds 26 1009 67 10000 2.57 90 15:30 23.12.2022
534 Clouds 27 1007 64 10000 4.12 90 11:47 23.12.2022
535 Clouds 28 1006 62 10000 5.66 90 09:37 23.12.2022
536 Clouds 29 1005 59 10000 5.66 100 07:55 23.12.2022
537 Clouds 30 1006 59 10000 4.63 30 06:52 23.12.2022
538 Clouds 29 1008 57 10000 1.54 50 05:45 23.12.2022
539 Clouds 25 1007 75 10000 2.57 340 23:22 22.12.2022
540 Clouds 25 1006 74 10000 2.06 0 22:35 22.12.2022
541 Clouds 26 1005 77 10000 3.13 28 20:27 22.12.2022
542 Clouds 26 1005 75 10000 2.68 9 19:24 22.12.2022
543 Clouds 26 1006 76 10000 1.03 0 18:38 22.12.2022
544 Clouds 26 1006 76 10000 1.03 0 16:59 22.12.2022
545 Clouds 26 1006 76 10000 1.03 0 16:37 22.12.2022
546 Clouds 26 1006 75 10000 2.57 60 15:33 22.12.2022
547 Clouds 27 1006 74 10000 3.09 100 14:45 22.12.2022
548 Clouds 27 1006 72 10000 2.57 100 13:32 22.12.2022
549 Clouds 27 1005 70 10000 2.06 60 12:40 22.12.2022
550 Clouds 28 1004 69 10000 2.06 280 10:32 22.12.2022
551 Clouds 29 1003 67 10000 2.68 27 09:59 22.12.2022
552 Clouds 29 1003 67 10000 2.24 4 09:19 22.12.2022
553 Clouds 30 1004 71 10000 2.06 270 07:54 22.12.2022
554 Clouds 28 1007 67 10000 1.79 6 04:19 22.12.2022
555 Clouds 25 1006 80 10000 3.09 10 00:51 22.12.2022
556 Clouds 25 1005 81 10000 2.68 20 22:56 21.12.2022
557 Clouds 25 1004 79 10000 3.09 350 21:53 21.12.2022
558 Clouds 25 1004 78 10000 4.02 32 21:21 21.12.2022
559 Clouds 25 1004 78 10000 3.6 360 20:45 21.12.2022
560 Clouds 25 1004 81 10000 3.6 360 19:58 21.12.2022
561 Clouds 25 1004 81 10000 3.6 360 19:39 21.12.2022
562 Clouds 25 1004 81 10000 3.6 360 19:21 21.12.2022
563 Clouds 25 1005 80 10000 3.6 10 18:43 21.12.2022
564 Clouds 26 1005 82 10000 4.63 360 17:35 21.12.2022
565 Clouds 26 1006 84 9000 5.66 360 14:24 21.12.2022
566 Clouds 28 1005 80 9000 2.68 6 12:33 21.12.2022
567 Clouds 28 1004 78 10000 1.54 90 11:41 21.12.2022
568 Clouds 28 1003 78 10000 1.54 90 11:19 21.12.2022
569 Clouds 29 1002 77 9000 1.54 0 08:51 21.12.2022
570 Clouds 30 1004 71 10000 2.57 270 06:55 21.12.2022
571 Clouds 25 1006 89 9000 2.57 20 00:32 21.12.2022
572 Clouds 24 1005 91 8000 1.54 350 22:38 20.12.2022
573 Rain 24 1004 91 9000 1.54 20 20:58 20.12.2022
574 Clouds 24 1004 92 9000 1.54 20 20:18 20.12.2022
575 Clouds 25 1006 93 7000 1.54 20 18:49 20.12.2022
576 Clouds 25 1006 93 7000 1.54 20 18:25 20.12.2022
577 Clouds 25 1006 93 8000 2.24 336 17:51 20.12.2022
578 Clouds 25 1006 93 8000 1.54 0 17:26 20.12.2022
579 Clouds 25 1007 91 8000 2.06 0 16:20 20.12.2022
580 Clouds 25 1007 91 9000 1.03 0 14:56 20.12.2022
581 Clouds 25 1007 91 9000 1.03 0 14:36 20.12.2022
582 Clouds 25 1007 90 8000 2.06 280 13:49 20.12.2022
583 Clouds 26 1007 88 9000 2.06 250 12:37 20.12.2022
584 Rain 26 1006 88 9000 2.06 200 11:55 20.12.2022
585 Clouds 27 1005 86 9000 1.54 200 10:42 20.12.2022
586 Clouds 27 1004 81 8000 3.09 20 07:31 20.12.2022
587 Clouds 26 1007 78 10000 2.68 354 00:20 20.12.2022
588 Clouds 26 1006 75 10000 2.57 30 22:36 19.12.2022
589 Clouds 26 1006 77 10000 3.58 10 21:30 19.12.2022
590 Clouds 26 1006 81 10000 2.24 350 19:42 19.12.2022
591 Clouds 26 1007 83 10000 3.58 29 18:59 19.12.2022
592 Clouds 25 1009 89 10000 1.54 150 17:58 19.12.2022
593 Clouds 25 1009 89 10000 1.54 120 16:20 19.12.2022
594 Clouds 27 1008 73 10000 1.03 0 13:22 19.12.2022
595 Clouds 27 1007 71 10000 3.13 11 11:46 19.12.2022
596 Clouds 28 1006 65 10000 4.63 80 08:27 19.12.2022
597 Clouds 29 1007 67 10000 2.57 80 07:22 19.12.2022
598 Clouds 26 1009 77 10000 4.02 29 00:54 19.12.2022
599 Clouds 26 1008 74 10000 3.13 6 21:50 18.12.2022
600 Clouds 26 1008 74 10000 2.06 10 21:31 18.12.2022
601 Clouds 25 1007 78 10000 2.57 360 20:56 18.12.2022
602 Clouds 25 1008 76 10000 2.68 6 19:44 18.12.2022
603 Clouds 26 1008 75 10000 2.06 10 19:23 18.12.2022
604 Clouds 26 1009 74 10000 4.02 20 17:52 18.12.2022
605 Clouds 26 1009 74 10000 2.06 10 15:43 18.12.2022
606 Clouds 26 1009 74 10000 2.68 14 15:25 18.12.2022
607 Clouds 27 1009 74 10000 2.68 11 14:59 18.12.2022
608 Clouds 27 1009 72 10000 1.54 30 13:29 18.12.2022
609 Clouds 27 1009 69 10000 2.68 355 12:50 18.12.2022
610 Clouds 27 1009 70 10000 3.13 15 11:51 18.12.2022
611 Clouds 28 1007 66 10000 3.58 5 09:47 18.12.2022
612 Clouds 29 1006 69 10000 6.26 13 08:46 18.12.2022
613 Clouds 29 1007 68 10000 7.15 13 06:51 18.12.2022
614 Clouds 29 1007 69 10000 4.02 71 06:18 18.12.2022
615 Clouds 28 1009 75 10000 3.58 336 01:53 18.12.2022
616 Clouds 26 1008 84 9000 2.68 2 22:58 17.12.2022
617 Clouds 26 1008 83 10000 0.45 16 20:57 17.12.2022
618 Clouds 27 1010 77 10000 1.54 40 17:52 17.12.2022
619 Clouds 27 1010 81 9000 2.06 40 15:32 17.12.2022
620 Clouds 27 1010 84 9000 1.03 0 13:20 17.12.2022
621 Rain 27 1008 72 9000 2.57 270 11:23 17.12.2022
622 Rain 28 1008 75 9000 1.54 230 10:41 17.12.2022
623 Rain 25 1009 94 8000 3.09 270 08:37 17.12.2022
624 Clouds 27 1009 83 9000 2.57 60 07:22 17.12.2022
625 Rain 30 1009 70 9000 4.63 290 06:44 17.12.2022
626 Clouds 26 1008 85 10000 2.24 18 22:55 16.12.2022
627 Clouds 27 1007 82 10000 2.06 360 20:29 16.12.2022
628 Clouds 27 1008 83 10000 1.54 50 18:33 16.12.2022
629 Clouds 27 1008 77 10000 2.06 100 15:32 16.12.2022
630 Clouds 28 1009 76 10000 3.09 80 14:42 16.12.2022
631 Clouds 28 1009 75 10000 2.06 120 13:21 16.12.2022
632 Clouds 29 1008 73 10000 3.6 90 11:56 16.12.2022
633 Clouds 31 1007 65 10000 4.63 80 09:40 16.12.2022
634 Clouds 33 1007 63 10000 6.71 36 08:49 16.12.2022
635 Clouds 33 1006 60 10000 5.14 100 07:54 16.12.2022
636 Clouds 33 1007 58 10000 9.77 119 06:45 16.12.2022
637 Clouds 25 1008 91 8000 1.03 0 22:46 15.12.2022
638 Clouds 25 1007 91 9000 0.45 18 21:36 15.12.2022
639 Clouds 26 1008 91 9000 1.54 40 19:49 15.12.2022
640 Clouds 26 1008 93 7000 1.54 10 18:54 15.12.2022
641 Clouds 26 1008 91 8000 2.06 50 17:28 15.12.2022
642 Clouds 27 1008 87 10000 1.54 10 16:25 15.12.2022
643 Clouds 27 1009 87 10000 2.06 100 14:57 15.12.2022
644 Rain 26 1008 91 5000 6.17 80 12:55 15.12.2022
645 Clouds 26 1008 91 5000 6.17 80 12:24 15.12.2022
646 Clouds 31 1006 69 10000 4.63 100 08:59 15.12.2022
647 Clouds 31 1006 68 10000 4.63 100 08:33 15.12.2022
648 Clouds 33 1008 62 10000 4.63 90 05:45 15.12.2022
649 Clouds 26 1010 100 10000 1.54 310 00:59 15.12.2022
650 Rain 26 1008 90 10000 1.03 0 21:24 14.12.2022
651 Rain 26 1008 90 10000 2.06 320 20:45 14.12.2022
652 Rain 26 1008 92 9000 1.34 345 19:51 14.12.2022
653 Clouds 27 1009 89 8000 1.03 90 17:19 14.12.2022
654 Clouds 27 1010 87 8000 1.79 348 16:53 14.12.2022
655 Clouds 27 1010 86 10000 1.54 50 14:55 14.12.2022
656 Clouds 27 1009 88 10000 1.54 90 13:19 14.12.2022
657 Rain 28 1008 86 6000 3.09 320 10:55 14.12.2022
658 Rain 28 1008 85 6000 3.09 320 10:23 14.12.2022
659 Clouds 28 1008 82 10000 3.6 280 07:44 14.12.2022
660 Clouds 27 1009 82 10000 2.06 20 22:19 13.12.2022
661 Clouds 27 1008 83 10000 0.45 40 21:37 13.12.2022
662 Clouds 27 1008 81 10000 0.89 4 20:47 13.12.2022
663 Clouds 27 1008 81 10000 0.51 0 19:21 13.12.2022
664 Clouds 28 1010 79 10000 1.54 100 16:40 13.12.2022
665 Clouds 28 1010 77 10000 3.09 110 14:59 13.12.2022
666 Clouds 28 1010 77 10000 3.09 110 14:59 13.12.2022
667 Clouds 28 1009 78 10000 3.09 100 13:37 13.12.2022
668 Clouds 29 1007 75 10000 4.63 100 10:49 13.12.2022
669 Clouds 29 1007 74 10000 4.63 100 10:26 13.12.2022
670 Clouds 32 1006 64 10000 3.58 225 08:18 13.12.2022
671 Clouds 26 1007 83 10000 0.51 0 22:37 12.12.2022
672 Clouds 26 1007 84 10000 1.03 0 21:58 12.12.2022
673 Clouds 26 1007 81 10000 2.06 110 19:46 12.12.2022
674 Clouds 27 1008 80 10000 3.09 110 17:53 12.12.2022
675 Clouds 28 1008 81 10000 2.06 150 15:41 12.12.2022
676 Clouds 28 1007 79 10000 1.54 160 13:51 12.12.2022
677 Clouds 30 1005 68 9000 2.57 230 09:21 12.12.2022
678 Clouds 30 1005 67 10000 3.13 217 08:56 12.12.2022
679 Clouds 29 1007 75 10000 1.79 189 04:48 12.12.2022
680 Clouds 27 1008 80 9000 0 0 01:50 12.12.2022
681 Clouds 25 1006 88 9000 0.51 0 22:18 11.12.2022
682 Clouds 26 1006 86 9000 1.03 0 20:34 11.12.2022
683 Clouds 26 1006 84 9000 1.03 0 19:38 11.12.2022
684 Clouds 26 1006 84 9000 1.03 0 19:38 11.12.2022
685 Clouds 26 1006 85 8000 1.03 0 18:34 11.12.2022
686 Clouds 27 1006 83 9000 1.54 80 17:34 11.12.2022
687 Clouds 27 1007 82 8000 1.54 60 16:53 11.12.2022
688 Clouds 27 1007 82 8000 1.54 60 16:29 11.12.2022
689 Clouds 27 1007 82 10000 1.54 80 15:44 11.12.2022
690 Clouds 27 1007 81 10000 1.03 0 13:35 11.12.2022
691 Clouds 28 1006 80 10000 2.06 310 12:41 11.12.2022
692 Clouds 29 1005 77 10000 4.63 270 10:25 11.12.2022
693 Clouds 26 1007 90 8000 1.54 320 00:57 11.12.2022
694 Clouds 26 1007 91 8000 1.54 320 00:22 11.12.2022
695 Clouds 26 1005 90 7000 1.79 5 22:35 10.12.2022
696 Clouds 26 1006 90 7000 1.03 0 21:52 10.12.2022
697 Clouds 26 1005 89 7000 1.03 240 20:57 10.12.2022
698 Clouds 26 1005 89 7000 1.03 240 20:19 10.12.2022
699 Clouds 26 1006 91 9000 0.51 0 17:44 10.12.2022
700 Rain 26 1006 92 9000 1.03 0 16:37 10.12.2022
701 Rain 26 1006 94 9000 1.03 0 15:41 10.12.2022
702 Rain 26 1006 94 9000 1.03 0 15:20 10.12.2022
703 Rain 26 1006 91 8000 1.03 0 13:38 10.12.2022
704 Rain 26 1005 91 6000 3.6 220 11:57 10.12.2022
705 Clouds 27 1004 89 4000 3.09 290 10:49 10.12.2022
706 Clouds 28 1003 83 8000 3.09 270 09:43 10.12.2022
707 Clouds 30 1003 73 9000 3.6 270 07:22 10.12.2022
708 Rain 29 1005 74 7000 3.58 15 04:57 10.12.2022
709 Rain 26 1005 90 6000 2.24 11 23:38 09.12.2022
710 Rain 26 1005 90 7000 1.79 348 22:42 09.12.2022
711 Rain 26 1004 90 9000 1.54 340 21:28 09.12.2022
712 Rain 26 1004 89 9000 1.03 50 20:58 09.12.2022
713 Clouds 26 1004 88 9000 1.34 353 19:43 09.12.2022
714 Clouds 26 1005 88 8000 1.03 0 17:56 09.12.2022
715 Rain 26 1005 88 9000 1.54 100 16:47 09.12.2022
716 Rain 26 1005 88 9000 1.79 77 16:18 09.12.2022
717 Clouds 26 1006 88 9000 2.06 110 15:24 09.12.2022
718 Clouds 27 1005 81 9000 1.54 90 12:25 09.12.2022
719 Clouds 28 1004 76 8000 1.54 100 10:48 09.12.2022
720 Rain 28 1004 74 8000 2.57 280 09:44 09.12.2022
721 Rain 28 1005 71 8000 1.03 0 05:36 09.12.2022
722 Clouds 27 1007 79 10000 2.06 100 03:18 09.12.2022
723 Rain 27 1006 81 10000 1.03 0 22:41 08.12.2022
724 Clouds 27 1005 77 10000 1.79 13 20:51 08.12.2022
725 Clouds 28 1006 72 10000 1.03 100 18:41 08.12.2022
726 Clouds 28 1007 74 10000 1.54 130 15:45 08.12.2022
727 Clouds 28 1007 75 10000 3.09 100 14:28 08.12.2022
728 Clouds 30 1006 85 10000 1.54 160 11:42 08.12.2022
729 Clouds 31 1006 68 10000 1.54 130 10:22 08.12.2022
730 Clouds 31 1005 69 10000 2.06 160 09:27 08.12.2022
731 Clouds 32 1006 62 10000 4.12 290 06:47 08.12.2022
732 Clouds 26 1007 81 10000 0 0 22:19 07.12.2022
733 Clouds 26 1008 81 10000 2.06 50 21:51 07.12.2022
734 Clouds 26 1007 81 10000 2.06 50 21:31 07.12.2022
735 Clouds 27 1008 79 10000 2.06 110 19:47 07.12.2022
736 Clouds 27 1008 79 10000 2.57 70 17:41 07.12.2022
737 Clouds 28 1008 73 10000 3.57 100 14:41 07.12.2022
738 Clouds 29 1008 69 10000 3.6 110 12:38 07.12.2022
739 Clouds 30 1007 68 10000 3.6 100 10:44 07.12.2022
740 Clouds 31 1006 65 10000 4.12 120 09:54 07.12.2022
741 Clouds 31 1007 66 10000 3.6 150 08:51 07.12.2022
742 Clouds 31 1008 66 10000 2.57 100 06:49 07.12.2022
743 Clouds 31 1008 65 10000 3.09 100 05:23 07.12.2022
744 Clouds 26 1009 81 10000 2.57 80 23:37 06.12.2022
745 Clouds 26 1008 84 10000 2.06 90 20:53 06.12.2022
746 Clouds 27 1009 80 10000 2.57 100 18:22 06.12.2022
747 Clouds 28 1009 79 10000 3.6 100 16:43 06.12.2022
748 Clouds 28 1009 76 10000 3.6 100 16:20 06.12.2022
749 Clouds 28 1009 75 10000 4.12 110 15:34 06.12.2022
750 Clouds 28 1009 74 10000 4.12 110 14:28 06.12.2022
751 Clouds 28 1009 73 10000 3.6 100 12:59 06.12.2022
752 Clouds 28 1008 73 10000 3.6 100 12:40 06.12.2022
753 Clouds 29 1006 73 10000 6.17 100 09:41 06.12.2022
754 Clouds 32 1007 63 10000 2.57 140 06:32 06.12.2022
755 Clouds 28 1010 76 10000 0.45 23 01:26 06.12.2022
756 Clouds 25 1009 86 10000 1.54 40 22:36 05.12.2022
757 Clouds 26 1008 85 10000 0 0 20:56 05.12.2022
758 Clouds 26 1008 85 10000 0 0 20:36 05.12.2022
759 Clouds 26 1008 85 10000 1.03 0 19:45 05.12.2022
760 Clouds 27 1009 81 10000 1.03 0 17:56 05.12.2022
761 Clouds 27 1010 81 10000 0.51 0 16:47 05.12.2022
762 Clouds 27 1010 80 10000 1.54 30 15:22 05.12.2022
763 Clouds 28 1009 76 10000 2.57 110 13:22 05.12.2022
764 Clouds 28 1009 79 10000 2.06 120 12:51 05.12.2022
765 Clouds 28 1009 78 10000 2.06 120 12:33 05.12.2022
766 Clouds 29 1008 74 10000 2.24 1 10:58 05.12.2022
767 Rain 27 1010 84 9000 1.79 70 00:44 05.12.2022
768 Clouds 26 1009 83 10000 1.03 0 22:58 04.12.2022
769 Clouds 26 1009 84 10000 1.03 0 22:36 04.12.2022
770 Clouds 26 1009 84 10000 1.34 61 22:18 04.12.2022
771 Clouds 27 1009 85 10000 0.51 0 20:53 04.12.2022
772 Clouds 27 1009 84 10000 1.54 10 19:39 04.12.2022
773 Clouds 27 1009 85 10000 1.54 10 19:18 04.12.2022
774 Clouds 27 1010 81 10000 1.79 2 17:24 04.12.2022
775 Clouds 27 1011 79 10000 2.57 100 16:56 04.12.2022
776 Clouds 27 1011 79 10000 2.57 100 16:36 04.12.2022
777 Clouds 27 1011 80 10000 2.57 100 16:18 04.12.2022
778 Rain 28 1011 79 10000 1.54 110 14:44 04.12.2022
779 Clouds 28 1010 76 10000 2.57 110 13:37 04.12.2022
780 Clouds 29 1010 68 10000 3.13 59 12:44 04.12.2022
781 Clouds 29 1009 67 10000 5.14 60 11:58 04.12.2022
782 Clouds 31 1008 63 10000 4.12 100 09:33 04.12.2022
783 Clouds 32 1007 60 10000 4.63 80 07:31 04.12.2022
784 Clouds 26 1011 87 10000 1.54 0 00:55 04.12.2022
785 Clouds 27 1010 89 10000 0.45 34 23:43 03.12.2022
786 Clouds 27 1009 88 10000 1.03 40 22:19 03.12.2022
787 Rain 27 1009 88 10000 1.03 50 21:21 03.12.2022
788 Clouds 27 1008 88 10000 0.89 11 20:22 03.12.2022
789 Clouds 27 1009 81 10000 2.06 110 18:39 03.12.2022
790 Clouds 28 1009 81 10000 2.57 100 15:54 03.12.2022
791 Clouds 28 1009 77 10000 3.6 100 14:23 03.12.2022
792 Clouds 29 1009 76 10000 3.09 100 12:54 03.12.2022
793 Clouds 29 1008 75 10000 3.09 100 12:22 03.12.2022
794 Clouds 31 1006 69 10000 3.6 120 10:21 03.12.2022
795 Clouds 33 1006 62 10000 6.69 100 07:22 03.12.2022
796 Clouds 29 1010 70 10000 2.24 359 01:29 03.12.2022
797 Clouds 27 1008 83 10000 1.54 30 22:41 02.12.2022
798 Clouds 27 1008 81 10000 1.54 70 20:53 02.12.2022
799 Clouds 27 1008 81 10000 1.54 70 20:53 02.12.2022
800 Clouds 27 1008 81 10000 1.54 50 19:26 02.12.2022
801 Clouds 28 1010 75 10000 1.03 0 15:59 02.12.2022
802 Clouds 28 1010 75 10000 1.54 110 14:43 02.12.2022
803 Clouds 28 1009 75 10000 1.54 110 14:23 02.12.2022
804 Clouds 28 1009 75 10000 1.34 341 12:55 02.12.2022
805 Clouds 29 1007 71 10000 2.57 90 11:32 02.12.2022
806 Clouds 31 1006 61 10000 7.72 50 08:35 02.12.2022
807 Clouds 31 1007 62 10000 6.69 50 07:23 02.12.2022
808 Clouds 26 1009 88 10000 1.54 40 23:35 01.12.2022
809 Clouds 26 1007 87 10000 0 0 21:46 01.12.2022
810 Clouds 26 1007 87 10000 0 0 21:46 01.12.2022
811 Clouds 26 1007 86 10000 0 0 21:27 01.12.2022
812 Clouds 26 1007 88 10000 0 0 19:24 01.12.2022
813 Clouds 26 1009 90 10000 1.03 0 17:48 01.12.2022
814 Rain 27 1010 87 9000 1.54 180 15:39 01.12.2022
815 Rain 29 1009 73 10000 3.09 40 11:41 01.12.2022
816 Clouds 30 1008 66 10000 2.57 30 10:23 01.12.2022
817 Clouds 31 1007 64 10000 4.63 90 09:54 01.12.2022
818 Clouds 31 1007 63 10000 4.63 90 09:35 01.12.2022
819 Rain 25 1009 93 10000 2.06 80 23:59 30.11.2022
820 Rain 25 1009 93 10000 3.09 50 22:35 30.11.2022
821 Rain 26 1009 86 9000 1.54 140 21:19 30.11.2022
822 Clouds 27 1009 83 10000 1.54 60 20:25 30.11.2022
823 Clouds 27 1008 82 10000 1.54 80 19:36 30.11.2022
824 Rain 27 1008 86 10000 3.05 82 18:33 30.11.2022
825 Clouds 28 1009 82 10000 0.51 0 17:35 30.11.2022
826 Clouds 28 1010 83 10000 2.06 110 15:49 30.11.2022
827 Clouds 28 1010 78 10000 2.06 100 14:27 30.11.2022
828 Clouds 28 1010 78 10000 2.68 66 13:31 30.11.2022
829 Rain 30 1008 74 10000 3.6 100 10:24 30.11.2022
830 Clouds 30 1007 77 7000 3.09 320 08:39 30.11.2022
831 Clouds 30 1008 75 10000 1.03 0 07:26 30.11.2022
832 Clouds 27 1010 82 10000 1.34 17 23:33 29.11.2022
833 Clouds 26 1009 82 10000 1.54 100 22:46 29.11.2022
834 Clouds 27 1009 83 10000 1.54 70 21:25 29.11.2022
835 Clouds 27 1009 82 10000 2.06 30 20:36 29.11.2022
836 Clouds 28 1010 80 10000 1.54 120 18:57 29.11.2022
837 Clouds 28 1010 80 10000 2.06 100 16:58 29.11.2022
838 Clouds 28 1010 80 10000 2.06 100 16:22 29.11.2022
839 Clouds 29 1011 77 10000 2.06 90 14:49 29.11.2022
840 Clouds 29 1010 75 10000 1.54 100 12:46 29.11.2022
841 Clouds 30 1009 72 10000 3.09 90 11:32 29.11.2022
842 Clouds 30 1008 69 10000 5.14 100 10:52 29.11.2022
843 Clouds 32 1007 62 10000 5.14 100 09:37 29.11.2022
844 Clouds 32 1007 67 10000 5.66 120 08:34 29.11.2022
845 Clouds 27 1011 81 10000 2.24 37 00:36 29.11.2022
846 Clouds 26 1010 83 10000 2.06 360 23:34 28.11.2022
847 Clouds 26 1009 83 10000 1.03 0 22:32 28.11.2022
848 Clouds 27 1009 83 10000 1.03 0 21:43 28.11.2022
849 Clouds 27 1009 82 10000 0.51 0 20:33 28.11.2022
850 Clouds 27 1009 81 10000 0 0 19:38 28.11.2022
851 Clouds 27 1009 76 10000 1.54 40 18:29 28.11.2022
852 Clouds 28 1010 78 10000 1.03 0 17:44 28.11.2022
853 Clouds 28 1011 77 10000 2.57 80 15:31 28.11.2022
854 Clouds 28 1011 78 10000 1.54 120 14:24 28.11.2022
855 Clouds 28 1011 77 10000 1.79 70 13:46 28.11.2022
856 Clouds 29 1010 73 10000 2.57 100 11:53 28.11.2022
857 Clouds 31 1009 69 10000 3.6 100 09:27 28.11.2022
858 Clouds 31 1009 69 10000 3.6 100 09:27 28.11.2022
859 Clouds 32 1010 65 10000 2.06 0 04:58 28.11.2022
860 Clouds 31 1010 65 10000 4.02 356 04:40 28.11.2022
861 Clouds 31 1011 61 10000 3.13 351 03:23 28.11.2022
862 Clouds 27 1011 75 10000 1.03 80 00:42 28.11.2022
863 Clouds 27 1010 75 10000 0.51 0 22:28 27.11.2022
864 Clouds 26 1009 76 10000 1.03 0 21:19 27.11.2022
865 Clouds 26 1010 78 10000 2.06 130 18:57 27.11.2022
866 Clouds 27 1011 74 10000 3.09 90 16:44 27.11.2022
867 Clear 28 1011 72 10000 5.06 99 14:22 27.11.2022
868 Clouds 28 1010 70 10000 4.63 100 12:27 27.11.2022
869 Clouds 30 1008 64 10000 4.63 120 10:39 27.11.2022
870 Clouds 32 1007 63 10000 6.17 130 07:55 27.11.2022
871 Clouds 25 1010 82 10000 1.54 20 23:41 26.11.2022
872 Clouds 26 1009 82 10000 2.06 30 21:44 26.11.2022
873 Clouds 26 1009 80 10000 2.06 90 20:35 26.11.2022
874 Clouds 26 1010 78 10000 1.54 110 18:57 26.11.2022
875 Clouds 26 1010 78 10000 1.54 110 18:57 26.11.2022
876 Clouds 28 1010 74 10000 2.06 130 16:49 26.11.2022
877 Clouds 28 1011 75 10000 1.54 100 15:38 26.11.2022
878 Clouds 29 1010 72 10000 3.09 120 12:54 26.11.2022
879 Clouds 29 1010 72 10000 3.09 120 12:54 26.11.2022
880 Clouds 30 1009 70 10000 1.54 110 11:23 26.11.2022
881 Clouds 32 1008 61 10000 2.57 130 09:44 26.11.2022
882 Clouds 32 1009 61 10000 2.57 0 08:39 26.11.2022
883 Clouds 25 1011 82 10000 2.06 10 22:59 25.11.2022
884 Clouds 25 1010 83 10000 2.57 10 21:38 25.11.2022
885 Clouds 26 1011 79 10000 1.54 40 20:33 25.11.2022
886 Clouds 28 1012 78 10000 1.54 110 16:59 25.11.2022
887 Clouds 28 1012 76 10000 2.57 110 15:42 25.11.2022
888 Clouds 30 1011 69 10000 2.57 110 12:20 25.11.2022
889 Clouds 32 1009 65 10000 4.12 120 08:53 25.11.2022
890 Clouds 32 1009 65 10000 4.12 120 08:33 25.11.2022
891 Clouds 31 1011 66 10000 4.63 100 06:42 25.11.2022
892 Rain 27 1013 86 8000 1.03 0 01:25 25.11.2022
893 Clouds 27 1012 86 10000 1.03 80 23:22 24.11.2022
894 Clouds 27 1011 86 10000 2.06 70 22:35 24.11.2022
895 Clouds 27 1011 85 10000 1.03 0 21:39 24.11.2022
896 Clouds 28 1011 81 10000 2.57 150 19:48 24.11.2022
897 Clouds 28 1011 76 10000 2.06 110 17:47 24.11.2022
898 Clouds 28 1011 75 10000 2.06 110 17:23 24.11.2022
899 Clouds 29 1011 70 10000 0.51 0 16:39 24.11.2022
900 Clouds 29 1011 66 10000 3.09 70 14:23 24.11.2022
901 Clouds 30 1011 68 10000 2.57 90 12:40 24.11.2022
902 Clouds 31 1010 67 10000 4.63 110 10:52 24.11.2022
903 Clouds 32 1008 66 10000 6.17 110 08:47 24.11.2022
904 Clouds 32 1011 67 10000 5.14 100 04:46 24.11.2022
905 Clouds 28 1011 79 10000 0.45 33 00:40 24.11.2022
906 Clouds 27 1011 84 10000 1.03 0 23:32 23.11.2022
907 Clouds 27 1010 82 10000 1.03 0 21:47 23.11.2022
908 Clouds 27 1009 82 10000 1.03 100 20:49 23.11.2022
909 Clouds 27 1010 81 10000 2.06 100 19:34 23.11.2022
910 Clouds 27 1010 81 10000 3.09 120 18:55 23.11.2022
911 Clouds 28 1011 79 10000 2.57 100 17:29 23.11.2022
912 Clouds 29 1010 78 10000 2.57 110 13:42 23.11.2022
913 Clouds 29 1010 77 10000 2.57 110 13:23 23.11.2022
914 Clouds 29 1009 76 10000 3.83 98 12:23 23.11.2022
915 Clouds 30 1009 74 10000 2.57 100 11:45 23.11.2022
916 Clouds 30 1009 74 10000 2.57 100 11:45 23.11.2022
917 Clouds 30 1009 74 10000 3.6 100 10:46 23.11.2022
918 Clouds 31 1008 69 10000 3.6 100 09:57 23.11.2022
919 Clouds 31 1008 70 10000 3.6 100 09:27 23.11.2022
920 Clouds 31 1008 69 10000 4.12 110 08:58 23.11.2022
921 Clouds 32 1008 67 10000 4.47 191 08:35 23.11.2022
922 Clouds 32 1010 67 10000 3.6 120 05:19 23.11.2022
923 Clouds 28 1011 76 10000 2.24 336 01:21 23.11.2022
924 Clouds 26 1009 86 10000 0.89 38 22:37 22.11.2022
925 Clouds 27 1009 85 10000 1.03 0 21:34 22.11.2022
926 Clouds 27 1009 85 10000 1.34 355 20:51 22.11.2022
927 Clouds 27 1009 85 10000 1.03 0 20:30 22.11.2022
928 Clouds 27 1009 82 10000 1.54 100 19:44 22.11.2022
929 Clouds 27 1009 80 10000 2.57 90 17:48 22.11.2022
930 Clouds 28 1010 80 10000 3.09 110 16:32 22.11.2022
931 Clouds 28 1010 77 10000 2.06 120 14:31 22.11.2022
932 Clouds 29 1009 73 10000 3.09 110 12:30 22.11.2022
933 Clouds 32 1007 63 10000 4.12 100 09:28 22.11.2022
934 Clouds 31 1008 66 10000 5.14 90 07:59 22.11.2022
935 Clouds 30 1008 73 10000 3.58 3 06:38 22.11.2022
936 Clouds 26 1010 91 10000 0.51 0 23:42 21.11.2022
937 Clouds 26 1010 91 10000 0.51 0 23:42 21.11.2022
938 Clouds 26 1009 91 10000 0 0 22:51 21.11.2022
939 Clouds 26 1009 91 10000 0.89 24 22:20 21.11.2022
940 Clouds 26 1008 92 10000 1.79 28 21:23 21.11.2022
941 Clouds 26 1009 90 10000 3.09 90 19:49 21.11.2022
942 Clouds 26 1009 90 10000 3.09 90 19:31 21.11.2022
943 Clouds 26 1009 90 10000 3.09 90 19:31 21.11.2022
944 Clouds 26 1009 90 10000 3.09 90 19:31 21.11.2022
945 Clouds 26 1009 91 10000 3.6 100 18:46 21.11.2022
946 Rain 27 1009 87 7000 3.09 110 17:26 21.11.2022
947 Rain 27 1010 84 10000 3.09 120 16:41 21.11.2022
948 Clouds 28 1009 83 10000 2.57 110 15:58 21.11.2022
949 Clouds 28 1009 83 10000 2.57 110 15:23 21.11.2022
950 Clouds 28 1009 82 10000 2.06 140 13:53 21.11.2022
951 Clouds 28 1009 82 10000 3.6 110 12:47 21.11.2022
952 Clouds 30 1006 77 10000 3.13 336 09:31 21.11.2022
953 Clouds 30 1007 73 10000 4.92 334 07:43 21.11.2022
954 Rain 25 1009 94 9000 0.51 0 23:47 20.11.2022
955 Rain 25 1007 94 9000 2.06 60 21:36 20.11.2022
956 Thunderstorm 25 1007 95 7000 4.63 80 20:47 20.11.2022
957 Clouds 27 1007 83 10000 1.54 350 18:58 20.11.2022
958 Clouds 27 1008 80 10000 3.6 100 16:50 20.11.2022
959 Clouds 27 1008 80 10000 2.57 90 15:35 20.11.2022
960 Clouds 28 1008 81 10000 2.57 110 14:55 20.11.2022
961 Clouds 28 1008 81 10000 3.6 110 13:58 20.11.2022
962 Clouds 28 1008 81 10000 3.6 110 13:23 20.11.2022
963 Clouds 28 1007 76 10000 4.63 110 11:38 20.11.2022
964 Clouds 29 1007 75 10000 4.63 100 10:57 20.11.2022
965 Clouds 30 1006 72 10000 4.63 110 09:43 20.11.2022
966 Rain 30 1005 74 10000 6.69 100 08:49 20.11.2022
967 Clouds 31 1005 72 10000 5.66 100 07:30 20.11.2022
968 Clouds 31 1006 70 10000 4.63 120 06:43 20.11.2022
969 Clouds 31 1006 70 10000 4.63 120 06:43 20.11.2022
970 Clouds 27 1008 85 10000 2.06 70 01:24 20.11.2022
971 Clouds 26 1008 91 10000 1.54 40 00:44 20.11.2022
972 Clouds 25 1008 92 10000 1.54 40 00:25 20.11.2022
973 Clouds 25 1007 95 10000 3.09 70 23:54 19.11.2022
974 Clouds 24 1007 95 10000 3.09 70 23:25 19.11.2022
975 Clouds 24 1007 93 10000 1.54 50 22:42 19.11.2022
976 Clouds 25 1007 95 10000 1.03 0 21:36 19.11.2022
977 Clouds 25 1007 95 10000 1.03 0 21:18 19.11.2022
978 Clouds 25 1007 95 8000 2.06 70 20:38 19.11.2022
979 Clouds 25 1007 94 6000 1.54 50 19:34 19.11.2022
980 Clouds 25 1008 94 8000 1.34 38 17:42 19.11.2022
981 Clouds 25 1008 94 8000 1.03 0 17:23 19.11.2022
982 Clouds 25 1008 92 9000 1.54 320 16:35 19.11.2022
983 Clouds 25 1009 94 10000 2.06 20 14:40 19.11.2022
984 Rain 25 1008 94 10000 1.54 10 12:42 19.11.2022
985 Rain 25 1007 94 9000 1.03 0 11:19 19.11.2022
986 Rain 25 1006 94 9000 1.54 270 09:32 19.11.2022
987 Rain 26 1007 94 8000 2.06 140 07:52 19.11.2022
988 Rain 28 1009 81 10000 2.68 207 04:43 19.11.2022
989 Clouds 26 1009 84 9000 1.03 0 00:24 19.11.2022
990 Clouds 25 1009 86 9000 1.03 0 23:25 18.11.2022
991 Clouds 25 1008 86 9000 1.03 0 21:54 18.11.2022
992 Clouds 25 1008 85 9000 1.03 0 21:33 18.11.2022
993 Clouds 25 1008 88 10000 1.03 30 20:39 18.11.2022
994 Clouds 25 1008 88 10000 0.51 30 19:47 18.11.2022
995 Clouds 25 1009 88 10000 1.03 0 18:57 18.11.2022
996 Clouds 26 1009 86 10000 1.54 40 17:44 18.11.2022
997 Clouds 27 1009 85 9000 2.06 110 14:33 18.11.2022
998 Clouds 27 1009 84 10000 2.06 60 11:41 18.11.2022
999 Clouds 27 1008 84 9000 8.75 110 09:19 18.11.2022
1000 Rain 27 1008 87 7000 2.06 80 07:51 18.11.2022
1001 Rain 29 1009 79 10000 3.09 100 05:24 18.11.2022
1002 Clouds 27 1010 82 10000 3.09 80 00:51 18.11.2022
1003 Clouds 25 1008 89 10000 0.51 0 22:28 17.11.2022
1004 Rain 25 1007 91 9000 1.54 40 20:46 17.11.2022
1005 Rain 25 1007 90 10000 2.06 360 19:51 17.11.2022
1006 Clouds 25 1008 89 10000 1.54 20 18:50 17.11.2022
1007 Rain 25 1009 90 9000 3.09 50 17:34 17.11.2022
1008 Rain 25 1010 88 7000 6.17 70 16:53 17.11.2022
1009 Clouds 27 1011 83 10000 4.63 100 15:20 17.11.2022
1010 Clouds 29 1008 75 10000 3.09 90 11:24 17.11.2022
1011 Clouds 30 1006 69 10000 3.6 360 08:39 17.11.2022
1012 Clouds 31 1008 71 10000 3.09 140 05:47 17.11.2022
1013 Clouds 26 1009 87 10000 2.57 290 00:22 17.11.2022
1014 Clouds 25 1008 92 10000 1.03 0 22:30 16.11.2022
1015 Clouds 25 1007 91 10000 1.03 0 21:18 16.11.2022
1016 Rain 25 1008 91 8000 2.06 50 19:54 16.11.2022
1017 Rain 25 1009 90 8000 2.06 50 18:45 16.11.2022
1018 Rain 25 1009 92 7000 2.57 100 17:26 16.11.2022
1019 Rain 28 1010 76 10000 3.6 100 14:19 16.11.2022
1020 Clouds 31 1006 66 10000 4.63 120 09:56 16.11.2022
1021 Clouds 33 1007 55 10000 6.17 70 06:38 16.11.2022
1022 Clouds 29 1010 79 10000 3.58 349 01:26 16.11.2022
1023 Clouds 26 1009 90 10000 1.03 0 22:33 15.11.2022
1024 Clouds 25 1007 92 10000 1.03 0 20:45 15.11.2022
1025 Clouds 25 1008 91 10000 1.03 360 19:34 15.11.2022
1026 Clouds 26 1009 87 8000 2.06 100 18:42 15.11.2022
1027 Clouds 27 1009 82 10000 0.51 0 17:21 15.11.2022
1028 Clouds 27 1009 83 10000 2.06 60 16:19 15.11.2022
1029 Clouds 27 1010 82 10000 1.54 140 14:45 15.11.2022
1030 Clouds 29 1009 72 10000 2.06 70 12:59 15.11.2022
1031 Clouds 30 1008 71 10000 3.6 60 11:43 15.11.2022
1032 Clouds 30 1008 71 10000 3.6 60 11:18 15.11.2022
1033 Clouds 31 1006 65 10000 3.09 110 08:35 15.11.2022
1034 Clouds 27 1010 83 10000 1.54 360 00:36 15.11.2022
1035 Clouds 27 1009 83 10000 1.03 70 23:34 14.11.2022
1036 Clouds 27 1008 83 10000 1.03 0 21:30 14.11.2022
1037 Clouds 27 1007 83 10000 2.57 10 20:39 14.11.2022
1038 Clouds 27 1008 83 10000 2.57 10 18:50 14.11.2022
1039 Clouds 28 1009 79 10000 2.57 90 15:51 14.11.2022
1040 Clouds 29 1009 74 10000 2.57 90 12:54 14.11.2022
1041 Clouds 30 1008 70 10000 2.57 90 11:42 14.11.2022
1042 Clouds 32 1006 63 10000 5.66 90 09:28 14.11.2022
1043 Clouds 33 1007 59 10000 6.17 100 07:54 14.11.2022
1044 Clouds 34 1007 59 10000 5.66 110 06:37 14.11.2022
1045 Clouds 27 1010 83 10000 1.03 0 00:18 14.11.2022
1046 Clouds 26 1009 87 9000 1.03 0 21:54 13.11.2022
1047 Clouds 27 1009 86 9000 1.03 0 21:27 13.11.2022
1048 Clouds 27 1009 85 10000 1.54 30 19:44 13.11.2022
1049 Clouds 27 1009 84 10000 2.06 60 18:19 13.11.2022
1050 Clouds 27 1010 84 10000 2.57 50 17:21 13.11.2022
1051 Clouds 28 1010 80 10000 1.54 100 14:58 13.11.2022
1052 Clouds 28 1010 77 10000 2.57 90 13:58 13.11.2022
1053 Clouds 29 1009 76 10000 2.57 50 12:37 13.11.2022
1054 Clouds 30 1008 75 10000 3.09 100 10:58 13.11.2022
1055 Clouds 32 1008 69 10000 3.09 280 07:58 13.11.2022
1056 Clouds 29 1011 75 10000 0.51 0 01:34 13.11.2022
1057 Clouds 26 1009 89 9000 0.51 0 22:29 12.11.2022
1058 Clouds 26 1009 89 9000 0.51 120 21:24 12.11.2022
1059 Clouds 26 1009 88 10000 1.03 30 20:18 12.11.2022
1060 Clouds 27 1010 87 10000 2.06 60 17:57 12.11.2022
1061 Clouds 27 1010 86 10000 1.03 0 16:25 12.11.2022
1062 Clouds 27 1010 85 10000 1.54 90 15:22 12.11.2022
1063 Clouds 29 1010 79 10000 1.54 40 12:27 12.11.2022
1064 Clouds 29 1008 79 10000 1.03 0 09:20 12.11.2022
1065 Clouds 29 1010 80 9000 2.06 30 05:31 12.11.2022
1066 Clouds 26 1008 84 10000 1.03 0 22:31 11.11.2022
1067 Clouds 27 1008 86 10000 1.03 0 20:46 11.11.2022
1068 Clouds 27 1008 86 10000 1.03 0 20:46 11.11.2022
1069 Clouds 27 1008 85 10000 0.51 80 19:44 11.11.2022
1070 Clouds 27 1008 85 10000 0.51 80 19:20 11.11.2022
1071 Clouds 27 1010 84 10000 0.51 0 17:56 11.11.2022
1072 Clouds 27 1010 84 10000 0.51 0 17:56 11.11.2022
1073 Clouds 27 1010 84 10000 0.51 0 17:56 11.11.2022
1074 Clouds 28 1010 80 10000 1.54 0 16:27 11.11.2022
1075 Clouds 29 1010 79 10000 2.06 90 14:20 11.11.2022
1076 Clouds 29 1010 78 10000 3.09 90 13:29 11.11.2022
1077 Clouds 30 1008 73 10000 2.57 100 09:48 11.11.2022
1078 Clouds 31 1008 69 10000 2.68 353 08:27 11.11.2022
1079 Clouds 31 1009 73 10000 4.12 100 05:44 11.11.2022
1080 Clouds 26 1010 89 10000 1.03 0 23:22 10.11.2022
1081 Clouds 26 1009 89 10000 0.51 0 22:35 10.11.2022
1082 Clouds 26 1009 90 10000 0 0 21:33 10.11.2022
1083 Clouds 26 1009 92 10000 1.03 210 20:50 10.11.2022
1084 Rain 26 1009 93 10000 1.03 210 20:21 10.11.2022
1085 Clouds 26 1009 90 10000 1.54 90 19:42 10.11.2022
1086 Rain 26 1010 91 10000 2.06 20 18:32 10.11.2022
1087 Rain 26 1010 90 10000 2.06 100 16:26 10.11.2022
1088 Rain 27 1010 87 10000 4.12 130 13:57 10.11.2022
1089 Clouds 30 1009 71 10000 2.06 100 11:40 10.11.2022
1090 Clouds 31 1008 67 10000 2.06 160 08:44 10.11.2022
1091 Clouds 29 1011 72 8000 1.79 352 01:34 10.11.2022
1092 Clouds 27 1010 84 10000 1.03 0 23:45 09.11.2022
1093 Clouds 26 1010 84 10000 1.03 0 22:38 09.11.2022
1094 Clouds 27 1010 84 10000 1.54 40 20:48 09.11.2022
1095 Clouds 27 1010 84 10000 1.54 40 20:29 09.11.2022
1096 Clouds 27 1010 79 10000 1.03 90 19:43 09.11.2022
1097 Clouds 27 1010 79 10000 1.03 90 19:18 09.11.2022
1098 Clouds 28 1011 80 10000 2.06 120 16:31 09.11.2022
1099 Clouds 28 1011 81 10000 2.06 100 14:48 09.11.2022
1100 Clouds 28 1011 81 10000 2.06 100 14:25 09.11.2022
1101 Clouds 28 1010 79 10000 1.54 90 13:30 09.11.2022
1102 Clouds 29 1009 78 10000 2.57 60 11:46 09.11.2022
1103 Clouds 32 1008 61 10000 3.6 120 08:44 09.11.2022
1104 Clouds 32 1008 59 10000 3.6 110 07:46 09.11.2022
1105 Clouds 32 1008 59 10000 3.6 110 07:46 09.11.2022
1106 Clouds 32 1008 59 10000 3.6 110 07:46 09.11.2022
1107 Clouds 27 1011 77 10000 1.34 9 01:44 09.11.2022
1108 Clouds 25 1009 84 10000 1.03 0 21:49 08.11.2022
1109 Clouds 26 1009 84 10000 1.03 0 21:31 08.11.2022
1110 Clouds 25 1009 85 10000 0 0 20:41 08.11.2022
1111 Clouds 26 1009 81 10000 2.06 350 19:40 08.11.2022
1112 Clouds 26 1010 81 10000 1.54 100 18:57 08.11.2022
1113 Clouds 26 1010 81 10000 1.54 110 17:26 08.11.2022
1114 Clouds 27 1011 78 10000 1.54 120 14:56 08.11.2022
1115 Clouds 27 1011 78 10000 1.54 110 13:44 08.11.2022
1116 Clouds 27 1011 77 10000 1.54 110 13:25 08.11.2022
1117 Rain 30 1008 66 10000 2.57 110 09:46 08.11.2022
1118 Clouds 30 1009 70 10000 3.6 100 07:25 08.11.2022
1119 Clouds 27 1010 84 10000 0 0 00:34 08.11.2022
1120 Clouds 27 1009 86 10000 0 0 22:44 07.11.2022
1121 Clouds 27 1008 82 10000 0.51 0 21:32 07.11.2022
1122 Clouds 27 1008 82 10000 0.51 40 20:40 07.11.2022
1123 Clouds 27 1009 83 10000 2.06 80 18:53 07.11.2022
1124 Clouds 28 1009 80 10000 2.06 100 17:28 07.11.2022
1125 Clouds 28 1010 78 10000 2.06 110 15:35 07.11.2022
1126 Clouds 28 1010 79 10000 2.57 100 14:49 07.11.2022
1127 Clouds 29 1009 77 10000 2.06 110 12:55 07.11.2022
1128 Clouds 29 1008 76 10000 4.12 100 11:44 07.11.2022
1129 Clouds 31 1007 68 10000 3.09 100 09:49 07.11.2022
1130 Clouds 31 1008 69 10000 2.57 10 07:53 07.11.2022
1131 Clouds 32 1010 62 10000 1.79 336 04:27 07.11.2022
1132 Clouds 28 1011 73 10000 1.03 0 01:42 07.11.2022
1133 Clouds 26 1009 84 10000 0 0 22:31 06.11.2022
1134 Clouds 26 1009 82 10000 1.54 0 21:21 06.11.2022
1135 Clouds 26 1009 84 10000 1.54 10 20:32 06.11.2022
1136 Clouds 26 1010 85 10000 2.06 100 19:55 06.11.2022
1137 Clouds 27 1010 84 10000 1.54 90 18:41 06.11.2022
1138 Clouds 27 1010 84 10000 1.54 90 18:41 06.11.2022
1139 Clouds 27 1010 83 10000 1.54 90 18:19 06.11.2022
1140 Clouds 27 1010 79 10000 1.54 110 17:22 06.11.2022
1141 Clouds 27 1011 80 10000 0 0 16:40 06.11.2022
1142 Clouds 27 1011 81 10000 2.06 100 15:53 06.11.2022
1143 Clouds 28 1011 79 10000 2.06 100 14:24 06.11.2022
1144 Clouds 28 1010 73 10000 2.06 100 12:39 06.11.2022
1145 Clouds 28 1009 74 10000 3.6 120 10:48 06.11.2022
1146 Clouds 30 1008 69 10000 4.12 140 08:30 06.11.2022
1147 Clouds 29 1013 71 10000 3.13 51 02:19 06.11.2022
1148 Clouds 26 1011 90 9000 1.03 40 23:22 05.11.2022
1149 Clouds 26 1010 89 10000 1.03 0 19:43 05.11.2022
1150 Clouds 26 1012 88 10000 1.03 340 17:45 05.11.2022
1151 Clouds 27 1012 83 10000 0.51 0 16:21 05.11.2022
1152 Clouds 27 1012 85 10000 1.54 80 14:33 05.11.2022
1153 Clouds 27 1012 83 10000 2.06 110 12:51 05.11.2022
1154 Rain 26 1010 85 10000 2.06 120 10:31 05.11.2022
1155 Thunderstorm 26 1011 89 8000 1.03 0 08:47 05.11.2022
1156 Clouds 32 1010 67 10000 4.02 359 06:57 05.11.2022
1157 Clouds 30 1012 67 10000 2.57 290 03:49 05.11.2022
1158 Clouds 25 1012 89 10000 0.89 15 23:35 04.11.2022
1159 -273 0 0 0 0 0 22:31 04.11.2022
1160 Clouds 26 1010 83 10000 1.54 10 20:20 04.11.2022
1161 Clouds 26 1012 85 10000 1.54 180 17:46 04.11.2022
1162 Clouds 27 1013 84 10000 1.03 0 16:34 04.11.2022
1163 Clouds 27 1013 82 10000 3.6 120 13:39 04.11.2022
1164 Clouds 27 1011 84 10000 3.09 110 12:25 04.11.2022
1165 Clouds 28 1010 84 10000 3.09 120 09:41 04.11.2022
1166 Rain 28 1011 81 10000 1.54 360 08:29 04.11.2022
1167 Thunderstorm 27 1011 82 8000 3.09 340 07:41 04.11.2022
1168 Clouds 28 1012 80 9000 1.54 110 01:35 04.11.2022
1169 Clouds 25 1010 89 8000 1.03 0 22:44 03.11.2022
1170 Clouds 26 1010 88 8000 1.54 10 20:49 03.11.2022
1171 Clouds 26 1010 90 8000 1.54 30 19:44 03.11.2022
1172 Clouds 26 1010 87 9000 2.68 5 18:46 03.11.2022
1173 Clouds 26 1011 87 9000 1.54 40 17:40 03.11.2022
1174 Clouds 27 1011 89 8000 2.68 359 15:49 03.11.2022
1175 Rain 27 1011 87 8000 1.03 0 13:51 03.11.2022
1176 Rain 28 1011 84 8000 3.58 191 12:35 03.11.2022
1177 Thunderstorm 29 1010 79 7000 3.13 210 11:43 03.11.2022
1178 Clouds 31 1008 63 8000 3.09 110 08:51 03.11.2022
1179 Clouds 31 1009 70 8000 2.57 140 06:47 03.11.2022
1180 Clouds 26 1008 89 8000 0.51 0 20:57 02.11.2022
1181 Clouds 26 1008 89 8000 0.51 0 20:33 02.11.2022
1182 Clouds 26 1009 90 8000 1.03 120 18:58 02.11.2022
1183 Clouds 27 1010 91 9000 0.51 120 16:31 02.11.2022
1184 Clouds 27 1010 87 10000 0.51 0 15:35 02.11.2022
1185 Clouds 27 1010 89 10000 1.03 0 13:26 02.11.2022
1186 Clouds 27 1009 90 8000 1.54 240 12:35 02.11.2022
1187 Clouds 29 1008 76 10000 4.12 250 10:25 02.11.2022
1188 Clouds 30 1007 76 10000 5.36 206 08:41 02.11.2022
1189 Clouds 29 1009 76 10000 1.54 0 02:56 02.11.2022
1190 Clouds 25 1008 92 9000 1.54 130 22:53 01.11.2022
1191 Clouds 25 1008 92 9000 1.54 130 22:18 01.11.2022
1192 Clouds 26 1007 90 9000 1.54 120 21:20 01.11.2022
1193 Clouds 26 1007 90 9000 1.54 120 21:20 01.11.2022
1194 Clouds 26 1007 89 9000 1.03 80 20:23 01.11.2022
1195 Clouds 26 1007 89 9000 1.03 80 20:23 01.11.2022
1196 Clouds 26 1007 88 9000 1.54 90 19:41 01.11.2022
1197 Clouds 26 1007 89 10000 2.06 80 18:26 01.11.2022
1198 Clouds 27 1008 86 10000 1.54 100 16:48 01.11.2022
1199 Clouds 27 1008 82 10000 1.03 0 14:45 01.11.2022
1200 Clouds 28 1008 80 10000 1.03 0 13:20 01.11.2022
1201 Clouds 28 1007 78 10000 1.03 0 12:26 01.11.2022
1202 Clouds 28 1006 80 10000 1.34 213 11:20 01.11.2022
1203 Clouds 29 1005 80 10000 3.13 203 09:24 01.11.2022
1204 Clouds 29 1005 78 10000 5.14 240 07:53 01.11.2022
1205 Clouds 30 1005 76 10000 6.71 226 07:28 01.11.2022
1206 Clouds 30 1006 74 10000 4.47 179 06:46 01.11.2022
1207 Clouds 30 1006 75 10000 6.69 230 05:23 01.11.2022
1208 Clouds 26 1005 91 10000 2.06 130 22:44 31.10.2022
1209 Clouds 26 1004 91 10000 1.54 100 21:33 31.10.2022
1210 Clouds 26 1004 87 10000 1.03 0 19:57 31.10.2022
1211 Clouds 26 1004 86 10000 2.06 150 18:42 31.10.2022
1212 Clouds 26 1005 85 10000 2.57 150 16:44 31.10.2022
1213 Clouds 26 1005 88 10000 1.54 190 15:35 31.10.2022
1214 Clouds 27 1004 84 10000 2.06 150 12:30 31.10.2022
1215 Clouds 30 1002 73 10000 3.6 200 09:36 31.10.2022
1216 Clouds 29 1001 78 10000 3.13 171 07:35 31.10.2022
1217 Clouds 28 1002 82 10000 5.14 130 02:47 31.10.2022
1218 Rain 28 1002 87 10000 4.63 120 01:48 31.10.2022
1219 Clouds 26 1000 88 9000 4.63 150 22:20 30.10.2022
1220 Clouds 27 1000 87 9000 4.12 130 20:39 30.10.2022
1221 Rain 27 999 87 9000 5.14 140 19:36 30.10.2022
1222 Rain 27 1000 89 10000 4.63 130 16:37 30.10.2022
1223 Clouds 27 1000 91 10000 4.63 130 14:43 30.10.2022
1224 Rain 27 1000 92 8000 2.57 140 13:50 30.10.2022
1225 Rain 27 999 89 10000 4.12 130 12:24 30.10.2022
1226 Rain 28 998 80 10000 4.12 140 10:25 30.10.2022
1227 Clouds 29 997 83 10000 4.92 184 09:24 30.10.2022
1228 Rain 30 997 72 10000 2.68 163 07:55 30.10.2022
1229 Rain 25 997 92 9000 3.6 120 00:29 30.10.2022
1230 Rain 25 996 96 8000 3.6 130 23:47 29.10.2022
1231 Rain 25 995 94 9000 5.66 120 22:31 29.10.2022
1232 Rain 24 994 94 10000 4.63 170 19:38 29.10.2022
1233 Rain 24 994 97 3000 7.2 200 17:23 29.10.2022
1234 Rain 24 991 97 3000 10.8 230 15:39 29.10.2022
1235 Rain 25 989 97 5000 13.89 240 14:54 29.10.2022
1236 Rain 25 987 97 5000 11.18 353 13:45 29.10.2022
1237 Rain 25 986 96 6000 11.18 358 12:32 29.10.2022
1238 Rain 25 989 94 7000 8.23 330 09:32 29.10.2022
1239 Rain 25 993 95 6000 10.28 342 06:51 29.10.2022
1240 Rain 25 994 94 8000 7.2 340 05:54 29.10.2022
1241 Rain 25 997 95 8000 6.17 330 23:44 28.10.2022
1242 Rain 25 998 91 7000 6.69 340 21:37 28.10.2022
1243 Rain 25 999 88 9000 4.02 357 19:59 28.10.2022
1244 Rain 26 1000 85 9000 4.63 0 18:33 28.10.2022
1245 Rain 26 1001 86 8000 3.6 330 17:52 28.10.2022
1246 Rain 27 1002 88 7000 2.24 11 15:18 28.10.2022
1247 Rain 27 1001 90 7000 3.09 280 13:43 28.10.2022
1248 Rain 26 1002 93 8000 1.03 0 11:55 28.10.2022
1249 Rain 26 1002 93 8000 1.79 343 11:32 28.10.2022
1250 Rain 26 1002 92 4000 1.54 130 10:45 28.10.2022
1251 Rain 27 1001 86 8000 2.06 20 09:37 28.10.2022
1252 Rain 28 1001 79 9000 4.02 347 07:19 28.10.2022
1253 Clouds 28 1004 73 10000 4.12 330 02:30 28.10.2022
1254 Clouds 27 1003 86 10000 3.6 340 23:47 27.10.2022
1255 Clouds 27 1003 86 10000 4.02 6 22:37 27.10.2022
1256 Clouds 27 1004 84 10000 2.57 340 20:58 27.10.2022
1257 Clouds 28 1005 82 10000 3.6 270 18:31 27.10.2022
1258 Clouds 28 1007 80 10000 1.03 0 17:22 27.10.2022
1259 Clouds 30 1005 67 10000 2.06 140 12:54 27.10.2022
1260 Clouds 33 1005 56 10000 4.92 338 07:50 27.10.2022
1261 Clouds 28 1007 68 10000 3.6 350 02:55 27.10.2022
1262 Clouds 26 1006 79 10000 2.24 9 23:53 26.10.2022
1263 Clouds 26 1006 76 10000 2.57 20 22:43 26.10.2022
1264 Clouds 27 1006 76 10000 3.09 20 21:38 26.10.2022
1265 Clouds 27 1007 76 10000 3.13 3 18:28 26.10.2022
1266 Clouds 28 1008 75 10000 2.24 81 14:54 26.10.2022
1267 Clouds 29 1008 70 10000 2.06 100 13:34 26.10.2022
1268 Clouds 29 1007 70 10000 2.68 85 12:32 26.10.2022
1269 Clouds 31 1006 61 10000 4.63 40 09:20 26.10.2022
1270 Clouds 32 1006 60 10000 5.14 50 08:53 26.10.2022
1271 Clouds 32 1007 63 10000 3.6 270 07:30 26.10.2022
1272 Clouds 25 1008 92 9000 1.03 0 00:38 26.10.2022
1273 Clouds 25 1007 93 8000 2.06 220 22:59 25.10.2022
1274 Clouds 24 1007 96 8000 1.54 220 21:46 25.10.2022
1275 Rain 25 1008 94 8000 1.54 160 20:46 25.10.2022
1276 Clouds 24 1009 92 6000 1.03 0 18:57 25.10.2022
1277 Rain 24 1010 97 6000 2.06 40 17:49 25.10.2022
1278 Rain 24 1009 97 7000 0.51 0 13:26 25.10.2022
1279 Rain 25 1010 94 8000 3.6 60 11:38 25.10.2022
1280 Rain 25 1009 94 9000 3.6 40 10:36 25.10.2022
1281 Rain 26 1009 94 9000 2.06 40 08:43 25.10.2022
1282 Rain 26 1008 89 9000 2.06 40 08:18 25.10.2022
1283 Rain 26 1009 89 9000 2.06 0 07:54 25.10.2022
1284 Rain 27 1010 89 8000 2.24 13 06:53 25.10.2022
1285 Clouds 30 1010 71 10000 1.03 0 03:35 25.10.2022
1286 Clouds 27 1009 82 10000 1.03 0 00:33 25.10.2022
1287 Clouds 28 1007 79 10000 0 0 22:29 24.10.2022
1288 Clouds 28 1007 78 10000 2.06 330 21:50 24.10.2022
1289 Clouds 28 1007 78 10000 2.06 330 21:32 24.10.2022
1290 Clouds 28 1007 75 10000 0.51 0 20:41 24.10.2022
1291 Clouds 28 1008 78 10000 0.51 0 18:52 24.10.2022
1292 Clouds 29 1009 76 10000 2.57 80 16:59 24.10.2022
1293 Clouds 29 1009 74 10000 2.57 90 15:51 24.10.2022
1294 Clouds 29 1009 72 10000 3.09 100 14:21 24.10.2022
1295 Clouds 30 1007 68 10000 4.12 80 12:53 24.10.2022
1296 Clouds 32 1005 69 10000 4.47 200 09:42 24.10.2022
1297 Clouds 32 1007 66 10000 3.09 100 07:56 24.10.2022
1298 Clouds 26 1007 87 10000 2.06 10 23:45 23.10.2022
1299 Clouds 27 1007 85 10000 1.34 8 20:41 23.10.2022
1300 Clouds 28 1008 82 10000 1.03 0 19:29 23.10.2022
1301 Clouds 28 1009 81 10000 2.24 62 17:30 23.10.2022
1302 Clouds 28 1009 84 10000 1.03 0 16:37 23.10.2022
1303 Clouds 28 1009 84 10000 1.54 130 15:19 23.10.2022
1304 Clouds 29 1007 79 10000 3.09 130 12:21 23.10.2022
1305 Clouds 29 1007 82 10000 2.57 90 10:58 23.10.2022
1306 Clouds 33 1008 62 10000 2.57 150 06:36 23.10.2022
1307 Clouds 27 1009 86 9000 1.03 0 23:26 22.10.2022
1308 Clouds 27 1009 84 10000 1.54 310 22:30 22.10.2022
1309 Clouds 27 1008 84 10000 1.54 80 21:40 22.10.2022
1310 Clouds 28 1009 81 10000 1.03 0 20:25 22.10.2022
1311 Clouds 28 1009 80 10000 1.54 100 19:31 22.10.2022
1312 Clouds 28 1010 81 10000 2.06 140 17:41 22.10.2022
1313 Clouds 28 1010 81 10000 2.06 110 16:50 22.10.2022
1314 Clouds 29 1010 77 10000 2.57 100 14:57 22.10.2022
1315 Clouds 29 1010 78 10000 2.57 100 14:31 22.10.2022
1316 Clouds 31 1008 74 10000 3.13 76 11:35 22.10.2022
1317 Clouds 32 1007 68 9000 2.57 120 09:46 22.10.2022
1318 Rain 33 1008 64 10000 3.6 100 08:37 22.10.2022
1319 Clouds 32 1011 65 10000 4.02 15 05:50 22.10.2022
1320 Rain 27 1011 87 9000 1.54 0 00:31 22.10.2022
1321 Clouds 26 1009 88 9000 1.54 60 22:52 21.10.2022
1322 Clouds 27 1009 88 10000 1.54 110 21:32 21.10.2022
1323 Rain 27 1010 86 10000 2.06 90 20:27 21.10.2022
1324 Clouds 28 1011 84 10000 1.54 130 18:27 21.10.2022
1325 Clouds 29 1011 81 9000 2.57 230 14:40 21.10.2022
1326 Thunderstorm 29 1010 82 9000 1.54 210 13:39 21.10.2022
1327 Clouds 30 1009 76 9000 2.57 270 11:46 21.10.2022
1328 Clouds 31 1008 70 10000 2.06 100 10:24 21.10.2022
1329 Rain 31 1008 72 9000 3.13 201 08:45 21.10.2022
1330 Rain 31 1008 73 10000 0.45 38 08:20 21.10.2022
1331 Clouds 29 1012 76 9000 1.79 196 03:52 21.10.2022
1332 Clouds 26 1010 90 9000 0 0 23:23 20.10.2022
1333 Clouds 26 1009 91 10000 2.06 10 20:57 20.10.2022
1334 Clouds 26 1009 90 10000 1.54 30 19:43 20.10.2022
1335 Clouds 26 1010 88 10000 1.03 0 18:34 20.10.2022
1336 Clouds 27 1011 88 10000 2.06 30 17:38 20.10.2022
1337 Clouds 27 1010 86 9000 0.51 0 13:47 20.10.2022
1338 Clouds 27 1010 86 9000 0 0 12:32 20.10.2022
1339 Clouds 27 1009 87 9000 1.03 0 11:29 20.10.2022
1340 Clouds 27 1009 84 8500 0.2 120 10:51 20.10.2022
1341 Clouds 28 1009 78 9000 3.6 30 09:22 20.10.2022
1342 Clouds 30 1009 75 10000 2.06 0 06:24 20.10.2022
1343 Clouds 26 1011 88 9000 0.89 3 01:59 20.10.2022
1344 Clouds 25 1009 92 8000 1.34 1 22:53 19.10.2022
1345 Rain 25 1008 92 8000 2.24 356 22:23 19.10.2022
1346 Rain 25 1009 94 8000 1.03 40 21:20 19.10.2022
1347 Rain 26 1010 92 7000 1.03 70 19:53 19.10.2022
1348 Rain 26 1010 87 8000 3.6 90 17:44 19.10.2022
1349 Rain 27 1010 88 10000 4.63 90 16:22 19.10.2022
1350 Rain 27 1010 89 9000 1.03 0 14:20 19.10.2022
1351 Rain 28 1007 85 8000 2.57 60 11:42 19.10.2022
1352 Clouds 29 1006 76 10000 5.14 330 08:47 19.10.2022
1353 Clouds 32 1007 62 9000 5.66 350 07:22 19.10.2022
1354 Clouds 26 1008 87 7000 1.54 0 01:32 19.10.2022
1355 Clouds 25 1006 93 7000 1.54 30 23:22 18.10.2022
1356 Clouds 25 1006 93 6000 1.03 0 21:49 18.10.2022
1357 Clouds 25 1006 93 6000 1.03 0 21:49 18.10.2022
1358 Thunderstorm 25 1006 96 4500 2.06 230 21:19 18.10.2022
1359 Rain 26 1007 87 8000 2.57 230 20:24 18.10.2022
1360 Clouds 27 1007 87 9000 2.68 18 18:55 18.10.2022
1361 Clouds 29 1007 81 10000 0.51 0 16:56 18.10.2022
1362 Clouds 29 1007 79 10000 1.03 0 14:59 18.10.2022
1363 Clouds 29 1006 78 10000 3.13 191 13:38 18.10.2022
1364 Rain 30 1005 76 10000 5.36 215 11:39 18.10.2022
1365 Clouds 31 1004 75 10000 6.71 196 10:24 18.10.2022
1366 Rain 31 1004 68 10000 4.12 230 08:40 18.10.2022
1367 Clouds 32 1006 65 10000 4.92 199 05:45 18.10.2022
1368 Clouds 32 1006 65 10000 4.92 199 05:45 18.10.2022
1369 Clouds 27 1005 85 10000 0 0 23:25 17.10.2022
1370 Clouds 27 1004 84 10000 0 0 21:28 17.10.2022
1371 Rain 27 1005 84 10000 1.03 220 20:45 17.10.2022
1372 Clouds 27 1005 84 10000 1.03 220 20:27 17.10.2022
1373 Clouds 27 1005 84 10000 1.03 0 19:37 17.10.2022
1374 Clouds 28 1006 83 10000 1.03 0 17:38 17.10.2022
1375 Clouds 27 1006 83 10000 1.03 0 15:54 17.10.2022
1376 Rain 27 1006 83 10000 1.54 220 14:35 17.10.2022
1377 Clouds 27 1004 85 10000 3.6 250 12:29 17.10.2022
1378 Clouds 29 1004 82 8000 7.6 210 07:25 17.10.2022
1379 Clouds 27 1005 90 10000 1.79 140 00:27 17.10.2022
1380 Clouds 27 1004 88 10000 2.06 230 22:25 16.10.2022
1381 Clouds 27 1005 85 9000 3.6 220 20:59 16.10.2022
1382 Clouds 27 1005 85 10000 3.6 220 19:50 16.10.2022
1383 Clouds 28 1005 84 10000 3.13 181 18:35 16.10.2022
1384 Clouds 28 1006 82 10000 3.13 218 17:41 16.10.2022
1385 Clouds 29 1005 80 10000 4.47 200 15:59 16.10.2022
1386 Clouds 29 1005 79 10000 4.92 208 15:41 16.10.2022
1387 Clouds 29 1004 79 10000 6.17 250 12:25 16.10.2022
1388 Clouds 31 1003 72 10000 6.69 260 10:28 16.10.2022
1389 Clouds 31 1003 70 10000 8.23 260 09:39 16.10.2022
1390 Clouds 31 1004 71 10000 8.75 250 03:22 16.10.2022
1391 Clouds 29 1002 77 10000 5.14 260 23:41 15.10.2022
1392 Clouds 29 1002 76 10000 6.17 270 21:29 15.10.2022
1393 Clouds 29 1002 76 10000 6.17 270 21:29 15.10.2022
1394 Rain 29 1002 73 10000 6.69 260 20:57 15.10.2022
1395 Clouds 29 1003 74 10000 6.17 260 19:30 15.10.2022
1396 Clouds 29 1003 72 10000 5.66 280 16:18 15.10.2022
1397 Clouds 29 1004 75 10000 6.17 280 15:43 15.10.2022
1398 Clouds 30 1002 74 10000 4.92 16 13:18 15.10.2022
1399 Clouds 31 1002 72 10000 8.75 240 11:37 15.10.2022
1400 Clouds 33 1001 66 10000 10.29 250 09:22 15.10.2022
1401 Clouds 31 1004 66 10000 5.14 270 05:46 15.10.2022
1402 Clouds 28 1005 82 10000 4.12 320 00:40 15.10.2022
1403 Clouds 28 1004 83 10000 3.6 300 22:25 14.10.2022
1404 Clouds 28 1003 82 10000 3.6 300 21:37 14.10.2022
1405 Rain 28 1004 80 10000 4.12 310 20:27 14.10.2022
1406 Thunderstorm 29 1005 80 10000 7.2 260 17:21 14.10.2022
1407 Clouds 29 1005 79 10000 5.14 240 15:30 14.10.2022
1408 Rain 30 1005 70 9000 4.12 300 12:45 14.10.2022
1409 Clouds 31 1003 75 9000 7.2 260 10:36 14.10.2022
1410 Clouds 32 1003 68 9000 7.6 198 08:25 14.10.2022
1411 Clouds 31 1005 73 9000 7.15 180 06:18 14.10.2022
1412 Clouds 31 1005 73 7000 7.15 180 05:59 14.10.2022
1413 Clouds 31 1005 68 7000 5.36 181 05:41 14.10.2022
1414 Clouds 27 1007 87 7000 1.54 40 01:30 14.10.2022
1415 Rain 28 1005 82 9000 1.34 64 23:18 13.10.2022
1416 Clouds 28 1005 82 9000 1.54 230 21:30 13.10.2022
1417 Clouds 28 1006 81 9000 1.03 0 20:19 13.10.2022
1418 Clouds 28 1006 81 9000 2.06 160 19:39 13.10.2022
1419 Rain 28 1006 82 9000 2.06 110 18:44 13.10.2022
1420 Clouds 28 1006 81 9000 2.06 130 17:46 13.10.2022
1421 Clouds 28 1006 84 9000 2.06 130 15:48 13.10.2022
1422 Clouds 29 1006 81 10000 2.57 150 14:29 13.10.2022
1423 Clouds 28 1005 80 10000 1.54 150 12:56 13.10.2022
1424 Clouds 29 1004 76 10000 1.54 70 11:39 13.10.2022
1425 Rain 27 1005 94 9000 4.63 20 09:46 13.10.2022
1426 Thunderstorm 30 1004 80 9000 4.12 10 08:33 13.10.2022
1427 Rain 32 1004 70 8000 2.57 280 07:36 13.10.2022
1428 Clouds 28 1006 78 10000 0.45 29 02:00 13.10.2022
1429 Clouds 28 1006 82 10000 2.06 130 01:28 13.10.2022
1430 Clouds 28 1005 82 10000 1.54 80 22:58 12.10.2022
1431 Clouds 28 1005 81 10000 1.54 80 22:37 12.10.2022
1432 Rain 28 1005 79 10000 0.51 0 21:22 12.10.2022
1433 Rain 28 1005 79 10000 1.03 230 20:53 12.10.2022
1434 Rain 28 1005 80 10000 1.03 230 20:23 12.10.2022
1435 Clouds 29 1006 76 10000 1.03 230 18:26 12.10.2022
1436 Rain 29 1006 79 10000 2.06 220 17:50 12.10.2022
1437 Clouds 29 1006 78 10000 1.54 190 15:50 12.10.2022
1438 Clouds 30 1005 73 10000 3.58 192 13:57 12.10.2022
1439 Clouds 30 1005 74 10000 2.57 220 13:22 12.10.2022
1440 Clouds 31 1003 71 10000 10.73 179 09:45 12.10.2022
1441 Clouds 32 1004 65 10000 5.66 250 07:59 12.10.2022
1442 Clouds 32 1004 64 10000 5.66 250 07:41 12.10.2022
1443 Clouds 31 1005 63 8000 4.47 204 06:43 12.10.2022
1444 Clouds 28 1005 81 8000 1.34 51 01:32 12.10.2022
1445 Clouds 27 1003 82 10000 1.54 30 22:39 11.10.2022
1446 Clouds 27 1004 83 10000 0.51 0 20:54 11.10.2022
1447 Rain 27 1005 78 10000 1.03 0 19:43 11.10.2022
1448 Rain 28 1006 85 10000 3.09 70 16:50 11.10.2022
1449 Clouds 29 1005 78 10000 3.6 230 14:48 11.10.2022
1450 Clouds 29 1004 78 10000 5.81 188 13:23 11.10.2022
1451 Clouds 31 1003 72 10000 7.6 201 10:29 11.10.2022
1452 Clouds 32 1003 66 10000 7.15 192 09:36 11.10.2022
1453 Clouds 33 1003 61 10000 6.69 260 07:53 11.10.2022
1454 Clouds 29 1007 71 10000 2.06 0 02:35 11.10.2022
1455 Clouds 27 1006 75 10000 2.24 3 00:31 11.10.2022
1456 Clouds 27 1006 80 10000 2.06 320 21:37 10.10.2022
1457 Clouds 28 1007 76 10000 2.06 340 19:59 10.10.2022
1458 Clouds 28 1008 77 10000 1.79 3 18:38 10.10.2022
1459 Clouds 29 1008 75 10000 1.54 200 17:23 10.10.2022
1460 Clouds 29 1008 74 10000 2.06 220 15:58 10.10.2022
1461 Clouds 30 1006 70 10000 4.12 240 12:54 10.10.2022
1462 Clouds 30 1006 72 10000 4.12 240 12:21 10.10.2022
1463 Clouds 34 1005 56 10000 5.14 270 09:22 10.10.2022
1464 Clouds 33 1007 59 10000 4.92 334 05:45 10.10.2022
1465 Clouds 33 1008 61 10000 4.12 280 05:21 10.10.2022
1466 Clouds 27 1009 78 10000 1.54 0 00:34 10.10.2022
1467 Clouds 27 1008 76 10000 1.54 50 23:31 09.10.2022
1468 Clouds 27 1008 78 10000 1.03 0 22:20 09.10.2022
1469 Clouds 27 1008 76 10000 1.54 340 21:26 09.10.2022
1470 Clouds 28 1008 75 10000 2.06 350 20:30 09.10.2022
1471 Clouds 28 1009 74 10000 1.54 210 19:47 09.10.2022
1472 Clouds 28 1009 71 10000 1.54 10 18:45 09.10.2022
1473 Clouds 29 1009 71 10000 2.06 130 17:32 09.10.2022
1474 Clouds 29 1009 70 10000 1.54 110 16:37 09.10.2022
1475 Clouds 29 1009 67 10000 2.57 110 15:45 09.10.2022
1476 Clouds 29 1009 64 10000 2.57 80 14:34 09.10.2022
1477 Clouds 30 1008 64 10000 1.54 100 13:51 09.10.2022
1478 Clouds 31 1008 59 10000 1.54 50 12:46 09.10.2022
1479 Clouds 32 1007 64 10000 2.57 160 10:52 09.10.2022
1480 Clouds 33 1007 61 10000 2.57 0 08:31 09.10.2022
1481 Clouds 31 1010 71 10000 1.03 0 04:19 09.10.2022
1482 Clouds 30 1011 66 10000 1.54 0 03:19 09.10.2022
1483 Clouds 26 1010 82 10000 0.51 0 00:40 09.10.2022
1484 Clouds 26 1008 81 10000 1.03 0 23:19 08.10.2022
1485 Clouds 26 1008 82 10000 0.89 339 22:24 08.10.2022
1486 Clouds 27 1009 82 10000 1.03 100 20:31 08.10.2022
1487 Clouds 27 1009 81 10000 1.03 360 19:22 08.10.2022
1488 Clouds 28 1010 76 10000 1.54 80 17:39 08.10.2022
1489 Clouds 29 1010 74 10000 2.57 100 15:26 08.10.2022
1490 Clouds 29 1008 69 10000 2.68 77 13:32 08.10.2022
1491 Clouds 31 1007 64 10000 3.6 110 10:48 08.10.2022
1492 Clouds 32 1007 66 10000 3.6 110 10:25 08.10.2022
1493 Clouds 32 1007 63 10000 3.09 130 09:19 08.10.2022
1494 Clouds 30 1010 70 10000 3.09 110 05:31 08.10.2022
1495 Clouds 27 1010 82 10000 1.03 0 00:59 08.10.2022
1496 Clouds 27 1009 82 10000 0.51 0 23:39 07.10.2022
1497 Clouds 27 1009 82 10000 0.51 0 23:20 07.10.2022
1498 Clouds 27 1009 81 10000 1.54 90 21:48 07.10.2022
1499 Clouds 28 1010 79 10000 1.54 50 19:56 07.10.2022
1500 Clouds 28 1010 77 10000 2.57 100 17:54 07.10.2022
1501 Clouds 28 1010 76 10000 3.09 110 16:50 07.10.2022
1502 Clouds 28 1010 75 10000 3.09 90 15:26 07.10.2022
1503 Clouds 29 1009 75 10000 2.57 110 13:55 07.10.2022
1504 Clouds 30 1007 74 10000 3.09 100 11:29 07.10.2022
1505 Rain 31 1007 66 10000 4.12 100 09:25 07.10.2022
1506 Rain 30 1008 70 10000 3.6 80 08:21 07.10.2022
1507 Clouds 30 1010 69 10000 1.03 0 02:52 07.10.2022
1508 Clouds 27 1008 81 10000 1.03 0 22:54 06.10.2022
1509 Clouds 27 1008 80 10000 1.54 70 21:57 06.10.2022
1510 Clouds 27 1009 80 10000 1.54 70 21:36 06.10.2022
1511 Clouds 28 1009 76 10000 2.06 80 20:39 06.10.2022
1512 Clouds 28 1010 76 10000 2.06 90 18:56 06.10.2022
1513 Clouds 28 1010 76 10000 2.06 90 18:32 06.10.2022
1514 Clouds 29 1010 74 10000 2.06 100 15:38 06.10.2022
1515 Clouds 30 1009 69 10000 2.57 90 12:59 06.10.2022
1516 Clouds 34 1006 56 10000 4.12 90 09:27 06.10.2022
1517 Clouds 31 1010 67 10000 4.02 205 04:42 06.10.2022
1518 Clouds 26 1010 80 10000 1.54 40 00:51 06.10.2022
1519 Clouds 27 1009 84 10000 0 0 21:54 05.10.2022
1520 Clouds 28 1009 80 10000 2.06 110 19:44 05.10.2022
1521 Clouds 28 1010 77 10000 2.06 100 17:37 05.10.2022
1522 Clouds 28 1010 76 10000 3.09 100 16:40 05.10.2022
1523 Clouds 29 1010 72 10000 3.6 100 14:57 05.10.2022
1524 Clouds 29 1010 73 10000 3.6 100 14:23 05.10.2022
1525 Rain 30 1008 72 10000 3.09 100 12:43 05.10.2022
1526 Clouds 31 1007 68 10000 2.06 300 10:48 05.10.2022
1527 Clouds 31 1008 72 10000 3.58 190 08:23 05.10.2022
1528 Clouds 32 1009 69 9000 6.26 208 06:36 05.10.2022
1529 Clouds 32 1010 68 10000 2.57 0 05:31 05.10.2022
1530 Clouds 30 1011 73 10000 2.68 2 02:29 05.10.2022
1531 Clouds 26 1010 85 10000 1.54 30 00:28 05.10.2022
1532 Clouds 27 1009 83 10000 1.54 360 22:54 04.10.2022
1533 Clouds 27 1009 82 10000 1.54 10 20:44 04.10.2022
1534 Clouds 28 1009 82 10000 1.54 70 19:49 04.10.2022
1535 Clouds 28 1010 82 10000 1.54 130 18:51 04.10.2022
1536 Clouds 28 1010 79 10000 2.57 90 17:53 04.10.2022
1537 Clouds 28 1010 79 10000 2.57 100 16:51 04.10.2022
1538 Clouds 29 1009 76 10000 3.09 110 13:59 04.10.2022
1539 Clouds 33 1007 66 10000 3.13 357 09:57 04.10.2022
1540 Clouds 31 1008 70 10000 2.57 140 07:48 04.10.2022
1541 Clouds 30 1010 71 10000 2.57 100 04:42 04.10.2022
1542 Clouds 26 1009 90 10000 1.03 0 23:48 03.10.2022
1543 Clouds 26 1009 87 10000 0 0 22:19 03.10.2022
1544 Clouds 26 1009 87 10000 1.03 0 21:26 03.10.2022
1545 Clouds 26 1009 88 10000 0 0 20:33 03.10.2022
1546 Clouds 27 1009 88 10000 1.54 220 18:47 03.10.2022
1547 Rain 27 1010 88 10000 1.03 170 17:30 03.10.2022
1548 Clouds 27 1009 88 10000 1.54 30 15:51 03.10.2022
1549 Clouds 28 1009 84 10000 0.89 6 14:22 03.10.2022
1550 Clouds 28 1008 84 10000 1.54 280 12:34 03.10.2022
1551 Rain 28 1008 80 9000 3.09 330 10:53 03.10.2022
1552 Rain 29 1006 81 10000 2.06 290 09:46 03.10.2022
1553 Rain 30 1007 77 10000 2.06 290 08:43 03.10.2022
1554 Rain 26 1010 94 9000 3.6 360 03:52 03.10.2022
1555 Clouds 26 1007 86 10000 2.06 260 22:55 02.10.2022
1556 Clouds 27 1007 84 10000 1.54 330 21:33 02.10.2022
1557 Clouds 28 1007 80 10000 0.51 0 19:39 02.10.2022
1558 Clouds 28 1008 78 10000 1.03 0 17:55 02.10.2022
1559 Clouds 28 1008 78 10000 1.54 90 16:50 02.10.2022
1560 Clouds 28 1008 78 10000 1.54 90 16:27 02.10.2022
1561 Clouds 28 1008 76 10000 2.06 100 14:53 02.10.2022
1562 Clouds 28 1008 72 10000 3.6 80 13:46 02.10.2022
1563 Clouds 29 1008 72 10000 3.6 70 12:38 02.10.2022
1564 Clouds 30 1008 71 10000 3.13 46 11:41 02.10.2022
1565 Clouds 30 1008 71 10000 3.13 46 11:23 02.10.2022
1566 Clouds 31 1007 63 10000 6.69 70 09:49 02.10.2022
1567 Clouds 32 1008 58 10000 4.12 110 08:27 02.10.2022
1568 Clouds 30 1009 67 10000 3.09 110 05:18 02.10.2022
1569 Clouds 26 1009 84 10000 1.03 0 00:56 02.10.2022
1570 Clouds 26 1009 84 10000 1.03 0 00:36 02.10.2022
1571 Clouds 26 1008 81 10000 1.03 30 23:24 01.10.2022
1572 Clouds 27 1008 79 10000 1.03 0 20:55 01.10.2022
1573 Clouds 27 1009 81 10000 2.06 100 18:53 01.10.2022
1574 Clouds 28 1010 79 10000 2.57 120 17:22 01.10.2022
1575 Clouds 28 1011 76 10000 1.03 140 14:44 01.10.2022
1576 Clouds 29 1009 72 10000 2.57 110 13:43 01.10.2022
1577 Clouds 30 1008 66 10000 3.09 100 12:34 01.10.2022
1578 Clouds 31 1008 68 10000 4.63 100 11:21 01.10.2022
1579 Rain 31 1008 66 10000 4.63 100 10:44 01.10.2022
1580 Rain 31 1008 66 10000 4.63 100 10:25 01.10.2022
1581 Clouds 30 1008 69 10000 5.66 120 09:18 01.10.2022
1582 Clouds 31 1008 67 10000 5.14 110 08:19 01.10.2022
1583 Clouds 29 1011 75 10000 2.06 120 03:37 01.10.2022
1584 Clouds 27 1011 83 10000 2.57 270 01:22 01.10.2022
1585 Clouds 27 1011 83 10000 2.57 270 01:22 01.10.2022
1586 Clouds 26 1010 88 10000 1.03 0 23:20 30.09.2022
1587 Rain 26 1010 84 10000 1.54 200 21:44 30.09.2022
1588 Clouds 27 1010 84 10000 1.34 4 20:45 30.09.2022
1589 Clouds 27 1009 84 10000 1.03 0 20:20 30.09.2022
1590 Clouds 28 1010 83 10000 1.54 130 17:41 30.09.2022
1591 Clouds 28 1010 81 10000 2.06 90 16:29 30.09.2022
1592 Clouds 28 1010 79 10000 2.06 110 14:21 30.09.2022
1593 Clouds 29 1008 80 10000 2.06 130 12:24 30.09.2022
1594 Rain 29 1008 78 10000 2.06 130 11:48 30.09.2022
1595 Rain 29 1008 76 10000 3.6 130 08:51 30.09.2022
1596 Clouds 30 1009 69 10000 3.09 140 06:34 30.09.2022
1597 Clouds 28 1010 85 8000 2.06 130 02:50 30.09.2022
1598 Clouds 26 1009 87 6000 1.03 0 00:35 30.09.2022
1599 Clouds 26 1009 91 6000 1.54 130 21:39 29.09.2022
1600 Clouds 26 1009 91 6000 1.54 130 21:18 29.09.2022
1601 Clouds 27 1009 87 7000 1.54 40 18:48 29.09.2022
1602 Clouds 27 1009 88 9000 2.06 30 17:45 29.09.2022
1603 Clouds 27 1010 88 8000 1.03 0 16:28 29.09.2022
1604 Clouds 28 1010 86 7000 1.54 110 15:36 29.09.2022
1605 Clouds 28 1009 85 6000 0 0 14:59 29.09.2022
1606 Clouds 28 1007 82 9000 1.54 210 11:53 29.09.2022
1607 Thunderstorm 30 1007 77 9000 3.09 350 07:31 29.09.2022
1608 Clouds 28 1009 82 9000 1.79 4 02:55 29.09.2022
1609 Clouds 26 1008 92 8000 0.51 0 00:28 29.09.2022
1610 Clouds 26 1007 89 9000 0 0 23:19 28.09.2022
1611 Clouds 26 1007 92 8000 2.06 120 21:30 28.09.2022
1612 Clouds 26 1007 91 7000 4.12 190 20:45 28.09.2022
1613 Clouds 26 1007 91 8000 1.03 130 18:53 28.09.2022
1614 Rain 26 1008 92 9000 1.54 110 15:46 28.09.2022
1615 Thunderstorm 26 1007 88 7000 3.09 10 13:28 28.09.2022
1616 Clouds 30 1005 77 10000 7.15 203 11:34 28.09.2022
1617 Clouds 30 1004 75 10000 8.94 195 09:25 28.09.2022
1618 Clouds 33 1006 55 10000 1.54 210 07:40 28.09.2022
1619 Clouds 30 1007 70 9000 2.24 208 04:41 28.09.2022
1620 Clouds 26 1006 89 10000 1.03 80 01:38 28.09.2022
1621 Clouds 25 1005 93 10000 1.03 60 23:30 27.09.2022
1622 Clouds 26 1005 93 10000 1.03 90 21:55 27.09.2022
1623 Clouds 26 1005 95 9000 1.03 80 20:49 27.09.2022
1624 Clouds 26 1005 95 9000 0.51 0 19:49 27.09.2022
1625 Rain 26 1005 95 9000 0.51 0 19:30 27.09.2022
1626 Rain 26 1007 95 9000 1.03 0 17:46 27.09.2022
1627 Rain 26 1007 95 9000 1.03 0 17:46 27.09.2022
1628 Rain 26 1007 90 9000 1.54 180 15:59 27.09.2022
1629 Thunderstorm 26 1006 90 9000 1.54 160 14:59 27.09.2022
1630 Thunderstorm 26 1005 94 9000 1.03 0 13:32 27.09.2022
1631 Rain 26 1005 93 9000 2.06 250 12:22 27.09.2022
1632 Rain 32 1003 67 10000 2.06 150 09:46 27.09.2022
1633 Clouds 33 1004 63 10000 3.09 120 07:38 27.09.2022
1634 Clouds 30 1006 75 10000 2.57 100 02:59 27.09.2022
1635 Clouds 28 1005 78 10000 2.57 80 01:35 27.09.2022
1636 Clouds 27 1003 86 10000 3.6 120 23:38 26.09.2022
1637 Clouds 27 1003 86 10000 3.6 120 23:18 26.09.2022
1638 Clouds 27 1004 87 10000 2.57 90 20:47 26.09.2022
1639 Rain 27 1004 88 10000 2.06 100 19:34 26.09.2022
1640 Rain 27 1005 88 10000 2.06 110 18:35 26.09.2022
1641 Clouds 27 1005 87 10000 2.57 90 16:58 26.09.2022
1642 Clouds 26 1005 88 10000 1.54 90 14:46 26.09.2022
1643 Thunderstorm 27 1003 93 8000 4.47 184 11:36 26.09.2022
1644 Thunderstorm 28 1002 84 9000 3.13 194 10:41 26.09.2022
1645 Thunderstorm 28 1002 83 9000 2.68 194 10:21 26.09.2022
1646 Clouds 29 1002 79 10000 7.6 208 09:56 26.09.2022
1647 Rain 29 1002 79 10000 5.81 196 09:24 26.09.2022
1648 Rain 28 1002 82 10000 5.81 202 08:57 26.09.2022
1649 Clouds 28 1003 78 10000 3.09 130 02:58 26.09.2022
1650 Clouds 26 1003 84 10000 2.57 110 01:31 26.09.2022
1651 Rain 24 1001 94 9000 3.6 110 23:20 25.09.2022
1652 Rain 23 1001 96 6000 3.6 150 21:44 25.09.2022
1653 Rain 23 1002 97 5000 3.6 170 20:54 25.09.2022
1654 Rain 24 1001 97 5000 3.6 140 19:55 25.09.2022
1655 Rain 24 1002 97 5000 4.63 160 18:43 25.09.2022
1656 Rain 24 1002 97 5000 4.63 160 18:20 25.09.2022
1657 Rain 25 1001 92 7000 8.23 220 16:49 25.09.2022
1658 Rain 25 999 94 7000 10.8 220 15:45 25.09.2022
1659 Rain 26 998 93 7000 12.07 218 14:30 25.09.2022
1660 Rain 26 998 93 6000 9.77 230 13:19 25.09.2022
1661 Rain 27 999 91 8000 9.83 347 10:36 25.09.2022
1662 Rain 27 1000 92 8000 6.69 250 08:25 25.09.2022
1663 Rain 28 1002 87 8000 4.12 270 06:23 25.09.2022
1664 Rain 28 1004 81 8000 2.57 300 03:20 25.09.2022
1665 Rain 27 1003 87 8000 1.54 230 22:50 24.09.2022
1666 Rain 28 1003 85 10000 1.03 0 21:19 24.09.2022
1667 Rain 28 1003 83 10000 1.03 0 19:23 24.09.2022
1668 Rain 28 1005 81 10000 3.13 355 17:50 24.09.2022
1669 Clouds 28 1005 80 10000 1.54 230 16:36 24.09.2022
1670 Clouds 29 1005 80 10000 3.58 202 15:22 24.09.2022
1671 Rain 29 1004 79 9000 3.09 220 13:35 24.09.2022
1672 Clouds 29 1003 80 9000 4.63 240 12:51 24.09.2022
1673 Clouds 29 1003 77 9000 4.12 260 11:21 24.09.2022
1674 Clouds 31 1002 69 9000 4.12 270 09:54 24.09.2022
1675 Clouds 32 1003 67 9000 3.09 270 08:45 24.09.2022
1676 Clouds 31 1004 69 9000 2.68 228 07:38 24.09.2022
1677 Clouds 30 1006 76 9000 3.09 290 04:48 24.09.2022
1678 Clouds 29 1006 78 9000 3.58 321 03:42 24.09.2022
1679 Clouds 25 1005 93 9000 1.03 0 22:36 23.09.2022
1680 Rain 25 1005 93 9000 1.03 210 21:28 23.09.2022
1681 Clouds 25 1005 93 9000 0 0 20:56 23.09.2022
1682 Rain 25 1005 93 9000 0 0 20:20 23.09.2022
1683 Clouds 26 1007 90 9000 1.54 220 18:50 23.09.2022
1684 Clouds 26 1007 90 10000 1.54 170 14:33 23.09.2022
1685 Clouds 28 1006 83 10000 6.69 240 10:55 23.09.2022
1686 Rain 28 1005 80 10000 7.2 250 09:32 23.09.2022
1687 Clouds 31 1007 67 10000 3.13 349 05:20 23.09.2022
1688 Clouds 26 1007 92 9000 0.51 0 00:31 23.09.2022
1689 Clouds 25 1007 95 9000 0 0 23:21 22.09.2022
1690 Clouds 25 1006 93 9000 0 0 22:26 22.09.2022
1691 Clouds 25 1007 93 10000 0 0 20:46 22.09.2022
1692 Clouds 25 1008 92 10000 1.03 0 19:27 22.09.2022
1693 Clouds 26 1009 90 10000 1.03 0 16:57 22.09.2022
1694 Clouds 29 1006 77 10000 5.14 250 11:58 22.09.2022
1695 Clouds 30 1006 73 10000 6.26 206 10:20 22.09.2022
1696 Rain 28 1006 79 10000 5.81 222 08:46 22.09.2022
1697 Clouds 28 1008 85 7000 2.68 186 06:42 22.09.2022
1698 Clouds 28 1009 81 10000 1.34 7 02:43 22.09.2022
1699 Rain 26 1007 87 10000 2.06 20 22:50 21.09.2022
1700 Clouds 26 1008 89 10000 1.03 20 21:40 21.09.2022
1701 Rain 26 1009 91 9000 4.12 260 19:36 21.09.2022
1702 Clouds 27 1010 86 10000 4.02 206 17:47 21.09.2022
1703 Clouds 27 1009 85 10000 5.36 219 16:22 21.09.2022
1704 Clouds 28 1008 81 10000 4.12 230 13:59 21.09.2022
1705 Rain 28 1007 80 10000 5.66 270 12:41 21.09.2022
1706 Clouds 29 1006 79 10000 7.2 260 11:28 21.09.2022
1707 Clouds 31 1006 70 10000 6.69 260 09:49 21.09.2022
1708 Clouds 31 1007 70 10000 7.15 203 08:58 21.09.2022
1709 Clouds 31 1008 71 10000 5.14 260 06:22 21.09.2022
1710 Clouds 28 1009 81 10000 1.79 215 02:45 21.09.2022
1711 Clouds 29 1009 80 10000 1.79 215 02:23 21.09.2022
1712 Clouds 25 1007 90 10000 1.03 70 00:34 21.09.2022
1713 Clouds 25 1007 93 10000 0 0 22:41 20.09.2022
1714 Clouds 26 1007 90 10000 1.03 220 20:45 20.09.2022
1715 Clouds 26 1008 92 10000 1.03 190 19:30 20.09.2022
1716 Rain 26 1010 90 10000 2.06 180 16:25 20.09.2022
1717 Clouds 26 1009 91 10000 0 0 14:45 20.09.2022
1718 Clouds 25 1008 93 10000 1.03 0 12:58 20.09.2022
1719 Rain 28 1006 83 10000 3.13 193 09:19 20.09.2022
1720 Rain 27 1006 86 10000 2.57 200 08:26 20.09.2022
1721 Rain 27 1008 88 8000 1.79 227 04:46 20.09.2022
1722 Rain 26 1008 92 9000 2.06 60 03:38 20.09.2022
1723 Rain 26 1005 90 10000 2.06 220 22:51 19.09.2022
1724 Rain 26 1006 91 9000 2.24 184 21:39 19.09.2022
1725 Clouds 25 1006 92 9000 1.03 260 20:47 19.09.2022
1726 Clouds 26 1007 93 9000 1.03 200 19:42 19.09.2022
1727 Rain 25 1008 94 9000 2.24 184 17:39 19.09.2022
1728 Rain 25 1007 92 10000 4.12 240 13:56 19.09.2022
1729 Rain 25 1007 96 8000 3.58 196 12:56 19.09.2022
1730 Rain 25 1006 95 9000 2.06 220 10:47 19.09.2022
1731 Thunderstorm 25 1007 100 8000 5.66 240 08:51 19.09.2022
1732 Rain 26 1009 93 9000 4.12 300 05:42 19.09.2022
1733 Rain 26 1008 92 9000 1.54 360 01:53 19.09.2022
1734 Rain 26 1007 93 10000 1.03 220 23:22 18.09.2022
1735 Rain 26 1007 92 9000 2.06 220 21:32 18.09.2022
1736 Rain 25 1007 94 9000 1.03 0 19:58 18.09.2022
1737 Rain 26 1008 91 8000 3.6 230 17:53 18.09.2022
1738 Rain 27 1008 87 10000 2.06 220 16:59 18.09.2022
1739 Clouds 28 1007 84 10000 3.09 220 14:52 18.09.2022
1740 Clouds 29 1007 81 10000 4.12 250 13:47 18.09.2022
1741 Clouds 29 1007 80 10000 4.12 220 12:33 18.09.2022
1742 Clouds 30 1006 77 10000 6.71 198 10:44 18.09.2022
1743 Clouds 30 1008 75 10000 3.6 240 03:37 18.09.2022
1744 Clouds 27 1008 86 10000 1.03 0 01:23 18.09.2022
1745 Clouds 26 1007 90 10000 1.03 210 23:59 17.09.2022
1746 Clouds 26 1006 89 10000 1.54 240 21:35 17.09.2022
1747 Rain 26 1007 87 10000 3.13 219 19:40 17.09.2022
1748 Rain 27 1007 86 10000 2.57 220 18:43 17.09.2022
1749 Clouds 27 1007 83 10000 6.69 250 14:54 17.09.2022
1750 Clouds 27 1006 85 10000 4.63 250 13:38 17.09.2022
1751 Clouds 30 1005 73 10000 8.49 211 10:50 17.09.2022
1752 Clouds 31 1005 67 10000 8.23 260 08:30 17.09.2022
1753 Clouds 31 1006 68 10000 4.02 2 06:21 17.09.2022
1754 Clouds 25 1006 90 10000 2.57 260 23:42 16.09.2022
1755 Clouds 25 1006 89 10000 4.63 260 22:42 16.09.2022
1756 Clouds 25 1005 88 10000 2.68 213 20:54 16.09.2022
1757 Clouds 25 1005 88 10000 2.68 213 20:54 16.09.2022
1758 Clouds 25 1005 88 10000 2.68 213 20:54 16.09.2022
1759 Clouds 27 1006 86 10000 2.57 230 19:41 16.09.2022
1760 Rain 28 1007 81 10000 4.47 224 16:26 16.09.2022
1761 Rain 28 1006 80 10000 4.92 218 14:52 16.09.2022
1762 Rain 28 1005 79 10000 4.12 240 13:21 16.09.2022
1763 Clouds 30 1005 70 10000 6.17 260 10:24 16.09.2022
1764 Clouds 31 1006 68 10000 7.2 260 07:26 16.09.2022
1765 Clouds 30 1006 72 10000 7.2 270 06:48 16.09.2022
1766 Clouds 31 1007 72 10000 6.17 270 05:57 16.09.2022
1767 Clouds 29 1008 81 10000 4.63 260 02:35 16.09.2022
1768 Clouds 26 1006 90 10000 1.54 250 21:47 15.09.2022
1769 Clouds 26 1006 89 10000 0.51 0 20:38 15.09.2022
1770 Clouds 26 1007 89 10000 1.03 0 19:42 15.09.2022
1771 Clouds 26 1008 89 10000 0.51 0 17:58 15.09.2022
1772 Clouds 26 1008 89 10000 0.51 0 17:28 15.09.2022
1773 Clouds 27 1008 89 10000 2.57 230 15:47 15.09.2022
1774 Rain 27 1006 84 10000 4.12 240 12:51 15.09.2022
1775 Clouds 27 1005 84 10000 5.66 240 11:48 15.09.2022
1776 Clouds 30 1004 76 10000 8.94 193 09:45 15.09.2022
1777 Clouds 31 1006 72 10000 8.05 165 06:58 15.09.2022
1778 Clouds 30 1007 80 10000 7.6 219 03:46 15.09.2022
1779 Clouds 26 1006 89 10000 0.51 0 22:57 14.09.2022
1780 Clouds 26 1007 91 10000 0.51 0 20:37 14.09.2022
1781 Rain 26 1007 91 9000 1.34 228 19:32 14.09.2022
1782 Rain 27 1009 88 9000 2.06 220 17:47 14.09.2022
1783 Rain 26 1008 87 9000 2.57 230 16:36 14.09.2022
1784 Clouds 27 1008 91 8000 3.58 198 14:51 14.09.2022
1785 Clouds 27 1007 89 9000 5.81 213 12:38 14.09.2022
1786 Clouds 29 1006 80 10000 5.81 165 09:52 14.09.2022
1787 Clouds 30 1007 79 10000 9.39 189 08:28 14.09.2022
1788 Clouds 31 1008 76 10000 7.2 260 06:49 14.09.2022
1789 Clouds 31 1008 76 10000 7.2 260 06:28 14.09.2022
1790 Clouds 28 1009 87 10000 4.12 260 02:25 14.09.2022
1791 Clouds 28 1008 86 9000 2.57 230 01:34 14.09.2022
1792 Clouds 27 1008 87 10000 2.06 230 00:52 14.09.2022
1793 Clouds 27 1008 87 10000 2.06 230 00:52 14.09.2022
1794 Clouds 27 1007 87 10000 2.06 200 23:54 13.09.2022
1795 Clouds 27 1007 87 10000 2.06 200 23:36 13.09.2022
1796 Clouds 27 1007 88 10000 2.06 200 23:18 13.09.2022
1797 Clouds 27 1007 88 10000 3.09 220 22:26 13.09.2022
1798 Clouds 28 1007 85 10000 1.03 0 20:45 13.09.2022
1799 Clouds 28 1008 84 10000 1.03 0 18:43 13.09.2022
1800 Clouds 28 1009 81 10000 3.09 220 16:19 13.09.2022
1801 Clouds 29 1008 80 10000 3.09 240 15:18 13.09.2022
1802 Clouds 29 1007 79 10000 6.26 208 13:31 13.09.2022
1803 Clouds 31 1006 72 10000 7.15 189 09:58 13.09.2022
1804 Clouds 31 1007 74 10000 8.49 212 07:47 13.09.2022
1805 Clouds 27 1007 87 10000 2.06 210 00:58 13.09.2022
1806 Clouds 27 1007 88 10000 2.68 339 22:52 12.09.2022
1807 Clouds 27 1007 88 10000 2.57 240 22:26 12.09.2022
1808 Clouds 28 1007 85 10000 1.54 240 20:54 12.09.2022
1809 Clouds 28 1007 84 10000 1.34 332 19:26 12.09.2022
1810 Clouds 28 1007 85 10000 2.06 220 17:46 12.09.2022
1811 Clouds 28 1008 82 10000 3.6 230 15:22 12.09.2022
1812 Clouds 29 1006 81 10000 7.2 260 12:26 12.09.2022
1813 Clouds 31 1005 75 10000 8.94 208 10:24 12.09.2022
1814 Clouds 31 1008 72 10000 7.15 203 05:57 12.09.2022
1815 Clouds 31 1008 76 10000 6.71 217 04:32 12.09.2022
1816 Clouds 27 1007 87 10000 5.14 270 23:59 11.09.2022
1817 Clouds 27 1007 87 10000 3.6 250 22:45 11.09.2022
1818 Clouds 27 1007 84 10000 3.6 240 21:19 11.09.2022
1819 Rain 27 1007 86 10000 2.68 191 20:42 11.09.2022
1820 Clouds 27 1008 87 10000 3.13 215 19:26 11.09.2022
1821 Clouds 28 1008 83 10000 2.06 230 18:58 11.09.2022
1822 Clouds 28 1008 83 10000 2.57 230 16:58 11.09.2022
1823 Clouds 28 1008 82 10000 3.6 230 15:44 11.09.2022
1824 Clouds 29 1007 80 10000 4.63 250 13:18 11.09.2022
1825 Clouds 31 1006 72 10000 7.6 217 10:35 11.09.2022
1826 Clouds 31 1007 73 10000 7.6 193 07:49 11.09.2022
1827 Clouds 29 1009 80 10000 4.12 260 03:34 11.09.2022
1828 Clouds 26 1008 91 10000 4.92 198 23:45 10.09.2022
1829 Rain 26 1007 91 10000 4.12 250 21:35 10.09.2022
1830 Clouds 26 1008 92 10000 0.51 0 19:58 10.09.2022
1831 Clouds 26 1008 91 10000 0.51 0 19:40 10.09.2022
1832 Clouds 27 1008 91 10000 0.51 0 19:20 10.09.2022
1833 Clouds 27 1009 86 10000 2.24 191 16:58 10.09.2022
1834 Clouds 27 1009 88 10000 1.79 217 15:32 10.09.2022
1835 Clouds 28 1008 88 9000 5.81 216 12:55 10.09.2022
1836 Clouds 28 1008 88 9000 5.81 216 12:55 10.09.2022
1837 Clouds 28 1007 87 9000 4.63 260 11:36 10.09.2022
1838 Rain 27 1007 90 9000 4.02 227 10:25 10.09.2022
1839 Rain 26 1009 94 9000 1.54 250 08:37 10.09.2022
1840 Rain 26 1009 94 9000 1.54 250 08:18 10.09.2022
1841 Rain 26 1009 94 9000 1.54 250 08:18 10.09.2022
1842 Clouds 30 1009 77 10000 1.79 168 02:54 10.09.2022
1843 Clouds 27 1007 88 9000 1.54 190 23:35 09.09.2022
1844 Clouds 26 1008 91 10000 0 0 22:22 09.09.2022
1845 Clouds 26 1008 92 10000 2.06 80 20:49 09.09.2022
1846 Clouds 25 1009 94 9000 1.03 0 19:26 09.09.2022
1847 Clouds 26 1009 93 7000 1.54 190 18:55 09.09.2022
1848 Rain 27 1010 88 10000 2.57 160 16:34 09.09.2022
1849 Rain 28 1008 82 10000 2.06 140 14:28 09.09.2022
1850 Rain 29 1007 80 9000 2.68 127 12:59 09.09.2022
1851 Clouds 32 1005 73 10000 7.2 260 10:23 09.09.2022
1852 Clouds 32 1007 71 9000 6.26 210 07:18 09.09.2022
1853 Clouds 30 1010 77 8000 0.51 0 03:28 09.09.2022
1854 Clouds 27 1008 90 10000 1.03 270 22:19 08.09.2022
1855 Clouds 27 1008 91 10000 1.03 0 21:43 08.09.2022
1856 Clouds 27 1009 91 10000 1.03 0 20:38 08.09.2022
1857 Clouds 27 1009 90 10000 1.03 0 20:19 08.09.2022
1858 Clouds 26 1010 89 9000 1.54 0 18:26 08.09.2022
1859 Clouds 29 1010 77 9000 3.09 220 16:27 08.09.2022
1860 Clouds 30 1009 78 9000 5.36 221 14:40 08.09.2022
1861 Clouds 29 1008 78 9000 2.57 230 13:27 08.09.2022
1862 Clouds 29 1008 80 10000 3.6 260 12:33 08.09.2022
1863 Clouds 33 1007 68 10000 4.12 270 10:58 08.09.2022
1864 Clouds 34 1007 61 10000 4.12 270 08:55 08.09.2022
1865 Clouds 34 1009 61 10000 2.57 300 06:43 08.09.2022
1866 Clouds 31 1011 70 10000 4.92 219 02:37 08.09.2022
1867 Clouds 30 1011 69 10000 1.79 199 02:19 08.09.2022
1868 Clouds 29 1011 76 10000 3.13 334 01:38 08.09.2022
1869 Clouds 27 1009 82 10000 0.45 14 22:54 07.09.2022
1870 Clouds 27 1010 85 10000 1.03 0 21:42 07.09.2022
1871 Clouds 28 1010 82 10000 0 0 20:49 07.09.2022
1872 Clouds 28 1011 82 10000 1.03 0 19:42 07.09.2022
1873 Clouds 29 1011 77 10000 2.06 130 18:27 07.09.2022
1874 Clouds 30 1010 75 10000 3.6 120 14:26 07.09.2022
1875 Clouds 34 1008 65 10000 4.47 333 10:48 07.09.2022
1876 Clouds 34 1008 62 10000 2.68 214 09:19 07.09.2022
1877 Clouds 33 1009 63 10000 2.57 70 07:23 07.09.2022
1878 Clouds 31 1011 71 10000 2.57 110 03:19 07.09.2022
1879 Clouds 27 1010 93 8000 0.51 0 22:59 06.09.2022
1880 Rain 27 1010 93 8000 1.03 0 21:41 06.09.2022
1881 Clouds 27 1010 93 9000 0.51 0 20:24 06.09.2022
1882 Rain 27 1011 92 9000 0.51 0 18:45 06.09.2022
1883 Clouds 27 1011 92 9000 0.51 0 18:21 06.09.2022
1884 Clouds 27 1011 92 9000 0.89 31 17:21 06.09.2022
1885 Clouds 27 1011 92 10000 1.03 0 16:37 06.09.2022
1886 Clouds 27 1010 90 9000 1.54 220 14:59 06.09.2022
1887 Clouds 27 1009 91 10000 1.03 0 13:45 06.09.2022
1888 Clouds 27 1009 91 10000 1.03 0 13:22 06.09.2022
1889 Clouds 26 1008 94 8000 4.63 40 11:54 06.09.2022
1890 Clouds 26 1009 89 7000 7.72 70 10:41 06.09.2022
1891 Clouds 32 1006 65 10000 3.09 0 08:41 06.09.2022
1892 Clouds 33 1007 63 10000 2.57 150 07:37 06.09.2022
1893 Clouds 30 1009 77 10000 1.03 0 02:43 06.09.2022
1894 Clouds 27 1008 88 10000 1.03 0 23:22 05.09.2022
1895 Clouds 27 1007 88 10000 0.51 0 21:52 05.09.2022
1896 Clouds 27 1007 88 10000 1.03 0 20:32 05.09.2022
1897 Clouds 28 1008 87 10000 0.51 0 19:18 05.09.2022
1898 Rain 28 1008 85 10000 0.51 0 18:44 05.09.2022
1899 Clouds 28 1008 85 10000 0.51 0 18:21 05.09.2022
1900 Clouds 28 1009 84 10000 0.89 160 16:27 05.09.2022
1901 Clouds 28 1009 84 10000 2.24 196 15:29 05.09.2022
1902 Rain 29 1008 82 10000 3.09 240 13:21 05.09.2022
1903 Rain 29 1007 79 10000 6.69 260 11:53 05.09.2022
1904 Rain 32 1006 75 10000 7.2 260 08:58 05.09.2022
1905 Clouds 32 1007 76 10000 6.71 217 06:40 05.09.2022
1906 Clouds 28 1007 83 10000 1.79 201 01:56 05.09.2022
1907 Clouds 26 1006 92 10000 0.51 0 22:39 04.09.2022
1908 Clouds 27 1006 92 10000 0.51 0 22:19 04.09.2022
1909 Clouds 27 1007 89 10000 2.06 220 20:37 04.09.2022
1910 Clouds 27 1008 88 10000 3.58 219 18:55 04.09.2022
1911 Clouds 27 1009 89 10000 3.13 184 17:43 04.09.2022
1912 Clouds 27 1009 90 10000 2.24 208 16:28 04.09.2022
1913 Clouds 27 1008 89 10000 4.92 208 14:26 04.09.2022
1914 Clouds 28 1007 82 10000 3.6 240 12:57 04.09.2022
1915 Clouds 28 1006 62 10000 6.69 250 11:37 04.09.2022
1916 Clouds 29 1005 79 10000 7.72 270 09:39 04.09.2022
1917 Clouds 31 1006 76 10000 7.72 270 06:40 04.09.2022
1918 Clouds 29 1007 85 9000 2.68 174 03:18 04.09.2022
1919 Clouds 25 1006 94 9000 1.03 0 23:33 03.09.2022
1920 Clouds 25 1006 94 6000 1.54 240 22:18 03.09.2022
1921 Clouds 26 1005 94 10000 0.51 0 21:22 03.09.2022
1922 Clouds 26 1007 90 10000 2.06 0 18:49 03.09.2022
1923 Rain 26 1008 91 10000 3.6 280 17:22 03.09.2022
1924 Rain 26 1008 91 10000 3.6 280 17:22 03.09.2022
1925 Clouds 26 1007 95 10000 2.57 270 16:20 03.09.2022
1926 Rain 26 1007 94 8000 2.06 290 14:43 03.09.2022
1927 Rain 25 1006 96 8000 1.54 320 13:50 03.09.2022
1928 Rain 25 1006 91 8000 5.66 280 11:34 03.09.2022
1929 Rain 26 1004 93 9000 2.06 220 09:37 03.09.2022
1930 Rain 25 1006 94 6000 6.69 260 07:54 03.09.2022
1931 Rain 28 1005 87 10000 8.05 206 04:55 03.09.2022
1932 Clouds 27 1006 88 9000 5.81 181 02:49 03.09.2022
1933 Rain 25 1005 90 8000 3.09 220 23:49 02.09.2022
1934 Rain 26 1005 89 8000 3.09 240 22:27 02.09.2022
1935 Clouds 26 1005 93 8000 2.68 307 20:56 02.09.2022
1936 Rain 26 1005 93 8000 2.06 230 20:22 02.09.2022
1937 Rain 26 1006 92 8000 4.12 250 18:51 02.09.2022
1938 Rain 26 1006 92 8000 4.12 250 18:26 02.09.2022
1939 Rain 26 1006 92 7000 3.6 290 17:28 02.09.2022
1940 Rain 26 1006 90 9000 5.66 320 16:32 02.09.2022
1941 Rain 27 1006 90 10000 3.6 240 13:50 02.09.2022
1942 Rain 27 1005 91 9000 4.92 209 11:36 02.09.2022
1943 Rain 27 1004 88 8000 6.26 193 09:46 02.09.2022
1944 Rain 27 1004 88 9000 7.2 250 08:47 02.09.2022
1945 Clouds 31 1005 77 10000 15.2 174 06:48 02.09.2022
1946 Rain 31 1005 78 10000 12.52 221 06:22 02.09.2022
1947 Clouds 28 1005 88 9000 5.14 250 01:41 02.09.2022
1948 Clouds 28 1004 89 10000 4.12 250 22:24 01.09.2022
1949 Rain 27 1004 90 9000 2.06 270 21:38 01.09.2022
1950 Rain 27 1004 90 9000 3.13 176 21:20 01.09.2022
1951 Rain 27 1004 89 9000 4.02 198 20:26 01.09.2022
1952 Clouds 27 1005 90 4500 4.12 260 18:34 01.09.2022
1953 Clouds 28 1006 85 10000 6.71 207 16:55 01.09.2022
1954 Rain 28 1006 84 10000 6.71 212 15:22 01.09.2022
1955 Clouds 28 1005 83 10000 4.02 204 13:27 01.09.2022
1956 Clouds 28 1004 85 10000 5.66 260 12:55 01.09.2022
1957 Clouds 29 1004 80 10000 6.69 260 11:51 01.09.2022
1958 Clouds 29 1004 81 10000 6.69 260 11:19 01.09.2022
1959 Clouds 31 1005 76 10000 8.94 169 09:31 01.09.2022
1960 Clouds 31 1006 72 10000 6.69 260 06:34 01.09.2022
1961 Clouds 28 1007 81 10000 4.92 203 02:34 01.09.2022
1962 Clouds 27 1007 88 10000 1.54 220 01:30 01.09.2022
1963 Clouds 27 1007 88 10000 1.54 220 01:30 01.09.2022
1964 Clouds 27 1007 88 10000 1.54 220 01:30 01.09.2022
1965 Clouds 27 1007 88 10000 1.54 220 01:30 01.09.2022
1966 Clouds 27 1005 91 10000 1.03 0 22:22 31.08.2022
1967 Clouds 27 1005 92 10000 0.51 270 20:35 31.08.2022
1968 Clouds 27 1006 89 10000 2.06 270 18:45 31.08.2022
1969 Clouds 28 1006 85 10000 3.09 320 16:36 31.08.2022
1970 Clouds 28 1006 87 10000 0.51 0 15:21 31.08.2022
1971 Clouds 29 1004 82 9000 2.68 196 12:37 31.08.2022
1972 Clouds 29 1004 82 8000 3.13 211 11:48 31.08.2022
1973 Rain 29 1004 81 9000 3.09 270 09:31 31.08.2022
1974 Clouds 29 1006 85 7000 1.03 330 07:28 31.08.2022
1975 Clouds 28 1006 87 8000 1.79 209 01:57 31.08.2022
1976 Clouds 27 1005 88 9000 2.06 290 22:18 30.08.2022
1977 Clouds 27 1005 90 9000 3.09 290 21:27 30.08.2022
1978 Clouds 28 1006 88 8000 1.54 210 19:26 30.08.2022
1979 Clouds 28 1006 84 10000 1.03 0 16:35 30.08.2022
1980 Clouds 29 1005 83 9000 3.13 214 13:30 30.08.2022
1981 Clouds 30 1004 75 10000 4.12 260 11:22 30.08.2022
1982 Clouds 31 1004 75 9000 4.92 219 10:57 30.08.2022
1983 Clouds 31 1005 75 9000 4.47 194 08:46 30.08.2022
1984 Clouds 28 1009 84 9000 2.68 353 03:55 30.08.2022
1985 Clouds 26 1008 90 9000 1.03 0 23:45 29.08.2022
1986 Clouds 26 1008 92 9000 0.89 357 22:33 29.08.2022
1987 Clouds 26 1008 92 9000 1.03 0 21:34 29.08.2022
1988 Clouds 26 1008 90 9000 1.03 0 20:26 29.08.2022
1989 Clouds 25 1009 91 9000 1.03 0 17:58 29.08.2022
1990 Rain 25 1009 91 9000 1.03 0 17:25 29.08.2022
1991 Clouds 25 1010 91 9000 3.6 0 16:43 29.08.2022
1992 Clouds 27 1010 90 9000 5.36 16 15:18 29.08.2022
1993 Clouds 30 1008 79 10000 3.09 240 13:26 29.08.2022
1994 Rain 31 1006 76 10000 4.12 260 11:30 29.08.2022
1995 Clouds 32 1006 67 10000 4.12 280 10:21 29.08.2022
1996 Clouds 32 1007 67 10000 5.36 197 08:38 29.08.2022
1997 Clouds 32 1009 69 10000 3.6 280 05:52 29.08.2022
1998 Clouds 27 1009 86 10000 0 0 01:24 29.08.2022
1999 Clouds 26 1008 92 10000 2.06 50 22:47 28.08.2022
2000 Clouds 25 1008 93 10000 1.03 0 21:44 28.08.2022
2001 Clouds 25 1008 91 10000 0.45 73 20:55 28.08.2022
2002 Rain 25 1009 94 10000 2.57 260 19:29 28.08.2022
2003 Rain 25 1008 92 10000 2.06 210 18:21 28.08.2022
2004 Clouds 25 1009 94 10000 1.54 110 17:25 28.08.2022
2005 Clouds 26 1010 89 10000 4.12 40 16:28 28.08.2022
2006 Clouds 26 1008 94 8000 5.81 346 14:42 28.08.2022
2007 Clouds 28 1006 86 9000 5.14 200 12:48 28.08.2022
2008 Clouds 31 1005 74 9000 3.09 20 10:43 28.08.2022
2009 Clouds 31 1005 75 9000 3.09 20 10:43 28.08.2022
2010 Clouds 31 1005 75 9000 4.12 320 09:54 28.08.2022
2011 Clouds 32 1005 73 10000 4.12 330 08:37 28.08.2022
2012 Clouds 33 1006 65 10000 4.47 0 07:43 28.08.2022
2013 Clouds 29 1008 78 10000 1.79 199 02:48 28.08.2022
2014 Clouds 26 1007 91 10000 0 0 00:27 28.08.2022
2015 Clouds 26 1006 91 10000 0 0 22:37 27.08.2022
2016 Clouds 26 1006 91 10000 0.51 0 21:36 27.08.2022
2017 Clouds 27 1007 90 9000 1.54 160 19:49 27.08.2022
2018 Rain 28 1007 86 10000 1.54 90 17:43 27.08.2022
2019 Clouds 28 1007 84 10000 0.89 59 15:53 27.08.2022
2020 Clouds 28 1007 84 10000 0.51 0 15:24 27.08.2022
2021 Clouds 29 1006 58 10000 1.54 110 12:30 27.08.2022
2022 Clouds 29 1005 79 10000 2.06 160 11:32 27.08.2022
2023 Clouds 29 1005 79 10000 2.06 160 11:32 27.08.2022
2024 Rain 29 1005 84 9000 2.57 140 09:49 27.08.2022
2025 Rain 31 1007 70 10000 3.09 260 07:54 27.08.2022
2026 Clouds 29 1009 71 10000 4.47 74 03:40 27.08.2022
2027 Clouds 26 1008 88 9000 1.54 200 23:57 26.08.2022
2028 Clouds 26 1007 89 9000 0 0 22:50 26.08.2022
2029 Clouds 27 1008 87 9000 1.34 29 21:30 26.08.2022
2030 Clouds 26 1008 87 10000 1.03 0 19:23 26.08.2022
2031 Clouds 27 1010 86 9000 1.54 280 16:50 26.08.2022
2032 Clouds 28 1010 83 10000 2.57 280 15:31 26.08.2022
2033 Clouds 27 1009 83 10000 3.13 332 14:34 26.08.2022
2034 Thunderstorm 28 1008 79 10000 4.12 320 12:51 26.08.2022
2035 Clouds 30 1007 74 10000 1.54 0 11:33 26.08.2022
2036 Clouds 30 1007 76 8000 2.06 0 10:46 26.08.2022
2037 Clouds 32 1007 66 10000 4.63 280 07:31 26.08.2022
2038 Clouds 30 1009 72 10000 2.24 20 02:30 26.08.2022
2039 Clouds 27 1009 88 9000 1.54 20 23:44 25.08.2022
2040 Clouds 27 1009 88 10000 0 0 21:37 25.08.2022
2041 Clouds 28 1009 88 10000 1.03 0 20:30 25.08.2022
2042 Clouds 28 1010 87 10000 1.03 0 18:55 25.08.2022
2043 Clouds 28 1010 84 10000 1.03 0 17:50 25.08.2022
2044 Clouds 28 1010 84 10000 1.03 0 17:31 25.08.2022
2045 Clouds 29 1010 77 10000 1.03 230 15:43 25.08.2022
2046 Clouds 29 1010 77 10000 1.03 230 15:25 25.08.2022
2047 Clouds 30 1008 76 10000 2.06 0 11:55 25.08.2022
2048 Rain 32 1007 67 10000 3.6 270 10:48 25.08.2022
2049 Clouds 34 1007 59 10000 3.09 0 08:54 25.08.2022
2050 Clouds 33 1009 64 10000 3.13 111 05:24 25.08.2022
2051 Clouds 28 1009 84 10000 0.51 0 01:37 25.08.2022
2052 Clouds 25 1007 92 9000 0 0 23:26 24.08.2022
2053 Clouds 26 1007 92 9000 0.51 0 22:22 24.08.2022
2054 Clouds 26 1007 92 9000 1.54 210 21:35 24.08.2022
2055 Clouds 26 1007 89 9000 0.45 359 20:32 24.08.2022
2056 Clouds 27 1009 90 8000 1.54 110 18:57 24.08.2022
2057 Clouds 27 1009 90 10000 0.51 0 16:36 24.08.2022
2058 Clouds 28 1009 88 10000 0 0 15:52 24.08.2022
2059 Clouds 28 1008 84 10000 1.03 0 13:40 24.08.2022
2060 Clouds 29 1006 79 10000 1.03 0 11:29 24.08.2022
2061 Rain 29 1006 79 9000 1.54 100 09:35 24.08.2022
2062 Rain 28 1007 83 9000 2.06 120 07:50 24.08.2022
2063 Clouds 26 1008 90 10000 1.54 120 02:29 24.08.2022
2064 Rain 25 1006 93 9000 1.54 130 23:26 23.08.2022
2065 Rain 24 1006 95 9000 1.54 120 22:30 23.08.2022
2066 Clouds 24 1006 95 9000 1.03 0 21:28 23.08.2022
2067 Clouds 24 1007 93 7000 1.54 170 19:57 23.08.2022
2068 Rain 24 1007 97 8000 2.06 170 18:33 23.08.2022
2069 Rain 24 1007 97 7000 1.54 170 17:47 23.08.2022
2070 Rain 25 1007 94 7000 2.24 216 16:50 23.08.2022
2071 Rain 25 1006 93 7000 3.58 183 15:23 23.08.2022
2072 Rain 25 1005 91 9000 5.14 250 13:26 23.08.2022
2073 Clouds 25 1003 90 9000 11.62 202 11:24 23.08.2022
2074 Rain 25 1003 92 9000 6.71 198 10:36 23.08.2022
2075 Rain 25 1003 93 8000 8.49 214 09:52 23.08.2022
2076 Rain 25 1003 94 4000 9.83 216 08:51 23.08.2022
2077 Rain 25 1003 95 4000 9.77 250 08:20 23.08.2022
2078 Rain 26 1003 93 9000 4.63 230 07:34 23.08.2022
2079 Rain 26 1004 92 9000 4.12 230 06:27 23.08.2022
2080 Clouds 25 1004 88 9000 9.83 209 02:28 23.08.2022
2081 Rain 25 1003 90 10000 6.71 202 00:28 23.08.2022
2082 Rain 25 1003 86 9000 8.23 240 23:33 22.08.2022
2083 Rain 26 1003 85 10000 8.75 250 22:34 22.08.2022
2084 Rain 27 1003 84 10000 8.49 195 21:24 22.08.2022
2085 Rain 26 1003 85 10000 6.17 240 19:47 22.08.2022
2086 Rain 27 1004 82 10000 8.23 250 18:44 22.08.2022
2087 Rain 26 1005 87 10000 9.26 250 16:47 22.08.2022
2088 Rain 26 1005 86 8000 6.17 240 15:38 22.08.2022
2089 Rain 27 1004 86 10000 9.26 250 13:44 22.08.2022
2090 Rain 29 1002 80 10000 7.72 260 10:26 22.08.2022
2091 Rain 30 1003 71 9000 6.17 280 07:58 22.08.2022
2092 Rain 29 1005 78 9000 4.12 300 03:49 22.08.2022
2093 Rain 28 1004 87 6000 3.13 359 00:38 22.08.2022
2094 Rain 28 1004 88 6000 2.06 280 00:18 22.08.2022
2095 Rain 28 1004 88 6000 1.03 0 22:18 21.08.2022
2096 Rain 28 1006 88 6000 1.54 180 21:23 21.08.2022
2097 Rain 28 1005 84 6000 2.06 320 20:36 21.08.2022
2098 Rain 28 1006 87 6000 1.03 0 19:24 21.08.2022
2099 Clouds 28 1007 83 7000 1.54 240 16:55 21.08.2022
2100 Clouds 28 1007 81 7000 2.57 310 15:53 21.08.2022
2101 Clouds 28 1006 81 7000 2.57 310 15:20 21.08.2022
2102 Rain 28 1006 83 7000 3.09 320 13:51 21.08.2022
2103 Clouds 29 1006 83 7000 3.09 320 13:24 21.08.2022
2104 Rain 29 1005 81 8000 4.12 330 11:29 21.08.2022
2105 Clouds 31 1005 75 9000 7.2 270 09:31 21.08.2022
2106 Clouds 31 1005 73 8000 6.17 260 08:56 21.08.2022
2107 Clouds 31 1005 73 8000 6.17 260 08:38 21.08.2022
2108 Clouds 31 1006 71 9000 6.26 205 07:26 21.08.2022
2109 Clouds 29 1008 77 10000 3.09 290 03:24 21.08.2022
2110 Clouds 26 1007 87 10000 1.54 270 23:45 20.08.2022
2111 Clouds 26 1007 86 10000 1.54 0 22:23 20.08.2022
2112 Clouds 26 1007 84 10000 1.03 0 21:26 20.08.2022
2113 Clouds 26 1008 81 10000 2.57 330 19:58 20.08.2022
2114 Clouds 26 1008 81 10000 2.57 330 19:39 20.08.2022
2115 Clouds 26 1008 81 10000 2.57 330 19:39 20.08.2022
2116 Clouds 26 1008 83 10000 3.6 50 18:27 20.08.2022
2117 Clouds 27 1009 82 9000 3.09 30 17:38 20.08.2022
2118 Clouds 28 1009 84 10000 6.71 349 16:35 20.08.2022
2119 Clouds 28 1009 84 10000 1.03 0 14:55 20.08.2022
2120 Clouds 29 1007 77 10000 2.68 187 12:28 20.08.2022
2121 Clouds 29 1006 77 10000 2.06 230 11:46 20.08.2022
2122 Thunderstorm 30 1008 79 9000 4.12 300 09:25 20.08.2022
2123 Rain 32 1007 65 10000 1.54 0 07:31 20.08.2022
2124 Clouds 32 1009 69 10000 2.57 0 05:48 20.08.2022
2125 Clouds 26 1008 91 9000 0.51 0 00:58 20.08.2022
2126 Clouds 26 1008 92 9000 1.03 0 23:52 19.08.2022
2127 Clouds 26 1008 92 9000 0.51 0 22:48 19.08.2022
2128 Clouds 27 1008 89 9000 1.03 0 21:34 19.08.2022
2129 Clouds 27 1008 86 9000 1.03 0 19:40 19.08.2022
2130 Clouds 28 1009 79 9000 0 0 16:32 19.08.2022
2131 Clouds 28 1008 79 10000 0.89 11 14:22 19.08.2022
2132 Rain 28 1007 77 10000 3.13 211 12:19 19.08.2022
2133 Rain 29 1007 78 10000 4.02 214 10:39 19.08.2022
2134 Rain 32 1007 65 10000 4.63 150 08:48 19.08.2022
2135 Clouds 31 1009 66 9000 2.57 130 04:43 19.08.2022
2136 Clouds 26 1008 88 10000 1.03 220 00:43 19.08.2022
2137 Clouds 26 1008 89 10000 1.03 220 00:19 19.08.2022
2138 Clouds 26 1007 90 10000 1.03 70 22:58 18.08.2022
2139 Clouds 26 1007 89 10000 1.03 70 22:26 18.08.2022
2140 Clouds 26 1007 90 10000 0.51 0 21:50 18.08.2022
2141 Clouds 26 1007 90 10000 1.03 0 20:55 18.08.2022
2142 Clouds 26 1008 90 10000 0.45 49 19:39 18.08.2022
2143 Clouds 26 1008 90 10000 0.89 44 19:20 18.08.2022
2144 Clouds 27 1009 88 10000 1.03 0 17:32 18.08.2022
2145 Clouds 27 1008 86 10000 2.57 280 15:53 18.08.2022
2146 Clouds 26 1008 90 9000 4.02 207 14:21 18.08.2022
2147 Rain 26 1008 89 9000 5.36 201 13:44 18.08.2022
2148 Rain 27 1007 88 9000 4.02 200 12:28 18.08.2022
2149 Rain 28 1007 84 9000 4.12 260 11:20 18.08.2022
2150 Rain 27 1008 91 6000 3.09 260 09:43 18.08.2022
2151 Clouds 30 1008 74 10000 4.12 280 07:27 18.08.2022
2152 Clouds 29 1009 79 10000 4.63 280 06:18 18.08.2022
2153 Clouds 29 1009 74 10000 1.54 180 01:43 18.08.2022
2154 Clouds 27 1007 88 10000 1.03 0 22:45 17.08.2022
2155 Clouds 27 1008 81 10000 1.54 90 20:21 17.08.2022
2156 Clouds 27 1008 83 10000 0.51 0 19:55 17.08.2022
2157 Rain 27 1009 86 10000 0.51 0 18:33 17.08.2022
2158 Clouds 26 1009 87 10000 2.06 220 16:52 17.08.2022
2159 Rain 26 1009 88 10000 2.57 220 15:45 17.08.2022
2160 Rain 27 1008 83 10000 0.51 0 14:36 17.08.2022
2161 Rain 27 1008 83 10000 2.06 230 12:22 17.08.2022
2162 Clouds 27 1008 85 9000 7.72 250 10:59 17.08.2022
2163 Clouds 31 1008 68 10000 5.14 260 08:26 17.08.2022
2164 Clouds 31 1008 70 10000 5.14 260 06:29 17.08.2022
2165 Clouds 27 1008 86 10000 1.03 0 00:50 17.08.2022
2166 Clouds 26 1007 87 10000 1.03 0 23:18 16.08.2022
2167 Clouds 27 1007 85 10000 0.51 0 21:21 16.08.2022
2168 Clouds 27 1008 84 10000 1.03 0 19:56 16.08.2022
2169 Clouds 27 1008 84 10000 1.03 0 19:22 16.08.2022
2170 Clouds 28 1009 84 10000 0.51 0 17:55 16.08.2022
2171 Clouds 28 1009 83 10000 0 0 16:46 16.08.2022
2172 Clouds 28 1008 83 10000 1.34 161 15:45 16.08.2022
2173 Clouds 28 1008 82 10000 2.06 250 14:54 16.08.2022
2174 Clouds 28 1008 82 10000 2.06 250 14:36 16.08.2022
2175 Clouds 29 1006 76 10000 5.14 240 11:40 16.08.2022
2176 Clouds 30 1006 77 10000 12.07 219 10:20 16.08.2022
2177 Clouds 32 1006 70 10000 9.39 213 08:49 16.08.2022
2178 Clouds 31 1006 69 10000 9.83 209 08:20 16.08.2022
2179 Clouds 31 1007 72 10000 11.18 209 05:52 16.08.2022
2180 Clouds 25 1008 95 10000 1.03 0 23:27 15.08.2022
2181 Clouds 25 1007 95 10000 1.03 90 22:20 15.08.2022
2182 Clouds 25 1007 95 10000 0.45 335 21:43 15.08.2022
2183 Clouds 25 1007 95 9000 0.51 0 20:31 15.08.2022
2184 Clouds 26 1008 91 10000 3.58 227 18:57 15.08.2022
2185 Clouds 26 1008 92 10000 1.03 0 17:59 15.08.2022
2186 Clouds 26 1008 92 10000 0.51 0 16:24 15.08.2022
2187 Clouds 26 1007 92 10000 0.51 0 15:26 15.08.2022
2188 Rain 26 1006 91 10000 3.09 250 13:27 15.08.2022
2189 Rain 26 1005 91 9000 1.03 0 10:37 15.08.2022
2190 Rain 26 1006 93 8000 3.6 240 08:54 15.08.2022
2191 Rain 29 1006 80 10000 5.66 260 06:51 15.08.2022
2192 Clouds 29 1007 79 9000 6.71 183 03:56 15.08.2022
2193 Clouds 26 1005 91 8000 1.03 0 23:38 14.08.2022
2194 Clouds 27 1005 88 9000 1.54 200 21:49 14.08.2022
2195 Clouds 27 1005 88 8000 1.03 0 20:54 14.08.2022
2196 Rain 27 1006 89 9000 0 0 19:45 14.08.2022
2197 Clouds 26 1007 92 10000 0 0 18:32 14.08.2022
2198 Clouds 26 1007 92 10000 0 0 18:32 14.08.2022
2199 Clouds 26 1007 92 10000 0.51 0 17:41 14.08.2022
2200 Clouds 26 1007 90 10000 0.51 0 16:25 14.08.2022
2201 Clouds 26 1007 93 10000 1.54 220 15:43 14.08.2022
2202 Clouds 28 1005 85 10000 2.57 310 13:52 14.08.2022
2203 Clouds 28 1005 85 10000 2.57 310 13:33 14.08.2022
2204 Clouds 28 1005 85 10000 3.09 260 12:45 14.08.2022
2205 Clouds 30 1004 75 10000 2.57 260 11:30 14.08.2022
2206 Rain 31 1004 74 10000 2.57 280 09:34 14.08.2022
2207 Rain 31 1005 74 10000 3.6 280 08:18 14.08.2022
2208 Rain 30 1006 75 10000 3.58 191 05:45 14.08.2022
2209 Clouds 27 1006 87 10000 2.24 358 01:48 14.08.2022
2210 Clouds 26 1006 90 10000 2.24 11 23:23 13.08.2022
2211 Clouds 26 1006 89 10000 2.06 20 22:28 13.08.2022
2212 Clouds 26 1006 90 10000 2.06 200 20:56 13.08.2022
2213 Clouds 26 1007 91 10000 1.54 260 19:49 13.08.2022
2214 Clouds 26 1007 91 10000 1.54 260 19:19 13.08.2022
2215 Mist 25 1008 90 9000 2.57 10 17:22 13.08.2022
2216 Clouds 26 1008 90 7000 2.57 100 14:51 13.08.2022
2217 Clouds 26 1008 89 7000 2.57 100 14:24 13.08.2022
2218 Clouds 26 1006 90 7000 3.09 70 13:34 13.08.2022
2219 Thunderstorm 30 1006 85 10000 4.12 260 11:49 13.08.2022
2220 Clouds 33 1005 68 10000 4.63 280 09:27 13.08.2022
2221 Clouds 32 1006 73 9000 4.12 300 07:43 13.08.2022
2222 Rain 27 1008 89 9000 1.34 22 01:52 13.08.2022
2223 Clouds 26 1007 92 10000 2.24 353 23:36 12.08.2022
2224 Clouds 26 1008 91 10000 0.51 0 21:40 12.08.2022
2225 Clouds 26 1008 90 10000 1.03 0 19:50 12.08.2022
2226 Rain 26 1008 90 10000 1.03 0 19:24 12.08.2022
2227 Clouds 26 1009 89 10000 2.06 30 18:29 12.08.2022
2228 Thunderstorm 26 1009 89 3500 6.69 340 16:27 12.08.2022
2229 Clouds 28 1009 85 10000 2.06 230 15:21 12.08.2022
2230 Clouds 29 1007 80 10000 4.02 223 13:50 12.08.2022
2231 Clouds 30 1006 76 10000 5.66 250 12:38 12.08.2022
2232 Clouds 31 1008 71 10000 5.66 280 08:57 12.08.2022
2233 Clouds 32 1009 65 10000 4.63 280 07:46 12.08.2022
2234 Clouds 32 1009 67 10000 4.63 280 06:24 12.08.2022
2235 Clouds 26 1009 88 10000 2.24 75 00:49 12.08.2022
2236 Clouds 26 1009 90 10000 1.34 62 23:59 11.08.2022
2237 Clouds 26 1008 90 10000 1.03 0 23:25 11.08.2022
2238 Clouds 27 1008 85 10000 1.03 220 21:53 11.08.2022
2239 Clouds 27 1008 85 10000 1.03 220 21:28 11.08.2022
2240 Clouds 27 1009 84 10000 0.51 0 20:31 11.08.2022
2241 Clouds 27 1009 84 10000 0.51 0 20:31 11.08.2022
2242 Clouds 27 1009 83 10000 1.03 0 19:33 11.08.2022
2243 Clouds 27 1009 83 10000 2.06 90 18:57 11.08.2022
2244 Clouds 27 1010 86 10000 1.54 40 17:22 11.08.2022
2245 Clouds 27 1010 86 10000 1.34 69 15:48 11.08.2022
2246 Clouds 27 1009 87 10000 2.57 30 14:40 11.08.2022
2247 Clouds 28 1008 86 10000 6.17 260 11:59 11.08.2022
2248 Clouds 31 1007 71 10000 5.66 270 09:22 11.08.2022
2249 Rain 31 1008 65 8000 3.6 310 06:49 11.08.2022
2250 Clouds 29 1009 80 7000 1.34 348 02:49 11.08.2022
2251 Clouds 27 1007 90 8000 0.51 0 23:57 10.08.2022
2252 Rain 27 1007 86 8000 1.03 0 21:49 10.08.2022
2253 Rain 27 1007 86 8000 1.03 0 21:18 10.08.2022
2254 Clouds 27 1008 86 9000 1.03 0 20:36 10.08.2022
2255 Rain 28 1008 85 9000 0.51 0 18:53 10.08.2022
2256 Rain 28 1009 83 9000 1.03 0 17:27 10.08.2022
2257 Clouds 29 1008 75 10000 1.54 260 14:53 10.08.2022
2258 Rain 29 1008 75 10000 2.57 270 13:33 10.08.2022
2259 Clouds 32 1006 63 10000 5.66 280 10:51 10.08.2022
2260 Clouds 33 1005 62 10000 4.92 189 08:42 10.08.2022
2261 Clouds 32 1007 63 10000 6.26 194 07:35 10.08.2022
2262 Clouds 31 1008 63 10000 1.79 209 04:50 10.08.2022
2263 Rain 28 1007 84 9000 1.79 233 01:52 10.08.2022
2264 Clouds 26 1006 89 10000 0.51 0 23:32 09.08.2022
2265 Clouds 26 1007 87 10000 1.03 90 22:45 09.08.2022
2266 Clouds 27 1007 85 10000 1.03 80 21:24 09.08.2022
2267 Clouds 27 1008 84 10000 1.54 220 19:28 09.08.2022
2268 Clouds 27 1008 83 10000 3.09 230 17:39 09.08.2022
2269 Clouds 28 1008 84 10000 3.09 230 17:21 09.08.2022
2270 Clouds 28 1008 81 10000 3.09 220 16:30 09.08.2022
2271 Rain 29 1008 75 10000 2.68 212 15:26 09.08.2022
2272 Clouds 30 1005 74 10000 2.06 0 11:49 09.08.2022
2273 Clouds 31 1005 71 10000 6.71 226 08:53 09.08.2022
2274 Rain 30 1006 73 10000 5.14 280 07:58 09.08.2022
2275 Clouds 29 1008 77 10000 6.17 280 05:25 09.08.2022
2276 Clouds 26 1006 93 10000 1.54 100 00:59 09.08.2022
2277 Rain 25 1006 97 10000 0 0 23:25 08.08.2022
2278 Rain 25 1006 94 10000 1.03 0 22:42 08.08.2022
2279 Rain 25 1006 97 10000 1.03 0 21:44 08.08.2022
2280 Clouds 25 1007 97 10000 1.03 260 20:43 08.08.2022
2281 Clouds 25 1008 95 10000 0.51 220 19:39 08.08.2022
2282 Clouds 25 1008 97 9000 1.03 0 18:18 08.08.2022
2283 Rain 25 1008 95 6000 2.06 10 15:54 08.08.2022
2284 Thunderstorm 25 1008 95 6000 2.06 10 15:36 08.08.2022
2285 Rain 28 1006 82 10000 0.89 20 12:30 08.08.2022
2286 Rain 28 1005 81 10000 2.06 280 10:33 08.08.2022
2287 Rain 29 1006 73 10000 2.57 90 07:59 08.08.2022
2288 Rain 26 1007 91 9000 2.57 20 03:45 08.08.2022
2289 Rain 25 1007 94 10000 0.51 0 23:28 07.08.2022
2290 Rain 25 1007 94 8000 0 0 21:41 07.08.2022
2291 Rain 25 1007 94 7000 1.03 0 20:55 07.08.2022
2292 Rain 25 1007 94 7000 1.03 0 20:18 07.08.2022
2293 Rain 25 1008 95 8000 1.54 190 19:51 07.08.2022
2294 Rain 25 1008 95 8000 1.54 190 19:22 07.08.2022
2295 Rain 26 1009 90 9000 3.09 140 17:31 07.08.2022
2296 Rain 26 1009 91 9000 1.03 0 16:52 07.08.2022
2297 Rain 26 1008 92 9000 1.03 0 15:29 07.08.2022
2298 Rain 26 1006 92 10000 1.03 0 13:55 07.08.2022
2299 Clouds 25 1006 93 9000 1.54 100 12:40 07.08.2022
2300 Rain 24 1006 96 4000 1.54 70 10:48 07.08.2022
2301 Clouds 25 1006 93 4000 2.57 190 09:56 07.08.2022
2302 Rain 29 1008 79 10000 3.09 100 04:33 07.08.2022
2303 Rain 28 1007 85 10000 1.03 0 02:18 07.08.2022
2304 Rain 26 1005 91 10000 1.03 60 22:34 06.08.2022
2305 Rain 26 1006 91 10000 0.51 0 21:52 06.08.2022
2306 Clouds 25 1006 94 9000 1.03 0 19:46 06.08.2022
2307 Clouds 26 1007 91 9000 0.51 0 18:38 06.08.2022
2308 Rain 25 1007 93 9000 1.54 80 17:45 06.08.2022
2309 Clouds 26 1008 92 7000 2.06 110 16:19 06.08.2022
2310 Clouds 27 1006 87 10000 2.06 250 13:51 06.08.2022
2311 Clouds 27 1005 86 10000 3.58 193 12:27 06.08.2022
2312 Clouds 27 1005 86 10000 3.58 193 12:27 06.08.2022
2313 Rain 27 1005 87 9000 4.02 202 10:53 06.08.2022
2314 Clouds 28 1005 85 8000 3.13 198 09:31 06.08.2022
2315 Clouds 28 1007 86 10000 5.81 207 04:43 06.08.2022
2316 Clouds 25 1006 94 10000 1.03 0 00:49 06.08.2022
2317 Clouds 25 1006 94 10000 1.54 210 22:35 05.08.2022
2318 Rain 25 1006 94 8000 1.03 0 20:50 05.08.2022
2319 Rain 25 1007 97 7000 2.06 180 18:56 05.08.2022
2320 Rain 25 1007 97 7000 2.06 180 18:38 05.08.2022
2321 Rain 25 1007 94 6000 2.57 220 16:52 05.08.2022
2322 Mist 25 1007 96 5000 3.09 220 15:24 05.08.2022
2323 Rain 25 1006 97 6000 5.14 250 14:35 05.08.2022
2324 Rain 25 1006 94 4000 5.14 270 13:36 05.08.2022
2325 Rain 25 1006 95 4000 5.14 270 13:18 05.08.2022
2326 Rain 26 1005 94 5000 3.09 230 11:29 05.08.2022
2327 Thunderstorm 26 1005 93 5000 3.6 260 08:57 05.08.2022
2328 Rain 26 1006 94 10000 3.09 250 07:34 05.08.2022
2329 Clouds 29 1009 79 9000 2.57 300 04:19 05.08.2022
2330 Rain 25 1006 95 9000 2.57 330 23:18 04.08.2022
2331 Rain 25 1007 97 8000 1.54 250 21:28 04.08.2022
2332 Rain 25 1007 94 7000 1.03 250 20:57 04.08.2022
2333 Rain 25 1007 94 7000 1.03 250 20:36 04.08.2022
2334 Rain 25 1008 94 5000 1.54 210 18:58 04.08.2022
2335 Rain 25 1009 94 5000 1.54 210 18:33 04.08.2022
2336 Clouds 26 1009 91 10000 3.13 4 15:51 04.08.2022
2337 Clouds 27 1007 87 10000 0.51 0 13:26 04.08.2022
2338 Clouds 27 1006 90 8000 2.57 110 11:39 04.08.2022
2339 Clouds 32 1006 67 10000 2.24 344 10:21 04.08.2022
2340 Rain 31 1007 72 9000 1.03 0 07:45 04.08.2022
2341 Rain 28 1009 79 9000 1.03 0 02:48 04.08.2022
2342 Clouds 26 1008 89 10000 2.06 50 00:33 04.08.2022
2343 Clouds 27 1007 88 10000 2.57 10 23:39 03.08.2022
2344 Rain 27 1008 86 10000 1.34 3 21:27 03.08.2022
2345 Clouds 28 1008 86 10000 1.34 353 20:20 03.08.2022
2346 Clouds 28 1008 83 10000 1.03 0 19:19 03.08.2022
2347 Clouds 28 1008 83 10000 4.63 130 16:48 03.08.2022
2348 Clouds 28 1008 82 10000 4.63 130 16:22 03.08.2022
2349 Clouds 28 1008 81 8000 4.12 130 13:40 03.08.2022
2350 Clouds 33 1006 63 10000 1.54 0 10:50 03.08.2022
2351 Clouds 32 1007 64 10000 2.06 130 07:23 03.08.2022
2352 Clouds 31 1009 71 7000 2.06 100 04:22 03.08.2022
2353 Rain 29 1009 80 6000 1.54 80 03:23 03.08.2022
2354 Clouds 26 1008 91 6000 0.89 61 00:49 03.08.2022
2355 Clouds 27 1008 88 7000 0 0 22:36 02.08.2022
2356 Clouds 27 1008 90 7000 1.79 70 21:51 02.08.2022
2357 Clouds 27 1008 88 7000 0.45 9 20:29 02.08.2022
2358 Rain 28 1009 84 8000 0 0 17:47 02.08.2022
2359 Clouds 29 1008 79 10000 0.51 0 14:39 02.08.2022
2360 Clouds 30 1007 75 10000 4.02 210 10:49 02.08.2022
2361 Rain 31 1007 69 9000 6.26 214 08:38 02.08.2022
2362 Clouds 31 1007 70 10000 3.09 280 07:51 02.08.2022
2363 Clouds 30 1009 75 10000 1.54 130 04:59 02.08.2022
2364 Rain 28 1009 80 10000 1.03 0 03:30 02.08.2022
2365 Clouds 25 1008 94 10000 2.06 70 23:26 01.08.2022
2366 Rain 25 1008 94 10000 0.51 0 21:49 01.08.2022
2367 Rain 25 1009 94 8000 2.06 0 20:34 01.08.2022
2368 Rain 25 1010 94 8000 2.06 320 19:21 01.08.2022
2369 Thunderstorm 25 1010 94 7000 0.89 11 17:22 01.08.2022
2370 Thunderstorm 26 1010 93 7000 3.13 32 16:48 01.08.2022
2371 Rain 28 1009 83 10000 4.12 280 15:45 01.08.2022
2372 Rain 28 1009 82 10000 4.92 335 15:19 01.08.2022
2373 Rain 28 1008 83 9000 6.17 260 13:32 01.08.2022
2374 Rain 29 1006 82 9000 7.6 200 11:18 01.08.2022
2375 Rain 29 1006 81 9000 5.36 214 09:34 01.08.2022
2376 Clouds 32 1007 69 9000 4.63 280 07:37 01.08.2022
2377 Clouds 31 1008 71 10000 1.54 70 04:37 01.08.2022
2378 Clouds 27 1007 87 10000 0.89 340 01:33 01.08.2022
2379 Rain 26 1006 91 10000 0.51 0 22:47 31.07.2022
2380 Rain 26 1006 91 10000 0.51 0 22:29 31.07.2022
2381 Rain 26 1007 91 10000 1.03 90 20:39 31.07.2022
2382 Clouds 26 1008 91 10000 0.51 0 18:42 31.07.2022
2383 Clouds 27 1008 90 10000 1.54 280 17:29 31.07.2022
2384 Rain 27 1008 90 9000 1.03 0 14:43 31.07.2022
2385 Clouds 28 1006 88 10000 1.79 210 12:59 31.07.2022
2386 Rain 27 1006 88 10000 4.92 213 11:39 31.07.2022
2387 Clouds 29 1005 86 10000 6.26 205 08:47 31.07.2022
2388 Clouds 30 1006 78 10000 3.09 300 05:38 31.07.2022
2389 Clouds 28 1006 87 10000 2.24 173 02:29 31.07.2022
2390 Clouds 26 1005 94 10000 0 0 22:49 30.07.2022
2391 Clouds 26 1005 94 10000 1.03 130 21:52 30.07.2022
2392 Clouds 26 1005 94 10000 1.03 130 21:33 30.07.2022
2393 Clouds 26 1006 94 10000 1.03 0 20:38 30.07.2022
2394 Clouds 26 1006 94 10000 1.03 0 19:50 30.07.2022
2395 Clouds 26 1007 94 10000 1.03 0 18:19 30.07.2022
2396 Clouds 26 1007 94 10000 1.54 240 16:38 30.07.2022
2397 Clouds 25 1007 99 10000 2.06 210 15:33 30.07.2022
2398 Rain 26 1006 93 10000 0 0 14:23 30.07.2022
2399 Rain 26 1006 94 9000 1.54 230 12:32 30.07.2022
2400 Rain 26 1005 94 9000 4.63 270 11:53 30.07.2022
2401 Rain 26 1005 93 9000 4.02 224 10:20 30.07.2022
2402 Rain 26 1005 93 9000 1.03 0 08:55 30.07.2022
2403 Thunderstorm 26 1005 93 5000 2.06 120 07:33 30.07.2022
2404 Rain 27 1005 86 10000 2.06 190 02:33 30.07.2022
2405 Rain 27 1004 88 10000 1.03 0 00:30 30.07.2022
2406 Thunderstorm 27 1004 88 10000 4.47 224 21:38 29.07.2022
2407 Thunderstorm 26 1004 90 10000 3.09 230 20:50 29.07.2022
2408 Clouds 27 1005 89 10000 2.57 210 19:47 29.07.2022
2409 Clouds 27 1005 90 10000 1.79 186 17:34 29.07.2022
2410 Clouds 28 1005 89 8000 3.09 230 14:50 29.07.2022
2411 Rain 29 1003 79 10000 4.12 230 12:52 29.07.2022
2412 Clouds 31 1003 74 10000 9.39 228 08:52 29.07.2022
2413 Clouds 31 1003 73 10000 5.14 260 08:24 29.07.2022
2414 Clouds 30 1005 74 10000 4.12 260 05:22 29.07.2022
2415 Clouds 27 1005 90 7000 6.26 196 01:19 29.07.2022
2416 Rain 28 1004 86 10000 2.57 210 21:41 28.07.2022
2417 Rain 28 1004 86 10000 1.54 210 20:54 28.07.2022
2418 Rain 28 1004 86 10000 1.54 210 20:20 28.07.2022
2419 Rain 28 1005 88 10000 1.03 0 19:40 28.07.2022
2420 Rain 28 1005 87 9000 2.06 80 18:20 28.07.2022
2421 Rain 28 1005 83 10000 1.54 249 17:36 28.07.2022
2422 Rain 29 1006 80 10000 3.09 0 16:41 28.07.2022
2423 Rain 30 1005 81 10000 5.66 260 14:30 28.07.2022
2424 Rain 30 1004 78 10000 5.66 260 12:41 28.07.2022
2425 Clouds 32 1004 72 10000 8.23 160 09:25 28.07.2022
2426 Rain 31 1006 71 9000 6.17 260 05:45 28.07.2022
2427 Clouds 31 1007 73 9000 6.17 260 05:21 28.07.2022
2428 Clouds 28 1005 86 10000 1.54 230 00:28 28.07.2022
2429 Rain 28 1005 84 10000 2.57 230 22:25 27.07.2022
2430 Clouds 28 1006 85 10000 2.06 250 20:20 27.07.2022
2431 Clouds 29 1006 83 10000 2.57 250 19:30 27.07.2022
2432 Clouds 29 1007 79 10000 4.12 270 16:34 27.07.2022
2433 Clouds 29 1007 82 10000 3.6 270 15:51 27.07.2022
2434 Clouds 29 1006 78 10000 5.66 250 14:42 27.07.2022
2435 Clouds 30 1006 81 10000 6.17 260 13:58 27.07.2022
2436 Clouds 30 1005 77 10000 5.81 196 11:49 27.07.2022
2437 Clouds 32 1006 70 10000 4.63 280 07:53 27.07.2022
2438 Clouds 32 1007 68 10000 3.09 280 05:23 27.07.2022
2439 Clouds 26 1006 92 8000 0.51 0 23:41 26.07.2022
2440 Clouds 26 1006 92 8000 0.51 0 22:20 26.07.2022
2441 Clouds 26 1006 89 8000 1.54 240 21:18 26.07.2022
2442 Thunderstorm 26 1007 89 5000 2.57 30 19:33 26.07.2022
2443 Clouds 26 1008 90 6000 5.66 290 18:41 26.07.2022
2444 Clouds 28 1008 85 6000 5.81 349 17:54 26.07.2022
2445 Clouds 29 1007 84 8000 0.51 0 15:47 26.07.2022
2446 Clouds 29 1007 83 9000 1.03 0 14:43 26.07.2022
2447 Clouds 29 1006 80 9000 2.06 210 12:35 26.07.2022
2448 Clouds 28 1005 85 9000 1.03 0 10:35 26.07.2022
2449 Clouds 31 1005 70 8000 5.14 280 08:29 26.07.2022
2450 Clouds 30 1007 77 9000 1.54 240 02:25 26.07.2022
2451 Clouds 27 1006 89 10000 1.03 0 00:21 26.07.2022
2452 Clouds 26 1006 87 10000 1.54 0 22:41 25.07.2022
2453 Clouds 26 1006 89 9000 0.51 0 21:44 25.07.2022
2454 Clouds 27 1006 84 10000 1.79 352 20:46 25.07.2022
2455 Clouds 27 1006 83 10000 0.89 0 20:24 25.07.2022
2456 Clouds 27 1007 84 10000 0 0 19:25 25.07.2022
2457 Clouds 27 1008 81 10000 1.34 328 17:56 25.07.2022
2458 Clouds 27 1008 81 10000 1.34 22 17:23 25.07.2022
2459 Clouds 29 1007 81 10000 2.24 357 13:36 25.07.2022
2460 Clouds 29 1005 79 10000 2.06 200 10:55 25.07.2022
2461 Clouds 28 1007 89 8000 4.63 30 08:22 25.07.2022
2462 Clouds 30 1006 76 10000 1.03 0 01:44 25.07.2022
2463 Clouds 28 1006 87 10000 1.03 200 23:46 24.07.2022
2464 Clouds 28 1006 84 10000 0 0 22:49 24.07.2022
2465 Clouds 28 1006 83 10000 0.51 0 21:48 24.07.2022
2466 Clouds 28 1006 83 10000 0.51 0 21:18 24.07.2022
2467 Clouds 28 1006 81 10000 0.89 352 20:44 24.07.2022
2468 Clouds 29 1006 79 10000 1.54 80 19:23 24.07.2022
2469 Clouds 29 1007 81 10000 1.03 0 18:26 24.07.2022
2470 Clouds 30 1007 76 10000 2.06 220 15:55 24.07.2022
2471 Clouds 30 1006 72 10000 3.09 230 14:57 24.07.2022
2472 Clouds 31 1005 71 10000 3.09 140 13:50 24.07.2022
2473 Clouds 32 1004 69 10000 2.06 140 12:28 24.07.2022
2474 Clouds 33 1004 65 10000 1.54 180 11:31 24.07.2022
2475 Clouds 34 1004 62 10000 4.47 196 09:55 24.07.2022
2476 Clouds 34 1005 62 10000 4.47 357 08:22 24.07.2022
2477 Clouds 34 1005 62 10000 1.79 58 07:41 24.07.2022
2478 Clouds 31 1008 76 10000 4.92 197 03:35 24.07.2022
2479 Clouds 27 1006 90 10000 0.51 0 23:36 23.07.2022
2480 Clouds 27 1007 88 10000 2.06 40 20:49 23.07.2022
2481 Clouds 28 1007 86 10000 1.03 0 19:30 23.07.2022
2482 Clouds 28 1008 85 10000 1.54 70 18:40 23.07.2022
2483 Clouds 28 1008 85 10000 1.03 0 17:28 23.07.2022
2484 Clouds 28 1008 84 10000 1.54 230 16:29 23.07.2022
2485 Clouds 29 1008 82 10000 1.54 120 15:22 23.07.2022
2486 Clouds 29 1008 82 10000 1.54 130 14:55 23.07.2022
2487 Clouds 29 1007 81 10000 1.54 130 14:24 23.07.2022
2488 Clouds 29 1006 78 10000 2.57 10 11:56 23.07.2022
2489 Clouds 32 1007 71 10000 1.03 60 10:44 23.07.2022
2490 Clouds 32 1007 74 10000 2.68 40 09:44 23.07.2022
2491 Clouds 32 1007 73 10000 2.06 140 07:37 23.07.2022
2492 Clouds 32 1009 68 10000 5.81 217 03:38 23.07.2022
2493 Clouds 27 1008 87 10000 1.03 0 00:39 23.07.2022
2494 Clouds 27 1008 85 10000 1.03 0 21:38 22.07.2022
2495 Clouds 27 1008 84 10000 0.51 0 20:33 22.07.2022
2496 Clouds 28 1009 86 10000 0.45 8 18:56 22.07.2022
2497 Clouds 29 1009 84 10000 0.51 0 17:40 22.07.2022
2498 Clouds 29 1010 82 10000 0.89 41 16:26 22.07.2022
2499 Clouds 29 1009 81 10000 1.54 240 13:24 22.07.2022
2500 Clouds 31 1007 71 10000 3.09 50 10:23 22.07.2022
2501 Clouds 31 1008 73 10000 3.13 339 09:24 22.07.2022
2502 Clouds 32 1008 72 10000 4.02 219 07:58 22.07.2022
2503 Clouds 29 1010 79 10000 3.09 0 04:23 22.07.2022
2504 Clouds 26 1009 89 10000 1.54 110 23:43 21.07.2022
2505 Clouds 26 1008 88 10000 1.54 10 21:51 21.07.2022
2506 Clouds 26 1009 87 10000 2.06 90 19:45 21.07.2022
2507 Clouds 26 1009 88 10000 1.54 60 18:36 21.07.2022
2508 Rain 27 1010 85 10000 1.54 170 17:22 21.07.2022
2509 Clouds 27 1010 85 10000 1.54 180 16:31 21.07.2022
2510 Rain 27 1009 83 10000 1.03 0 14:46 21.07.2022
2511 Clouds 27 1009 81 10000 1.54 170 13:58 21.07.2022
2512 Rain 28 1008 81 9000 2.06 20 11:58 21.07.2022
2513 Rain 29 1009 74 8000 1.54 10 10:20 21.07.2022
2514 Rain 30 1010 76 10000 2.57 130 08:53 21.07.2022
2515 Rain 30 1011 72 10000 2.06 120 07:50 21.07.2022
2516 Rain 29 1011 78 10000 1.03 0 06:27 21.07.2022
2517 Rain 26 1012 89 7000 3.09 50 02:49 21.07.2022
2518 Rain 27 1009 84 10000 2.06 310 22:47 20.07.2022
2519 Clouds 27 1009 83 10000 2.06 310 22:19 20.07.2022
2520 Clouds 28 1009 85 10000 1.54 100 20:46 20.07.2022
2521 Clouds 28 1009 81 10000 0.51 0 19:46 20.07.2022
2522 Clouds 28 1009 80 10000 2.57 60 18:54 20.07.2022
2523 Clouds 28 1009 80 10000 2.57 60 18:31 20.07.2022
2524 Clouds 28 1010 81 10000 1.54 80 17:25 20.07.2022
2525 Clouds 29 1009 80 10000 2.06 80 15:33 20.07.2022
2526 Clouds 29 1009 78 10000 2.06 80 14:49 20.07.2022
2527 Clouds 30 1008 78 10000 2.57 100 13:21 20.07.2022
2528 Rain 32 1007 70 10000 3.09 110 10:59 20.07.2022
2529 Clouds 33 1009 64 10000 4.02 111 06:35 20.07.2022
2530 Clouds 29 1009 76 9000 2.06 80 01:47 20.07.2022
2531 Clouds 29 1009 80 9000 1.03 0 00:42 20.07.2022
2532 Clouds 28 1008 81 9000 1.54 120 22:37 19.07.2022
2533 Clouds 28 1008 81 9000 1.54 120 22:18 19.07.2022
2534 Clouds 29 1008 80 9000 1.03 0 20:50 19.07.2022
2535 Clouds 29 1008 80 9000 1.03 0 19:32 19.07.2022
2536 Clouds 29 1009 80 9000 2.06 170 18:42 19.07.2022
2537 Clouds 29 1009 81 10000 2.06 160 17:54 19.07.2022
2538 Clouds 30 1008 75 10000 2.57 140 15:49 19.07.2022
2539 Clouds 31 1007 70 10000 2.06 0 13:46 19.07.2022
2540 Clouds 33 1006 63 10000 4.63 120 11:34 19.07.2022
2541 Clouds 34 1005 62 10000 5.14 100 09:53 19.07.2022
2542 Clouds 32 1006 66 10000 4.12 110 08:48 19.07.2022
2543 Clouds 34 1006 65 10000 4.12 120 07:57 19.07.2022
2544 Clouds 33 1007 64 10000 4.12 120 07:18 19.07.2022
2545 Clouds 33 1007 63 10000 3.6 110 05:19 19.07.2022
2546 Clouds 31 1008 69 10000 3.09 120 03:40 19.07.2022
2547 Clouds 26 1007 92 10000 0.51 0 23:57 18.07.2022
2548 Clouds 26 1007 92 10000 0.51 0 23:20 18.07.2022
2549 Clouds 26 1007 92 10000 0.51 0 22:27 18.07.2022
2550 Clouds 26 1007 91 10000 1.03 210 21:26 18.07.2022
2551 Clouds 27 1007 92 10000 1.03 0 20:45 18.07.2022
2552 Clouds 27 1008 87 10000 2.06 100 18:50 18.07.2022
2553 Rain 26 1008 91 9000 0.51 0 16:45 18.07.2022
2554 Rain 26 1008 93 9000 0 0 15:34 18.07.2022
2555 Clouds 27 1008 90 8000 3.6 30 13:32 18.07.2022
2556 Rain 29 1006 79 8000 2.57 0 11:44 18.07.2022
2557 Clouds 30 1005 80 10000 2.57 0 09:55 18.07.2022
2558 Clouds 31 1005 72 9000 2.06 260 08:19 18.07.2022
2559 Clouds 30 1007 75 8000 2.06 130 05:35 18.07.2022
2560 Clouds 25 1007 91 10000 1.03 0 23:19 17.07.2022
2561 Clouds 25 1007 91 10000 2.06 10 22:32 17.07.2022
2562 Clouds 25 1007 93 10000 1.03 230 21:40 17.07.2022
2563 Clouds 25 1007 93 10000 1.03 0 20:46 17.07.2022
2564 Clouds 25 1008 92 10000 1.03 190 19:50 17.07.2022
2565 Clouds 25 1008 92 10000 1.34 2 19:24 17.07.2022
2566 Clouds 26 1008 88 10000 1.03 0 17:54 17.07.2022
2567 Clouds 26 1008 88 10000 1.34 344 17:36 17.07.2022
2568 Clouds 26 1008 90 9000 1.03 0 16:33 17.07.2022
2569 Clouds 26 1008 91 9000 1.79 3 15:50 17.07.2022
2570 Clouds 27 1008 94 8000 4.12 310 13:58 17.07.2022
2571 Clouds 28 1007 90 7000 3.09 260 12:56 17.07.2022
2572 Rain 30 1006 76 9000 4.63 260 10:21 17.07.2022
2573 Clouds 31 1007 70 9000 3.6 280 07:31 17.07.2022
2574 Clouds 28 1008 83 10000 2.06 100 02:35 17.07.2022
2575 Clouds 25 1008 91 10000 1.03 0 23:28 16.07.2022
2576 Clouds 25 1009 91 10000 1.03 0 22:43 16.07.2022
2577 Clouds 25 1009 91 10000 1.03 0 20:45 16.07.2022
2578 Clouds 25 1009 91 10000 2.57 240 18:58 16.07.2022
2579 Clouds 25 1010 93 10000 1.54 230 17:48 16.07.2022
2580 Clouds 25 1010 94 9000 1.03 0 16:22 16.07.2022
2581 Clouds 28 1010 83 7000 5.66 340 13:26 16.07.2022
2582 Thunderstorm 30 1006 80 9000 4.12 270 10:29 16.07.2022
2583 Rain 31 1005 76 7000 4.63 260 09:26 16.07.2022
2584 Rain 32 1005 73 9000 5.14 280 08:41 16.07.2022
2585 Clouds 33 1006 71 9000 6.26 336 07:23 16.07.2022
2586 Clouds 31 1007 72 10000 2.68 344 03:38 16.07.2022
2587 Clouds 27 1007 88 10000 0.51 0 00:48 16.07.2022
2588 Clouds 26 1007 90 10000 0 0 22:57 15.07.2022
2589 Clouds 26 1007 90 10000 0 0 22:26 15.07.2022
2590 Clouds 26 1007 87 10000 1.54 80 20:44 15.07.2022
2591 Clouds 26 1008 87 10000 1.03 0 19:34 15.07.2022
2592 Clouds 25 1009 92 10000 1.03 0 18:23 15.07.2022
2593 Clouds 25 1010 91 4000 4.12 360 17:19 15.07.2022
2594 Clouds 30 1008 80 10000 4.63 250 14:19 15.07.2022
2595 Clouds 31 1006 75 10000 5.14 260 12:37 15.07.2022
2596 Clouds 32 1005 69 10000 6.71 216 10:52 15.07.2022
2597 Clouds 33 1006 66 10000 7.6 208 07:55 15.07.2022
2598 Clouds 31 1008 72 10000 3.09 290 04:54 15.07.2022
2599 Clouds 27 1007 90 10000 0.51 0 00:43 15.07.2022
2600 Clouds 27 1007 91 9000 1.03 0 23:24 14.07.2022
2601 Clouds 27 1007 88 9000 1.03 0 22:24 14.07.2022
2602 Clouds 27 1007 90 9000 0.51 0 21:40 14.07.2022
2603 Clouds 27 1007 90 9000 0.51 0 21:21 14.07.2022
2604 Clouds 27 1007 90 10000 1.03 0 20:43 14.07.2022
2605 Clouds 28 1007 90 10000 1.03 0 20:18 14.07.2022
2606 Clouds 28 1008 87 10000 2.06 90 18:24 14.07.2022
2607 Clouds 28 1009 84 10000 1.54 130 16:19 14.07.2022
2608 Clouds 28 1008 85 10000 1.54 130 15:26 14.07.2022
2609 Clouds 29 1007 82 10000 3.13 205 13:51 14.07.2022
2610 Rain 30 1006 77 10000 4.92 198 12:36 14.07.2022
2611 Rain 30 1005 73 10000 6.17 260 11:28 14.07.2022
2612 Rain 31 1006 72 10000 7.6 200 10:52 14.07.2022
2613 Clouds 33 1005 67 10000 8.05 211 08:58 14.07.2022
2614 Clouds 32 1007 65 10000 5.36 208 04:45 14.07.2022
2615 Clouds 30 1006 81 10000 0.51 0 01:19 14.07.2022
2616 Clouds 28 1006 84 10000 0.51 0 00:51 14.07.2022
2617 Clouds 27 1005 87 10000 1.03 0 22:31 13.07.2022
2618 Clouds 27 1006 87 10000 1.03 0 21:42 13.07.2022
2619 Clouds 27 1006 87 10000 0 0 20:41 13.07.2022
2620 Clouds 28 1007 83 10000 0.51 0 18:40 13.07.2022
2621 Clouds 28 1007 82 10000 1.03 0 17:31 13.07.2022
2622 Clouds 28 1007 82 10000 1.03 0 17:31 13.07.2022
2623 Clouds 28 1007 81 10000 1.54 250 16:19 13.07.2022
2624 Rain 29 1006 78 10000 1.54 230 14:46 13.07.2022
2625 Rain 29 1006 78 10000 1.54 230 14:46 13.07.2022
2626 Rain 29 1005 76 10000 5.66 260 11:54 13.07.2022
2627 Rain 30 1004 75 10000 8.05 159 10:45 13.07.2022
2628 Clouds 31 1006 79 10000 6.69 270 09:54 13.07.2022
2629 Clouds 31 1005 77 10000 6.69 270 09:20 13.07.2022
2630 Clouds 30 1007 75 10000 7.2 270 05:22 13.07.2022
2631 Clouds 27 1007 90 10000 0.89 6 01:21 13.07.2022
2632 Rain 26 1006 91 10000 1.03 90 23:21 12.07.2022
2633 Clouds 27 1006 91 10000 1.54 250 21:49 12.07.2022
2634 Clouds 27 1006 90 9000 1.54 220 20:57 12.07.2022
2635 Clouds 27 1006 90 9000 4.47 204 20:37 12.07.2022
2636 Rain 27 1007 91 9000 2.68 0 18:53 12.07.2022
2637 Rain 27 1007 94 7686 0.51 0 17:32 12.07.2022
2638 Clouds 28 1006 90 9000 2.06 280 15:37 12.07.2022
2639 Rain 29 1005 86 10000 2.24 229 13:44 12.07.2022
2640 Rain 29 1004 86 9000 2.06 260 11:59 12.07.2022
2641 Rain 29 1004 87 9000 2.06 260 10:47 12.07.2022
2642 Rain 29 1005 85 8000 2.06 260 09:19 12.07.2022
2643 Rain 29 1005 81 8000 3.6 280 07:57 12.07.2022
2644 Rain 31 1007 78 9000 3.13 195 05:54 12.07.2022
2645 Rain 31 1007 76 9000 3.13 194 05:35 12.07.2022
2646 Clouds 27 1006 92 9000 0 0 01:43 12.07.2022
2647 Clouds 27 1006 92 10000 1.03 50 22:52 11.07.2022
2648 Clouds 27 1006 92 10000 1.54 60 21:44 11.07.2022
2649 Rain 27 1007 91 9000 1.03 0 20:33 11.07.2022
2650 Clouds 27 1007 91 9000 0.51 0 19:32 11.07.2022
2651 Clouds 27 1008 90 9000 2.06 190 18:32 11.07.2022
2652 Rain 28 1008 89 10000 1.54 110 17:31 11.07.2022
2653 Clouds 28 1007 89 10000 1.03 0 15:34 11.07.2022
2654 Clouds 28 1007 87 10000 1.54 160 13:37 11.07.2022
2655 Clouds 29 1006 85 7000 2.57 160 11:38 11.07.2022
2656 Clouds 31 1006 74 9000 4.63 270 10:18 11.07.2022
2657 Rain 31 1004 78 9000 5.14 260 09:40 11.07.2022
2658 Clouds 35 1005 58 10000 2.68 21 08:33 11.07.2022
2659 Rain 29 1007 81 10000 1.54 110 03:23 11.07.2022
2660 Clouds 27 1006 89 10000 1.34 63 00:20 11.07.2022
2661 Clouds 28 1005 86 10000 1.54 80 22:55 10.07.2022
2662 Clouds 28 1005 88 10000 1.54 210 21:39 10.07.2022
2663 Clouds 28 1005 85 10000 2.06 170 20:41 10.07.2022
2664 Clouds 28 1006 84 10000 2.06 130 19:48 10.07.2022
2665 Clouds 28 1006 82 10000 2.06 120 18:43 10.07.2022
2666 Clouds 28 1007 82 10000 2.06 90 17:36 10.07.2022
2667 Rain 29 1007 83 10000 2.57 100 16:41 10.07.2022
2668 Clouds 29 1007 83 10000 1.54 0 15:24 10.07.2022
2669 Clouds 29 1006 83 10000 2.06 260 13:48 10.07.2022
2670 Rain 29 1005 84 10000 3.13 212 12:27 10.07.2022
2671 Rain 31 1004 72 10000 3.09 150 09:58 10.07.2022
2672 Clouds 33 1004 65 10000 3.13 353 08:44 10.07.2022
2673 Clouds 33 1005 61 10000 4.02 330 07:30 10.07.2022
2674 Clouds 28 1006 87 10000 0.45 117 01:31 10.07.2022
2675 Clouds 27 1005 89 10000 2.57 50 22:43 09.07.2022
2676 Clouds 27 1005 90 10000 2.57 50 22:19 09.07.2022
2677 Rain 27 1005 92 8000 1.54 0 20:45 09.07.2022
2678 Clouds 29 1006 82 10000 2.06 150 18:37 09.07.2022
2679 Clouds 29 1006 81 10000 3.09 110 17:45 09.07.2022
2680 Clouds 30 1006 77 10000 2.57 130 16:44 09.07.2022
2681 Clouds 30 1006 78 10000 2.57 140 15:40 09.07.2022
2682 Clouds 30 1005 75 10000 3.6 120 14:36 09.07.2022
2683 Clouds 31 1005 72 10000 3.6 130 13:50 09.07.2022
2684 Clouds 31 1004 71 10000 2.57 120 12:45 09.07.2022
2685 Rain 32 1003 70 10000 5.14 110 11:22 09.07.2022
2686 Clouds 34 1004 63 10000 3.09 120 10:22 09.07.2022
2687 Clouds 34 1004 63 10000 3.6 130 07:45 09.07.2022
2688 Clouds 32 1005 68 10000 3.09 100 04:59 09.07.2022
2689 Clouds 29 1005 82 8000 1.03 0 02:34 09.07.2022
2690 Rain 27 1004 85 10000 2.06 90 22:54 08.07.2022
2691 Rain 28 1005 86 10000 1.54 100 21:58 08.07.2022
2692 Rain 28 1004 85 10000 2.06 80 20:41 08.07.2022
2693 Clouds 28 1005 86 10000 1.54 90 19:53 08.07.2022
2694 Clouds 28 1005 84 10000 2.06 120 18:24 08.07.2022
2695 Rain 28 1006 83 10000 1.54 0 16:40 08.07.2022
2696 Clouds 28 1005 85 10000 2.06 160 14:53 08.07.2022
2697 Rain 29 1005 83 10000 1.54 100 13:29 08.07.2022
2698 Clouds 30 1003 75 10000 2.06 140 11:51 08.07.2022
2699 Clouds 31 1003 71 10000 1.03 0 10:29 08.07.2022
2700 Rain 31 1004 69 10000 2.57 120 08:33 08.07.2022
2701 Rain 30 1005 75 10000 2.57 0 06:50 08.07.2022
2702 Rain 27 1006 90 9000 0.51 0 01:31 08.07.2022
2703 Clouds 27 1005 91 9000 1.03 0 22:59 07.07.2022
2704 Clouds 27 1005 91 9000 1.03 0 22:29 07.07.2022
2705 Rain 27 1006 91 9000 1.54 230 20:35 07.07.2022
2706 Clouds 27 1007 93 9000 0.51 0 18:20 07.07.2022
2707 Clouds 27 1008 93 10000 0.51 0 16:51 07.07.2022
2708 Clouds 27 1007 89 10000 1.03 0 14:34 07.07.2022
2709 Rain 27 1007 90 9000 2.57 190 13:18 07.07.2022
2710 Rain 28 1006 85 9000 2.57 260 12:24 07.07.2022
2711 Rain 28 1006 85 9000 2.57 260 12:24 07.07.2022
2712 Rain 28 1005 82 10000 2.24 336 11:44 07.07.2022
2713 Clouds 28 1005 81 10000 1.54 360 11:24 07.07.2022
2714 Rain 28 1005 83 10000 2.06 360 10:40 07.07.2022
2715 Rain 28 1005 84 10000 2.06 360 10:22 07.07.2022
2716 Clouds 31 1007 74 10000 3.6 0 06:40 07.07.2022
2717 Rain 27 1007 89 10000 1.22 61 00:32 07.07.2022
2718 Rain 27 1006 89 10000 1.35 61 23:36 06.07.2022
2719 Rain 27 1007 90 10000 1.28 60 23:18 06.07.2022
2720 Clouds 27 1006 92 7000 1.03 0 22:52 06.07.2022
2721 Clouds 27 1006 92 7000 1.03 0 22:34 06.07.2022
2722 Rain 27 1007 90 8000 1.03 0 20:30 06.07.2022
2723 Clouds 27 1007 90 8000 0 0 19:33 06.07.2022
2724 Clouds 28 1008 86 9000 1.03 0 17:22 06.07.2022
2725 Clouds 29 1008 82 10000 1.54 0 15:58 06.07.2022
2726 Clouds 28 1007 82 10000 3.09 320 13:21 06.07.2022
2727 Clouds 29 1007 78 10000 2.57 280 12:28 06.07.2022
2728 Clouds 29 1006 79 9000 2.06 270 11:44 06.07.2022
2729 Clouds 27 1006 90 8000 4.12 70 09:50 06.07.2022
2730 Rain 32 1006 66 9000 5.36 342 07:44 06.07.2022
2731 Clouds 32 1007 66 8000 3.58 354 06:49 06.07.2022
2732 Rain 26 1008 86 9000 1.54 220 00:38 06.07.2022
2733 Clouds 25 1007 91 9000 0 0 22:43 05.07.2022
2734 Clouds 25 1007 88 9000 0 0 20:57 05.07.2022
2735 Clouds 25 1007 87 9000 0 0 20:33 05.07.2022
2736 Clouds 25 1007 85 9000 0 0 19:39 05.07.2022
2737 Clouds 25 1008 86 9000 3.09 20 17:55 05.07.2022
2738 Clouds 25 1009 86 9000 3.09 20 17:25 05.07.2022
2739 Thunderstorm 25 1009 91 9000 6.17 20 16:32 05.07.2022
2740 Clouds 28 1009 83 10000 5.36 343 14:54 05.07.2022
2741 Clouds 29 1007 76 10000 0.89 26 13:36 05.07.2022
2742 Clouds 30 1006 74 10000 1.03 0 12:24 05.07.2022
2743 Clouds 29 1005 77 10000 1.54 140 10:46 05.07.2022
2744 Clouds 31 1006 71 9000 2.06 0 09:57 05.07.2022
2745 Clouds 32 1006 62 10000 2.24 229 08:21 05.07.2022
2746 Clouds 32 1007 64 10000 3.58 214 06:51 05.07.2022
2747 Clouds 30 1008 71 9000 1.79 15 04:35 05.07.2022
2748 Clouds 28 1008 81 9000 1.54 30 01:33 05.07.2022
2749 Clouds 26 1007 89 9000 1.34 16 23:37 04.07.2022
2750 Clouds 26 1007 91 9000 0.45 9 22:56 04.07.2022
2751 Clouds 26 1007 91 9000 0 0 22:18 04.07.2022
2752 Clouds 26 1006 89 9000 1.03 0 20:56 04.07.2022
2753 Clouds 27 1006 88 9000 1.03 0 20:36 04.07.2022
2754 Clouds 26 1007 89 9000 0 0 19:56 04.07.2022
2755 Clouds 26 1007 89 9000 0 0 19:37 04.07.2022
2756 Rain 26 1008 87 9000 0.51 0 18:35 04.07.2022
2757 Rain 26 1009 88 9000 1.03 0 16:51 04.07.2022
2758 Rain 27 1009 89 9000 1.34 19 15:35 04.07.2022
2759 Rain 27 1007 88 9000 1.54 90 13:44 04.07.2022
2760 Rain 27 1007 89 8000 2.06 130 12:38 04.07.2022
2761 Rain 28 1005 82 9000 3.09 210 10:39 04.07.2022
2762 Rain 30 1005 79 9000 3.09 210 10:20 04.07.2022
2763 Clouds 33 1004 60 10000 2.68 177 08:31 04.07.2022
2764 Clouds 33 1006 65 10000 2.68 184 05:36 04.07.2022
2765 Clouds 28 1006 84 10000 1.79 82 00:44 04.07.2022
2766 Clouds 28 1006 84 10000 1.79 82 00:44 04.07.2022
2767 Clouds 28 1006 82 10000 1.03 0 23:38 03.07.2022
2768 Clouds 29 1006 80 10000 0.51 0 22:23 03.07.2022
2769 Clouds 29 1006 82 10000 1.54 110 20:42 03.07.2022
2770 Clouds 29 1006 81 10000 1.03 0 19:42 03.07.2022
2771 Clouds 29 1006 81 10000 1.03 0 19:23 03.07.2022
2772 Clouds 29 1008 82 10000 1.54 130 17:46 03.07.2022
2773 Clouds 29 1008 82 10000 1.54 130 17:18 03.07.2022
2774 Clouds 30 1007 78 10000 1.03 0 15:26 03.07.2022
2775 Clouds 31 1007 74 10000 3.09 130 14:37 03.07.2022
2776 Clouds 31 1007 66 10000 1.03 270 13:49 03.07.2022
2777 Clouds 32 1006 62 10000 1.54 240 12:42 03.07.2022
2778 Clouds 32 1005 62 10000 3.09 290 11:40 03.07.2022
2779 Rain 33 1005 60 10000 4.12 280 10:40 03.07.2022
2780 Clouds 34 1005 55 10000 3.09 270 09:59 03.07.2022
2781 Clouds 33 1007 62 10000 3.6 280 07:37 03.07.2022
2782 Clouds 31 1007 67 10000 3.6 270 05:22 03.07.2022
2783 Rain 28 1006 86 10000 1.03 0 00:24 03.07.2022
2784 Clouds 27 1006 86 10000 1.03 0 22:36 02.07.2022
2785 Clouds 28 1007 84 10000 0.51 0 21:38 02.07.2022
2786 Clouds 28 1007 83 10000 0.51 0 19:53 02.07.2022
2787 Clouds 28 1007 83 10000 0.51 0 19:31 02.07.2022
2788 Clouds 29 1009 80 10000 1.03 0 17:58 02.07.2022
2789 Rain 28 1009 80 10000 1.03 0 17:36 02.07.2022
2790 Clouds 29 1008 74 10000 1.03 0 15:29 02.07.2022
2791 Rain 31 1006 68 10000 2.57 140 12:24 02.07.2022
2792 Rain 32 1005 66 10000 2.57 130 11:28 02.07.2022
2793 Clouds 32 1005 64 10000 3.6 120 10:48 02.07.2022
2794 Rain 31 1006 72 10000 2.57 140 09:49 02.07.2022
2795 Clouds 32 1006 66 10000 2.57 110 08:36 02.07.2022
2796 Clouds 32 1006 67 10000 2.57 110 08:18 02.07.2022
2797 Clouds 28 1007 77 10000 1.54 0 02:52 02.07.2022
2798 Clouds 27 1006 83 10000 0 0 00:27 02.07.2022
2799 Clouds 27 1006 84 10000 1.54 130 22:59 01.07.2022
2800 Clouds 27 1006 84 10000 1.54 130 22:19 01.07.2022
2801 Clouds 27 1006 84 10000 2.06 0 21:37 01.07.2022
2802 Clouds 27 1006 84 10000 1.54 120 20:57 01.07.2022
2803 Clouds 26 1007 86 10000 0.51 0 19:47 01.07.2022
2804 Clouds 26 1009 88 10000 2.57 230 18:42 01.07.2022
2805 Rain 27 1009 83 10000 2.57 230 16:35 01.07.2022
2806 Rain 27 1007 83 10000 3.09 220 13:55 01.07.2022
2807 Clouds 29 1008 79 10000 9.39 185 12:59 01.07.2022
2808 Clouds 32 1006 62 10000 5.66 220 10:46 01.07.2022
2809 Rain 32 1006 62 10000 5.66 220 10:18 01.07.2022
2810 Rain 30 1007 70 10000 3.09 230 05:27 01.07.2022
2811 Clouds 28 1006 84 10000 1.03 0 01:27 01.07.2022
2812 Rain 26 1005 91 10000 1.03 0 23:26 30.06.2022
2813 Rain 26 1005 91 10000 1.03 0 22:44 30.06.2022
2814 Rain 26 1005 91 10000 1.03 0 22:26 30.06.2022
2815 Rain 26 1004 91 10000 1.03 0 21:48 30.06.2022
2816 Rain 26 1005 91 10000 1.03 0 20:30 30.06.2022
2817 Clouds 26 1005 91 8000 2.06 130 19:55 30.06.2022
2818 Rain 26 1005 90 8000 2.06 130 19:26 30.06.2022
2819 Clouds 26 1006 87 8000 1.54 0 18:42 30.06.2022
2820 Thunderstorm 26 1007 86 8000 3.09 150 17:49 30.06.2022
2821 Thunderstorm 27 1007 86 8000 2.57 180 16:55 30.06.2022
2822 Rain 28 1006 81 10000 3.58 237 15:44 30.06.2022
2823 Clouds 30 1004 76 10000 8.49 213 13:49 30.06.2022
2824 Clouds 30 1003 69 10000 5.81 224 12:36 30.06.2022
2825 Clouds 30 1003 74 10000 4.12 250 11:56 30.06.2022
2826 Rain 30 1003 78 10000 5.66 270 09:55 30.06.2022
2827 Rain 30 1003 80 10000 7.15 208 09:35 30.06.2022
2828 Rain 33 1002 61 10000 5.14 200 08:19 30.06.2022
2829 Rain 33 1002 61 10000 5.14 200 08:19 30.06.2022
2830 Clouds 33 1002 58 10000 3.6 200 07:24 30.06.2022
2831 Clouds 29 1005 81 10000 2.06 140 02:38 30.06.2022
2832 Rain 26 1003 90 10000 0 0 23:38 29.06.2022
2833 Rain 27 1003 85 10000 1.54 190 22:41 29.06.2022
2834 Rain 27 1003 86 10000 1.03 0 21:58 29.06.2022
2835 Clouds 27 1004 88 9000 1.03 0 20:34 29.06.2022
2836 Clouds 27 1004 89 9000 0.51 0 19:55 29.06.2022
2837 Clouds 26 1006 89 9000 2.57 0 17:54 29.06.2022
2838 Clouds 29 1004 78 10000 1.54 180 16:51 29.06.2022
2839 Clouds 29 1004 78 10000 1.54 180 16:51 29.06.2022
2840 Clouds 29 1004 72 10000 1.03 0 15:32 29.06.2022
2841 Clouds 30 1002 70 10000 2.06 210 13:20 29.06.2022
2842 Clouds 30 1001 76 10000 6.26 213 11:57 29.06.2022
2843 Clouds 31 1001 69 10000 2.24 204 09:35 29.06.2022
2844 Clouds 29 1002 77 9000 2.06 120 08:46 29.06.2022
2845 Clouds 33 1004 62 10000 2.57 0 06:27 29.06.2022
2846 Clouds 29 1004 79 10000 0 0 02:21 29.06.2022
2847 Clouds 26 1003 90 10000 1.03 0 00:38 29.06.2022
2848 Clouds 26 1002 91 10000 0.51 0 23:55 28.06.2022
2849 Clouds 26 1003 90 10000 1.03 0 22:48 28.06.2022
2850 Clouds 26 1003 91 10000 1.34 262 21:55 28.06.2022
2851 Clouds 26 1003 91 10000 1.03 0 21:33 28.06.2022
2852 Clouds 26 1002 91 10000 1.54 90 20:55 28.06.2022
2853 Clouds 26 1003 91 10000 1.54 100 19:48 28.06.2022
2854 Clouds 26 1003 91 10000 1.54 100 19:24 28.06.2022
2855 Rain 26 1004 93 10000 1.03 0 18:37 28.06.2022
2856 Rain 26 1005 93 9000 0.51 0 16:35 28.06.2022
2857 Rain 25 1005 95 9000 1.03 0 15:54 28.06.2022
2858 Rain 25 1004 96 7000 1.03 0 14:22 28.06.2022
2859 Thunderstorm 25 1004 96 7000 1.03 0 13:55 28.06.2022
2860 Thunderstorm 25 1004 95 7000 1.03 0 13:32 28.06.2022
2861 Rain 27 1003 90 10000 2.68 146 11:57 28.06.2022
2862 Rain 29 1003 82 10000 2.57 120 09:46 28.06.2022
2863 Rain 31 1004 73 10000 3.6 120 08:46 28.06.2022
2864 Clouds 32 1003 66 10000 3.6 120 07:58 28.06.2022
2865 Clouds 32 1003 66 10000 3.6 120 07:19 28.06.2022
2866 Clouds 29 1005 75 10000 2.06 0 02:25 28.06.2022
2867 Clouds 27 1004 84 10000 1.54 90 23:47 27.06.2022
2868 Clouds 27 1005 86 10000 0 0 22:55 27.06.2022
2869 Clouds 27 1005 86 10000 1.54 90 21:39 27.06.2022
2870 Clouds 27 1005 85 10000 1.03 0 20:55 27.06.2022
2871 Clouds 27 1006 85 10000 0.51 0 19:44 27.06.2022
2872 Clouds 27 1006 86 10000 1.03 0 18:40 27.06.2022
2873 Clouds 27 1006 86 10000 1.03 0 17:24 27.06.2022
2874 Clouds 28 1006 83 10000 1.03 0 15:43 27.06.2022
2875 Clouds 28 1005 81 10000 2.06 180 13:44 27.06.2022
2876 Clouds 28 1005 79 10000 2.24 167 12:57 27.06.2022
2877 Clouds 29 1005 78 10000 4.63 190 10:43 27.06.2022
2878 Rain 30 1004 73 10000 4.63 110 09:37 27.06.2022
2879 Rain 31 1005 72 10000 3.6 320 08:32 27.06.2022
2880 Rain 31 1005 71 9000 4.12 310 07:38 27.06.2022
2881 Clouds 30 1007 74 10000 1.54 0 04:21 27.06.2022
2882 Clouds 27 1007 88 10000 1.03 0 01:20 27.06.2022
2883 Rain 26 1006 91 10000 0.89 355 22:47 26.06.2022
2884 Clouds 26 1006 87 10000 1.03 90 20:55 26.06.2022
2885 Rain 26 1007 87 10000 1.03 0 19:59 26.06.2022
2886 Rain 26 1008 87 10000 2.06 40 18:32 26.06.2022
2887 Clouds 27 1009 83 10000 1.54 340 17:33 26.06.2022
2888 Clouds 27 1008 86 10000 4.02 2 15:31 26.06.2022
2889 Clouds 27 1008 86 10000 1.79 10 13:55 26.06.2022
2890 Clouds 28 1007 81 10000 1.03 0 13:23 26.06.2022
2891 Clouds 29 1006 78 10000 5.14 100 11:31 26.06.2022
2892 Clouds 32 1006 66 10000 2.68 353 10:29 26.06.2022
2893 Clouds 32 1006 66 10000 2.68 353 10:29 26.06.2022
2894 Clouds 32 1006 67 10000 4.92 60 09:39 26.06.2022
2895 Clouds 32 1008 68 10000 4.63 290 07:46 26.06.2022
2896 Clouds 29 1009 78 10000 2.24 8 03:19 26.06.2022
2897 Clouds 27 1007 83 10000 0.51 0 00:36 26.06.2022
2898 Clouds 27 1007 84 10000 1.79 60 00:18 26.06.2022
2899 Clouds 26 1007 87 10000 0.45 357 23:24 25.06.2022
2900 Clouds 27 1007 83 10000 1.54 200 22:28 25.06.2022
2901 Clouds 27 1007 85 10000 1.03 0 21:50 25.06.2022
2902 Clouds 27 1007 85 10000 1.03 0 21:20 25.06.2022
2903 Clouds 27 1007 85 10000 1.54 250 20:30 25.06.2022
2904 Clouds 27 1008 83 10000 1.03 0 19:55 25.06.2022
2905 Clouds 28 1008 83 10000 1.03 0 18:21 25.06.2022
2906 Clouds 28 1008 81 10000 1.03 0 17:25 25.06.2022
2907 Clouds 29 1008 78 10000 1.03 0 15:42 25.06.2022
2908 Clouds 30 1007 75 10000 1.54 140 13:48 25.06.2022
2909 Clouds 31 1006 74 10000 1.54 0 12:38 25.06.2022
2910 Clouds 32 1005 69 10000 3.58 205 10:58 25.06.2022
2911 Clouds 32 1006 63 10000 1.54 120 09:22 25.06.2022
2912 Clouds 31 1007 70 10000 3.09 300 08:46 25.06.2022
2913 Clouds 31 1007 70 10000 3.09 300 08:19 25.06.2022
2914 Rain 31 1008 69 10000 1.79 220 05:23 25.06.2022
2915 Clouds 27 1007 87 10000 1.03 0 00:43 25.06.2022
2916 Clouds 27 1006 87 10000 0.51 0 22:56 24.06.2022
2917 Clouds 27 1006 84 10000 1.03 0 21:44 24.06.2022
2918 Clouds 27 1007 87 10000 0.51 0 20:57 24.06.2022
2919 Clouds 28 1007 85 10000 0.51 0 20:19 24.06.2022
2920 Clouds 28 1007 84 10000 1.03 240 19:22 24.06.2022
2921 Clouds 28 1008 86 10000 1.54 260 18:49 24.06.2022
2922 Clouds 28 1008 86 10000 1.54 260 18:30 24.06.2022
2923 Clouds 28 1008 84 10000 1.34 359 17:41 24.06.2022
2924 Clouds 29 1008 78 10000 1.54 220 15:51 24.06.2022
2925 Clouds 30 1008 75 10000 1.03 0 14:28 24.06.2022
2926 Clouds 30 1007 74 10000 3.09 220 13:55 24.06.2022
2927 Clouds 32 1006 68 10000 2.57 300 11:45 24.06.2022
2928 Clouds 32 1006 67 10000 2.57 300 11:22 24.06.2022
2929 Clouds 31 1006 69 10000 3.09 300 10:19 24.06.2022
2930 Rain 32 1006 63 10000 1.03 0 09:40 24.06.2022
2931 Rain 31 1007 66 10000 2.68 3 08:52 24.06.2022
2932 Rain 31 1008 68 10000 3.13 12 06:49 24.06.2022
2933 Rain 31 1008 68 10000 3.09 120 06:30 24.06.2022
2934 Rain 31 1009 68 10000 3.58 198 05:55 24.06.2022
2935 Clouds 28 1009 77 10000 0.51 0 01:36 24.06.2022
2936 Clouds 27 1008 84 10000 0.51 0 22:45 23.06.2022
2937 Clouds 27 1008 84 10000 0.51 0 22:18 23.06.2022
2938 Clouds 27 1008 85 10000 1.03 0 20:54 23.06.2022
2939 Clouds 27 1008 85 10000 1.03 0 20:32 23.06.2022
2940 Clouds 28 1009 79 10000 1.03 0 18:49 23.06.2022
2941 Clouds 28 1010 78 10000 2.06 140 17:50 23.06.2022
2942 Clouds 28 1010 77 10000 2.06 110 16:42 23.06.2022
2943 Clouds 29 1009 77 10000 2.06 110 15:43 23.06.2022
2944 Clouds 29 1009 77 10000 2.06 110 15:23 23.06.2022
2945 Clouds 30 1007 72 10000 2.57 0 12:43 23.06.2022
2946 Clouds 31 1007 65 10000 2.24 7 11:20 23.06.2022
2947 Rain 31 1007 73 10000 3.6 10 09:30 23.06.2022
2948 Clouds 31 1008 66 10000 2.06 0 07:51 23.06.2022
2949 Clouds 26 1010 84 9000 2.06 70 01:29 23.06.2022
2950 Clouds 24 1009 92 10000 1.03 0 00:25 23.06.2022
2951 Rain 24 1009 90 10000 2.06 40 23:23 22.06.2022
2952 Rain 24 1010 91 8000 3.6 340 21:45 22.06.2022
2953 Rain 24 1010 91 8000 3.6 340 21:45 22.06.2022
2954 Rain 24 1010 93 7000 3.58 6 20:57 22.06.2022
2955 Rain 24 1011 93 7000 2.06 310 20:20 22.06.2022
2956 Rain 24 1012 93 7000 2.06 90 19:44 22.06.2022
2957 Rain 27 1012 87 9000 1.03 0 17:50 22.06.2022
2958 Rain 27 1011 87 9000 1.03 0 17:20 22.06.2022
2959 Rain 28 1011 80 10000 2.06 230 15:46 22.06.2022
2960 Rain 27 1010 83 10000 2.82 122 15:22 22.06.2022
2961 Rain 29 1010 75 10000 2.57 60 13:50 22.06.2022
2962 Rain 29 1010 75 10000 2.57 60 13:25 22.06.2022
2963 Thunderstorm 28 1009 71 9000 2.57 20 12:37 22.06.2022
2964 Thunderstorm 32 1009 65 10000 4.12 120 11:46 22.06.2022
2965 Clouds 33 1007 69 10000 8.49 192 10:50 22.06.2022
2966 Clouds 34 1011 56 10000 3.09 0 09:44 22.06.2022
2967 Clouds 34 1008 59 10000 7.15 197 07:51 22.06.2022
2968 Clouds 29 1009 75 9000 1.03 0 02:56 22.06.2022
2969 Clouds 27 1009 81 10000 0.51 0 01:19 22.06.2022
2970 Clouds 27 1008 81 10000 0.51 0 22:57 21.06.2022
2971 Clouds 28 1007 83 10000 1.03 0 21:21 21.06.2022
2972 Clouds 28 1009 80 10000 0.89 349 19:43 21.06.2022
2973 Clouds 28 1009 78 10000 0.45 32 17:56 21.06.2022
2974 Clouds 28 1009 77 10000 0 0 16:49 21.06.2022
2975 Clouds 31 1006 70 10000 4.92 202 12:23 21.06.2022
2976 Clouds 33 1005 64 10000 3.6 100 10:47 21.06.2022
2977 Clouds 33 1005 63 10000 3.13 61 09:39 21.06.2022
2978 Clouds 33 1005 63 10000 2.57 0 07:56 21.06.2022
2979 Clouds 31 1007 69 10000 3.6 120 04:59 21.06.2022
2980 Clouds 27 1006 82 10000 0.51 0 00:31 21.06.2022
2981 Clouds 27 1005 82 10000 1.79 2 22:22 20.06.2022
2982 Clouds 27 1005 81 10000 1.34 357 21:41 20.06.2022
2983 Clouds 27 1005 81 10000 1.85 107 20:30 20.06.2022
2984 Clouds 27 1006 80 10000 2.24 4 19:37 20.06.2022
2985 Clouds 27 1007 83 10000 1.54 350 18:34 20.06.2022
2986 Clouds 28 1007 83 10000 4.63 350 17:50 20.06.2022
2987 Clouds 28 1007 81 10000 1.54 110 16:53 20.06.2022
2988 Clouds 30 1007 75 10000 3.58 359 15:52 20.06.2022
2989 Clouds 30 1004 72 10000 3.09 0 12:37 20.06.2022
2990 Clouds 34 1004 60 10000 1.54 40 10:22 20.06.2022
2991 Clouds 32 1005 70 10000 3.09 300 08:56 20.06.2022
2992 Rain 31 1005 71 9000 3.6 310 07:53 20.06.2022
2993 Clouds 31 1007 72 9000 3.09 280 05:26 20.06.2022
2994 Clouds 29 1008 80 10000 1.54 230 01:33 20.06.2022
2995 Clouds 26 1007 86 10000 1.03 0 00:19 20.06.2022
2996 Clouds 27 1006 88 10000 2.24 356 22:43 19.06.2022
2997 Clouds 27 1006 87 10000 1.54 180 21:48 19.06.2022
2998 Clouds 27 1006 88 10000 1.54 180 21:29 19.06.2022
2999 Clouds 27 1006 87 10000 0.51 0 20:30 19.06.2022
3000 Clouds 27 1007 85 10000 0.51 0 19:47 19.06.2022
3001 Clouds 27 1008 86 10000 1.54 70 18:43 19.06.2022
3002 Clouds 28 1008 83 10000 2.57 10 17:48 19.06.2022
3003 Clouds 28 1008 83 10000 2.57 10 17:21 19.06.2022
3004 Clouds 27 1008 86 10000 1.54 80 16:34 19.06.2022
3005 Clouds 28 1008 84 10000 0.51 0 15:38 19.06.2022
3006 Clouds 27 1008 86 10000 1.54 90 14:55 19.06.2022
3007 Clouds 27 1007 82 10000 1.03 0 13:58 19.06.2022
3008 Clouds 26 1008 89 10000 2.06 90 12:56 19.06.2022
3009 Thunderstorm 30 1007 74 5000 5.66 50 10:54 19.06.2022
3010 Rain 33 1005 68 10000 5.14 300 09:40 19.06.2022
3011 Rain 34 1005 64 10000 5.14 270 08:47 19.06.2022
3012 Clouds 35 1006 60 10000 3.09 0 07:51 19.06.2022
3013 Clouds 33 1009 65 10000 3.09 90 04:45 19.06.2022
3014 Clouds 30 1008 74 10000 1.03 0 01:29 19.06.2022
3015 Clouds 27 1008 83 10000 0 0 00:24 19.06.2022
3016 Clouds 27 1008 85 10000 1.54 220 23:35 18.06.2022
3017 Clouds 27 1008 85 10000 0 0 22:36 18.06.2022
3018 Clouds 28 1008 82 10000 1.03 0 20:56 18.06.2022
3019 Clouds 28 1008 83 10000 1.03 0 20:28 18.06.2022
3020 Clouds 27 1008 85 10000 2.06 70 19:37 18.06.2022
3021 Clouds 28 1009 82 10000 1.03 0 18:45 18.06.2022
3022 Clouds 28 1009 82 10000 1.03 0 17:31 18.06.2022
3023 Clouds 29 1009 76 10000 1.03 0 16:47 18.06.2022
3024 Clouds 28 1009 77 10000 2.06 160 15:30 18.06.2022
3025 Clouds 29 1009 78 10000 1.03 0 14:42 18.06.2022
3026 Clouds 30 1008 75 10000 1.54 270 13:22 18.06.2022
3027 Clouds 31 1007 66 10000 1.54 0 11:38 18.06.2022
3028 Rain 31 1007 69 10000 2.57 360 10:46 18.06.2022
3029 Clouds 30 1008 72 10000 4.12 60 09:20 18.06.2022
3030 Rain 33 1008 65 10000 2.57 90 08:19 18.06.2022
3031 Rain 33 1008 65 10000 2.57 90 08:19 18.06.2022
3032 Clouds 35 1008 57 10000 3.09 130 06:44 18.06.2022
3033 Clouds 32 1010 68 10000 4.12 0 03:24 18.06.2022
3034 Clouds 30 1009 70 10000 2.57 80 01:24 18.06.2022
3035 Clouds 29 1008 71 10000 2.57 90 00:45 18.06.2022
3036 Clouds 29 1008 76 10000 3.6 110 23:52 17.06.2022
3037 Clouds 29 1008 76 10000 3.6 110 23:52 17.06.2022
3038 Clouds 29 1008 74 10000 3.6 110 23:19 17.06.2022
3039 Clouds 29 1007 75 10000 1.54 70 20:42 17.06.2022
3040 Clouds 29 1008 77 10000 2.06 70 19:30 17.06.2022
3041 Clouds 30 1008 74 10000 1.54 110 18:34 17.06.2022
3042 Clouds 30 1009 74 10000 1.79 3 17:34 17.06.2022
3043 Clouds 31 1009 72 10000 3.09 120 16:42 17.06.2022
3044 Clouds 31 1008 74 10000 4.12 130 15:42 17.06.2022
3045 Clouds 32 1007 69 10000 2.06 140 14:50 17.06.2022
3046 Clouds 32 1007 68 10000 2.06 140 14:19 17.06.2022
3047 Clouds 32 1007 65 10000 2.06 120 13:44 17.06.2022
3048 Clouds 33 1006 61 10000 2.57 140 12:45 17.06.2022
3049 Clouds 34 1005 59 10000 2.57 0 11:56 17.06.2022
3050 Clouds 34 1005 59 10000 2.57 0 11:35 17.06.2022
3051 Clouds 35 1005 59 10000 3.09 0 10:48 17.06.2022
3052 Clouds 35 1005 59 10000 3.09 0 10:48 17.06.2022
3053 Clouds 35 1007 55 10000 3.58 350 08:29 17.06.2022
3054 Clouds 34 1008 57 10000 5.36 222 06:58 17.06.2022
3055 Clouds 33 1009 61 10000 3.13 241 05:35 17.06.2022
3056 Clouds 31 1010 65 10000 1.34 15 02:42 17.06.2022
3057 Clouds 28 1010 80 10000 2.24 349 00:36 17.06.2022
3058 Clouds 27 1009 82 10000 2.06 60 22:44 16.06.2022
3059 Clouds 27 1008 83 10000 2.06 70 21:36 16.06.2022
3060 Clouds 27 1008 82 10000 2.06 70 21:18 16.06.2022
3061 Clouds 28 1009 78 10000 2.06 80 20:36 16.06.2022
3062 Clouds 28 1009 78 10000 1.54 80 19:55 16.06.2022
3063 Clouds 29 1009 76 10000 1.54 120 18:28 16.06.2022
3064 Clouds 29 1009 76 10000 2.57 110 17:43 16.06.2022
3065 Clouds 30 1009 74 10000 2.06 110 16:39 16.06.2022
3066 Clouds 30 1009 71 10000 3.09 130 15:24 16.06.2022
3067 Clouds 30 1008 71 10000 3.6 120 14:46 16.06.2022
3068 Clouds 31 1008 72 10000 3.09 130 13:34 16.06.2022
3069 Rain 31 1007 69 10000 3.6 120 12:37 16.06.2022
3070 Rain 32 1007 68 10000 3.09 0 11:52 16.06.2022
3071 Clouds 33 1007 68 10000 4.12 140 10:56 16.06.2022
3072 Rain 33 1007 67 10000 4.12 140 10:27 16.06.2022
3073 Clouds 33 1007 67 9000 4.12 0 09:21 16.06.2022
3074 Clouds 34 1008 62 9000 3.58 221 08:30 16.06.2022
3075 Clouds 34 1008 63 9000 3.09 290 07:26 16.06.2022
3076 Clouds 32 1011 70 9000 3.09 290 04:50 16.06.2022
3077 Clouds 30 1010 75 9000 2.57 10 02:21 16.06.2022
3078 Clouds 28 1010 80 9000 3.09 360 01:42 16.06.2022
3079 Clouds 28 1010 82 9000 3.09 360 01:21 16.06.2022
3080 Clouds 28 1010 82 9000 3.09 360 01:21 16.06.2022
3081 Clouds 27 1010 87 9000 1.79 25 23:47 15.06.2022
3082 Clouds 27 1010 87 9000 1.79 25 23:47 15.06.2022
3083 Rain 27 1010 86 9000 1.03 0 22:38 15.06.2022
3084 Rain 27 1009 86 9000 1.34 9 21:22 15.06.2022
3085 Clouds 27 1009 85 9000 1.54 100 20:44 15.06.2022
3086 Clouds 27 1009 85 9000 1.54 100 20:44 15.06.2022
3087 Rain 28 1009 85 9000 1.54 100 20:25 15.06.2022
3088 Clouds 28 1010 85 9000 1.03 280 19:29 15.06.2022
3089 Clouds 28 1011 85 9000 1.54 220 17:56 15.06.2022
3090 Clouds 28 1011 85 9000 1.54 220 17:25 15.06.2022
3091 Clouds 28 1010 82 10000 0.51 240 15:38 15.06.2022
3092 Clouds 29 1009 80 10000 1.03 0 14:23 15.06.2022
3093 Clouds 29 1009 78 10000 2.57 80 12:54 15.06.2022
3094 Clouds 30 1009 74 10000 2.06 50 11:58 15.06.2022
3095 Thunderstorm 30 1009 75 9000 4.12 40 10:24 15.06.2022
3096 Thunderstorm 30 1009 75 9000 4.12 40 10:24 15.06.2022
3097 Rain 31 1009 75 9000 2.57 150 09:43 15.06.2022
3098 Clouds 32 1008 68 10000 5.36 330 08:40 15.06.2022
3099 Rain 33 1010 66 10000 2.57 330 06:36 15.06.2022
3100 Rain 32 1010 68 10000 2.57 100 04:46 15.06.2022
3101 Clouds 29 1009 78 8000 1.34 152 01:55 15.06.2022
3102 Clouds 27 1009 86 8000 0.89 310 00:51 15.06.2022
3103 Clouds 27 1009 90 9000 0.45 41 23:39 14.06.2022
3104 Clouds 27 1009 89 9000 0.45 20 23:21 14.06.2022
3105 Clouds 27 1009 89 9000 0.51 0 22:23 14.06.2022
3106 Clouds 27 1009 89 9000 0.51 0 22:23 14.06.2022
3107 Clouds 27 1009 89 9000 0 0 21:38 14.06.2022
3108 Clouds 27 1009 89 9000 0 0 20:56 14.06.2022
3109 Clouds 26 1009 89 9000 0.45 11 20:31 14.06.2022
3110 Clouds 26 1010 89 9000 1.34 353 19:20 14.06.2022
3111 Clouds 27 1010 87 9000 1.03 0 18:20 14.06.2022
3112 Thunderstorm 28 1011 83 8000 1.54 110 16:47 14.06.2022
3113 Clouds 27 1011 85 8000 1.54 110 15:50 14.06.2022
3114 Clouds 28 1011 83 9000 2.06 70 15:28 14.06.2022
3115 Clouds 27 1010 83 9000 1.54 80 14:37 14.06.2022
3116 Thunderstorm 27 1009 79 9000 2.68 77 13:46 14.06.2022
3117 Rain 27 1009 84 7000 2.57 70 12:45 14.06.2022
3118 Clouds 29 1008 76 7000 3.09 240 11:38 14.06.2022
3119 Thunderstorm 31 1008 68 9000 4.12 250 10:48 14.06.2022
3120 Thunderstorm 30 1007 74 9000 4.12 250 10:20 14.06.2022
3121 Clouds 32 1007 64 10000 3.6 130 08:48 14.06.2022
3122 Clouds 35 1008 58 10000 2.57 0 07:34 14.06.2022
3123 Clouds 33 1009 60 10000 4.47 340 05:28 14.06.2022
3124 Clouds 31 1009 69 9000 2.06 90 02:58 14.06.2022
3125 Clouds 27 1009 85 7000 0.51 0 00:53 14.06.2022
3126 Clouds 27 1008 88 9000 1.03 60 23:39 13.06.2022
3127 Clouds 27 1008 87 9000 1.03 0 22:26 13.06.2022
3128 Clouds 27 1008 87 8000 1.03 0 21:50 13.06.2022
3129 Clouds 26 1008 88 10000 0.51 0 20:42 13.06.2022
3130 Thunderstorm 27 1009 85 8000 4.63 60 19:35 13.06.2022
3131 Rain 27 1009 85 9000 1.03 0 18:28 13.06.2022
3132 Clouds 28 1009 84 9000 1.54 180 17:47 13.06.2022
3133 Clouds 29 1009 84 10000 2.06 220 16:52 13.06.2022
3134 Clouds 30 1009 80 10000 3.58 350 15:39 13.06.2022
3135 Thunderstorm 30 1008 79 10000 4.92 219 14:47 13.06.2022
3136 Rain 30 1007 81 10000 4.63 260 13:54 13.06.2022
3137 Clouds 31 1007 76 10000 5.66 260 12:49 13.06.2022
3138 Clouds 31 1006 73 10000 7.2 260 11:34 13.06.2022
3139 Clouds 33 1006 68 10000 10.28 214 10:27 13.06.2022
3140 Clouds 33 1006 65 10000 8.05 231 09:39 13.06.2022
3141 Clouds 34 1006 61 10000 7.6 221 07:53 13.06.2022
3142 Clouds 34 1008 63 10000 3.09 120 06:28 13.06.2022
3143 Clouds 31 1009 73 10000 2.57 110 03:18 13.06.2022
3144 Clouds 30 1008 79 10000 1.54 70 01:38 13.06.2022
3145 Clouds 28 1007 87 10000 0.51 0 00:22 13.06.2022
3146 Clouds 27 1008 89 10000 0.51 0 23:29 12.06.2022
3147 Clouds 27 1008 89 10000 1.03 0 22:23 12.06.2022
3148 Clouds 28 1007 88 9000 1.6 74 21:28 12.06.2022
3149 Clouds 27 1008 88 9000 2.06 320 20:34 12.06.2022
3150 Clouds 27 1008 88 9000 1.54 260 19:36 12.06.2022
3151 Clouds 28 1009 87 10000 1.79 14 18:39 12.06.2022
3152 Clouds 29 1009 85 9000 1.03 0 16:42 12.06.2022
3153 Clouds 29 1008 88 9000 1.54 240 15:24 12.06.2022
3154 Thunderstorm 29 1008 85 7000 4.63 280 14:31 12.06.2022
3155 Thunderstorm 29 1007 84 7000 2.06 260 13:55 12.06.2022
3156 Clouds 29 1007 80 9000 2.68 198 12:46 12.06.2022
3157 Rain 32 1006 70 9000 4.12 270 11:40 12.06.2022
3158 Clouds 32 1006 66 9000 3.6 280 10:45 12.06.2022
3159 Clouds 33 1006 66 9000 4.12 260 09:25 12.06.2022
3160 Clouds 32 1007 70 10000 4.12 280 08:46 12.06.2022
3161 Clouds 32 1008 72 10000 2.24 346 07:38 12.06.2022
3162 Rain 30 1009 77 9000 3.58 210 05:29 12.06.2022
3163 Clouds 31 1009 74 10000 2.68 202 03:29 12.06.2022
3164 Clouds 30 1010 78 10000 1.54 230 01:43 12.06.2022
3165 Clouds 28 1009 83 10000 1.79 15 00:58 12.06.2022
3166 Clouds 28 1009 85 10000 1.54 230 00:25 12.06.2022
3167 Clouds 28 1009 86 10000 2.57 260 23:44 11.06.2022
3168 Clouds 28 1009 86 10000 2.06 250 22:39 11.06.2022
3169 Clouds 28 1009 86 10000 2.06 250 22:18 11.06.2022
3170 Clouds 28 1008 83 10000 1.34 355 20:38 11.06.2022
3171 Clouds 29 1008 80 10000 1.03 0 19:59 11.06.2022
3172 Clouds 29 1008 81 10000 2.68 343 19:26 11.06.2022
3173 Rain 29 1009 82 10000 1.54 200 18:34 11.06.2022
3174 Rain 29 1009 80 10000 2.57 180 17:51 11.06.2022
3175 Clouds 29 1009 79 10000 2.57 180 17:28 11.06.2022
3176 Clouds 30 1009 77 10000 1.54 210 16:56 11.06.2022
3177 Clouds 30 1009 75 10000 1.54 210 16:29 11.06.2022
3178 Clouds 30 1008 77 10000 2.06 260 15:42 11.06.2022
3179 Clouds 30 1007 74 10000 2.06 280 13:53 11.06.2022
3180 Clouds 31 1007 69 10000 3.09 310 12:51 11.06.2022
3181 Clouds 33 1008 68 10000 4.12 280 10:54 11.06.2022
3182 Clouds 34 1008 63 10000 1.54 0 09:55 11.06.2022
3183 Clouds 34 1008 59 10000 1.54 0 09:19 11.06.2022
3184 Clouds 35 1007 56 10000 2.57 120 07:41 11.06.2022
3185 Clouds 34 1008 55 10000 2.57 0 06:30 11.06.2022
3186 Clouds 32 1009 62 10000 2.57 0 04:49 11.06.2022
3187 Clouds 31 1009 69 10000 2.24 188 01:53 11.06.2022
3188 Clouds 30 1009 69 10000 1.54 80 01:33 11.06.2022
3189 Clouds 28 1009 77 10000 1.54 50 00:20 11.06.2022
3190 Clouds 28 1008 77 10000 2.06 10 22:32 10.06.2022
3191 Clouds 28 1008 78 10000 2.57 70 21:52 10.06.2022
3192 Clouds 28 1008 78 10000 2.06 50 20:41 10.06.2022
3193 Clouds 28 1008 77 10000 2.06 50 20:22 10.06.2022
3194 Clouds 28 1008 78 10000 1.54 90 19:20 10.06.2022
3195 Clouds 28 1009 77 10000 1.54 220 18:56 10.06.2022
3196 Clouds 29 1010 75 10000 1.54 230 17:59 10.06.2022
3197 Clouds 29 1010 74 10000 1.54 230 17:35 10.06.2022
3198 Clouds 28 1009 75 10000 1.54 200 16:50 10.06.2022
3199 Thunderstorm 30 1009 68 10000 4.47 185 15:44 10.06.2022
3200 Clouds 32 1008 67 10000 2.57 90 14:51 10.06.2022
3201 Clouds 31 1007 74 10000 3.09 270 13:26 10.06.2022
3202 Clouds 32 1006 70 10000 2.57 250 12:21 10.06.2022
3203 Clouds 33 1005 59 10000 2.06 0 11:30 10.06.2022
3204 Clouds 35 1005 58 10000 3.58 167 10:36 10.06.2022
3205 Clouds 36 1005 51 10000 3.09 140 09:26 10.06.2022
3206 Clouds 34 1006 58 10000 3.09 0 07:57 10.06.2022
3207 Clouds 34 1007 60 10000 4.02 184 06:49 10.06.2022
3208 Clouds 34 1008 60 10000 2.57 0 06:30 10.06.2022
3209 Clouds 33 1008 63 10000 3.09 0 05:31 10.06.2022
3210 Clouds 31 1008 72 10000 1.54 110 02:46 10.06.2022
3211 Clouds 30 1008 75 10000 1.54 230 01:37 10.06.2022
3212 Clouds 28 1007 81 10000 1.03 0 23:58 09.06.2022
3213 Rain 28 1006 80 10000 1.03 0 22:43 09.06.2022
3214 Clouds 28 1006 81 10000 2.06 70 21:43 09.06.2022
3215 Clouds 28 1006 82 10000 2.06 70 21:24 09.06.2022
3216 Clouds 28 1007 79 10000 2.06 130 20:38 09.06.2022
3217 Clouds 29 1007 78 10000 1.54 0 19:46 09.06.2022
3218 Clouds 30 1007 74 10000 2.57 120 18:37 09.06.2022
3219 Clouds 30 1008 73 10000 2.06 130 17:33 09.06.2022
3220 Clouds 30 1008 72 10000 1.54 130 16:28 09.06.2022
3221 Clouds 31 1008 70 10000 2.57 110 14:52 09.06.2022
3222 Clouds 31 1008 69 10000 2.57 110 14:27 09.06.2022
3223 Clouds 31 1007 67 10000 2.06 120 13:30 09.06.2022
3224 Clouds 31 1007 67 10000 2.06 120 13:30 09.06.2022
3225 Clouds 32 1006 65 10000 3.09 110 12:55 09.06.2022
3226 Clouds 32 1006 64 10000 3.09 100 11:33 09.06.2022
3227 Clouds 34 1005 59 10000 4.63 110 09:55 09.06.2022
3228 Clouds 34 1005 58 10000 4.63 110 09:55 09.06.2022
3229 Clouds 34 1005 59 10000 5.81 202 09:37 09.06.2022
3230 Clouds 34 1006 60 10000 4.12 130 08:33 09.06.2022
3231 Clouds 33 1007 61 10000 5.36 340 07:29 09.06.2022
3232 Clouds 32 1008 72 10000 6.26 331 03:31 09.06.2022
3233 Clouds 27 1008 87 6000 0 0 00:34 09.06.2022
3234 Clouds 28 1007 87 9000 0.51 0 23:18 08.06.2022
3235 Clouds 28 1007 85 9000 0.51 90 22:42 08.06.2022
3236 Clouds 28 1007 84 9000 0.51 90 22:23 08.06.2022
3237 Clouds 27 1007 86 9000 0.51 0 21:32 08.06.2022
3238 Clouds 28 1007 84 9000 0.51 0 20:25 08.06.2022
3239 Clouds 28 1008 86 9000 1.79 328 19:41 08.06.2022
3240 Clouds 27 1009 86 9000 0.51 0 18:48 08.06.2022
3241 Clouds 28 1009 86 10000 1.03 0 17:38 08.06.2022
3242 Clouds 28 1009 85 10000 1.03 0 15:53 08.06.2022
3243 Clouds 28 1008 83 10000 1.03 0 14:31 08.06.2022
3244 Rain 29 1007 82 10000 1.54 90 12:55 08.06.2022
3245 Thunderstorm 29 1007 78 7000 3.09 110 11:36 08.06.2022
3246 Clouds 30 1006 76 9000 5.66 270 10:46 08.06.2022
3247 Rain 32 1006 68 9000 6.17 270 09:28 08.06.2022
3248 Clouds 33 1006 65 10000 5.66 270 08:52 08.06.2022
3249 Clouds 33 1007 69 8000 6.71 341 06:56 08.06.2022
3250 Clouds 31 1009 78 10000 3.6 300 04:41 08.06.2022
3251 Clouds 28 1009 84 10000 0 0 00:58 08.06.2022
3252 Rain 28 1008 85 10000 1.03 0 23:32 07.06.2022
3253 Rain 27 1008 86 10000 1.03 0 22:51 07.06.2022
3254 Rain 27 1008 86 10000 1.03 0 22:33 07.06.2022
3255 Clouds 27 1008 87 10000 1.54 50 21:37 07.06.2022
3256 Clouds 27 1008 88 10000 1.54 50 21:18 07.06.2022
3257 Clouds 26 1008 90 10000 2.06 20 20:37 07.06.2022
3258 Rain 26 1008 87 10000 4.12 340 19:49 07.06.2022
3259 Thunderstorm 27 1009 85 10000 3.58 8 18:25 07.06.2022
3260 Clouds 29 1009 80 10000 2.68 7 17:31 07.06.2022
3261 Clouds 29 1009 80 10000 2.06 220 16:44 07.06.2022
3262 Clouds 29 1008 81 10000 2.57 230 15:58 07.06.2022
3263 Clouds 29 1008 81 10000 3.58 220 15:30 07.06.2022
3264 Clouds 30 1007 78 10000 4.02 194 14:56 07.06.2022
3265 Clouds 30 1007 77 10000 7.6 209 14:38 07.06.2022
3266 Clouds 30 1007 76 10000 6.17 260 13:33 07.06.2022
3267 Rain 30 1006 76 10000 6.71 212 12:54 07.06.2022
3268 Clouds 30 1005 75 10000 8.49 183 11:49 07.06.2022
3269 Clouds 32 1005 67 10000 7.2 260 10:27 07.06.2022
3270 Clouds 33 1005 68 10000 10.28 220 08:53 07.06.2022
3271 Clouds 33 1006 65 10000 4.12 300 07:47 07.06.2022
3272 Clouds 32 1007 71 10000 3.6 300 06:39 07.06.2022
3273 Rain 29 1008 80 8000 2.06 0 04:39 07.06.2022
3274 Clouds 30 1007 74 10000 0.51 0 01:27 07.06.2022
3275 Clouds 28 1007 83 10000 0 0 23:52 06.06.2022
3276 Clouds 28 1006 83 10000 2.06 270 22:54 06.06.2022
3277 Clouds 28 1006 82 10000 2.06 270 22:29 06.06.2022
3278 Clouds 29 1006 78 10000 1.03 0 20:47 06.06.2022
3279 Clouds 28 1007 79 10000 1.54 80 19:28 06.06.2022
3280 Clouds 28 1007 79 10000 1.03 0 18:49 06.06.2022
3281 Clouds 28 1007 79 10000 1.03 0 18:21 06.06.2022
3282 Clouds 28 1007 82 10000 0.89 55 17:24 06.06.2022
3283 Clouds 29 1008 82 10000 3.13 223 16:18 06.06.2022
3284 Clouds 30 1007 75 10000 1.71 273 15:23 06.06.2022
3285 Clouds 30 1007 73 10000 1.54 220 14:29 06.06.2022
3286 Rain 30 1005 73 10000 3.09 230 13:21 06.06.2022
3287 Rain 30 1005 75 10000 3.6 250 12:35 06.06.2022
3288 Rain 31 1005 73 10000 6.69 250 11:50 06.06.2022
3289 Rain 32 1005 67 10000 6.17 250 10:21 06.06.2022
3290 Clouds 33 1004 63 10000 6.69 260 09:24 06.06.2022
3291 Clouds 33 1004 68 10000 1.79 211 08:31 06.06.2022
3292 Clouds 32 1005 70 10000 7.6 170 07:28 06.06.2022
3293 Clouds 32 1007 68 10000 4.02 216 04:42 06.06.2022
3294 Clouds 31 1006 74 10000 1.79 224 02:27 06.06.2022
3295 Clouds 29 1006 80 10000 1.03 0 00:57 06.06.2022
3296 Clouds 28 1006 82 10000 1.03 0 00:35 06.06.2022
3297 Clouds 28 1006 83 10000 0.51 0 23:28 05.06.2022
3298 Clouds 28 1007 83 10000 1.03 0 22:33 05.06.2022
3299 Clouds 28 1007 82 10000 1.03 0 20:34 05.06.2022
3300 Clouds 29 1007 82 10000 1.54 160 19:26 05.06.2022
3301 Clouds 29 1007 80 10000 1.54 170 18:26 05.06.2022
3302 Clouds 29 1008 80 10000 1.54 190 17:46 05.06.2022
3303 Clouds 29 1008 79 10000 1.54 190 17:22 05.06.2022
3304 Clouds 29 1008 81 10000 1.54 210 16:48 05.06.2022
3305 Clouds 29 1008 79 10000 1.54 240 15:47 05.06.2022
3306 Clouds 30 1007 76 10000 3.58 210 14:21 05.06.2022
3307 Clouds 30 1007 76 10000 3.58 210 14:21 05.06.2022
3308 Clouds 30 1006 78 10000 5.14 250 12:34 05.06.2022
3309 Clouds 30 1006 78 10000 5.66 240 11:30 05.06.2022
3310 Clouds 32 1005 71 10000 7.2 270 10:24 05.06.2022
3311 Clouds 32 1005 69 10000 6.69 260 09:44 05.06.2022
3312 Clouds 34 1006 64 10000 9.83 218 08:25 05.06.2022
3313 Clouds 34 1006 64 10000 9.83 218 08:25 05.06.2022
3314 Clouds 34 1007 57 10000 2.06 0 06:47 05.06.2022
3315 Clouds 33 1008 62 10000 2.06 0 05:20 05.06.2022
3316 Clouds 31 1008 74 9000 2.06 170 02:57 05.06.2022
3317 Clouds 30 1008 79 10000 1.54 170 01:24 05.06.2022
3318 Clouds 30 1008 79 10000 1.54 170 01:24 05.06.2022
3319 Clouds 28 1007 84 9000 1.03 0 23:43 04.06.2022
3320 Clouds 28 1007 78 9000 0.51 0 21:31 04.06.2022
3321 Clouds 29 1008 72 10000 1.03 100 19:46 04.06.2022
3322 Clouds 28 1009 71 10000 1.54 80 17:28 04.06.2022
3323 Clouds 29 1010 74 10000 1.03 0 16:22 04.06.2022
3324 Clouds 29 1009 74 10000 0.51 0 15:51 04.06.2022
3325 Clouds 30 1008 71 10000 3.09 220 14:22 04.06.2022
3326 Clouds 31 1006 69 10000 6.17 260 11:45 04.06.2022
3327 Clouds 32 1006 66 10000 7.2 260 10:55 04.06.2022
3328 Clouds 33 1006 66 10000 7.2 260 10:19 04.06.2022
3329 Clouds 33 1006 65 10000 6.17 260 09:39 04.06.2022
3330 Clouds 34 1007 66 10000 9.83 216 08:39 04.06.2022
3331 Clouds 34 1008 64 10000 5.14 270 07:18 04.06.2022
3332 Clouds 32 1010 69 10000 1.34 231 04:33 04.06.2022
3333 Clouds 28 1009 82 10000 0.51 0 00:37 04.06.2022
3334 Clouds 28 1009 86 10000 0 0 23:28 03.06.2022
3335 Clouds 28 1009 84 10000 1.03 0 22:20 03.06.2022
3336 Clouds 28 1009 82 10000 1.54 220 20:42 03.06.2022
3337 Clouds 28 1009 82 10000 1.54 220 20:42 03.06.2022
3338 Clouds 28 1009 82 10000 1.54 220 20:18 03.06.2022
3339 Clouds 29 1010 79 10000 1.03 0 17:31 03.06.2022
3340 Clouds 29 1010 77 10000 1.34 188 16:34 03.06.2022
3341 Clouds 30 1008 78 10000 3.6 250 14:52 03.06.2022
3342 Clouds 31 1007 73 10000 5.66 260 12:28 03.06.2022
3343 Clouds 33 1007 64 10000 5.66 260 10:18 03.06.2022
3344 Clouds 33 1007 66 10000 6.71 214 09:30 03.06.2022
3345 Clouds 33 1008 61 10000 7.15 196 07:53 03.06.2022
3346 Clouds 33 1008 60 10000 4.63 290 07:20 03.06.2022
3347 Clouds 33 1008 64 10000 4.63 300 06:30 03.06.2022
3348 Clouds 32 1009 70 10000 4.12 260 04:40 03.06.2022
3349 Clouds 28 1009 85 10000 0.51 0 00:22 03.06.2022
3350 Clouds 28 1008 87 10000 0.51 0 22:35 02.06.2022
3351 Clouds 28 1008 87 10000 1.03 0 21:29 02.06.2022
3352 Clouds 28 1008 84 10000 1.87 223 20:00 02.06.2022
3353 Clouds 28 1009 83 10000 1.54 190 19:41 02.06.2022
3354 Clouds 28 1009 83 10000 1.54 190 19:18 02.06.2022
3355 Clouds 29 1009 80 10000 2.06 230 16:30 02.06.2022
3356 Clouds 29 1008 80 10000 3.58 223 15:58 02.06.2022
3357 Clouds 30 1007 77 10000 5.66 250 13:38 02.06.2022
3358 Clouds 30 1007 77 10000 5.81 216 13:20 02.06.2022
3359 Clouds 31 1007 72 10000 7.6 215 11:18 02.06.2022
3360 Clouds 32 1007 69 10000 9.83 217 10:19 02.06.2022
3361 Thunderstorm 32 1007 67 10000 6.71 225 09:27 02.06.2022
3362 Clouds 32 1007 68 10000 8.49 230 08:24 02.06.2022
3363 Clouds 32 1008 69 10000 4.12 280 06:26 02.06.2022
3364 Clouds 32 1008 68 10000 2.06 0 03:54 02.06.2022
3365 Clouds 30 1008 75 10000 1.54 0 02:22 02.06.2022
3366 Clouds 26 1008 94 9000 0 0 23:36 01.06.2022
3367 Clouds 26 1007 94 9000 0.51 0 22:18 01.06.2022
3368 Clouds 26 1007 92 9000 0 0 21:26 01.06.2022
3369 Clouds 26 1007 94 9000 0.51 0 20:39 01.06.2022
3370 Clouds 26 1007 94 9000 0.51 0 19:52 01.06.2022
3371 Clouds 26 1007 92 10000 0.51 0 18:52 01.06.2022
3372 Clouds 27 1008 92 10000 0.51 0 17:38 01.06.2022
3373 Clouds 27 1008 91 10000 1.03 0 16:22 01.06.2022
3374 Clouds 27 1007 91 10000 0.51 0 14:50 01.06.2022
3375 Rain 27 1007 90 10000 2.57 260 13:39 01.06.2022
3376 Rain 27 1006 94 10000 2.06 230 11:32 01.06.2022
3377 Rain 26 1008 94 9000 2.06 60 09:34 01.06.2022
3378 Rain 25 1009 94 8000 1.03 0 08:28 01.06.2022
3379 Thunderstorm 27 1009 94 8000 3.6 190 07:20 01.06.2022
3380 Rain 30 1008 72 10000 2.57 80 04:58 01.06.2022
3381 Clouds 27 1007 88 10000 1.03 0 23:56 31.05.2022
3382 Clouds 27 1006 85 10000 1.03 120 22:43 31.05.2022
3383 Clouds 27 1006 85 10000 1.03 120 22:25 31.05.2022
3384 Clouds 27 1007 85 10000 0.51 0 21:44 31.05.2022
3385 Clouds 27 1007 85 9000 1.54 110 20:44 31.05.2022
3386 Clouds 27 1007 85 9000 1.54 110 20:44 31.05.2022
3387 Clouds 27 1007 85 9000 1.54 110 20:44 31.05.2022
3388 Rain 28 1008 82 9000 0.51 0 19:46 31.05.2022
3389 Rain 29 1008 77 10000 2.06 120 18:33 31.05.2022
3390 Rain 29 1008 76 10000 2.06 100 17:46 31.05.2022
3391 Rain 29 1008 75 10000 2.06 130 16:21 31.05.2022
3392 Clouds 29 1008 74 10000 2.06 100 15:37 31.05.2022
3393 Clouds 30 1007 71 10000 2.06 0 13:22 31.05.2022
3394 Clouds 30 1006 73 10000 3.09 0 12:19 31.05.2022
3395 Clouds 32 1006 69 10000 2.68 13 10:34 31.05.2022
3396 Clouds 31 1006 69 10000 2.57 80 08:35 31.05.2022
3397 Clouds 30 1008 90 9000 2.06 260 06:38 31.05.2022
3398 Clouds 31 1009 72 10000 3.6 270 04:34 31.05.2022
3399 Clouds 26 1008 86 10000 1.03 80 23:46 30.05.2022
3400 Clouds 26 1008 86 10000 1.03 80 23:24 30.05.2022
3401 Rain 26 1007 87 10000 1.03 0 22:42 30.05.2022
3402 Clouds 26 1008 88 10000 1.03 0 21:40 30.05.2022
3403 Clouds 26 1008 91 8000 1.54 100 20:52 30.05.2022
3404 Rain 28 1009 85 8000 2.24 330 19:44 30.05.2022
3405 Clouds 29 1009 79 10000 1.03 0 18:18 30.05.2022
3406 Clouds 29 1009 80 10000 1.54 210 17:23 30.05.2022
3407 Clouds 30 1009 79 10000 1.54 220 16:22 30.05.2022
3408 Clouds 30 1006 76 10000 5.81 196 13:32 30.05.2022
3409 Clouds 31 1006 70 10000 3.13 218 11:40 30.05.2022
3410 Rain 33 1005 62 10000 2.57 130 09:52 30.05.2022
3411 Clouds 35 1006 56 10000 3.09 0 07:51 30.05.2022
3412 Clouds 33 1007 61 10000 2.57 0 06:26 30.05.2022
3413 Clouds 32 1008 65 10000 3.58 293 04:52 30.05.2022
3414 Clouds 28 1008 85 10000 1.03 0 00:43 30.05.2022
3415 Clouds 27 1008 85 10000 1.03 0 22:41 29.05.2022
3416 Clouds 27 1008 87 10000 1.54 190 21:46 29.05.2022
3417 Clouds 28 1008 82 10000 1.79 218 20:23 29.05.2022
3418 Clouds 28 1008 80 10000 0 0 19:29 29.05.2022
3419 Clouds 28 1009 78 10000 0.51 0 17:57 29.05.2022
3420 Clouds 28 1009 79 10000 0.51 0 16:22 29.05.2022
3421 Rain 28 1009 81 10000 1.54 200 15:43 29.05.2022
3422 Rain 29 1009 82 10000 6.17 250 14:54 29.05.2022
3423 Clouds 30 1007 74 10000 6.69 260 12:33 29.05.2022
3424 Clouds 31 1006 70 10000 8.49 219 11:20 29.05.2022
3425 Clouds 32 1005 68 10000 6.69 270 10:29 29.05.2022
3426 Clouds 32 1007 64 10000 11.18 204 07:59 29.05.2022
3427 Clouds 31 1008 70 10000 6.26 212 04:58 29.05.2022
3428 Clouds 31 1008 68 10000 4.02 215 04:33 29.05.2022
3429 Clouds 28 1008 85 10000 1.34 197 01:28 29.05.2022
3430 Clouds 26 1008 90 9000 1.03 0 23:48 28.05.2022
3431 Clouds 26 1007 90 9000 1.03 0 23:19 28.05.2022
3432 Clouds 27 1007 90 9000 0.51 0 21:53 28.05.2022
3433 Clouds 27 1008 90 9000 1.54 80 20:53 28.05.2022
3434 Clouds 27 1008 93 10000 1.03 90 19:20 28.05.2022
3435 Clouds 27 1009 90 10000 1.03 0 18:24 28.05.2022
3436 Clouds 27 1010 90 10000 1.03 0 17:33 28.05.2022
3437 Clouds 27 1010 93 10000 1.03 0 15:50 28.05.2022
3438 Clouds 27 1010 93 10000 1.03 0 15:20 28.05.2022
3439 Clouds 28 1008 87 10000 0 0 13:36 28.05.2022
3440 Rain 28 1007 85 9000 2.57 220 12:42 28.05.2022
3441 Rain 28 1007 82 9000 4.02 211 11:37 28.05.2022
3442 Rain 28 1006 81 9000 2.24 208 10:38 28.05.2022
3443 Thunderstorm 28 1007 83 7000 3.58 201 09:54 28.05.2022
3444 Rain 29 1007 78 10000 4.12 270 08:24 28.05.2022
3445 Rain 29 1007 77 10000 3.58 191 06:34 28.05.2022
3446 Rain 26 1009 88 9000 5.14 60 04:46 28.05.2022
3447 Rain 29 1008 80 10000 2.06 220 02:18 28.05.2022
3448 Clouds 27 1007 86 9000 3.6 30 23:55 27.05.2022
3449 Rain 27 1006 87 9000 5.14 40 22:38 27.05.2022
3450 Clouds 28 1006 84 10000 1.79 12 21:22 27.05.2022
3451 Clouds 28 1007 84 10000 1.03 0 20:43 27.05.2022
3452 Clouds 28 1007 84 10000 1.03 0 20:18 27.05.2022
3453 Clouds 28 1007 83 10000 1.79 2 19:37 27.05.2022
3454 Clouds 28 1007 83 10000 1.03 0 19:19 27.05.2022
3455 Clouds 28 1008 80 10000 2.06 70 16:53 27.05.2022
3456 Rain 28 1008 79 10000 3.09 70 15:55 27.05.2022
3457 Clouds 28 1007 80 10000 1.54 90 14:47 27.05.2022
3458 Clouds 28 1007 78 10000 2.06 110 13:40 27.05.2022
3459 Rain 28 1005 77 9000 3.09 210 11:53 27.05.2022
3460 Clouds 28 1006 78 9000 3.09 210 11:27 27.05.2022
3461 Clouds 31 1005 69 10000 9.83 214 10:37 27.05.2022
3462 Clouds 35 1004 59 10000 7.15 199 09:52 27.05.2022
3463 Clouds 35 1004 57 10000 3.09 0 09:28 27.05.2022
3464 Clouds 35 1006 53 10000 3.6 110 06:58 27.05.2022
3465 Clouds 31 1008 73 10000 1.54 0 02:59 27.05.2022
3466 Clouds 28 1007 81 10000 1.54 100 00:57 27.05.2022
3467 Clouds 27 1006 89 10000 2.06 70 23:23 26.05.2022
3468 Clouds 27 1006 86 10000 1.03 0 21:48 26.05.2022
3469 Clouds 28 1006 85 10000 1.54 100 20:59 26.05.2022
3470 Clouds 27 1007 85 10000 1.03 0 19:30 26.05.2022
3471 Clouds 27 1008 84 10000 2.24 70 18:24 26.05.2022
3472 Clouds 27 1009 83 10000 3.09 60 16:59 26.05.2022
3473 Clouds 27 1009 87 10000 2.06 50 15:52 26.05.2022
3474 Rain 26 1008 89 10000 2.06 50 15:18 26.05.2022
3475 Thunderstorm 30 1006 78 10000 4.12 240 13:45 26.05.2022
3476 Clouds 32 1004 69 10000 5.14 260 11:38 26.05.2022
3477 Rain 32 1004 66 10000 4.63 220 10:37 26.05.2022
3478 Clouds 32 1004 66 10000 5.81 216 09:37 26.05.2022
3479 Clouds 33 1005 63 10000 4.63 270 08:38 26.05.2022
3480 Clouds 34 1008 62 10000 3.58 212 05:24 26.05.2022
3481 Clouds 29 1008 80 10000 1.03 0 01:26 26.05.2022
3482 Clouds 28 1006 86 10000 0 0 23:41 25.05.2022
3483 Clouds 28 1006 86 10000 0.51 0 22:48 25.05.2022
3484 Clouds 28 1006 83 10000 0.89 66 21:37 25.05.2022
3485 Clouds 28 1007 83 10000 1.03 0 20:39 25.05.2022
3486 Clouds 28 1007 83 10000 0.51 0 19:31 25.05.2022
3487 Clouds 29 1008 81 10000 0.51 0 18:20 25.05.2022
3488 Clouds 29 1009 76 10000 0.89 52 16:41 25.05.2022
3489 Clouds 29 1009 76 10000 1.03 0 15:58 25.05.2022
3490 Clouds 29 1008 74 10000 0.51 0 14:56 25.05.2022
3491 Clouds 29 1008 74 10000 0.51 0 14:33 25.05.2022
3492 Clouds 30 1008 74 10000 1.03 0 13:58 25.05.2022
3493 Clouds 30 1007 73 10000 1.79 218 12:48 25.05.2022
3494 Rain 31 1007 71 10000 4.02 221 10:58 25.05.2022
3495 Clouds 31 1006 71 10000 2.68 214 10:20 25.05.2022
3496 Rain 33 1006 65 10000 5.36 198 08:41 25.05.2022
3497 Clouds 34 1007 64 10000 6.71 206 07:23 25.05.2022
3498 Clouds 33 1009 61 10000 2.57 0 05:18 25.05.2022
3499 Clouds 28 1009 81 10000 0.51 0 00:28 25.05.2022
3500 Clouds 28 1009 83 10000 0.51 0 23:47 24.05.2022
3501 Clouds 28 1009 81 10000 0 0 22:39 24.05.2022
3502 Clouds 28 1009 79 10000 0.51 0 21:43 24.05.2022
3503 Clouds 28 1009 79 10000 0.51 0 21:21 24.05.2022
3504 Clouds 28 1009 81 10000 1.03 0 20:30 24.05.2022
3505 Clouds 29 1010 80 10000 1.03 250 18:56 24.05.2022
3506 Clouds 29 1010 74 10000 1.03 0 16:58 24.05.2022
3507 Clouds 30 1010 74 10000 1.03 0 16:28 24.05.2022
3508 Clouds 30 1010 74 10000 1.54 250 15:18 24.05.2022
3509 Clouds 30 1010 72 10000 2.24 213 14:25 24.05.2022
3510 Clouds 30 1009 70 10000 2.06 230 13:27 24.05.2022
3511 Clouds 33 1008 65 10000 3.6 140 11:49 24.05.2022
3512 Clouds 35 1008 57 10000 3.6 0 09:47 24.05.2022
3513 Clouds 35 1008 54 10000 3.09 110 08:51 24.05.2022
3514 Clouds 34 1009 60 9000 3.13 269 06:58 24.05.2022
3515 Clouds 32 1011 67 10000 2.24 253 04:59 24.05.2022
3516 Clouds 30 1011 78 10000 3.58 210 02:53 24.05.2022
3517 Clouds 30 1010 79 10000 0.51 0 01:44 24.05.2022
3518 Clouds 27 1009 88 10000 1.54 270 23:44 23.05.2022
3519 Clouds 26 1009 89 10000 0 0 22:22 23.05.2022
3520 Clouds 27 1009 89 10000 0 0 21:41 23.05.2022
3521 Clouds 27 1009 87 10000 1.03 0 20:45 23.05.2022
3522 Clouds 27 1010 86 10000 1.03 0 19:41 23.05.2022
3523 Clouds 27 1009 84 10000 0.94 238 19:00 23.05.2022
3524 Clouds 27 1010 86 10000 0.51 0 18:37 23.05.2022
3525 Clouds 27 1010 87 10000 1.03 0 17:55 23.05.2022
3526 Rain 27 1010 91 10000 1.03 0 15:53 23.05.2022
3527 Clouds 28 1009 90 7000 1.54 160 13:44 23.05.2022
3528 Clouds 28 1009 90 7000 1.54 160 13:44 23.05.2022
3529 Clouds 29 1007 82 9000 3.13 197 11:40 23.05.2022
3530 Clouds 28 1007 83 9000 2.06 30 10:44 23.05.2022
3531 Clouds 28 1006 72 9000 2.57 260 09:45 23.05.2022
3532 Clouds 31 1007 78 9000 7.2 260 08:44 23.05.2022
3533 Clouds 34 1007 60 10000 3.09 0 06:48 23.05.2022
3534 Clouds 33 1008 63 10000 3.09 0 06:24 23.05.2022
3535 Clouds 30 1008 76 10000 2.24 57 02:36 23.05.2022
3536 Clouds 29 1008 79 9000 1.03 0 01:48 23.05.2022
3537 Clouds 28 1008 82 9000 1.03 0 01:19 23.05.2022
3538 Clouds 27 1006 89 10000 2.06 30 22:47 22.05.2022
3539 Clouds 27 1006 88 10000 2.06 30 22:18 22.05.2022
3540 Clouds 26 1006 90 10000 0 0 21:49 22.05.2022
3541 Clouds 27 1006 87 10000 0 0 20:40 22.05.2022
3542 Clouds 27 1006 87 10000 0 0 20:19 22.05.2022
3543 Clouds 27 1007 88 10000 1.03 80 18:58 22.05.2022
3544 Clouds 27 1007 87 10000 1.03 80 18:31 22.05.2022
3545 Clouds 27 1008 87 10000 2.06 50 17:55 22.05.2022
3546 Rain 27 1008 88 10000 2.06 70 16:51 22.05.2022
3547 Rain 26 1007 91 9000 3.09 70 15:22 22.05.2022
3548 Rain 27 1007 92 8000 2.57 80 14:35 22.05.2022
3549 Rain 27 1006 84 10000 3.09 230 12:54 22.05.2022
3550 Rain 29 1005 75 10000 5.14 240 11:53 22.05.2022
3551 Clouds 31 1004 68 10000 4.92 201 10:29 22.05.2022
3552 Clouds 33 1004 69 10000 8.49 209 09:19 22.05.2022
3553 Clouds 33 1006 58 10000 2.57 140 07:44 22.05.2022
3554 Clouds 32 1006 64 10000 7.6 193 06:41 22.05.2022
3555 Clouds 31 1007 68 10000 1.79 55 03:25 22.05.2022
3556 Clouds 27 1006 86 10000 1.03 0 00:49 22.05.2022
3557 Clouds 27 1006 84 10000 0.51 0 23:56 21.05.2022
3558 Clouds 27 1006 85 10000 0.51 0 23:27 21.05.2022
3559 Clouds 27 1006 84 10000 3.09 280 21:59 21.05.2022
3560 Clouds 27 1006 84 10000 3.09 280 21:34 21.05.2022
3561 Clouds 26 1006 86 9000 3.09 300 20:34 21.05.2022
3562 Rain 27 1007 89 9000 4.63 270 19:44 21.05.2022
3563 Clouds 27 1007 83 10000 1.03 0 18:45 21.05.2022
3564 Clouds 28 1008 78 10000 1.03 0 16:57 21.05.2022
3565 Clouds 28 1007 76 10000 3.09 170 14:49 21.05.2022
3566 Clouds 28 1007 77 10000 1.03 0 13:55 21.05.2022
3567 Clouds 28 1007 77 10000 1.03 0 13:25 21.05.2022
3568 Rain 29 1006 74 10000 3.09 260 12:38 21.05.2022
3569 Clouds 30 1006 72 10000 3.13 11 11:25 21.05.2022
3570 Clouds 31 1005 64 10000 2.24 353 09:57 21.05.2022
3571 Clouds 32 1006 61 10000 3.6 270 08:59 21.05.2022
3572 Clouds 32 1006 60 10000 3.6 270 08:37 21.05.2022
3573 Clouds 31 1007 66 10000 1.79 206 05:52 21.05.2022
3574 Clouds 27 1008 83 10000 0.51 0 01:33 21.05.2022
3575 Clouds 25 1007 93 10000 2.06 60 23:30 20.05.2022
3576 Clouds 25 1006 92 10000 1.54 80 22:29 20.05.2022
3577 Clouds 25 1006 92 10000 1.03 0 21:55 20.05.2022
3578 Clouds 25 1006 92 10000 1.03 0 21:55 20.05.2022
3579 Clouds 25 1006 91 10000 1.03 0 21:18 20.05.2022
3580 Rain 25 1007 92 10000 0.51 0 20:44 20.05.2022
3581 Rain 25 1008 92 10000 1.03 0 19:45 20.05.2022
3582 Rain 25 1009 95 10000 0.51 0 18:48 20.05.2022
3583 Rain 25 1010 93 8000 3.09 210 17:47 20.05.2022
3584 Rain 25 1011 92 7000 2.06 200 16:21 20.05.2022
3585 Rain 25 1010 91 9000 2.57 250 15:53 20.05.2022
3586 Rain 25 1009 91 10000 2.06 270 14:32 20.05.2022
3587 Rain 25 1009 91 9000 3.09 270 13:56 20.05.2022
3588 Clouds 26 1007 89 9000 2.06 190 11:51 20.05.2022
3589 Thunderstorm 26 1008 89 9000 4.63 240 10:30 20.05.2022
3590 Clouds 31 1006 73 9000 4.02 212 08:58 20.05.2022
3591 Clouds 33 1007 66 10000 4.47 201 07:40 20.05.2022
3592 Clouds 32 1008 70 8000 2.57 0 06:38 20.05.2022
3593 Clouds 32 1009 68 8000 2.68 158 05:28 20.05.2022
3594 Clouds 26 1010 90 10000 1.54 10 00:54 20.05.2022
3595 Clouds 26 1009 92 10000 1.03 0 23:25 19.05.2022
3596 Clouds 26 1009 91 10000 1.54 10 22:26 19.05.2022
3597 Clouds 26 1009 93 10000 0.51 0 21:49 19.05.2022
3598 Clouds 26 1009 93 10000 0.89 10 21:23 19.05.2022
3599 Clouds 26 1009 93 10000 2.24 7 20:40 19.05.2022
3600 Clouds 26 1010 93 10000 2.24 4 19:53 19.05.2022
3601 Clouds 26 1011 93 10000 3.6 20 18:45 19.05.2022
3602 Rain 26 1011 91 10000 2.68 12 17:31 19.05.2022
3603 Rain 27 1011 86 10000 1.34 11 15:33 19.05.2022
3604 Clouds 28 1011 85 10000 1.79 5 14:29 19.05.2022
3605 Clouds 28 1010 87 10000 1.54 120 13:50 19.05.2022
3606 Rain 28 1009 84 10000 1.54 110 11:46 19.05.2022
3607 Rain 27 1009 86 9000 1.54 0 09:34 19.05.2022
3608 Rain 30 1009 79 9000 3.58 165 08:18 19.05.2022
3609 Clouds 32 1010 64 10000 2.24 293 06:18 19.05.2022
3610 Clouds 30 1011 71 10000 3.6 120 02:54 19.05.2022
3611 Clouds 27 1010 86 10000 1.54 110 00:44 19.05.2022
3612 Clouds 26 1010 91 10000 1.03 0 22:53 18.05.2022
3613 Clouds 26 1010 91 10000 1.03 0 22:35 18.05.2022
3614 Clouds 26 1010 92 10000 1.03 0 21:31 18.05.2022
3615 Clouds 26 1011 92 10000 0.51 0 20:54 18.05.2022
3616 Clouds 26 1011 92 10000 0.51 0 20:18 18.05.2022
3617 Clouds 26 1012 92 10000 1.79 2 18:34 18.05.2022
3618 Clouds 26 1012 92 10000 1.79 2 18:34 18.05.2022
3619 Clouds 26 1012 92 10000 1.54 230 17:41 18.05.2022
3620 Clouds 26 1012 92 10000 1.54 230 17:23 18.05.2022
3621 Clouds 26 1012 91 10000 2.68 354 16:34 18.05.2022
3622 Clouds 27 1012 91 9000 0.51 0 15:42 18.05.2022
3623 Rain 27 1012 91 9000 0.89 6 14:48 18.05.2022
3624 Rain 26 1012 92 9000 1.03 0 13:44 18.05.2022
3625 Rain 26 1011 91 9000 1.03 0 12:48 18.05.2022
3626 Rain 26 1010 91 9000 1.03 0 11:36 18.05.2022
3627 Rain 27 1010 90 9000 1.03 0 11:18 18.05.2022
3628 Rain 28 1009 85 9000 3.09 240 09:50 18.05.2022
3629 Clouds 32 1009 63 10000 4.92 194 07:51 18.05.2022
3630 Clouds 33 1010 64 10000 3.6 110 06:41 18.05.2022
3631 Clouds 28 1010 83 10000 1.03 0 01:22 18.05.2022
3632 Clouds 27 1010 90 10000 1.03 0 00:23 18.05.2022
3633 Clouds 27 1009 90 8000 0 0 21:57 17.05.2022
3634 Clouds 27 1009 90 8000 0 0 21:20 17.05.2022
3635 Clouds 27 1009 90 8000 0 0 21:20 17.05.2022
3636 Clouds 27 1010 90 8000 0 0 20:19 17.05.2022
3637 Clouds 26 1010 90 9000 1.03 0 19:28 17.05.2022
3638 Clouds 26 1011 90 9000 0.51 0 17:51 17.05.2022
3639 Clouds 26 1011 90 8000 1.03 0 16:59 17.05.2022
3640 Clouds 26 1011 91 8000 1.03 0 16:30 17.05.2022
3641 Rain 26 1011 92 8000 0.89 40 15:32 17.05.2022
3642 Rain 26 1011 94 8000 1.03 0 14:30 17.05.2022
3643 Rain 26 1010 94 8000 3.09 60 13:35 17.05.2022
3644 Rain 29 1009 84 7000 2.06 300 11:46 17.05.2022
3645 Clouds 27 1008 94 9000 7.2 270 09:35 17.05.2022
3646 Clouds 31 1007 74 10000 7.6 205 08:33 17.05.2022
3647 Rain 31 1008 68 10000 4.12 220 06:48 17.05.2022
3648 Clouds 31 1009 69 9000 2.57 130 03:41 17.05.2022
3649 Rain 27 1008 85 9000 0 0 00:43 17.05.2022
3650 Rain 26 1008 90 8000 1.03 200 22:43 16.05.2022
3651 Clouds 26 1008 90 9000 1.03 0 21:45 16.05.2022
3652 Clouds 26 1008 88 9000 0 0 20:47 16.05.2022
3653 Clouds 27 1009 86 9000 1.03 0 19:46 16.05.2022
3654 Clouds 27 1009 86 9000 1.03 0 18:20 16.05.2022
3655 Rain 26 1009 91 9000 1.03 0 15:50 16.05.2022
3656 Rain 26 1010 89 8000 4.12 310 13:56 16.05.2022
3657 Rain 26 1010 90 8000 4.12 310 13:23 16.05.2022
3658 Rain 28 1006 82 10000 1.03 0 11:20 16.05.2022
3659 Rain 28 1006 77 10000 2.68 70 09:37 16.05.2022
3660 Clouds 33 1007 63 10000 3.6 130 06:56 16.05.2022
3661 Clouds 31 1009 74 8000 2.57 110 03:58 16.05.2022
3662 Clouds 27 1007 89 7000 1.03 0 23:30 15.05.2022
3663 Clouds 26 1007 91 7000 1.54 30 22:30 15.05.2022
3664 Clouds 26 1007 91 9000 2.68 8 21:46 15.05.2022
3665 Clouds 27 1008 92 10000 1.54 300 20:54 15.05.2022
3666 Clouds 27 1009 88 10000 1.34 9 19:32 15.05.2022
3667 Clouds 27 1011 91 10000 1.03 0 17:51 15.05.2022
3668 Rain 27 1010 89 10000 1.54 130 15:59 15.05.2022
3669 Rain 26 1009 91 8000 1.03 0 13:54 15.05.2022
3670 Rain 26 1010 94 7000 2.57 110 12:26 15.05.2022
3671 Rain 26 1009 94 8000 2.57 80 11:38 15.05.2022
3672 Rain 26 1008 94 8000 2.06 110 10:25 15.05.2022
3673 Rain 31 1008 74 9000 5.66 270 08:32 15.05.2022
3674 Rain 35 1008 58 10000 2.06 0 06:58 15.05.2022
3675 Clouds 33 1009 63 10000 6.26 217 05:33 15.05.2022
3676 Clouds 29 1009 82 10000 1.03 0 00:49 15.05.2022
3677 Clouds 28 1009 82 10000 1.54 90 23:38 14.05.2022
3678 Clouds 28 1008 83 9000 0 0 22:45 14.05.2022
3679 Clouds 29 1008 84 9000 0.51 0 21:28 14.05.2022
3680 Clouds 29 1009 83 10000 1.54 150 20:44 14.05.2022
3681 Clouds 29 1009 82 8000 1.54 180 19:37 14.05.2022
3682 Clouds 29 1009 82 8000 1.54 180 19:19 14.05.2022
3683 Clouds 29 1010 82 9000 2.57 70 17:56 14.05.2022
3684 Clouds 30 1011 77 10000 1.54 130 16:37 14.05.2022
3685 Clouds 29 1010 78 10000 0.51 0 14:59 14.05.2022
3686 Clouds 31 1011 72 10000 0.51 0 14:30 14.05.2022
3687 Rain 31 1009 72 10000 5.81 216 12:23 14.05.2022
3688 Rain 32 1007 66 10000 5.14 250 10:53 14.05.2022
3689 Clouds 33 1007 65 10000 5.81 208 10:20 14.05.2022
3690 Clouds 32 1007 62 10000 5.14 270 09:51 14.05.2022
3691 Clouds 34 1007 64 10000 7.2 270 08:46 14.05.2022
3692 Clouds 34 1010 58 10000 2.24 358 05:43 14.05.2022
3693 Clouds 30 1009 77 10000 0.89 34 01:58 14.05.2022
3694 Clouds 29 1009 83 10000 0.51 0 23:32 13.05.2022
3695 Clouds 29 1008 83 10000 1.03 0 22:57 13.05.2022
3696 Clouds 29 1008 82 10000 1.34 64 22:23 13.05.2022
3697 Clouds 29 1008 82 10000 1.54 180 21:35 13.05.2022
3698 Clouds 29 1008 80 10000 1.54 0 20:43 13.05.2022
3699 Clouds 29 1008 80 10000 1.54 0 20:23 13.05.2022
3700 Clouds 29 1008 80 10000 1.03 0 19:21 13.05.2022
3701 Clouds 29 1009 81 10000 2.06 120 17:50 13.05.2022
3702 Clouds 29 1010 82 10000 2.06 120 17:26 13.05.2022
3703 Clouds 30 1009 77 10000 1.79 202 15:53 13.05.2022
3704 Clouds 31 1008 76 10000 2.06 140 14:50 13.05.2022
3705 Clouds 32 1006 65 10000 3.58 203 12:58 13.05.2022
3706 Clouds 32 1006 66 10000 3.58 223 12:25 13.05.2022
3707 Clouds 34 1005 60 10000 5.36 200 10:35 13.05.2022
3708 Clouds 34 1005 60 10000 6.71 190 09:29 13.05.2022
3709 Clouds 36 1005 54 10000 4.47 212 08:20 13.05.2022
3710 Clouds 35 1006 56 10000 7.15 220 07:31 13.05.2022
3711 Clouds 34 1008 57 10000 2.68 194 05:58 13.05.2022
3712 Clouds 30 1009 68 10000 1.54 100 01:49 13.05.2022
3713 Clouds 28 1007 78 10000 1.03 0 23:43 12.05.2022
3714 Clouds 28 1007 76 10000 1.03 0 22:42 12.05.2022
3715 Clouds 28 1007 75 10000 0.51 0 21:36 12.05.2022
3716 Clouds 29 1007 73 10000 1.54 130 20:22 12.05.2022
3717 Clouds 30 1008 70 10000 1.54 130 18:30 12.05.2022
3718 Clouds 30 1009 67 10000 2.06 0 16:52 12.05.2022
3719 Clouds 31 1008 63 10000 3.09 130 15:30 12.05.2022
3720 Clouds 32 1007 61 10000 3.09 110 13:58 12.05.2022
3721 Clouds 33 1006 58 10000 4.12 110 12:46 12.05.2022
3722 Clouds 35 1006 54 10000 4.63 120 10:35 12.05.2022
3723 Clouds 36 1005 52 10000 3.6 130 08:58 12.05.2022
3724 Clouds 35 1005 52 10000 3.6 130 08:37 12.05.2022
3725 Clouds 34 1005 55 10000 3.6 120 07:36 12.05.2022
3726 Clouds 33 1008 57 10000 3.6 0 04:50 12.05.2022
3727 Clouds 31 1008 65 10000 2.57 80 01:55 12.05.2022
3728 Clouds 28 1007 75 10000 2.06 120 23:42 11.05.2022
3729 Clouds 28 1007 71 10000 2.06 100 22:22 11.05.2022
3730 Clouds 29 1007 70 10000 3.09 110 21:27 11.05.2022
3731 Clouds 29 1007 70 10000 2.57 110 20:48 11.05.2022
3732 Clouds 29 1009 69 10000 2.06 120 17:54 11.05.2022
3733 Clouds 30 1009 67 10000 3.09 120 16:47 11.05.2022
3734 Clouds 31 1008 63 10000 3.6 130 14:49 11.05.2022
3735 Clouds 31 1008 63 10000 3.6 130 14:25 11.05.2022
3736 Clouds 32 1008 64 10000 4.12 120 13:37 11.05.2022
3737 Clouds 34 1006 58 10000 4.63 120 11:48 11.05.2022
3738 Clouds 35 1005 54 10000 3.6 130 09:34 11.05.2022
3739 Clouds 34 1007 57 10000 4.47 167 06:59 11.05.2022
3740 Clouds 32 1010 59 10000 2.57 0 03:38 11.05.2022
3741 Clouds 28 1008 72 10000 2.06 110 23:45 10.05.2022
3742 Clouds 28 1007 73 10000 2.06 110 22:30 10.05.2022
3743 Clouds 28 1007 71 10000 3.09 110 21:43 10.05.2022
3744 Clouds 29 1008 69 10000 3.6 120 20:48 10.05.2022
3745 Clouds 29 1009 66 10000 3.09 120 19:18 10.05.2022
3746 Clouds 30 1009 66 10000 3.6 120 17:43 10.05.2022
3747 Clouds 30 1009 67 10000 3.6 120 16:39 10.05.2022
3748 Clouds 30 1008 67 10000 3.6 110 13:37 10.05.2022
3749 Clouds 32 1006 63 10000 4.12 130 11:54 10.05.2022
3750 Clouds 33 1006 60 10000 4.12 130 11:34 10.05.2022
3751 Clouds 34 1005 57 10000 4.63 130 10:57 10.05.2022
3752 Clouds 35 1005 54 10000 4.12 120 09:52 10.05.2022
3753 Clouds 35 1006 54 10000 4.63 130 08:22 10.05.2022
3754 Clouds 33 1008 59 10000 4.63 0 06:20 10.05.2022
3755 Clouds 31 1010 59 10000 1.54 120 02:23 10.05.2022
3756 Clouds 27 1008 75 10000 2.06 70 23:53 09.05.2022
3757 Clouds 28 1008 73 10000 2.24 358 22:36 09.05.2022
3758 Clouds 28 1007 73 10000 3.09 110 21:39 09.05.2022
3759 Clouds 29 1008 71 10000 3.6 120 20:20 09.05.2022
3760 Clouds 29 1009 70 10000 4.63 110 18:26 09.05.2022
3761 Clouds 29 1009 69 10000 3.09 120 17:26 09.05.2022
3762 Clouds 29 1009 68 10000 3.6 110 16:19 09.05.2022
3763 Clouds 30 1009 66 10000 3.6 110 15:47 09.05.2022
3764 Clouds 30 1009 65 10000 3.6 120 14:36 09.05.2022
3765 Clouds 31 1008 63 10000 4.12 120 13:57 09.05.2022
3766 Clouds 32 1007 61 10000 5.14 110 12:55 09.05.2022
3767 Clouds 32 1006 61 10000 5.14 120 11:53 09.05.2022
3768 Clouds 34 1006 58 10000 5.66 120 10:48 09.05.2022
3769 Clouds 34 1006 57 10000 5.66 120 10:23 09.05.2022
3770 Clouds 35 1007 54 10000 5.14 130 07:57 09.05.2022
3771 Clouds 33 1010 60 10000 4.92 217 04:52 09.05.2022
3772 Clouds 28 1008 74 10000 2.06 120 00:30 09.05.2022
3773 Clouds 28 1008 78 10000 2.06 120 23:28 08.05.2022
3774 Clouds 28 1008 75 10000 2.06 110 22:29 08.05.2022
3775 Clouds 29 1008 69 10000 1.54 80 20:54 08.05.2022
3776 Clouds 29 1009 69 10000 1.54 80 20:22 08.05.2022
3777 Clouds 29 1009 72 10000 1.54 120 19:32 08.05.2022
3778 Clouds 29 1009 71 10000 2.57 90 18:35 08.05.2022
3779 Clouds 30 1010 71 10000 4.12 110 17:36 08.05.2022
3780 Clouds 30 1009 69 10000 3.09 110 15:46 08.05.2022
3781 Clouds 30 1009 68 10000 3.09 110 15:21 08.05.2022
3782 Clouds 32 1007 63 10000 4.63 110 12:46 08.05.2022
3783 Clouds 34 1006 55 10000 4.63 120 10:56 08.05.2022
3784 Clouds 34 1006 53 10000 4.63 120 10:22 08.05.2022
3785 Clouds 35 1006 53 10000 5.66 120 09:51 08.05.2022
3786 Clouds 34 1007 54 10000 5.14 120 07:41 08.05.2022
3787 Clouds 34 1009 54 10000 4.02 254 04:56 08.05.2022
3788 Clouds 33 1009 61 10000 4.63 120 03:20 08.05.2022
3789 Clouds 28 1008 77 10000 2.06 70 00:31 08.05.2022
3790 Clouds 28 1008 77 10000 1.34 349 23:54 07.05.2022
3791 Clouds 28 1008 77 10000 1.54 80 22:58 07.05.2022
3792 Clouds 28 1008 76 10000 1.54 80 22:34 07.05.2022
3793 Clouds 29 1008 74 10000 1.03 0 21:44 07.05.2022
3794 Clouds 29 1008 73 10000 2.57 100 20:56 07.05.2022
3795 Clouds 29 1009 72 10000 4.12 110 19:59 07.05.2022
3796 Clouds 30 1009 70 10000 4.63 120 18:38 07.05.2022
3797 Clouds 30 1009 65 10000 3.09 110 15:58 07.05.2022
3798 Clouds 31 1008 66 10000 2.57 100 14:44 07.05.2022
3799 Clouds 35 1006 54 10000 4.12 90 10:59 07.05.2022
3800 Clouds 35 1006 55 10000 5.14 110 09:38 07.05.2022
3801 Clouds 34 1007 57 10000 4.63 120 07:52 07.05.2022
3802 Clouds 34 1008 59 10000 5.14 120 06:44 07.05.2022
3803 Clouds 34 1010 60 10000 4.63 120 05:34 07.05.2022
3804 Clouds 32 1009 64 10000 4.02 176 03:32 07.05.2022
3805 Clouds 28 1008 72 10000 2.06 90 23:38 06.05.2022
3806 Clouds 28 1008 71 10000 2.57 110 22:32 06.05.2022
3807 Clouds 29 1007 70 10000 2.57 120 21:45 06.05.2022
3808 Clouds 29 1008 70 10000 3.09 120 20:35 06.05.2022
3809 Clouds 29 1008 70 10000 3.6 110 19:41 06.05.2022
3810 Clouds 29 1008 69 10000 3.6 110 19:18 06.05.2022
3811 Clouds 30 1009 67 10000 3.09 120 18:23 06.05.2022
3812 Clouds 30 1010 71 10000 3.09 120 16:53 06.05.2022
3813 Clouds 30 1009 71 10000 3.6 110 15:42 06.05.2022
3814 Clouds 31 1009 68 10000 4.63 120 14:53 06.05.2022
3815 Clouds 32 1008 57 10000 3.6 110 12:56 06.05.2022
3816 Clouds 32 1008 56 10000 3.6 110 12:37 06.05.2022
3817 Clouds 33 1008 58 10000 4.12 120 11:45 06.05.2022
3818 Clouds 34 1007 52 10000 5.66 130 10:30 06.05.2022
3819 Clouds 35 1007 52 10000 5.14 130 09:46 06.05.2022
3820 Clouds 35 1008 54 10000 4.63 120 08:33 06.05.2022
3821 Clouds 34 1009 59 10000 3.6 130 06:48 06.05.2022
3822 Clouds 34 1010 57 10000 2.06 0 05:23 06.05.2022
3823 Clouds 31 1010 60 10000 1.03 0 02:50 06.05.2022
3824 Clouds 28 1009 72 10000 1.03 0 00:25 06.05.2022
3825 Clouds 27 1007 74 10000 2.06 60 22:28 05.05.2022
3826 Clouds 27 1007 75 10000 3.6 60 21:22 05.05.2022
3827 Clouds 28 1008 72 10000 3.09 120 19:54 05.05.2022
3828 Clouds 29 1008 69 10000 3.6 130 18:31 05.05.2022
3829 Clouds 30 1009 66 10000 3.6 130 16:33 05.05.2022
3830 Clouds 31 1008 62 10000 3.6 110 14:50 05.05.2022
3831 Clouds 32 1008 57 10000 3.09 110 13:22 05.05.2022
3832 Clouds 32 1007 56 10000 4.12 120 12:49 05.05.2022
3833 Clouds 35 1006 51 10000 4.12 0 10:48 05.05.2022
3834 Clouds 34 1006 52 10000 3.6 110 09:39 05.05.2022
3835 Clouds 35 1009 50 10000 3.09 110 07:35 05.05.2022
3836 Clouds 32 1009 60 10000 3.6 110 04:42 05.05.2022
3837 Clouds 31 1009 61 10000 1.54 170 01:53 05.05.2022
3838 Clouds 30 1009 60 10000 1.54 170 01:24 05.05.2022
3839 Clouds 28 1008 72 10000 1.54 110 23:47 04.05.2022
3840 Clouds 28 1007 72 10000 1.03 0 22:30 04.05.2022
3841 Clouds 28 1007 73 10000 1.54 100 21:49 04.05.2022
3842 Clouds 28 1007 73 10000 1.54 100 21:26 04.05.2022
3843 Clouds 29 1007 70 10000 3.09 120 20:24 04.05.2022
3844 Clouds 29 1008 69 10000 2.57 120 19:53 04.05.2022
3845 Clouds 29 1008 69 10000 2.06 120 18:54 04.05.2022
3846 Clouds 29 1009 68 10000 2.06 120 18:22 04.05.2022
3847 Clouds 30 1010 68 10000 2.57 120 17:38 04.05.2022
3848 Clouds 30 1010 68 10000 3.09 120 15:40 04.05.2022
3849 Clouds 30 1010 67 10000 3.09 120 15:22 04.05.2022
3850 Clouds 31 1009 65 10000 3.6 100 14:20 04.05.2022
3851 Clouds 31 1008 60 10000 4.12 110 13:26 04.05.2022
3852 Clouds 32 1007 59 10000 4.12 110 12:29 04.05.2022
3853 Clouds 34 1006 48 10000 4.63 120 10:40 04.05.2022
3854 Clouds 35 1006 48 10000 4.12 120 09:43 04.05.2022
3855 Clouds 34 1007 50 10000 4.63 120 08:40 04.05.2022
3856 Clouds 33 1008 56 10000 4.12 120 06:31 04.05.2022
3857 Clouds 31 1009 62 10000 3.09 120 02:53 04.05.2022
3858 Clouds 27 1007 77 10000 1.03 0 23:58 03.05.2022
3859 Clouds 27 1007 73 10000 0.51 0 22:30 03.05.2022
3860 Clouds 27 1007 75 10000 2.06 60 21:36 03.05.2022
3861 Clouds 28 1008 72 10000 1.34 356 20:53 03.05.2022
3862 Clouds 28 1009 71 10000 1.03 0 19:49 03.05.2022
3863 Clouds 29 1009 69 10000 1.54 120 18:50 03.05.2022
3864 Clouds 29 1009 69 10000 1.54 120 18:20 03.05.2022
3865 Clouds 29 1010 68 10000 3.09 120 16:37 03.05.2022
3866 Clouds 30 1009 67 10000 3.6 120 15:32 03.05.2022
3867 Clouds 31 1007 60 10000 3.6 100 12:47 03.05.2022
3868 Clouds 32 1007 60 10000 3.6 100 12:27 03.05.2022
3869 Clouds 33 1007 55 10000 5.14 110 10:57 03.05.2022
3870 Clouds 33 1007 54 10000 5.66 110 09:29 03.05.2022
3871 Clouds 33 1008 60 10000 4.12 0 06:46 03.05.2022
3872 Clouds 33 1009 58 10000 3.09 0 05:56 03.05.2022
3873 Clouds 27 1009 79 10000 2.24 358 00:32 03.05.2022
3874 Clouds 27 1008 77 10000 1.03 240 22:36 02.05.2022
3875 Clouds 27 1008 72 10000 1.34 1 21:51 02.05.2022
3876 Clouds 28 1008 73 10000 1.54 90 20:51 02.05.2022
3877 Clouds 28 1009 71 10000 2.06 120 18:37 02.05.2022
3878 Clouds 29 1009 70 10000 2.57 120 17:57 02.05.2022
3879 Clouds 29 1009 68 10000 2.57 120 17:34 02.05.2022
3880 Clouds 29 1009 67 10000 3.09 120 16:21 02.05.2022
3881 Clouds 30 1008 65 10000 3.09 120 15:29 02.05.2022
3882 Clouds 31 1007 56 10000 3.6 100 13:50 02.05.2022
3883 Clouds 32 1006 54 10000 4.12 100 12:18 02.05.2022
3884 Clouds 34 1006 48 10000 4.12 120 10:25 02.05.2022
3885 Clouds 35 1006 48 10000 4.63 120 08:49 02.05.2022
3886 Clouds 33 1007 56 10000 4.63 110 07:39 02.05.2022
3887 Clouds 33 1007 56 10000 4.63 110 07:39 02.05.2022
3888 Clouds 31 1008 61 10000 2.57 110 02:51 02.05.2022
3889 Clouds 28 1007 70 10000 2.06 100 00:24 02.05.2022
3890 Clouds 28 1007 71 10000 2.06 120 23:47 01.05.2022
3891 Clouds 28 1006 70 10000 2.06 110 22:20 01.05.2022
3892 Clouds 28 1007 69 10000 2.06 110 21:18 01.05.2022
3893 Clouds 29 1008 70 10000 2.06 110 19:50 01.05.2022
3894 Clouds 29 1008 70 10000 2.57 120 18:55 01.05.2022
3895 Clouds 29 1008 69 10000 2.57 120 18:22 01.05.2022
3896 Clouds 29 1009 69 10000 3.6 120 17:18 01.05.2022
3897 Clouds 29 1009 69 10000 3.09 120 16:23 01.05.2022
3898 Clouds 30 1008 68 10000 3.09 0 15:23 01.05.2022
3899 Clouds 31 1007 64 10000 4.12 120 13:42 01.05.2022
3900 Clouds 33 1005 56 10000 4.63 110 10:53 01.05.2022
3901 Clouds 34 1005 54 10000 4.12 0 08:53 01.05.2022
3902 Clouds 34 1006 56 10000 5.14 120 07:53 01.05.2022
3903 Clouds 32 1008 60 10000 4.12 120 03:26 01.05.2022
3904 Clouds 28 1008 74 10000 2.06 100 23:23 30.04.2022
3905 Clouds 28 1008 74 10000 2.57 110 21:35 30.04.2022
3906 Clouds 28 1008 73 10000 3.09 120 20:36 30.04.2022
3907 Clouds 29 1008 73 10000 3.6 110 19:36 30.04.2022
3908 Clouds 29 1010 73 10000 3.09 110 17:40 30.04.2022
3909 Clouds 29 1010 72 10000 3.09 120 16:37 30.04.2022
3910 Clouds 30 1009 70 10000 3.6 120 15:21 30.04.2022
3911 Clouds 30 1008 70 10000 3.09 120 14:33 30.04.2022
3912 Clouds 31 1007 68 10000 4.12 0 12:36 30.04.2022
3913 Clouds 31 1007 68 10000 4.12 0 12:36 30.04.2022
3914 Clouds 32 1007 64 10000 4.12 0 11:33 30.04.2022
3915 Clouds 33 1006 62 10000 5.14 130 10:40 30.04.2022
3916 Clouds 34 1007 65 10000 4.12 140 08:54 30.04.2022
3917 Clouds 33 1010 65 10000 3.58 347 05:38 30.04.2022
3918 Clouds 28 1009 80 10000 1.54 140 00:35 30.04.2022
3919 Clouds 28 1009 78 10000 1.54 120 23:36 29.04.2022
3920 Clouds 28 1009 79 10000 2.57 110 22:30 29.04.2022
3921 Clouds 29 1009 75 10000 2.06 120 21:27 29.04.2022
3922 Clouds 29 1010 73 10000 2.06 120 20:38 29.04.2022
3923 Clouds 29 1010 73 10000 2.06 120 19:38 29.04.2022
3924 Clouds 30 1011 70 10000 2.57 120 17:50 29.04.2022
3925 Clouds 30 1011 70 10000 2.57 120 16:56 29.04.2022
3926 Clouds 31 1010 70 10000 3.09 120 14:50 29.04.2022
3927 Clouds 31 1010 69 10000 3.09 120 14:20 29.04.2022
3928 Clouds 32 1008 64 10000 3.09 120 12:43 29.04.2022
3929 Clouds 33 1006 59 10000 5.14 120 10:58 29.04.2022
3930 Clouds 34 1007 61 10000 4.63 120 08:18 29.04.2022
3931 Clouds 35 1009 58 10000 4.63 110 07:27 29.04.2022
3932 Clouds 34 1010 61 10000 5.14 110 06:35 29.04.2022
3933 Clouds 32 1010 64 10000 4.12 110 03:28 29.04.2022
3934 Clouds 28 1008 76 10000 2.57 120 00:18 29.04.2022
3935 Clouds 28 1008 76 10000 1.54 90 23:26 28.04.2022
3936 Clouds 28 1008 75 10000 1.54 90 22:40 28.04.2022
3937 Clouds 29 1008 74 10000 1.54 100 21:46 28.04.2022
3938 Clouds 29 1008 74 10000 1.54 100 20:51 28.04.2022
3939 Clouds 29 1009 74 10000 2.57 100 19:59 28.04.2022
3940 Clouds 29 1009 74 10000 2.57 100 19:40 28.04.2022
3941 Clouds 29 1009 73 10000 2.57 100 19:20 28.04.2022
3942 Clouds 29 1010 72 10000 3.6 120 17:56 28.04.2022
3943 Clouds 30 1010 70 10000 2.06 100 16:59 28.04.2022
3944 Clouds 30 1010 69 10000 2.06 100 16:21 28.04.2022
3945 Clouds 30 1010 68 10000 2.57 120 15:56 28.04.2022
3946 Clouds 30 1010 68 10000 2.57 120 15:23 28.04.2022
3947 Clouds 31 1008 65 10000 4.12 120 13:43 28.04.2022
3948 Clouds 32 1008 63 10000 4.12 110 12:34 28.04.2022
3949 Clouds 33 1007 61 10000 4.12 130 11:51 28.04.2022
3950 Clouds 34 1007 55 10000 4.12 120 10:30 28.04.2022
3951 Clouds 35 1006 54 10000 4.63 110 09:51 28.04.2022
3952 Clouds 35 1007 56 10000 4.63 100 07:45 28.04.2022
3953 Clouds 34 1008 58 10000 5.14 110 06:54 28.04.2022
3954 Clouds 34 1009 61 10000 3.6 0 05:54 28.04.2022
3955 Clouds 33 1010 67 10000 4.12 120 04:44 28.04.2022
3956 Clouds 32 1010 67 10000 4.63 100 03:28 28.04.2022
3957 Clouds 26 1008 89 10000 2.06 60 23:43 27.04.2022
3958 Clouds 26 1008 88 8000 2.57 80 22:25 27.04.2022
3959 Clouds 26 1008 90 8000 2.06 70 21:47 27.04.2022
3960 Clouds 28 1008 83 9000 1.54 120 20:47 27.04.2022
3961 Clouds 28 1008 83 9000 1.54 120 20:47 27.04.2022
3962 Clouds 28 1008 82 9000 1.54 120 20:29 27.04.2022
3963 Clouds 28 1008 78 10000 0.45 11 19:36 27.04.2022
3964 Clouds 29 1008 73 10000 1.03 0 18:42 27.04.2022
3965 Clouds 29 1008 72 10000 1.03 0 18:21 27.04.2022
3966 Clouds 29 1009 68 10000 2.06 120 16:21 27.04.2022
3967 Clouds 31 1007 59 10000 2.68 81 13:29 27.04.2022
3968 Clouds 32 1006 63 10000 3.6 110 11:37 27.04.2022
3969 Clouds 33 1005 63 10000 4.63 120 10:51 27.04.2022
3970 Clouds 34 1006 61 10000 6.17 110 08:31 27.04.2022
3971 Clouds 34 1009 63 10000 4.12 120 06:44 27.04.2022
3972 Clouds 31 1008 68 10000 2.57 100 02:40 27.04.2022
3973 Clouds 29 1008 72 10000 2.06 90 01:24 27.04.2022
3974 Clouds 27 1007 79 10000 1.54 120 00:34 27.04.2022
3975 Clouds 27 1007 80 10000 2.06 80 23:24 26.04.2022
3976 Clouds 27 1007 80 10000 1.54 100 22:51 26.04.2022
3977 Clouds 27 1007 80 10000 1.54 100 22:31 26.04.2022
3978 Clouds 28 1007 78 10000 2.06 100 21:25 26.04.2022
3979 Clouds 28 1007 77 10000 2.06 110 20:39 26.04.2022
3980 Clouds 28 1008 75 10000 3.09 110 19:45 26.04.2022
3981 Clouds 28 1008 75 10000 3.09 110 19:26 26.04.2022
3982 Clouds 29 1008 74 10000 2.06 110 18:39 26.04.2022
3983 Clouds 29 1009 74 10000 2.57 120 17:42 26.04.2022
3984 Clouds 29 1009 71 10000 3.09 110 15:59 26.04.2022
3985 Clouds 30 1008 71 10000 4.12 120 13:55 26.04.2022
3986 Clouds 30 1007 71 10000 4.12 120 13:28 26.04.2022
3987 Clouds 31 1006 69 10000 4.63 110 11:24 26.04.2022
3988 Clouds 32 1006 69 10000 3.09 140 10:30 26.04.2022
3989 Clouds 34 1007 61 10000 5.14 130 08:34 26.04.2022
3990 Clouds 33 1009 61 10000 3.6 100 04:59 26.04.2022
3991 Clouds 32 1009 63 10000 3.6 100 04:22 26.04.2022
3992 Clouds 28 1008 78 10000 2.06 80 00:51 26.04.2022
3993 Clouds 28 1007 78 10000 1.03 0 23:50 25.04.2022
3994 Clouds 28 1007 79 10000 1.54 120 21:53 25.04.2022
3995 Clouds 28 1007 79 10000 1.54 120 21:26 25.04.2022
3996 Clouds 29 1007 74 10000 2.06 100 19:53 25.04.2022
3997 Clouds 29 1008 73 10000 2.06 100 18:34 25.04.2022
3998 Clouds 29 1008 73 10000 2.57 110 17:40 25.04.2022
3999 Clouds 29 1008 72 10000 2.57 110 16:42 25.04.2022
4000 Clouds 30 1008 72 10000 3.09 0 15:22 25.04.2022
4001 Clouds 30 1007 70 10000 4.12 110 14:32 25.04.2022
4002 Clouds 31 1006 68 10000 4.12 110 12:47 25.04.2022
4003 Clouds 32 1006 62 10000 5.66 110 10:42 25.04.2022
4004 Clouds 33 1006 64 10000 4.63 120 09:41 25.04.2022
4005 Clouds 33 1007 60 10000 4.63 120 07:38 25.04.2022
4006 Clouds 32 1009 62 10000 3.09 120 05:54 25.04.2022
4007 Clouds 29 1009 76 10000 2.57 100 01:28 25.04.2022
4008 Clouds 28 1007 77 10000 2.06 100 23:54 24.04.2022
4009 Clouds 28 1007 77 10000 2.06 100 23:22 24.04.2022
4010 Clouds 28 1007 76 10000 2.57 100 22:38 24.04.2022
4011 Clouds 28 1007 76 10000 3.09 110 21:55 24.04.2022
4012 Clouds 28 1007 76 10000 3.09 110 21:21 24.04.2022
4013 Clouds 29 1007 75 10000 3.09 110 20:44 24.04.2022
4014 Clouds 29 1007 74 10000 3.6 110 19:57 24.04.2022
4015 Clouds 29 1008 74 10000 3.09 120 18:37 24.04.2022
4016 Clouds 29 1008 73 10000 3.6 120 17:41 24.04.2022
4017 Clouds 29 1008 72 10000 3.6 120 17:20 24.04.2022
4018 Clouds 29 1008 72 10000 4.12 120 16:51 24.04.2022
4019 Clouds 29 1009 72 10000 4.12 120 16:22 24.04.2022
4020 Clouds 30 1008 71 10000 3.09 120 15:36 24.04.2022
4021 Clouds 30 1008 69 10000 3.6 110 14:30 24.04.2022
4022 Clouds 31 1007 67 10000 4.12 110 13:26 24.04.2022
4023 Clouds 31 1007 66 10000 4.12 110 12:44 24.04.2022
4024 Clouds 32 1005 62 10000 4.12 120 11:44 24.04.2022
4025 Clouds 33 1005 62 10000 5.66 110 10:32 24.04.2022
4026 Clouds 34 1005 61 10000 4.63 0 09:41 24.04.2022
4027 Clouds 34 1007 57 10000 4.63 150 07:39 24.04.2022
4028 Clouds 32 1009 59 10000 3.13 206 04:56 24.04.2022
4029 Clouds 30 1009 61 9000 1.03 0 01:50 24.04.2022
4030 Clouds 27 1008 70 10000 0.45 0 00:33 24.04.2022
4031 Clouds 27 1008 70 10000 1.34 355 23:45 23.04.2022
4032 Clouds 27 1008 70 10000 1.03 0 23:22 23.04.2022
4033 Clouds 27 1007 71 10000 1.03 0 21:54 23.04.2022
4034 Clouds 27 1007 70 10000 1.03 0 21:34 23.04.2022
4035 Clouds 28 1008 70 10000 2.06 90 20:57 23.04.2022
4036 Clouds 28 1008 67 10000 2.57 110 19:49 23.04.2022
4037 Clouds 28 1008 66 10000 2.57 110 19:19 23.04.2022
4038 Clouds 29 1009 66 10000 2.06 130 18:53 23.04.2022
4039 Clouds 29 1009 67 10000 3.6 120 17:52 23.04.2022
4040 Clouds 29 1009 66 10000 3.6 120 17:30 23.04.2022
4041 Clouds 29 1009 64 10000 2.06 100 16:42 23.04.2022
4042 Clouds 29 1009 63 10000 3.09 120 15:32 23.04.2022
4043 Clouds 32 1007 60 10000 3.6 140 12:49 23.04.2022
4044 Clouds 34 1006 55 10000 3.6 0 10:49 23.04.2022
4045 Clouds 33 1007 64 10000 5.66 50 09:38 23.04.2022
4046 Clouds 34 1009 52 10000 4.63 130 07:21 23.04.2022
4047 Clouds 32 1011 55 10000 3.09 0 03:54 23.04.2022
4048 Clouds 28 1010 67 10000 2.57 80 01:25 23.04.2022
4049 Clouds 26 1010 77 10000 1.03 0 23:31 22.04.2022
4050 Clouds 26 1009 79 10000 2.57 60 22:20 22.04.2022
4051 Clouds 27 1009 79 10000 1.54 90 21:44 22.04.2022
4052 Clouds 28 1009 78 10000 4.12 90 20:48 22.04.2022
4053 Clouds 28 1009 78 10000 4.12 90 20:27 22.04.2022
4054 Clouds 28 1009 76 10000 3.6 100 19:20 22.04.2022
4055 Clouds 28 1010 74 10000 4.12 110 18:42 22.04.2022
4056 Clouds 29 1010 74 10000 3.6 110 17:41 22.04.2022
4057 Clouds 29 1011 72 10000 2.57 120 16:46 22.04.2022
4058 Clouds 29 1011 70 10000 2.68 89 15:42 22.04.2022
4059 Clouds 30 1011 70 10000 2.57 100 15:18 22.04.2022
4060 Clouds 30 1010 66 10000 3.09 90 13:50 22.04.2022
4061 Clouds 31 1009 62 10000 4.12 110 12:58 22.04.2022
4062 Clouds 32 1008 61 10000 4.12 110 11:50 22.04.2022
4063 Clouds 32 1008 61 10000 4.12 110 11:21 22.04.2022
4064 Clouds 33 1008 59 10000 4.12 110 10:50 22.04.2022
4065 Clouds 32 1008 61 10000 4.12 110 10:30 22.04.2022
4066 Clouds 34 1009 58 10000 4.63 110 09:50 22.04.2022
4067 Clouds 34 1009 57 10000 5.14 110 08:50 22.04.2022
4068 Clouds 33 1011 63 10000 4.63 110 06:58 22.04.2022
4069 Clouds 31 1011 66 10000 1.54 0 02:45 22.04.2022
4070 Clouds 27 1011 78 10000 2.68 14 00:51 22.04.2022
4071 Clouds 27 1009 78 10000 0.89 11 22:59 21.04.2022
4072 Clouds 27 1009 78 10000 0.51 0 22:27 21.04.2022
4073 Clouds 28 1009 74 10000 2.06 110 20:36 21.04.2022
4074 Clouds 28 1009 74 10000 2.06 110 20:18 21.04.2022
4075 Clouds 29 1010 73 10000 2.06 100 18:35 21.04.2022
4076 Clouds 29 1011 73 10000 3.09 110 17:54 21.04.2022
4077 Clouds 29 1011 72 10000 3.09 120 16:30 21.04.2022
4078 Clouds 29 1011 72 10000 3.6 120 15:21 21.04.2022
4079 Clouds 30 1010 73 10000 4.12 120 14:38 21.04.2022
4080 Clouds 30 1009 69 10000 4.12 110 13:23 21.04.2022
4081 Clouds 31 1008 68 10000 2.57 120 12:42 21.04.2022
4082 Clouds 34 1009 59 10000 4.63 0 10:45 21.04.2022
4083 Clouds 34 1008 61 10000 4.47 348 08:54 21.04.2022
4084 Clouds 34 1009 57 10000 4.12 130 07:24 21.04.2022
4085 Clouds 32 1011 75 10000 4.92 211 04:58 21.04.2022
4086 Clouds 31 1011 65 10000 2.57 260 03:26 21.04.2022
4087 Clouds 30 1011 66 9000 2.06 270 02:46 21.04.2022
4088 Clouds 30 1011 66 9000 2.06 270 02:46 21.04.2022
4089 Clouds 27 1010 77 10000 0 0 00:43 21.04.2022
4090 Clouds 27 1010 77 10000 0 0 00:43 21.04.2022
4091 Clouds 26 1009 82 10000 1.54 40 23:49 20.04.2022
4092 Clouds 26 1009 81 10000 1.54 40 23:21 20.04.2022
4093 Clouds 27 1009 79 10000 0.89 17 22:45 20.04.2022
4094 Clouds 27 1009 79 10000 0.51 0 22:26 20.04.2022
4095 Clouds 27 1009 77 10000 0.51 0 21:24 20.04.2022
4096 Clouds 27 1009 77 10000 1.03 0 20:23 20.04.2022
4097 Clouds 27 1009 77 10000 1.03 0 20:23 20.04.2022
4098 Clouds 28 1009 76 10000 1.03 90 19:51 20.04.2022
4099 Clouds 28 1010 75 10000 2.06 120 18:55 20.04.2022
4100 Clouds 28 1011 74 10000 2.57 120 17:53 20.04.2022
4101 Clouds 28 1011 71 10000 3.6 120 16:40 20.04.2022
4102 Clouds 28 1011 72 10000 3.6 120 16:18 20.04.2022
4103 Clouds 29 1009 70 10000 2.57 120 13:50 20.04.2022
4104 Clouds 30 1008 67 10000 3.6 120 11:44 20.04.2022
4105 Clouds 30 1008 68 10000 5.14 110 10:56 20.04.2022
4106 Clouds 32 1008 61 10000 4.63 120 09:46 20.04.2022
4107 Clouds 32 1008 60 10000 5.66 120 08:59 20.04.2022
4108 Clouds 31 1008 61 10000 5.66 120 08:20 20.04.2022
4109 Clouds 32 1009 63 10000 4.63 130 06:56 20.04.2022
4110 Clouds 30 1011 64 10000 2.06 0 03:34 20.04.2022
4111 Clouds 27 1009 72 10000 1.54 60 00:22 20.04.2022
4112 Clouds 27 1009 72 10000 1.03 0 23:35 19.04.2022
4113 Clouds 27 1009 75 10000 1.54 60 22:24 19.04.2022
4114 Clouds 27 1009 74 10000 2.06 110 21:55 19.04.2022
4115 Clouds 27 1009 74 10000 2.06 110 21:19 19.04.2022
4116 Clouds 27 1010 73 10000 2.06 90 20:41 19.04.2022
4117 Clouds 28 1010 71 10000 3.09 90 19:43 19.04.2022
4118 Clouds 28 1011 70 10000 3.6 110 18:47 19.04.2022
4119 Clouds 28 1011 69 10000 3.6 120 17:28 19.04.2022
4120 Clouds 28 1011 69 10000 3.09 110 16:43 19.04.2022
4121 Clouds 28 1011 69 10000 3.09 110 16:21 19.04.2022
4122 Clouds 29 1010 66 10000 2.57 100 14:48 19.04.2022
4123 Clouds 29 1009 65 10000 3.6 90 13:35 19.04.2022
4124 Clouds 30 1009 65 10000 4.12 110 12:50 19.04.2022
4125 Clouds 31 1008 60 10000 4.63 90 11:55 19.04.2022
4126 Clouds 32 1008 58 10000 4.12 110 10:23 19.04.2022
4127 Clouds 33 1009 56 10000 4.63 120 08:54 19.04.2022
4128 Clouds 32 1011 56 10000 3.6 110 04:42 19.04.2022
4129 Clouds 31 1012 57 10000 3.6 110 03:25 19.04.2022
4130 Clouds 26 1010 76 10000 1.54 80 00:28 19.04.2022
4131 Clouds 26 1009 76 10000 2.57 70 23:29 18.04.2022
4132 Clouds 26 1009 71 10000 2.06 90 21:30 18.04.2022
4133 Clouds 27 1010 72 10000 1.54 110 20:54 18.04.2022
4134 Clouds 27 1010 71 10000 1.54 110 20:30 18.04.2022
4135 Clouds 27 1010 71 10000 2.06 110 19:42 18.04.2022
4136 Clouds 27 1011 71 10000 2.57 90 18:54 18.04.2022
4137 Clouds 28 1011 69 10000 4.12 110 17:55 18.04.2022
4138 Clouds 28 1011 68 10000 4.12 110 17:33 18.04.2022
4139 Clouds 28 1011 68 10000 4.63 110 16:50 18.04.2022
4140 Clouds 28 1011 68 10000 4.63 110 16:22 18.04.2022
4141 Clouds 29 1010 67 10000 4.12 100 14:45 18.04.2022
4142 Clouds 30 1010 64 10000 4.63 110 13:35 18.04.2022
4143 Clouds 30 1009 64 10000 5.14 110 12:29 18.04.2022
4144 Clouds 31 1008 61 10000 5.66 110 11:34 18.04.2022
4145 Clouds 32 1008 58 10000 5.14 0 10:31 18.04.2022
4146 Clouds 33 1008 59 10000 5.14 120 09:30 18.04.2022
4147 Clouds 32 1009 57 10000 4.12 0 07:42 18.04.2022
4148 Clouds 33 1011 56 10000 4.63 100 05:35 18.04.2022
4149 Clouds 27 1010 75 10000 2.57 110 00:27 18.04.2022
4150 Clouds 27 1009 73 10000 2.57 110 22:40 17.04.2022
4151 Clouds 28 1009 73 10000 3.09 100 21:42 17.04.2022
4152 Clouds 28 1009 72 10000 3.09 100 21:22 17.04.2022
4153 Clouds 28 1010 72 10000 3.09 100 20:33 17.04.2022
4154 Clouds 28 1010 72 10000 3.6 120 19:23 17.04.2022
4155 Clouds 28 1010 71 10000 3.6 110 17:45 17.04.2022
4156 Clouds 28 1010 72 10000 2.06 0 15:39 17.04.2022
4157 Clouds 28 1009 72 10000 2.57 0 14:54 17.04.2022
4158 Clouds 28 1009 72 10000 2.57 0 14:54 17.04.2022
4159 Clouds 28 1009 70 10000 2.57 0 13:47 17.04.2022
4160 Clouds 28 1008 70 10000 3.09 120 12:58 17.04.2022
4161 Clouds 28 1008 70 10000 3.09 120 12:18 17.04.2022
4162 Clouds 30 1008 65 10000 4.12 110 10:46 17.04.2022
4163 Clouds 29 1008 67 10000 4.12 110 10:27 17.04.2022
4164 Clouds 29 1008 67 10000 4.12 110 10:27 17.04.2022
4165 Clouds 30 1009 64 10000 4.12 110 09:29 17.04.2022
4166 Clouds 30 1009 66 10000 4.12 110 08:42 17.04.2022
4167 Clouds 30 1010 68 10000 4.12 120 07:26 17.04.2022
4168 Clouds 29 1011 69 10000 4.63 110 03:53 17.04.2022
4169 Clouds 27 1009 74 10000 1.34 11 00:55 17.04.2022
4170 Clouds 27 1008 77 10000 2.06 80 23:50 16.04.2022
4171 Clouds 28 1008 75 10000 2.06 120 22:29 16.04.2022
4172 Clouds 28 1008 74 10000 2.57 120 21:31 16.04.2022
4173 Clouds 28 1008 74 10000 2.06 120 20:18 16.04.2022
4174 Clouds 28 1009 74 10000 2.06 120 18:55 16.04.2022
4175 Clouds 28 1009 73 10000 2.06 120 17:40 16.04.2022
4176 Clouds 29 1009 71 10000 2.06 130 16:34 16.04.2022
4177 Clouds 29 1008 70 10000 1.54 100 15:43 16.04.2022
4178 Clouds 29 1008 73 10000 1.54 150 14:55 16.04.2022
4179 Clouds 28 1007 75 10000 1.54 190 13:58 16.04.2022
4180 Clouds 28 1007 75 10000 1.54 190 13:28 16.04.2022
4181 Clouds 29 1006 71 10000 1.54 0 12:20 16.04.2022
4182 Clouds 31 1005 68 10000 4.47 48 10:49 16.04.2022
4183 Clouds 31 1005 68 10000 4.12 20 09:44 16.04.2022
4184 Clouds 31 1006 67 10000 4.12 350 08:57 16.04.2022
4185 Clouds 32 1006 62 10000 5.36 349 07:35 16.04.2022
4186 Clouds 32 1008 62 10000 3.58 319 06:58 16.04.2022
4187 Clouds 30 1009 70 10000 2.06 0 02:33 16.04.2022
4188 Clouds 26 1008 83 10000 2.57 70 00:23 16.04.2022
4189 Clouds 26 1007 81 10000 1.54 120 22:57 15.04.2022
4190 Clouds 26 1007 81 10000 1.54 120 22:31 15.04.2022
4191 Clouds 27 1007 80 10000 1.34 3 21:47 15.04.2022
4192 Clouds 28 1007 77 10000 3.6 170 20:56 15.04.2022
4193 Clouds 28 1007 78 10000 1.54 130 19:59 15.04.2022
4194 Clouds 28 1007 78 10000 1.54 130 19:39 15.04.2022
4195 Clouds 28 1008 78 10000 1.54 130 18:46 15.04.2022
4196 Clouds 28 1008 79 10000 1.54 130 18:24 15.04.2022
4197 Clouds 28 1008 80 10000 2.06 170 17:32 15.04.2022
4198 Clouds 28 1008 80 10000 2.06 140 16:26 15.04.2022
4199 Clouds 28 1008 81 10000 2.57 160 15:59 15.04.2022
4200 Clouds 28 1007 80 10000 2.57 0 14:41 15.04.2022
4201 Clouds 30 1006 70 10000 2.57 190 13:33 15.04.2022
4202 Clouds 30 1005 72 10000 4.63 250 12:40 15.04.2022
4203 Clouds 31 1005 69 10000 5.14 260 11:54 15.04.2022
4204 Clouds 32 1004 64 10000 11.62 206 10:53 15.04.2022
4205 Clouds 33 1004 59 10000 7.15 214 10:24 15.04.2022
4206 Clouds 34 1004 57 10000 4.12 270 09:38 15.04.2022
4207 Clouds 33 1004 57 10000 4.12 270 09:18 15.04.2022
4208 Clouds 32 1006 65 10000 5.14 270 06:56 15.04.2022
4209 Clouds 32 1007 64 10000 4.63 310 05:57 15.04.2022
4210 Clouds 29 1008 75 10000 4.47 15 01:49 15.04.2022
4211 Clouds 27 1006 82 10000 0.51 0 23:30 14.04.2022
4212 Clouds 27 1006 82 10000 0.51 0 22:47 14.04.2022
4213 Clouds 27 1006 81 10000 1.79 28 22:27 14.04.2022
4214 Clouds 27 1006 81 10000 1.79 28 22:27 14.04.2022
4215 Clouds 27 1006 80 10000 1.79 5 21:54 14.04.2022
4216 Clouds 28 1006 79 10000 1.54 200 20:35 14.04.2022
4217 Clouds 28 1006 79 10000 2.06 200 19:22 14.04.2022
4218 Clouds 28 1007 78 10000 2.24 354 17:58 14.04.2022
4219 Clouds 29 1007 77 10000 2.06 230 17:27 14.04.2022
4220 Clouds 29 1007 75 10000 4.12 260 16:33 14.04.2022
4221 Clouds 29 1006 75 10000 4.63 250 14:23 14.04.2022
4222 Clouds 29 1005 73 10000 4.63 230 13:31 14.04.2022
4223 Clouds 30 1004 68 10000 5.66 240 12:42 14.04.2022
4224 Clouds 30 1004 67 10000 5.66 240 12:22 14.04.2022
4225 Clouds 32 1003 67 10000 7.6 195 11:21 14.04.2022
4226 Clouds 32 1003 65 10000 7.6 201 10:36 14.04.2022
4227 Clouds 32 1004 67 10000 8.05 203 09:54 14.04.2022
4228 Clouds 32 1004 61 10000 9.83 209 08:39 14.04.2022
4229 Clouds 33 1006 58 10000 4.12 270 06:26 14.04.2022
4230 Clouds 28 1006 79 10000 4.92 7 01:50 14.04.2022
4231 Clouds 27 1004 87 10000 0.51 0 22:45 13.04.2022
4232 Clouds 27 1004 84 10000 0 0 21:44 13.04.2022
4233 Clouds 27 1005 85 10000 0.51 0 20:48 13.04.2022
4234 Clouds 27 1005 85 10000 0.89 199 20:18 13.04.2022
4235 Clouds 28 1005 83 10000 0.51 0 18:50 13.04.2022
4236 Clouds 28 1006 83 10000 1.03 0 17:54 13.04.2022
4237 Clouds 28 1006 83 10000 1.03 0 17:23 13.04.2022
4238 Clouds 28 1006 81 10000 1.03 0 16:33 13.04.2022
4239 Clouds 28 1006 81 10000 1.54 230 15:32 13.04.2022
4240 Clouds 29 1005 79 10000 2.57 240 14:50 13.04.2022
4241 Clouds 29 1005 79 10000 3.09 230 13:58 13.04.2022
4242 Clouds 29 1004 78 10000 2.24 179 13:00 13.04.2022
4243 Clouds 29 1004 79 10000 4.92 185 12:20 13.04.2022
4244 Rain 30 1003 72 10000 6.17 260 10:46 13.04.2022
4245 Clouds 31 1004 68 10000 6.26 209 08:57 13.04.2022
4246 Clouds 31 1004 66 10000 5.81 211 08:31 13.04.2022
4247 Clouds 32 1005 64 10000 1.54 0 06:51 13.04.2022
4248 Clouds 32 1005 64 10000 5.81 211 06:25 13.04.2022
4249 Clouds 28 1006 83 9000 1.34 207 03:31 13.04.2022
4250 Clouds 26 1005 91 9000 0.51 0 00:20 13.04.2022
4251 Clouds 26 1004 89 9000 0 0 22:46 12.04.2022
4252 Clouds 26 1004 89 9000 0.51 0 21:57 12.04.2022
4253 Clouds 26 1005 91 9000 1.03 0 20:49 12.04.2022
4254 Clouds 26 1005 92 9000 1.03 0 20:27 12.04.2022
4255 Clouds 26 1005 92 9000 0.51 0 19:47 12.04.2022
4256 Clouds 26 1005 92 9000 0.51 0 19:28 12.04.2022
4257 Rain 28 1008 81 10000 1.79 2 17:50 12.04.2022
4258 Rain 28 1006 78 10000 1.03 0 16:53 12.04.2022
4259 Clouds 28 1006 78 10000 1.03 0 15:52 12.04.2022
4260 Clouds 28 1006 78 10000 1.03 0 15:25 12.04.2022
4261 Clouds 26 1005 90 10000 2.24 185 13:54 12.04.2022
4262 Rain 26 1005 90 10000 3.58 202 13:27 12.04.2022
4263 Rain 29 1004 80 10000 4.47 227 12:31 12.04.2022
4264 Rain 29 1004 80 10000 4.12 260 11:40 12.04.2022
4265 Clouds 30 1003 71 10000 8.05 212 10:29 12.04.2022
4266 Clouds 30 1004 70 9000 8.05 215 08:54 12.04.2022
4267 Clouds 31 1005 70 9000 3.58 228 07:47 12.04.2022
4268 Clouds 29 1007 76 9000 3.6 270 05:47 12.04.2022
4269 Rain 29 1007 74 10000 2.06 0 03:28 12.04.2022
4270 Rain 27 1005 82 10000 1.79 7 23:36 11.04.2022
4271 Rain 27 1005 81 10000 0.89 4 22:44 11.04.2022
4272 Clouds 27 1005 83 10000 2.06 260 21:36 11.04.2022
4273 Clouds 27 1005 83 10000 0.51 0 20:49 11.04.2022
4274 Clouds 27 1005 85 10000 0.51 0 20:28 11.04.2022
4275 Rain 27 1006 84 10000 1.79 204 19:29 11.04.2022
4276 Rain 28 1006 84 10000 2.06 200 18:59 11.04.2022
4277 Clouds 28 1006 84 10000 2.06 200 18:37 11.04.2022
4278 Clouds 28 1006 75 10000 1.54 190 17:44 11.04.2022
4279 Clouds 29 1007 72 10000 1.03 0 16:38 11.04.2022
4280 Clouds 29 1007 69 10000 1.03 0 15:24 11.04.2022
4281 Clouds 29 1005 69 10000 2.06 0 13:44 11.04.2022
4282 Rain 30 1005 65 10000 2.06 0 12:41 11.04.2022
4283 Rain 30 1004 64 10000 3.13 45 12:22 11.04.2022
4284 Clouds 32 1004 58 10000 4.02 356 10:47 11.04.2022
4285 Clouds 32 1003 60 10000 3.6 60 09:58 11.04.2022
4286 Clouds 33 1004 58 10000 2.57 0 08:22 11.04.2022
4287 Clouds 29 1007 67 9000 4.02 1 04:57 11.04.2022
4288 Clouds 26 1007 80 10000 1.79 355 00:30 11.04.2022
4289 Clouds 27 1006 82 10000 1.03 200 22:27 10.04.2022
4290 Clouds 27 1006 81 10000 1.03 280 21:53 10.04.2022
4291 Clouds 27 1007 80 10000 1.03 0 20:55 10.04.2022
4292 Rain 27 1007 77 10000 0.51 0 19:58 10.04.2022
4293 Rain 27 1007 77 10000 0.89 4 19:34 10.04.2022
4294 Rain 27 1008 77 10000 0.51 0 18:50 10.04.2022
4295 Clouds 28 1008 76 10000 0.89 12 18:25 10.04.2022
4296 Clouds 28 1008 77 10000 0.89 47 17:43 10.04.2022
4297 Clouds 28 1008 77 10000 1.03 0 16:52 10.04.2022
4298 Clouds 28 1008 76 10000 1.34 11 15:38 10.04.2022
4299 Clouds 28 1007 75 10000 1.54 110 14:41 10.04.2022
4300 Clouds 29 1007 73 10000 2.06 130 13:22 10.04.2022
4301 Clouds 29 1006 71 10000 2.57 110 12:26 10.04.2022
4302 Rain 30 1005 67 10000 3.09 90 11:36 10.04.2022
4303 Rain 30 1005 68 10000 1.54 170 10:58 10.04.2022
4304 Clouds 30 1005 71 10000 2.24 36 10:23 10.04.2022
4305 Clouds 30 1005 69 10000 2.24 342 09:41 10.04.2022
4306 Clouds 31 1005 64 10000 3.09 120 08:26 10.04.2022
4307 Clouds 31 1006 64 9000 3.13 222 07:47 10.04.2022
4308 Clouds 31 1007 66 10000 2.68 357 06:43 10.04.2022
4309 Clouds 29 1008 70 10000 1.03 0 02:48 10.04.2022
4310 Clouds 26 1007 83 10000 1.34 4 00:51 10.04.2022
4311 Clouds 26 1006 83 10000 1.03 0 23:50 09.04.2022
4312 Clouds 26 1005 82 10000 1.79 1 22:50 09.04.2022
4313 Clouds 26 1006 81 10000 1.03 0 21:48 09.04.2022
4314 Clouds 27 1006 80 10000 1.79 336 20:57 09.04.2022
4315 Clouds 27 1006 79 10000 0.51 0 20:26 09.04.2022
4316 Clouds 27 1007 78 10000 1.03 0 19:42 09.04.2022
4317 Clouds 27 1007 77 10000 1.03 0 19:18 09.04.2022
4318 Clouds 27 1007 76 10000 2.06 0 18:21 09.04.2022
4319 Clouds 28 1008 74 10000 2.57 120 17:39 09.04.2022
4320 Clouds 28 1008 73 10000 1.54 130 16:53 09.04.2022
4321 Clouds 28 1008 73 10000 3.09 120 15:58 09.04.2022
4322 Clouds 28 1007 72 10000 3.09 120 15:39 09.04.2022
4323 Clouds 28 1007 71 10000 2.57 110 14:44 09.04.2022
4324 Clouds 29 1007 71 10000 2.57 110 14:23 09.04.2022
4325 Clouds 29 1006 68 10000 3.09 110 13:20 09.04.2022
4326 Clouds 30 1005 66 10000 3.09 120 12:50 09.04.2022
4327 Clouds 30 1005 69 10000 2.57 80 11:38 09.04.2022
4328 Clouds 32 1004 63 10000 3.6 0 10:21 09.04.2022
4329 Clouds 32 1004 61 10000 3.6 140 09:42 09.04.2022
4330 Clouds 32 1005 60 10000 3.6 150 08:54 09.04.2022
4331 Clouds 32 1005 61 10000 4.02 198 07:21 09.04.2022
4332 Clouds 29 1008 68 10000 0.45 100 02:20 09.04.2022
4333 Clouds 26 1006 84 10000 0.51 0 23:45 08.04.2022
4334 Clouds 26 1006 83 10000 1.54 60 22:55 08.04.2022
4335 Clouds 27 1006 80 10000 1.03 0 21:29 08.04.2022
4336 Clouds 27 1006 79 10000 1.54 110 20:39 08.04.2022
4337 Clouds 27 1007 79 10000 1.54 130 19:20 08.04.2022
4338 Clouds 27 1008 80 10000 1.03 0 18:30 08.04.2022
4339 Clouds 27 1008 78 10000 2.57 40 17:49 08.04.2022
4340 Clouds 27 1008 77 10000 2.57 40 17:25 08.04.2022
4341 Clouds 27 1008 77 10000 2.06 60 16:47 08.04.2022
4342 Clouds 28 1008 76 10000 2.06 100 15:57 08.04.2022
4343 Clouds 28 1008 76 10000 2.06 100 15:26 08.04.2022
4344 Clouds 28 1007 75 10000 2.06 120 14:33 08.04.2022
4345 Clouds 28 1006 75 10000 2.57 130 13:46 08.04.2022
4346 Clouds 28 1006 75 10000 2.57 130 13:27 08.04.2022
4347 Clouds 29 1005 73 10000 4.12 120 11:56 08.04.2022
4348 Clouds 29 1005 74 10000 4.63 130 10:33 08.04.2022
4349 Clouds 30 1004 68 10000 4.12 140 09:38 08.04.2022
4350 Rain 29 1007 74 10000 2.06 160 08:44 08.04.2022
4351 Rain 28 1009 78 9000 4.12 110 06:54 08.04.2022
4352 Rain 30 1008 68 10000 4.47 204 04:58 08.04.2022
4353 Clouds 27 1007 77 10000 2.06 320 01:27 08.04.2022
4354 Clouds 26 1006 83 10000 1.79 349 00:25 08.04.2022
4355 Clouds 26 1006 81 10000 1.34 4 22:59 07.04.2022
4356 Clouds 26 1006 81 10000 1.03 50 22:39 07.04.2022
4357 Clouds 26 1006 81 10000 1.03 50 22:20 07.04.2022
4358 Clouds 27 1006 79 10000 1.34 26 21:49 07.04.2022
4359 Clouds 27 1006 78 10000 1.03 0 21:19 07.04.2022
4360 Clouds 27 1007 78 10000 1.03 0 20:31 07.04.2022
4361 Clouds 27 1008 78 10000 1.54 100 18:34 07.04.2022
4362 Clouds 28 1009 77 10000 1.54 50 17:26 07.04.2022
4363 Clouds 28 1009 76 10000 1.54 90 16:44 07.04.2022
4364 Clouds 28 1009 76 10000 1.54 90 16:21 07.04.2022
4365 Clouds 28 1008 75 10000 3.58 73 14:42 07.04.2022
4366 Clouds 28 1007 70 10000 3.6 60 13:42 07.04.2022
4367 Clouds 29 1007 68 10000 4.12 40 12:46 07.04.2022
4368 Clouds 30 1006 64 10000 4.92 37 11:30 07.04.2022
4369 Clouds 32 1005 66 10000 5.36 6 09:37 07.04.2022
4370 Clouds 32 1005 63 10000 3.58 2 08:38 07.04.2022
4371 Clouds 32 1007 64 10000 5.14 280 06:42 07.04.2022
4372 Clouds 29 1009 72 10000 1.03 0 02:51 07.04.2022
4373 Clouds 28 1009 74 10000 3.13 352 02:20 07.04.2022
4374 Clouds 25 1008 88 10000 0.51 0 00:26 07.04.2022
4375 Clouds 26 1007 86 10000 1.03 0 22:49 06.04.2022
4376 Clouds 26 1007 86 10000 1.03 0 22:26 06.04.2022
4377 Clouds 26 1007 86 10000 0.45 15 21:34 06.04.2022
4378 Clouds 26 1008 83 10000 0.51 0 20:35 06.04.2022
4379 Clouds 27 1008 82 10000 0.89 41 19:53 06.04.2022
4380 Clouds 26 1009 83 10000 0 0 18:51 06.04.2022
4381 Clouds 26 1009 84 10000 0 0 18:22 06.04.2022
4382 Clouds 27 1010 83 10000 1.03 60 17:35 06.04.2022
4383 Clouds 27 1010 80 10000 1.03 0 16:38 06.04.2022
4384 Clouds 28 1009 77 10000 1.54 100 15:48 06.04.2022
4385 Clouds 27 1009 77 10000 0.45 356 14:57 06.04.2022
4386 Clouds 28 1009 76 10000 0.89 25 13:23 06.04.2022
4387 Clouds 29 1008 75 10000 2.24 39 12:22 06.04.2022
4388 Clouds 30 1007 71 10000 4.02 22 10:47 06.04.2022
4389 Clouds 30 1007 70 10000 3.6 120 10:24 06.04.2022
4390 Clouds 31 1007 68 10000 3.6 100 09:40 06.04.2022
4391 Clouds 31 1008 66 8000 2.68 336 08:32 06.04.2022
4392 Clouds 31 1009 69 10000 3.58 8 07:49 06.04.2022
4393 Rain 28 1011 77 10000 3.09 290 03:53 06.04.2022
4394 Clouds 24 1010 94 10000 1.54 80 23:52 05.04.2022
4395 Clouds 24 1009 96 10000 1.03 0 22:31 05.04.2022
4396 Clouds 24 1009 94 10000 0.51 0 21:20 05.04.2022
4397 Clouds 24 1010 98 10000 1.03 60 20:25 05.04.2022
4398 Clouds 24 1010 95 10000 1.03 0 19:41 05.04.2022
4399 Clouds 24 1013 100 10000 1.03 0 17:55 05.04.2022
4400 Clouds 24 1013 94 10000 2.06 50 16:54 05.04.2022
4401 Clouds 24 1013 94 9000 1.54 70 15:56 05.04.2022
4402 Rain 24 1013 94 9000 1.54 70 15:34 05.04.2022
4403 Rain 25 1013 94 7000 3.09 80 14:35 05.04.2022
4404 Rain 25 1012 94 8000 2.06 60 13:21 05.04.2022
4405 Rain 25 1012 94 8000 2.57 70 11:51 05.04.2022
4406 Rain 25 1012 94 8000 2.57 70 11:51 05.04.2022
4407 Rain 25 1012 94 8000 2.57 70 11:32 05.04.2022
4408 Rain 25 1011 94 9000 2.06 90 09:55 05.04.2022
4409 Rain 29 1010 67 10000 5.32 64 08:52 05.04.2022
4410 Rain 26 1013 94 9000 2.57 60 06:58 05.04.2022
4411 Rain 25 1013 94 8000 1.03 0 01:51 05.04.2022
4412 Clouds 25 1011 92 5000 1.79 331 22:42 04.04.2022
4413 Clouds 25 1012 92 5000 1.54 30 22:22 04.04.2022
4414 Clouds 25 1011 87 10000 2.57 50 21:21 04.04.2022
4415 Clouds 25 1011 87 10000 2.57 50 21:21 04.04.2022
4416 Clouds 27 1011 82 10000 2.06 10 20:49 04.04.2022
4417 Clouds 27 1011 74 10000 2.06 360 19:45 04.04.2022
4418 Clouds 27 1011 74 10000 2.68 6 19:25 04.04.2022
4419 Clouds 28 1012 70 10000 1.79 18 18:20 04.04.2022
4420 Clouds 28 1013 67 10000 1.79 341 16:36 04.04.2022
4421 Clouds 28 1012 67 10000 1.54 70 15:43 04.04.2022
4422 Clouds 28 1012 66 10000 1.54 70 15:25 04.04.2022
4423 Clouds 29 1012 62 10000 2.06 100 14:46 04.04.2022
4424 Clouds 29 1011 58 10000 5.14 70 13:22 04.04.2022
4425 Clouds 31 1010 55 10000 8.23 60 11:55 04.04.2022
4426 Clouds 31 1009 55 10000 8.23 60 11:28 04.04.2022
4427 Clouds 33 1010 52 10000 4.63 120 08:54 04.04.2022
4428 Clouds 30 1013 61 10000 3.09 90 04:18 04.04.2022
4429 Clouds 26 1011 74 10000 1.03 0 00:44 04.04.2022
4430 Clouds 26 1010 77 10000 2.57 60 22:40 03.04.2022
4431 Clouds 26 1010 73 10000 2.06 70 21:45 03.04.2022
4432 Clouds 27 1010 69 10000 3.09 120 20:54 03.04.2022
4433 Clouds 27 1011 68 10000 3.6 120 19:49 03.04.2022
4434 Clouds 27 1011 68 10000 3.09 140 18:32 03.04.2022
4435 Clouds 27 1012 65 10000 2.57 120 17:47 03.04.2022
4436 Clouds 28 1012 63 10000 2.57 110 16:57 03.04.2022
4437 Clouds 28 1012 63 10000 2.57 110 16:39 03.04.2022
4438 Clouds 28 1010 60 10000 2.57 110 14:39 03.04.2022
4439 Clouds 28 1010 57 10000 3.6 70 13:51 03.04.2022
4440 Clouds 30 1009 51 10000 4.63 80 12:41 03.04.2022
4441 Clouds 32 1008 53 10000 5.14 130 10:58 03.04.2022
4442 Clouds 33 1009 55 10000 5.14 130 09:36 03.04.2022
4443 Clouds 33 1009 55 10000 5.14 130 08:27 03.04.2022
4444 Clouds 31 1012 55 10000 2.57 0 04:42 03.04.2022
4445 Clouds 27 1011 68 10000 2.06 70 01:53 03.04.2022
4446 Clouds 25 1010 73 10000 1.03 100 23:21 02.04.2022
4447 Clouds 26 1010 69 10000 1.54 100 21:58 02.04.2022
4448 Clouds 26 1010 69 10000 1.54 100 21:36 02.04.2022
4449 Clouds 26 1010 68 10000 1.54 100 21:18 02.04.2022
4450 Clouds 26 1011 67 10000 2.57 60 19:53 02.04.2022
4451 Clouds 27 1011 67 10000 3.09 120 18:23 02.04.2022
4452 Clouds 27 1012 67 10000 2.57 110 17:53 02.04.2022
4453 Clouds 28 1012 64 10000 3.09 120 16:27 02.04.2022
4454 Clouds 28 1011 61 10000 2.57 100 15:22 02.04.2022
4455 Clouds 28 1010 62 10000 3.13 57 14:49 02.04.2022
4456 Clouds 29 1010 56 10000 3.09 100 13:36 02.04.2022
4457 Clouds 30 1009 54 10000 3.6 110 12:47 02.04.2022
4458 Clouds 32 1008 53 10000 4.12 120 11:31 02.04.2022
4459 Clouds 33 1008 52 10000 5.14 110 09:30 02.04.2022
4460 Clouds 33 1010 53 10000 3.09 0 06:51 02.04.2022
4461 Clouds 31 1012 62 10000 3.13 313 03:53 02.04.2022
4462 Clouds 26 1010 81 10000 2.06 70 23:58 01.04.2022
4463 Clouds 26 1010 81 10000 2.06 70 23:30 01.04.2022
4464 Clouds 26 1010 80 10000 2.06 60 21:42 01.04.2022
4465 Clouds 27 1010 78 10000 3.09 70 20:51 01.04.2022
4466 Clouds 27 1010 78 10000 3.09 70 20:28 01.04.2022
4467 Clouds 28 1011 75 10000 2.06 100 19:34 01.04.2022
4468 Clouds 28 1011 74 10000 1.54 90 18:49 01.04.2022
4469 Clouds 28 1012 75 10000 2.57 110 17:47 01.04.2022
4470 Clouds 27 1012 76 10000 2.06 60 16:53 01.04.2022
4471 Clouds 28 1011 74 10000 2.57 100 15:41 01.04.2022
4472 Clouds 29 1011 71 10000 3.09 110 14:25 01.04.2022
4473 Clouds 28 1010 72 10000 3.6 120 13:34 01.04.2022
4474 Rain 29 1010 70 10000 2.57 90 12:32 01.04.2022
4475 Rain 28 1009 72 10000 0.89 349 11:41 01.04.2022
4476 Rain 31 1008 63 10000 2.24 134 10:19 01.04.2022
4477 Rain 30 1011 69 10000 3.6 0 08:58 01.04.2022
4478 Clouds 32 1010 60 10000 3.09 130 06:54 01.04.2022
4479 Clouds 33 1012 58 10000 2.57 0 04:51 01.04.2022
4480 Rain 33 1012 58 10000 2.57 0 04:31 01.04.2022
4481 Clouds 30 1011 69 10000 1.54 120 01:57 01.04.2022
4482 Clouds 28 1010 77 10000 2.57 100 23:58 31.03.2022
4483 Clouds 28 1010 75 10000 2.57 80 21:53 31.03.2022
4484 Clouds 28 1010 75 10000 2.57 80 21:32 31.03.2022
4485 Clouds 29 1010 72 10000 2.57 110 20:29 31.03.2022
4486 Clouds 29 1010 72 10000 2.57 110 19:50 31.03.2022
4487 Clouds 29 1011 72 10000 3.09 110 18:46 31.03.2022
4488 Clouds 29 1011 71 10000 2.57 110 17:49 31.03.2022
4489 Clouds 29 1011 69 10000 3.09 100 16:38 31.03.2022
4490 Clouds 29 1011 68 10000 3.09 110 15:45 31.03.2022
4491 Clouds 30 1011 68 10000 3.09 110 15:19 31.03.2022
4492 Clouds 30 1010 66 10000 4.12 110 14:36 31.03.2022
4493 Clouds 32 1008 60 10000 4.63 110 11:57 31.03.2022
4494 Clouds 33 1008 58 10000 4.63 110 11:20 31.03.2022
4495 Clouds 34 1008 54 10000 5.14 0 09:45 31.03.2022
4496 Clouds 34 1008 54 10000 5.14 0 09:45 31.03.2022
4497 Clouds 34 1009 53 10000 4.63 140 07:59 31.03.2022
4498 Clouds 34 1011 54 10000 3.09 120 05:23 31.03.2022
4499 Clouds 27 1010 80 10000 1.54 80 23:43 30.03.2022
4500 Clouds 28 1010 77 10000 1.54 110 22:43 30.03.2022
4501 Clouds 28 1011 75 10000 1.54 110 21:39 30.03.2022
4502 Clouds 28 1011 75 10000 0.51 0 20:54 30.03.2022
4503 Clouds 28 1011 74 10000 3.13 6 20:20 30.03.2022
4504 Clouds 28 1011 74 10000 3.13 6 20:20 30.03.2022
4505 Clouds 28 1011 73 10000 1.03 0 19:19 30.03.2022
4506 Clouds 29 1012 72 10000 2.06 120 18:19 30.03.2022
4507 Clouds 29 1012 72 10000 1.54 110 17:45 30.03.2022
4508 Clouds 29 1012 71 10000 2.06 120 16:56 30.03.2022
4509 Clouds 29 1012 71 10000 2.06 120 16:32 30.03.2022
4510 Clouds 30 1011 68 10000 2.57 90 14:59 30.03.2022
4511 Clouds 30 1010 66 10000 3.09 100 13:35 30.03.2022
4512 Clouds 30 1009 69 10000 3.13 84 12:42 30.03.2022
4513 Clouds 32 1008 60 10000 5.14 120 10:58 30.03.2022
4514 Clouds 34 1008 54 10000 5.66 0 09:59 30.03.2022
4515 Clouds 34 1008 55 10000 5.66 0 09:20 30.03.2022
4516 Clouds 34 1009 54 10000 5.66 120 07:31 30.03.2022
4517 Clouds 34 1010 51 10000 4.63 120 05:40 30.03.2022
4518 Clouds 31 1012 61 10000 5.14 90 03:31 30.03.2022
4519 Clouds 28 1010 76 10000 3.09 100 23:42 29.03.2022
4520 Clouds 28 1010 74 10000 3.6 100 22:19 29.03.2022
4521 Clouds 28 1010 73 10000 3.6 100 21:41 29.03.2022
4522 Clouds 28 1010 72 10000 3.6 100 20:49 29.03.2022
4523 Clouds 29 1011 70 10000 3.6 110 19:47 29.03.2022
4524 Clouds 29 1011 69 10000 4.12 110 18:54 29.03.2022
4525 Clouds 29 1011 69 10000 4.12 110 18:18 29.03.2022
4526 Clouds 29 1011 68 10000 2.57 100 17:20 29.03.2022
4527 Clouds 29 1011 68 10000 3.09 100 16:55 29.03.2022
4528 Clouds 29 1011 67 10000 3.13 88 15:47 29.03.2022
4529 Clouds 30 1010 67 10000 3.6 120 14:44 29.03.2022
4530 Clouds 30 1010 67 10000 3.6 110 13:41 29.03.2022
4531 Clouds 31 1009 65 10000 5.14 120 12:40 29.03.2022
4532 Clouds 32 1008 61 10000 5.14 110 11:27 29.03.2022
4533 Clouds 33 1008 59 10000 5.66 110 10:23 29.03.2022
4534 Clouds 34 1008 57 10000 5.66 110 08:57 29.03.2022
4535 Clouds 33 1009 59 10000 5.66 100 06:53 29.03.2022
4536 Clouds 32 1011 64 10000 4.63 110 03:19 29.03.2022
4537 Clouds 28 1009 76 10000 1.54 100 23:46 28.03.2022
4538 Clouds 28 1009 77 10000 1.54 50 22:58 28.03.2022
4539 Clouds 28 1009 77 10000 1.54 50 22:58 28.03.2022
4540 Clouds 28 1009 77 10000 1.54 50 22:35 28.03.2022
4541 Clouds 28 1009 75 10000 2.06 100 21:47 28.03.2022
4542 Clouds 28 1009 72 10000 3.09 110 20:41 28.03.2022
4543 Clouds 28 1010 71 10000 2.06 110 19:57 28.03.2022
4544 Clouds 29 1010 71 10000 2.06 110 19:38 28.03.2022
4545 Clouds 29 1011 67 10000 2.06 100 18:51 28.03.2022
4546 Clouds 29 1011 68 10000 3.6 100 17:41 28.03.2022
4547 Clouds 29 1011 68 10000 3.09 110 16:56 28.03.2022
4548 Clouds 29 1011 67 10000 3.6 100 15:22 28.03.2022
4549 Clouds 29 1010 67 10000 4.12 120 14:24 28.03.2022
4550 Clouds 30 1009 65 10000 5.14 120 13:19 28.03.2022
4551 Clouds 32 1008 61 10000 4.63 120 11:52 28.03.2022
4552 Clouds 34 1008 54 10000 6.17 120 09:58 28.03.2022
4553 Clouds 34 1008 53 10000 6.17 120 09:21 28.03.2022
4554 Clouds 34 1008 54 10000 6.69 130 08:39 28.03.2022
4555 Clouds 33 1008 54 10000 6.69 130 08:18 28.03.2022
4556 Clouds 34 1011 56 10000 3.6 140 06:31 28.03.2022
4557 Clouds 27 1010 75 10000 1.54 40 00:30 28.03.2022
4558 Clouds 27 1009 77 10000 1.34 4 22:35 27.03.2022
4559 Clouds 27 1009 76 10000 1.03 0 21:43 27.03.2022
4560 Clouds 27 1009 76 10000 1.03 0 21:18 27.03.2022
4561 Clouds 27 1009 74 10000 1.03 0 20:24 27.03.2022
4562 Clouds 28 1010 73 10000 1.34 27 19:37 27.03.2022
4563 Clouds 28 1010 71 10000 1.54 110 18:42 27.03.2022
4564 Clouds 28 1010 71 10000 1.54 110 18:23 27.03.2022
4565 Clouds 28 1010 70 10000 1.54 110 17:35 27.03.2022
4566 Clouds 29 1010 68 10000 3.09 100 15:47 27.03.2022
4567 Clouds 30 1009 65 10000 3.13 64 13:57 27.03.2022
4568 Clouds 30 1009 64 10000 3.09 100 13:20 27.03.2022
4569 Clouds 32 1008 63 10000 5.14 120 11:33 27.03.2022
4570 Clouds 34 1007 57 10000 6.26 338 09:37 27.03.2022
4571 Clouds 33 1010 61 10000 4.63 120 06:58 27.03.2022
4572 Clouds 32 1012 58 10000 4.63 100 03:39 27.03.2022
4573 Clouds 29 1011 68 10000 2.57 110 00:25 27.03.2022
4574 Clouds 28 1010 75 10000 1.54 0 22:45 26.03.2022
4575 Clouds 28 1009 75 10000 1.54 100 21:51 26.03.2022
4576 Clouds 28 1009 74 10000 1.54 100 21:28 26.03.2022
4577 Clouds 28 1010 73 10000 2.57 130 19:32 26.03.2022
4578 Clouds 29 1010 73 10000 2.57 150 18:40 26.03.2022
4579 Clouds 29 1010 74 10000 3.13 351 17:34 26.03.2022
4580 Clouds 29 1011 73 10000 2.57 130 16:33 26.03.2022
4581 Clouds 30 1010 73 10000 3.09 130 15:37 26.03.2022
4582 Clouds 30 1010 71 10000 3.09 130 13:55 26.03.2022
4583 Clouds 30 1010 71 10000 3.09 130 13:19 26.03.2022
4584 Clouds 32 1009 65 10000 3.6 140 11:42 26.03.2022
4585 Clouds 33 1008 61 10000 4.12 0 10:44 26.03.2022
4586 Clouds 34 1008 55 10000 3.6 0 08:46 26.03.2022
4587 Clouds 34 1010 57 10000 4.12 130 06:37 26.03.2022
4588 Clouds 33 1012 59 10000 4.63 0 05:29 26.03.2022
4589 Clouds 29 1012 71 10000 0.51 0 00:41 26.03.2022
4590 Clouds 28 1010 72 10000 1.03 0 21:56 25.03.2022
4591 Clouds 28 1010 71 10000 1.03 0 20:46 25.03.2022
4592 Clouds 28 1010 71 10000 1.03 0 20:20 25.03.2022
4593 Clouds 29 1011 67 10000 2.57 90 18:51 25.03.2022
4594 Clouds 29 1011 67 10000 3.6 110 17:49 25.03.2022
4595 Clouds 29 1011 67 10000 3.6 110 17:27 25.03.2022
4596 Clouds 29 1012 69 10000 3.09 100 16:19 25.03.2022
4597 Clouds 29 1011 71 10000 4.12 90 14:49 25.03.2022
4598 Clouds 30 1010 68 10000 3.6 100 13:26 25.03.2022
4599 Clouds 33 1009 61 10000 4.12 120 10:35 25.03.2022
4600 Clouds 34 1009 58 10000 3.6 130 09:28 25.03.2022
4601 Clouds 33 1009 58 10000 5.14 100 08:24 25.03.2022
4602 Clouds 33 1009 59 10000 5.81 353 07:28 25.03.2022
4603 Clouds 33 1010 58 10000 4.63 120 06:29 25.03.2022
4604 Clouds 30 1012 64 10000 3.09 110 01:32 25.03.2022
4605 Clouds 28 1010 77 10000 3.6 110 22:53 24.03.2022
4606 Clouds 28 1010 75 10000 2.57 120 21:52 24.03.2022
4607 Clouds 28 1009 74 10000 3.6 110 20:37 24.03.2022
4608 Clouds 28 1010 73 10000 4.12 100 19:47 24.03.2022
4609 Clouds 28 1010 72 10000 3.6 110 17:50 24.03.2022
4610 Clouds 28 1010 72 10000 3.6 110 17:23 24.03.2022
4611 Clouds 29 1011 70 10000 4.63 110 15:45 24.03.2022
4612 Clouds 29 1011 70 10000 5.14 110 14:50 24.03.2022
4613 Clouds 29 1011 69 10000 5.14 110 14:19 24.03.2022
4614 Clouds 29 1010 64 10000 5.14 110 13:23 24.03.2022
4615 Clouds 31 1009 61 10000 5.14 120 11:47 24.03.2022
4616 Clouds 33 1008 61 10000 5.14 130 09:55 24.03.2022
4617 Clouds 33 1008 61 10000 5.14 130 08:42 24.03.2022
4618 Clouds 34 1009 59 10000 4.63 0 06:49 24.03.2022
4619 Clouds 32 1011 64 10000 3.13 199 03:57 24.03.2022
4620 Clouds 28 1009 82 10000 2.06 110 23:20 23.03.2022
4621 Clouds 28 1009 80 10000 2.06 100 21:40 23.03.2022
4622 Clouds 28 1009 80 10000 2.06 100 21:18 23.03.2022
4623 Clouds 28 1010 83 9000 1.54 140 19:46 23.03.2022
4624 Clouds 27 1010 86 9000 0.51 0 18:45 23.03.2022
4625 Clouds 27 1011 89 9000 2.57 260 17:36 23.03.2022
4626 Clouds 27 1011 85 9000 2.57 0 16:39 23.03.2022
4627 Clouds 30 1010 78 10000 3.58 338 14:51 23.03.2022
4628 Clouds 30 1010 75 10000 4.47 211 14:26 23.03.2022
4629 Clouds 30 1009 73 10000 6.71 206 12:51 23.03.2022
4630 Clouds 34 1007 58 10000 3.09 140 09:42 23.03.2022
4631 Clouds 35 1008 54 10000 3.6 120 06:41 23.03.2022
4632 Clouds 33 1010 57 10000 4.47 237 04:41 23.03.2022
4633 Clouds 28 1010 69 10000 1.34 13 00:29 23.03.2022
4634 Clouds 28 1010 75 10000 1.54 120 22:46 22.03.2022
4635 Clouds 28 1010 74 10000 1.03 0 21:30 22.03.2022
4636 Clouds 28 1010 75 10000 2.06 120 20:45 22.03.2022
4637 Clouds 28 1010 76 10000 2.57 110 19:43 22.03.2022
4638 Clouds 28 1009 75 10000 3.11 117 19:18 22.03.2022
4639 Clouds 29 1011 73 10000 3.09 120 18:31 22.03.2022
4640 Clouds 29 1011 74 10000 3.09 130 17:29 22.03.2022
4641 Clouds 29 1011 74 10000 3.09 130 16:21 22.03.2022
4642 Clouds 30 1011 72 10000 2.57 130 15:22 22.03.2022
4643 Clouds 30 1010 72 10000 2.06 0 14:46 22.03.2022
4644 Clouds 30 1010 72 10000 2.06 0 14:27 22.03.2022
4645 Clouds 30 1010 70 10000 3.09 130 13:27 22.03.2022
4646 Clouds 32 1009 65 10000 3.6 130 11:52 22.03.2022
4647 Clouds 33 1008 61 10000 4.63 130 10:35 22.03.2022
4648 Clouds 35 1008 58 10000 4.63 0 08:24 22.03.2022
4649 Clouds 33 1011 59 10000 3.6 0 05:25 22.03.2022
4650 Clouds 33 1012 59 10000 3.58 84 03:46 22.03.2022
4651 Clouds 28 1011 76 10000 3.58 1 23:59 21.03.2022
4652 Clouds 27 1011 76 10000 1.03 80 22:29 21.03.2022
4653 Clouds 28 1011 69 10000 1.03 0 20:54 21.03.2022
4654 Clouds 28 1011 70 10000 1.03 0 20:34 21.03.2022
4655 Clouds 28 1011 68 10000 1.54 100 19:58 21.03.2022
4656 Clouds 28 1011 67 10000 1.54 100 19:27 21.03.2022
4657 Clouds 28 1011 67 10000 2.57 110 18:18 21.03.2022
4658 Clouds 28 1012 67 10000 2.06 110 17:18 21.03.2022
4659 Clouds 29 1011 66 10000 3.39 91 16:44 21.03.2022
4660 Clouds 29 1012 67 10000 2.06 140 15:52 21.03.2022
4661 Clouds 29 1012 67 10000 2.06 140 15:19 21.03.2022
4662 Clouds 30 1011 67 10000 3.09 110 13:58 21.03.2022
4663 Clouds 30 1010 67 10000 3.09 110 12:35 21.03.2022
4664 Clouds 31 1010 62 10000 4.12 110 11:45 21.03.2022
4665 Clouds 32 1009 63 10000 4.12 120 10:36 21.03.2022
4666 Clouds 33 1009 60 10000 5.14 120 08:30 21.03.2022
4667 Clouds 33 1010 63 10000 4.12 120 06:38 21.03.2022
4668 Clouds 31 1012 67 10000 2.57 110 02:48 21.03.2022
4669 Clouds 27 1010 76 10000 2.57 90 23:41 20.03.2022
4670 Clouds 27 1010 77 10000 2.06 90 22:43 20.03.2022
4671 Clouds 27 1010 77 10000 2.57 90 21:51 20.03.2022
4672 Clouds 28 1010 76 10000 2.57 90 21:23 20.03.2022
4673 Clouds 28 1010 74 10000 2.06 110 20:43 20.03.2022
4674 Clouds 28 1010 73 10000 2.57 100 19:59 20.03.2022
4675 Clouds 28 1010 73 10000 2.57 100 19:28 20.03.2022
4676 Clouds 28 1011 72 10000 2.57 80 18:19 20.03.2022
4677 Clouds 29 1011 70 10000 2.06 110 17:33 20.03.2022
4678 Clouds 29 1011 70 10000 2.06 110 17:33 20.03.2022
4679 Clouds 29 1011 67 10000 2.57 100 16:57 20.03.2022
4680 Clouds 29 1011 68 10000 2.06 110 15:28 20.03.2022
4681 Clouds 30 1011 64 10000 2.06 110 14:23 20.03.2022
4682 Clouds 31 1009 62 10000 0.89 301 12:29 20.03.2022
4683 Clouds 32 1008 58 10000 1.79 16 11:22 20.03.2022
4684 Clouds 34 1007 57 10000 4.63 130 08:59 20.03.2022
4685 Clouds 34 1007 58 10000 4.63 120 07:26 20.03.2022
4686 Clouds 33 1010 60 10000 3.13 238 04:23 20.03.2022
4687 Clouds 30 1010 68 10000 1.03 0 01:29 20.03.2022
4688 Clouds 28 1009 74 10000 1.79 12 00:37 20.03.2022
4689 Clouds 27 1008 81 10000 2.06 100 22:56 19.03.2022
4690 Clouds 27 1007 81 10000 1.54 100 21:27 19.03.2022
4691 Clouds 27 1007 80 10000 2.06 100 20:39 19.03.2022
4692 Clouds 28 1008 79 10000 2.57 110 18:58 19.03.2022
4693 Clouds 28 1008 79 10000 2.57 110 18:23 19.03.2022
4694 Clouds 28 1009 78 10000 3.09 120 17:35 19.03.2022
4695 Clouds 28 1008 78 10000 3.6 120 15:43 19.03.2022
4696 Clouds 29 1008 73 10000 2.57 120 14:33 19.03.2022
4697 Clouds 29 1007 74 10000 1.54 120 12:58 19.03.2022
4698 Clouds 30 1006 72 10000 1.54 120 12:38 19.03.2022
4699 Clouds 30 1006 71 10000 2.06 120 11:51 19.03.2022
4700 Clouds 30 1005 67 10000 2.06 110 10:44 19.03.2022
4701 Clouds 33 1006 59 10000 3.58 323 06:27 19.03.2022
4702 Clouds 30 1008 75 9000 2.24 348 03:21 19.03.2022
4703 Clouds 29 1008 79 8000 0.89 330 01:33 19.03.2022
4704 Clouds 27 1006 86 8000 2.06 20 23:26 18.03.2022
4705 Clouds 27 1006 87 8000 1.34 30 22:25 18.03.2022
4706 Clouds 28 1006 81 8000 2.57 360 20:56 18.03.2022
4707 Clouds 28 1006 82 9000 2.57 10 19:50 18.03.2022
4708 Clouds 28 1006 82 9000 2.57 10 19:19 18.03.2022
4709 Clouds 28 1006 84 9000 1.79 4 17:39 18.03.2022
4710 Clouds 28 1007 83 5000 1.54 120 16:46 18.03.2022
4711 Clouds 29 1007 80 5000 4.63 10 14:45 18.03.2022
4712 Thunderstorm 29 1007 80 5000 4.63 10 14:20 18.03.2022
4713 Clouds 30 1006 73 10000 3.09 250 12:23 18.03.2022
4714 Clouds 32 1004 70 10000 6.26 219 10:39 18.03.2022
4715 Clouds 33 1004 62 10000 5.14 280 09:23 18.03.2022
4716 Clouds 34 1004 59 10000 4.12 310 07:45 18.03.2022
4717 Clouds 33 1007 62 10000 2.24 243 05:46 18.03.2022
4718 Clouds 30 1008 74 10000 2.68 196 02:50 18.03.2022
4719 Clouds 27 1007 84 10000 1.03 0 00:21 18.03.2022
4720 Clouds 27 1006 84 10000 1.54 270 22:56 17.03.2022
4721 Clouds 27 1006 84 10000 1.54 270 22:22 17.03.2022
4722 Clouds 27 1006 84 10000 1.03 0 21:47 17.03.2022
4723 Clouds 27 1006 83 10000 1.03 0 21:18 17.03.2022
4724 Clouds 27 1006 81 10000 1.54 200 20:30 17.03.2022
4725 Clouds 27 1007 80 10000 1.03 0 19:39 17.03.2022
4726 Clouds 27 1007 80 10000 4.63 10 18:55 17.03.2022
4727 Clouds 28 1008 80 10000 2.06 90 17:55 17.03.2022
4728 Clouds 29 1008 74 10000 2.06 140 16:34 17.03.2022
4729 Clouds 29 1008 74 10000 2.06 150 15:44 17.03.2022
4730 Clouds 29 1008 73 10000 2.06 150 15:21 17.03.2022
4731 Clouds 30 1006 70 10000 3.09 120 13:48 17.03.2022
4732 Clouds 31 1006 67 10000 3.09 0 12:48 17.03.2022
4733 Clouds 31 1005 67 10000 3.6 140 11:47 17.03.2022
4734 Clouds 31 1005 67 10000 3.6 140 11:22 17.03.2022
4735 Clouds 33 1005 63 10000 3.6 130 09:41 17.03.2022
4736 Clouds 34 1005 60 10000 4.12 130 08:21 17.03.2022
4737 Clouds 33 1006 58 10000 4.63 130 06:25 17.03.2022
4738 Clouds 33 1008 62 10000 3.6 0 05:25 17.03.2022
4739 Clouds 28 1008 78 10000 1.79 1 00:33 17.03.2022
4740 Clouds 27 1007 80 10000 1.03 0 22:58 16.03.2022
4741 Rain 28 1007 80 10000 1.03 0 22:39 16.03.2022
4742 Rain 28 1007 80 10000 1.79 359 22:19 16.03.2022
4743 Rain 27 1007 81 10000 2.06 60 21:18 16.03.2022
4744 Rain 27 1007 81 10000 2.06 60 21:18 16.03.2022
4745 Rain 28 1008 77 10000 1.54 130 19:25 16.03.2022
4746 Rain 28 1008 77 10000 2.57 110 18:43 16.03.2022
4747 Rain 28 1008 77 10000 2.57 110 18:18 16.03.2022
4748 Clouds 29 1009 76 10000 2.06 0 17:36 16.03.2022
4749 Clouds 29 1009 75 10000 2.57 130 16:36 16.03.2022
4750 Clouds 29 1009 75 10000 3.09 120 15:34 16.03.2022
4751 Clouds 29 1008 76 10000 2.57 130 13:41 16.03.2022
4752 Clouds 30 1007 74 10000 3.09 110 12:56 16.03.2022
4753 Clouds 30 1005 73 10000 1.79 75 11:24 16.03.2022
4754 Clouds 30 1005 69 10000 2.06 90 10:43 16.03.2022
4755 Clouds 32 1005 64 10000 3.09 120 09:57 16.03.2022
4756 Clouds 33 1004 60 10000 4.02 92 08:33 16.03.2022
4757 Clouds 30 1008 69 10000 3.58 344 02:46 16.03.2022
4758 Clouds 27 1006 83 10000 1.03 60 22:58 15.03.2022
4759 Clouds 27 1006 83 10000 1.03 60 22:36 15.03.2022
4760 Clouds 26 1005 83 10000 0.89 2 21:19 15.03.2022
4761 Clouds 27 1006 81 10000 2.06 0 19:46 15.03.2022
4762 Clouds 28 1006 79 10000 2.57 110 18:35 15.03.2022
4763 Clouds 28 1007 79 10000 1.03 0 16:42 15.03.2022
4764 Clouds 29 1007 79 10000 2.57 120 15:42 15.03.2022
4765 Clouds 29 1007 77 10000 2.06 140 14:54 15.03.2022
4766 Clouds 29 1006 77 10000 2.57 0 13:57 15.03.2022
4767 Clouds 29 1006 75 10000 2.63 159 13:23 15.03.2022
4768 Clouds 29 1005 80 10000 2.57 170 11:34 15.03.2022
4769 Clouds 29 1004 78 10000 3.09 160 10:53 15.03.2022
4770 Clouds 32 1003 66 10000 3.6 140 09:24 15.03.2022
4771 Clouds 34 1003 62 10000 4.02 193 08:24 15.03.2022
4772 Clouds 34 1003 62 10000 4.47 214 07:36 15.03.2022
4773 Clouds 33 1005 63 10000 3.13 201 06:32 15.03.2022
4774 Clouds 27 1007 88 10000 2.24 17 00:58 15.03.2022
4775 Clouds 26 1007 89 10000 1.03 0 23:30 14.03.2022
4776 Clouds 26 1006 89 10000 1.54 240 22:50 14.03.2022
4777 Clouds 27 1006 87 10000 1.54 320 21:53 14.03.2022
4778 Clouds 27 1006 87 10000 1.03 0 20:55 14.03.2022
4779 Clouds 27 1006 87 10000 1.79 352 20:24 14.03.2022
4780 Clouds 27 1007 86 10000 2.24 359 19:24 14.03.2022
4781 Rain 27 1008 82 10000 1.54 100 17:57 14.03.2022
4782 Clouds 27 1008 81 10000 2.24 8 17:39 14.03.2022
4783 Clouds 27 1008 83 10000 1.79 2 16:29 14.03.2022
4784 Clouds 27 1008 88 10000 2.57 180 14:47 14.03.2022
4785 Rain 27 1007 81 10000 3.13 182 13:20 14.03.2022
4786 Clouds 28 1006 86 10000 2.06 100 11:26 14.03.2022
4787 Clouds 33 1005 64 10000 4.12 320 09:57 14.03.2022
4788 Clouds 33 1005 62 10000 4.12 320 09:24 14.03.2022
4789 Clouds 33 1004 61 10000 5.36 343 08:57 14.03.2022
4790 Clouds 33 1005 61 10000 4.12 340 08:26 14.03.2022
4791 Clouds 31 1007 68 10000 4.92 355 06:19 14.03.2022
4792 Clouds 30 1010 72 10000 6.26 216 02:58 14.03.2022
4793 Clouds 29 1009 74 10000 0 0 01:36 14.03.2022
4794 Clouds 26 1008 85 10000 2.57 350 23:29 13.03.2022
4795 Clouds 26 1008 84 10000 2.06 70 21:41 13.03.2022
4796 Clouds 27 1007 84 10000 2.06 70 21:19 13.03.2022
4797 Clouds 27 1007 84 10000 1.54 100 20:46 13.03.2022
4798 Clouds 27 1007 83 10000 1.54 100 20:21 13.03.2022
4799 Clouds 27 1008 83 10000 1.03 0 19:41 13.03.2022
4800 Clouds 27 1008 83 10000 1.34 5 19:21 13.03.2022
4801 Clouds 28 1008 79 10000 2.24 354 18:41 13.03.2022
4802 Clouds 28 1009 78 10000 3.6 110 17:52 13.03.2022
4803 Clouds 28 1009 78 10000 3.6 110 17:33 13.03.2022
4804 Clouds 28 1009 79 10000 4.12 110 16:44 13.03.2022
4805 Clouds 28 1009 79 10000 4.12 110 16:21 13.03.2022
4806 Clouds 28 1009 78 10000 3.09 120 15:36 13.03.2022
4807 Clouds 28 1008 77 10000 4.12 110 14:20 13.03.2022
4808 Clouds 28 1008 77 10000 4.63 120 13:27 13.03.2022
4809 Clouds 29 1007 78 10000 3.6 120 12:20 13.03.2022
4810 Clouds 29 1007 78 10000 3.09 160 11:36 13.03.2022
4811 Clouds 30 1006 77 10000 3.09 150 10:48 13.03.2022
4812 Clouds 30 1006 76 10000 3.09 150 10:25 13.03.2022
4813 Clouds 31 1006 72 10000 2.57 130 09:41 13.03.2022
4814 Clouds 31 1006 71 10000 3.6 130 08:48 13.03.2022
4815 Clouds 31 1006 68 10000 4.92 213 07:57 13.03.2022
4816 Clouds 30 1008 68 10000 3.6 270 05:55 13.03.2022
4817 Clouds 29 1009 74 10000 2.24 352 03:26 13.03.2022
4818 Clouds 26 1008 87 10000 0.51 0 00:30 13.03.2022
4819 Clouds 25 1007 90 10000 1.03 0 22:47 12.03.2022
4820 Rain 25 1007 92 5000 2.06 80 20:59 12.03.2022
4821 Mist 26 1007 91 3500 1.79 357 19:57 12.03.2022
4822 Mist 26 1007 91 3500 1.79 357 19:57 12.03.2022
4823 Mist 26 1007 91 3500 1.54 80 19:38 12.03.2022
4824 Clouds 27 1008 84 6000 3.09 100 18:29 12.03.2022
4825 Clouds 28 1008 80 10000 2.06 120 17:39 12.03.2022
4826 Clouds 28 1009 82 10000 2.06 140 16:24 12.03.2022
4827 Clouds 28 1008 81 10000 4.02 214 15:24 12.03.2022
4828 Clouds 28 1008 81 10000 4.02 214 15:24 12.03.2022
4829 Clouds 28 1008 80 10000 1.03 0 14:51 12.03.2022
4830 Rain 28 1007 83 10000 2.06 180 13:47 12.03.2022
4831 Rain 27 1006 81 9000 1.54 320 12:18 12.03.2022
4832 Rain 27 1006 76 9000 11.32 40 11:45 12.03.2022
4833 Rain 29 1007 70 9000 11.32 40 11:19 12.03.2022
4834 Clouds 34 1004 58 10000 3.58 191 09:47 12.03.2022
4835 Clouds 34 1004 58 10000 1.34 186 09:20 12.03.2022
4836 Clouds 32 1005 68 8000 3.09 0 07:29 12.03.2022
4837 Clouds 33 1007 63 10000 4.12 300 04:50 12.03.2022
4838 Clouds 27 1008 78 10000 1.54 0 00:21 12.03.2022
4839 Clouds 27 1007 82 10000 1.03 0 23:19 11.03.2022
4840 Clouds 27 1007 82 10000 1.03 0 23:19 11.03.2022
4841 Clouds 27 1006 80 10000 1.54 0 21:43 11.03.2022
4842 Clouds 28 1006 76 10000 2.06 110 20:57 11.03.2022
4843 Clouds 28 1006 76 10000 2.06 110 20:37 11.03.2022
4844 Clouds 28 1007 77 10000 2.06 140 19:52 11.03.2022
4845 Clouds 28 1007 78 10000 2.06 140 19:22 11.03.2022
4846 Clouds 28 1008 78 10000 1.54 150 17:34 11.03.2022
4847 Clouds 28 1008 76 10000 2.57 130 16:38 11.03.2022
4848 Clouds 28 1008 76 10000 2.06 0 15:55 11.03.2022
4849 Clouds 29 1007 74 10000 3.09 120 14:20 11.03.2022
4850 Clouds 29 1006 72 10000 3.09 140 12:45 11.03.2022
4851 Clouds 29 1006 73 10000 3.09 140 12:21 11.03.2022
4852 Clouds 30 1006 70 10000 3.09 140 11:51 11.03.2022
4853 Clouds 32 1005 62 10000 2.57 110 09:51 11.03.2022
4854 Clouds 32 1005 61 10000 2.57 0 08:56 11.03.2022
4855 Clouds 32 1005 62 10000 2.57 0 08:24 11.03.2022
4856 Clouds 32 1006 60 10000 3.6 130 07:45 11.03.2022
4857 Clouds 31 1007 63 10000 3.09 100 05:44 11.03.2022
4858 Clouds 30 1009 67 10000 2.06 0 03:41 11.03.2022
4859 Clouds 26 1008 81 10000 2.06 130 23:36 10.03.2022
4860 Clouds 26 1007 79 9000 1.54 0 22:30 10.03.2022
4861 Clouds 27 1007 77 10000 1.03 0 21:27 10.03.2022
4862 Clouds 26 1006 82 10000 1.03 0 20:55 10.03.2022
4863 Clouds 27 1007 76 10000 1.54 170 19:23 10.03.2022
4864 Clouds 27 1008 76 10000 1.03 0 18:40 10.03.2022
4865 Clouds 27 1008 75 10000 1.03 0 17:19 10.03.2022
4866 Rain 28 1009 70 10000 2.06 0 15:50 10.03.2022
4867 Clouds 28 1009 69 10000 2.57 120 14:39 10.03.2022
4868 Clouds 28 1008 65 10000 3.09 110 12:53 10.03.2022
4869 Clouds 29 1008 63 10000 3.6 120 11:42 10.03.2022
4870 Clouds 30 1007 61 10000 3.6 130 10:24 10.03.2022
4871 Clouds 32 1006 57 10000 5.66 130 08:55 10.03.2022
4872 Clouds 32 1007 57 10000 5.81 195 06:58 10.03.2022
4873 Clouds 29 1009 65 10000 5.36 200 03:52 10.03.2022
4874 Clouds 27 1010 71 10000 3.09 110 00:51 10.03.2022
4875 Clouds 25 1009 76 10000 2.57 120 22:46 09.03.2022
4876 Clouds 25 1008 74 10000 2.57 130 21:48 09.03.2022
4877 Clouds 25 1008 73 10000 2.57 130 21:23 09.03.2022
4878 Clouds 26 1009 71 10000 3.09 110 19:42 09.03.2022
4879 Clouds 26 1009 69 10000 3.6 120 18:25 09.03.2022
4880 Clouds 26 1010 69 10000 3.6 110 17:26 09.03.2022
4881 Clouds 26 1010 70 10000 3.6 110 16:24 09.03.2022
4882 Clouds 27 1010 69 10000 3.6 120 14:32 09.03.2022
4883 Clouds 27 1009 69 10000 4.63 130 13:52 09.03.2022
4884 Clouds 27 1009 68 10000 4.12 120 12:36 09.03.2022
4885 Clouds 28 1008 68 10000 5.14 110 11:48 09.03.2022
4886 Clouds 28 1008 67 10000 5.14 110 11:18 09.03.2022
4887 Clouds 30 1007 61 10000 5.66 110 09:41 09.03.2022
4888 Clouds 31 1007 60 10000 6.69 120 08:47 09.03.2022
4889 Clouds 31 1008 59 10000 6.17 120 06:51 09.03.2022
4890 Clouds 27 1010 71 10000 2.57 120 01:53 09.03.2022
4891 Clouds 26 1009 73 10000 2.06 120 00:26 09.03.2022
4892 Clouds 26 1008 72 10000 1.54 110 22:46 08.03.2022
4893 Clouds 26 1008 72 10000 1.79 356 21:52 08.03.2022
4894 Clouds 27 1008 71 10000 1.54 110 21:22 08.03.2022
4895 Clouds 27 1008 71 10000 1.54 110 21:22 08.03.2022
4896 Clouds 26 1008 72 10000 0.51 0 20:22 08.03.2022
4897 Clouds 27 1008 70 10000 1.54 90 19:24 08.03.2022
4898 Clouds 27 1009 68 10000 2.06 100 18:22 08.03.2022
4899 Clouds 28 1009 64 10000 4.12 80 16:44 08.03.2022
4900 Rain 28 1009 66 10000 4.12 100 14:57 08.03.2022
4901 Clouds 28 1009 64 10000 4.12 100 13:45 08.03.2022
4902 Clouds 29 1008 65 10000 4.63 110 12:20 08.03.2022
4903 Clouds 29 1007 64 10000 4.63 80 11:42 08.03.2022
4904 Clouds 31 1006 63 10000 3.6 110 10:28 08.03.2022
4905 Clouds 31 1005 61 9000 5.14 130 08:57 08.03.2022
4906 Clouds 31 1007 63 8000 2.57 280 06:30 08.03.2022
4907 Clouds 29 1009 68 10000 2.06 160 02:37 08.03.2022
4908 Clouds 26 1007 79 10000 1.54 140 22:43 07.03.2022
4909 Clouds 26 1007 78 10000 1.03 0 21:44 07.03.2022
4910 Clouds 26 1007 77 10000 0.51 0 20:56 07.03.2022
4911 Clouds 26 1007 77 10000 0.89 48 20:29 07.03.2022
4912 Clouds 27 1008 76 10000 1.79 16 19:48 07.03.2022
4913 Clouds 27 1008 75 10000 0.45 21 18:57 07.03.2022
4914 Clouds 27 1009 76 10000 0.89 23 18:29 07.03.2022
4915 Clouds 28 1009 72 10000 4.12 60 17:24 07.03.2022
4916 Clouds 28 1009 72 10000 1.79 44 16:41 07.03.2022
4917 Clouds 28 1008 69 10000 2.06 230 14:49 07.03.2022
4918 Clouds 29 1008 62 10000 1.54 140 12:34 07.03.2022
4919 Clouds 31 1008 58 10000 2.57 0 11:21 07.03.2022
4920 Clouds 32 1007 55 10000 5.36 223 10:26 07.03.2022
4921 Clouds 32 1008 58 9000 4.63 290 08:19 07.03.2022
4922 Clouds 27 1012 67 10000 1.54 90 01:23 07.03.2022
4923 Clouds 26 1012 75 10000 1.54 100 00:20 07.03.2022
4924 Clouds 25 1011 78 10000 2.06 70 23:22 06.03.2022
4925 Clouds 26 1010 74 10000 1.54 120 22:26 06.03.2022
4926 Clouds 26 1009 74 10000 1.03 0 21:22 06.03.2022
4927 Clouds 26 1009 74 10000 1.54 110 20:29 06.03.2022
4928 Clouds 26 1009 74 10000 2.06 130 19:35 06.03.2022
4929 Clouds 27 1010 73 10000 2.06 110 18:49 06.03.2022
4930 Clouds 27 1011 71 10000 3.09 120 17:36 06.03.2022
4931 Clouds 27 1011 71 10000 3.09 120 17:18 06.03.2022
4932 Clouds 27 1010 67 10000 3.09 120 16:26 06.03.2022
4933 Rain 27 1010 67 10000 3.6 110 15:23 06.03.2022
4934 Clouds 28 1010 65 10000 4.63 110 14:41 06.03.2022
4935 Clouds 28 1010 64 10000 4.12 110 13:48 06.03.2022
4936 Clouds 29 1010 63 10000 4.63 110 12:39 06.03.2022
4937 Clouds 30 1009 60 10000 6.17 100 11:39 06.03.2022
4938 Clouds 31 1008 55 10000 6.17 120 10:33 06.03.2022
4939 Clouds 33 1007 55 10000 5.14 0 08:51 06.03.2022
4940 Clouds 33 1007 56 10000 5.14 0 08:27 06.03.2022
4941 Clouds 33 1008 56 10000 4.92 183 07:18 06.03.2022
4942 Clouds 29 1011 67 9000 2.06 0 01:54 06.03.2022
4943 Clouds 26 1011 80 9000 1.03 0 00:34 06.03.2022
4944 Clouds 25 1010 80 10000 1.03 200 23:56 05.03.2022
4945 Clouds 25 1010 80 10000 1.03 200 23:18 05.03.2022
4946 Clouds 25 1009 80 10000 0 0 22:31 05.03.2022
4947 Clouds 25 1009 80 10000 0 0 22:31 05.03.2022
4948 Clouds 26 1009 76 10000 0.89 1 21:25 05.03.2022
4949 Clouds 27 1009 73 10000 1.54 150 19:59 05.03.2022
4950 Clouds 27 1010 73 10000 1.03 0 18:57 05.03.2022
4951 Clouds 27 1010 73 10000 1.03 0 18:36 05.03.2022
4952 Clouds 28 1011 72 10000 2.57 110 16:58 05.03.2022
4953 Clouds 28 1010 70 10000 3.09 120 15:49 05.03.2022
4954 Clouds 28 1010 69 10000 3.6 120 14:53 05.03.2022
4955 Clouds 28 1010 69 10000 3.6 120 14:34 05.03.2022
4956 Clouds 28 1009 69 10000 3.09 130 13:35 05.03.2022
4957 Rain 30 1008 64 10000 3.09 130 11:55 05.03.2022
4958 Clouds 31 1008 64 10000 3.09 130 11:20 05.03.2022
4959 Clouds 32 1008 57 10000 3.09 130 10:23 05.03.2022
4960 Clouds 32 1007 57 10000 5.81 223 09:28 05.03.2022
4961 Clouds 33 1008 54 10000 4.92 186 07:59 05.03.2022
4962 Clouds 31 1010 59 10000 2.06 330 05:47 05.03.2022
4963 Clouds 32 1011 57 10000 4.02 1 04:38 05.03.2022
4964 Clouds 26 1010 75 10000 2.57 100 23:39 04.03.2022
4965 Clouds 25 1009 77 10000 2.06 80 22:44 04.03.2022
4966 Clouds 25 1009 77 10000 2.06 80 22:23 04.03.2022
4967 Clouds 25 1008 77 10000 1.03 0 21:24 04.03.2022
4968 Clouds 26 1009 75 10000 2.06 110 20:32 04.03.2022
4969 Clouds 27 1009 73 10000 3.6 110 19:36 04.03.2022
4970 Clouds 27 1010 74 10000 3.6 110 18:47 04.03.2022
4971 Rain 27 1010 74 10000 3.6 110 18:22 04.03.2022
4972 Clouds 27 1010 75 10000 3.09 120 17:28 04.03.2022
4973 Clouds 27 1010 76 10000 3.6 120 15:31 04.03.2022
4974 Clouds 28 1010 73 10000 4.12 120 14:36 04.03.2022
4975 Clouds 28 1010 74 10000 3.09 130 13:27 04.03.2022
4976 Clouds 29 1008 74 10000 3.09 140 11:56 04.03.2022
4977 Clouds 29 1008 73 10000 4.12 140 10:57 04.03.2022
4978 Clouds 30 1008 71 10000 4.12 140 10:18 04.03.2022
4979 Clouds 32 1008 61 10000 3.6 140 08:40 04.03.2022
4980 Clouds 32 1008 61 10000 3.6 140 08:40 04.03.2022
4981 Clouds 32 1009 61 10000 6.71 214 07:38 04.03.2022
4982 Clouds 31 1011 60 10000 3.6 280 04:59 04.03.2022
4983 Clouds 26 1012 77 10000 3.13 8 00:41 04.03.2022
4984 Clouds 25 1011 75 10000 1.54 110 22:39 03.03.2022
4985 Rain 26 1010 74 10000 2.06 80 21:50 03.03.2022
4986 Clouds 26 1010 74 10000 2.06 80 21:29 03.03.2022
4987 Clouds 27 1011 71 10000 3.09 110 20:18 03.03.2022
4988 Clouds 27 1011 71 10000 3.6 110 18:55 03.03.2022
4989 Clouds 27 1011 71 10000 3.6 110 18:24 03.03.2022
4990 Clouds 27 1011 69 10000 4.63 110 17:31 03.03.2022
4991 Clouds 27 1011 69 10000 4.63 110 17:31 03.03.2022
4992 Clouds 27 1012 68 10000 4.63 120 16:25 03.03.2022
4993 Clouds 28 1012 66 10000 3.6 120 15:32 03.03.2022
4994 Clouds 28 1011 67 10000 0.45 315 14:43 03.03.2022
4995 Clouds 28 1011 68 10000 1.34 141 14:24 03.03.2022
4996 Clouds 29 1010 65 10000 4.63 110 12:27 03.03.2022
4997 Clouds 30 1009 66 10000 4.63 110 10:49 03.03.2022
4998 Clouds 31 1009 63 10000 5.66 110 09:45 03.03.2022
4999 Clouds 32 1009 60 10000 6.69 120 08:19 03.03.2022
5000 Clouds 32 1010 60 10000 5.81 209 06:37 03.03.2022
5001 Clouds 30 1012 64 10000 0.45 277 03:21 03.03.2022
5002 Clouds 25 1012 79 10000 1.03 0 23:39 02.03.2022
5003 Clouds 26 1011 79 10000 1.03 0 22:53 02.03.2022
5004 Clouds 25 1010 82 10000 2.57 60 21:35 02.03.2022
5005 Clouds 26 1010 81 10000 2.06 60 20:55 02.03.2022
5006 Clouds 26 1010 81 10000 2.06 60 20:24 02.03.2022
5007 Clouds 26 1011 79 10000 1.54 90 19:37 02.03.2022
5008 Clouds 27 1011 77 10000 2.57 80 18:54 02.03.2022
5009 Clouds 27 1011 77 10000 2.57 80 18:26 02.03.2022
5010 Clouds 27 1012 76 10000 3.09 120 17:36 02.03.2022
5011 Clouds 28 1012 73 10000 3.09 120 16:51 02.03.2022
5012 Clouds 28 1012 72 10000 1.54 0 14:59 02.03.2022
5013 Clouds 28 1011 71 10000 2.06 130 13:30 02.03.2022
5014 Clouds 29 1010 68 10000 3.09 110 12:45 02.03.2022
5015 Clouds 29 1010 67 10000 4.12 110 11:59 02.03.2022
5016 Clouds 30 1010 66 10000 4.12 110 11:25 02.03.2022
5017 Clouds 31 1010 60 10000 4.12 100 10:30 02.03.2022
5018 Clouds 31 1010 62 10000 4.63 120 09:31 02.03.2022
5019 Clouds 32 1010 58 10000 4.63 100 07:59 02.03.2022
5020 Clouds 32 1010 59 10000 4.63 100 07:23 02.03.2022
5021 Clouds 31 1013 62 10000 2.57 120 03:46 02.03.2022
5022 Clouds 25 1013 70 10000 1.79 353 00:39 02.03.2022
5023 Clouds 24 1012 74 10000 0.45 8 22:50 01.03.2022
5024 Clouds 25 1011 75 10000 0.89 23 22:31 01.03.2022
5025 Clouds 25 1011 71 10000 0.51 0 21:25 01.03.2022
5026 Clouds 25 1012 70 10000 1.54 30 20:33 01.03.2022
5027 Clouds 25 1012 73 10000 1.54 40 19:50 01.03.2022
5028 Clouds 26 1013 71 10000 1.54 110 18:51 01.03.2022
5029 Clouds 26 1013 70 10000 1.54 110 18:21 01.03.2022
5030 Clouds 26 1013 69 10000 1.54 100 17:37 01.03.2022
5031 Clouds 26 1013 67 10000 2.57 120 16:35 01.03.2022
5032 Clouds 26 1013 67 10000 2.06 110 15:45 01.03.2022
5033 Clouds 27 1013 65 10000 2.57 120 14:41 01.03.2022
5034 Clouds 27 1013 65 10000 2.57 120 14:23 01.03.2022
5035 Clouds 27 1012 64 10000 3.6 120 13:26 01.03.2022
5036 Clouds 28 1011 62 10000 4.63 120 12:35 01.03.2022
5037 Clouds 30 1010 54 10000 5.66 120 10:38 01.03.2022
5038 Clear 32 1009 56 10000 3.58 201 09:18 01.03.2022
5039 Clouds 32 1010 54 10000 6.69 120 07:55 01.03.2022
5040 Clouds 33 1011 53 10000 5.36 204 06:27 01.03.2022
5041 Clouds 30 1014 55 10000 2.57 110 02:45 01.03.2022
5042 Clouds 27 1013 68 10000 2.24 347 00:39 01.03.2022
5043 Clouds 25 1013 74 10000 1.54 70 23:33 28.02.2022
5044 Clouds 26 1012 71 10000 1.03 0 22:24 28.02.2022
5045 Clouds 26 1011 72 10000 1.34 16 21:39 28.02.2022
5046 Clouds 27 1012 70 10000 1.54 100 19:59 28.02.2022
5047 Clouds 27 1012 70 10000 1.54 100 19:40 28.02.2022
5048 Clouds 27 1013 70 10000 1.54 120 18:49 28.02.2022
5049 Clouds 27 1013 69 10000 2.06 110 17:33 28.02.2022
5050 Clouds 27 1013 68 10000 2.06 100 16:43 28.02.2022
5051 Clouds 27 1013 69 10000 1.54 100 15:27 28.02.2022
5052 Clouds 27 1013 68 10000 2.06 110 14:32 28.02.2022
5053 Clouds 28 1012 67 10000 2.57 110 13:48 28.02.2022
5054 Clouds 28 1012 66 10000 3.6 110 12:50 28.02.2022
5055 Clouds 29 1011 62 10000 4.12 110 11:58 28.02.2022
5056 Clouds 29 1011 63 10000 4.12 110 11:18 28.02.2022
5057 Clouds 30 1011 62 10000 6.69 110 10:21 28.02.2022
5058 Clouds 31 1011 57 10000 6.17 120 09:36 28.02.2022
5059 Clouds 32 1011 54 10000 5.14 130 08:44 28.02.2022
5060 Clouds 33 1011 49 10000 5.81 68 07:43 28.02.2022
5061 Clouds 33 1013 49 10000 5.66 110 05:25 28.02.2022
5062 Clouds 33 1014 51 10000 3.6 100 04:27 28.02.2022
5063 Clouds 25 1014 78 10000 1.03 0 23:45 27.02.2022
5064 Clouds 25 1013 76 10000 1.54 90 22:36 27.02.2022
5065 Clouds 25 1013 76 10000 1.34 359 21:52 27.02.2022
5066 Clouds 25 1012 76 10000 1.34 6 21:27 27.02.2022
5067 Clouds 25 1013 76 10000 1.54 90 20:37 27.02.2022
5068 Clouds 26 1013 77 10000 2.57 90 19:58 27.02.2022
5069 Clouds 26 1013 76 10000 2.57 90 19:27 27.02.2022
5070 Clouds 26 1013 73 10000 2.57 90 18:47 27.02.2022
5071 Clouds 27 1014 72 10000 3.6 100 17:56 27.02.2022
5072 Clouds 27 1014 71 10000 3.6 100 17:20 27.02.2022
5073 Clouds 27 1014 72 10000 1.54 120 16:22 27.02.2022
5074 Clouds 28 1013 66 10000 3.6 110 13:40 27.02.2022
5075 Clouds 28 1012 65 10000 3.6 90 12:33 27.02.2022
5076 Clouds 29 1011 63 10000 4.12 110 11:27 27.02.2022
5077 Clouds 30 1010 59 10000 5.14 110 10:20 27.02.2022
5078 Clouds 31 1010 59 10000 5.66 120 09:50 27.02.2022
5079 Clouds 31 1010 60 10000 5.66 120 09:20 27.02.2022
5080 Clouds 31 1010 61 10000 6.17 110 08:20 27.02.2022
5081 Clouds 31 1010 61 10000 6.17 110 08:20 27.02.2022
5082 Clouds 31 1014 58 10000 2.06 130 05:38 27.02.2022
5083 Clouds 28 1015 65 10000 2.68 19 02:35 27.02.2022
5084 Rain 25 1013 76 10000 0.45 11 23:30 26.02.2022
5085 Rain 25 1013 76 10000 0.45 11 23:30 26.02.2022
5086 Clouds 25 1013 75 10000 1.34 9 22:31 26.02.2022
5087 Clouds 25 1012 75 10000 2.57 20 21:19 26.02.2022
5088 Clouds 25 1012 74 10000 1.54 10 20:27 26.02.2022
5089 Clouds 25 1013 74 10000 0.89 13 19:52 26.02.2022
5090 Clouds 25 1013 74 10000 0.89 17 19:31 26.02.2022
5091 Clouds 26 1013 71 10000 1.34 14 17:55 26.02.2022
5092 Clouds 26 1013 71 10000 0.51 0 17:29 26.02.2022
5093 Clouds 26 1014 70 10000 1.54 60 16:33 26.02.2022
5094 Clouds 27 1014 69 10000 2.06 40 15:26 26.02.2022
5095 Clouds 27 1014 68 10000 2.68 350 14:57 26.02.2022
5096 Clouds 27 1014 68 10000 2.57 60 14:38 26.02.2022
5097 Clouds 27 1013 66 10000 3.09 70 13:40 26.02.2022
5098 Clouds 28 1013 64 10000 4.12 80 12:52 26.02.2022
5099 Clouds 28 1012 63 10000 4.47 5 11:38 26.02.2022
5100 Clouds 30 1012 60 10000 4.47 3 10:56 26.02.2022
5101 Clouds 31 1011 56 10000 6.17 80 09:21 26.02.2022
5102 Clouds 32 1011 54 10000 5.14 100 07:57 26.02.2022
5103 Clouds 28 1015 75 10000 2.57 300 03:21 26.02.2022
5104 Clouds 25 1014 79 10000 1.54 90 23:32 25.02.2022
5105 Clouds 25 1012 80 10000 1.54 90 21:49 25.02.2022
5106 Clouds 25 1012 80 10000 1.54 90 21:29 25.02.2022
5107 Clouds 25 1013 78 10000 2.06 120 20:33 25.02.2022
5108 Clouds 26 1013 77 10000 1.54 110 19:41 25.02.2022
5109 Clouds 26 1015 76 10000 2.06 120 17:35 25.02.2022
5110 Clouds 26 1015 75 10000 1.54 110 16:45 25.02.2022
5111 Clouds 27 1015 73 10000 1.54 110 15:48 25.02.2022
5112 Clouds 27 1015 72 10000 1.54 110 15:23 25.02.2022
5113 Clouds 27 1015 74 10000 2.06 110 14:45 25.02.2022
5114 Clouds 27 1015 73 10000 2.06 110 14:18 25.02.2022
5115 Clouds 28 1014 70 10000 3.09 110 13:20 25.02.2022
5116 Clouds 29 1013 64 10000 3.6 100 11:30 25.02.2022
5117 Clouds 30 1012 60 10000 4.63 110 10:54 25.02.2022
5118 Clouds 31 1012 58 10000 4.63 110 10:23 25.02.2022
5119 Clouds 32 1011 55 10000 4.63 100 09:35 25.02.2022
5120 Clouds 33 1012 56 10000 5.14 110 07:44 25.02.2022
5121 Clouds 32 1013 52 10000 5.66 110 06:19 25.02.2022
5122 Clouds 32 1014 52 10000 5.66 110 05:36 25.02.2022
5123 Clouds 26 1015 75 10000 2.06 100 00:31 25.02.2022
5124 Clouds 26 1013 75 10000 2.06 110 22:29 24.02.2022
5125 Clouds 26 1013 75 10000 2.06 100 21:43 24.02.2022
5126 Clouds 26 1013 75 10000 2.06 100 21:43 24.02.2022
5127 Clouds 26 1013 74 10000 2.06 100 21:21 24.02.2022
5128 Clouds 26 1013 74 10000 2.06 90 20:42 24.02.2022
5129 Clouds 26 1014 73 10000 3.6 100 19:19 24.02.2022
5130 Clouds 27 1014 74 10000 4.12 120 18:20 24.02.2022
5131 Clouds 27 1014 74 10000 3.6 120 17:46 24.02.2022
5132 Clouds 27 1014 73 10000 3.6 120 16:56 24.02.2022
5133 Clouds 27 1014 73 10000 3.6 120 16:25 24.02.2022
5134 Clouds 27 1014 73 10000 3.6 120 16:25 24.02.2022
5135 Clouds 27 1014 70 10000 4.12 120 15:30 24.02.2022
5136 Clouds 27 1014 69 10000 4.63 120 14:37 24.02.2022
5137 Clouds 28 1013 68 10000 4.12 120 13:42 24.02.2022
5138 Clouds 28 1013 68 10000 4.12 120 13:24 24.02.2022
5139 Clouds 31 1012 58 10000 5.66 110 10:43 24.02.2022
5140 Clouds 32 1011 53 10000 5.66 120 09:41 24.02.2022
5141 Clouds 32 1011 52 10000 4.63 110 08:42 24.02.2022
5142 Clouds 32 1013 56 10000 4.92 209 06:25 24.02.2022
5143 Clouds 32 1014 58 10000 4.12 120 05:36 24.02.2022
5144 Clouds 24 1015 84 9000 1.03 0 00:30 24.02.2022
5145 Clouds 24 1013 84 10000 0 0 21:55 23.02.2022
5146 Clouds 24 1013 85 10000 1.34 2 20:32 23.02.2022
5147 Clouds 25 1013 82 10000 2.06 30 19:55 23.02.2022
5148 Clouds 26 1014 80 10000 3.6 110 18:57 23.02.2022
5149 Clouds 26 1014 76 10000 3.09 120 17:46 23.02.2022
5150 Clouds 27 1014 73 10000 2.24 63 15:28 23.02.2022
5151 Clouds 27 1013 70 10000 2.24 63 13:34 23.02.2022
5152 Clouds 28 1013 69 10000 1.54 100 12:26 23.02.2022
5153 Clouds 29 1012 66 10000 3.09 100 10:45 23.02.2022
5154 Clouds 30 1012 63 10000 3.6 100 09:24 23.02.2022
5155 Clouds 30 1012 62 10000 3.6 120 08:27 23.02.2022
5156 Clouds 30 1012 61 10000 2.24 130 07:19 23.02.2022
5157 Clouds 26 1015 78 10000 1.34 0 01:22 23.02.2022
5158 Clouds 25 1014 87 10000 1.03 0 23:40 22.02.2022
5159 Clouds 25 1013 85 10000 1.54 90 22:59 22.02.2022
5160 Clouds 25 1013 83 10000 1.54 120 21:56 22.02.2022
5161 Clouds 25 1013 83 10000 1.54 120 21:37 22.02.2022
5162 Clouds 25 1013 83 10000 1.54 120 21:18 22.02.2022
5163 Clouds 25 1013 82 10000 2.57 100 20:31 22.02.2022
5164 Clouds 26 1013 82 10000 2.06 100 19:51 22.02.2022
5165 Clouds 26 1013 82 10000 2.06 100 19:31 22.02.2022
5166 Clouds 26 1013 83 10000 2.57 90 18:23 22.02.2022
5167 Clouds 26 1014 87 9000 1.54 90 17:26 22.02.2022
5168 Clouds 25 1014 88 9000 1.03 0 16:41 22.02.2022
5169 Clouds 26 1014 90 10000 1.34 8 15:59 22.02.2022
5170 Clouds 25 1014 90 9000 0.51 0 14:48 22.02.2022
5171 Rain 25 1013 88 8000 1.03 0 12:48 22.02.2022
5172 Rain 26 1012 89 9000 1.03 0 10:53 22.02.2022
5173 Rain 25 1012 94 8000 2.57 110 08:53 22.02.2022
5174 Rain 27 1011 84 5000 4.12 110 07:27 22.02.2022
5175 Clouds 28 1011 78 9000 4.47 18 06:30 22.02.2022
5176 Clouds 28 1013 73 10000 2.57 110 02:47 22.02.2022
5177 Clouds 25 1011 83 10000 2.24 70 22:53 21.02.2022
5178 Clouds 26 1011 81 10000 2.57 10 21:56 21.02.2022
5179 Clouds 26 1011 81 10000 1.54 20 20:37 21.02.2022
5180 Clouds 27 1012 76 10000 2.24 359 18:47 21.02.2022
5181 Clouds 27 1012 74 10000 2.57 80 17:39 21.02.2022
5182 Clouds 28 1012 72 10000 2.06 110 15:26 21.02.2022
5183 Clouds 28 1012 72 10000 2.06 100 14:22 21.02.2022
5184 Clouds 28 1012 73 10000 3.09 110 13:30 21.02.2022
5185 Clouds 28 1011 72 10000 3.09 100 12:24 21.02.2022
5186 Rain 29 1010 68 10000 3.6 110 11:20 21.02.2022
5187 Clouds 31 1009 63 10000 4.63 110 09:54 21.02.2022
5188 Clouds 31 1011 61 10000 4.63 100 05:35 21.02.2022
5189 Clouds 26 1012 75 10000 1.54 110 00:18 21.02.2022
5190 Clouds 25 1010 79 10000 2.06 60 22:27 20.02.2022
5191 Clouds 26 1010 77 10000 1.54 80 21:42 20.02.2022
5192 Clouds 26 1010 78 10000 1.54 60 20:59 20.02.2022
5193 Clouds 26 1010 78 10000 1.54 60 20:41 20.02.2022
5194 Clouds 27 1011 74 10000 2.06 100 19:42 20.02.2022
5195 Clouds 27 1011 74 10000 3.09 120 18:52 20.02.2022
5196 Clouds 27 1011 74 10000 3.09 120 18:32 20.02.2022
5197 Clouds 27 1011 73 10000 3.6 120 17:52 20.02.2022
5198 Clouds 27 1011 71 10000 2.57 130 15:41 20.02.2022
5199 Clouds 27 1011 70 10000 3.09 130 14:48 20.02.2022
5200 Clouds 28 1011 65 10000 3.6 110 13:23 20.02.2022
5201 Clouds 29 1010 62 10000 2.24 240 12:34 20.02.2022
5202 Clouds 30 1008 62 10000 4.12 110 10:47 20.02.2022
5203 Clouds 30 1008 63 10000 4.12 110 10:19 20.02.2022
5204 Clouds 32 1007 58 10000 8.05 210 08:50 20.02.2022
5205 Clouds 27 1011 76 10000 2.17 85 00:54 20.02.2022
5206 Clouds 27 1011 76 10000 2.17 85 00:54 20.02.2022
5207 Clouds 26 1010 77 10000 1.79 18 00:30 20.02.2022
5208 Clouds 26 1009 78 10000 0.89 16 23:18 19.02.2022
5209 Clouds 27 1009 76 10000 1.54 110 22:22 19.02.2022
5210 Clouds 27 1009 75 10000 0.51 0 21:25 19.02.2022
5211 Clouds 27 1009 75 10000 2.06 0 19:53 19.02.2022
5212 Clouds 27 1009 74 10000 2.06 0 19:28 19.02.2022
5213 Clouds 27 1010 75 10000 2.57 110 18:33 19.02.2022
5214 Clouds 27 1010 74 10000 3.6 120 17:35 19.02.2022
5215 Clouds 28 1011 71 10000 3.6 120 16:22 19.02.2022
5216 Clouds 28 1011 72 10000 2.57 0 14:56 19.02.2022
5217 Clouds 28 1011 71 10000 2.57 0 14:37 19.02.2022
5218 Clouds 29 1009 68 10000 3.6 120 12:50 19.02.2022
5219 Clouds 30 1008 69 10000 5.14 140 11:36 19.02.2022
5220 Clouds 31 1007 63 10000 4.63 120 09:45 19.02.2022
5221 Clouds 32 1009 61 10000 3.13 190 06:54 19.02.2022
5222 Clouds 30 1011 63 10000 5.36 200 02:52 19.02.2022
5223 Clouds 25 1010 82 10000 1.79 6 23:28 18.02.2022
5224 Clouds 25 1009 80 10000 2.06 20 21:49 18.02.2022
5225 Clouds 25 1009 79 10000 1.03 0 20:42 18.02.2022
5226 Clouds 26 1009 77 10000 1.54 140 19:52 18.02.2022
5227 Clouds 26 1010 76 10000 1.54 100 18:50 18.02.2022
5228 Clouds 26 1010 76 10000 1.54 100 18:20 18.02.2022
5229 Clouds 26 1010 76 10000 1.54 100 18:20 18.02.2022
5230 Clouds 27 1010 74 10000 2.57 130 17:38 18.02.2022
5231 Clouds 28 1010 73 10000 3.09 120 14:48 18.02.2022
5232 Clouds 28 1010 72 10000 2.57 120 13:54 18.02.2022
5233 Clouds 29 1009 68 10000 3.09 110 12:51 18.02.2022
5234 Clouds 29 1009 68 10000 4.12 130 11:58 18.02.2022
5235 Clouds 29 1009 68 10000 4.12 130 11:58 18.02.2022
5236 Clouds 29 1009 69 10000 7.15 77 11:21 18.02.2022
5237 Clouds 31 1008 64 10000 4.12 130 09:33 18.02.2022
5238 Clouds 31 1010 62 9000 4.02 172 06:52 18.02.2022
5239 Clouds 30 1011 65 9000 1.54 0 05:38 18.02.2022
5240 Clouds 25 1010 82 10000 1.54 60 22:47 17.02.2022
5241 Clouds 25 1009 84 10000 1.03 0 21:43 17.02.2022
5242 Clouds 25 1009 83 10000 1.54 70 20:52 17.02.2022
5243 Clouds 25 1009 82 10000 1.54 70 20:34 17.02.2022
5244 Clouds 26 1009 82 10000 2.06 110 19:43 17.02.2022
5245 Clouds 26 1009 81 10000 2.06 100 18:37 17.02.2022
5246 Clouds 26 1010 80 10000 1.54 110 17:48 17.02.2022
5247 Clouds 27 1010 79 10000 2.06 120 16:20 17.02.2022
5248 Clouds 27 1010 78 10000 2.57 120 14:57 17.02.2022
5249 Clouds 27 1010 77 10000 2.57 120 14:19 17.02.2022
5250 Clouds 27 1008 77 10000 5.14 120 11:59 17.02.2022
5251 Clouds 27 1007 79 10000 1.79 6 11:21 17.02.2022
5252 Clouds 29 1006 69 9000 5.14 100 08:38 17.02.2022
5253 Clouds 26 1009 78 10000 1.03 0 00:29 17.02.2022
5254 Clouds 25 1008 81 10000 2.06 70 22:39 16.02.2022
5255 Clouds 26 1007 79 10000 2.06 100 20:39 16.02.2022
5256 Clouds 26 1008 78 10000 3.09 110 19:32 16.02.2022
5257 Clouds 26 1008 79 10000 2.65 85 18:35 16.02.2022
5258 Clouds 26 1009 77 10000 3.09 120 17:34 16.02.2022
5259 Clouds 27 1009 72 10000 2.06 110 15:24 16.02.2022
5260 Clouds 27 1009 72 10000 2.57 120 14:29 16.02.2022
5261 Clouds 28 1007 67 10000 3.09 120 12:31 16.02.2022
5262 Clouds 29 1007 65 10000 4.12 130 11:51 16.02.2022
5263 Clouds 30 1006 65 10000 4.12 130 10:37 16.02.2022
5264 Clouds 30 1006 65 10000 4.12 130 10:18 16.02.2022
5265 Clouds 31 1008 63 10000 1.79 13 06:44 16.02.2022
5266 Clouds 29 1011 68 10000 1.03 0 03:41 16.02.2022
5267 Clouds 25 1009 80 10000 1.54 60 22:35 15.02.2022
5268 Clouds 26 1008 80 10000 1.54 90 21:52 15.02.2022
5269 Clouds 26 1008 80 10000 1.54 90 21:31 15.02.2022
5270 Clouds 26 1008 78 10000 2.06 110 20:58 15.02.2022
5271 Clouds 26 1008 78 10000 2.06 110 20:38 15.02.2022
5272 Clouds 26 1009 78 10000 2.06 130 19:48 15.02.2022
5273 Clouds 26 1009 77 10000 3.09 120 18:28 15.02.2022
5274 Clouds 26 1009 77 10000 2.57 130 17:57 15.02.2022
5275 Clouds 26 1009 77 10000 2.57 130 17:38 15.02.2022
5276 Clouds 27 1009 75 10000 3.09 120 15:44 15.02.2022
5277 Clouds 27 1009 74 10000 3.09 140 14:31 15.02.2022
5278 Clouds 27 1009 73 10000 3.6 120 13:26 15.02.2022
5279 Clouds 29 1007 69 10000 4.12 130 11:41 15.02.2022
5280 Clouds 30 1007 67 10000 4.63 130 10:30 15.02.2022
5281 Clouds 31 1007 65 10000 4.12 150 08:56 15.02.2022
5282 Clouds 32 1008 60 10000 3.13 1 06:47 15.02.2022
5283 Clouds 26 1010 85 10000 1.03 0 00:26 15.02.2022
5284 Clouds 26 1008 84 10000 1.03 0 21:58 14.02.2022
5285 Clouds 26 1009 85 10000 0.89 345 20:54 14.02.2022
5286 Clouds 26 1009 86 10000 0.51 0 19:49 14.02.2022
5287 Clouds 26 1009 87 10000 1.79 215 19:29 14.02.2022
5288 Clouds 27 1010 86 10000 3.58 188 18:24 14.02.2022
5289 Clouds 27 1010 81 10000 2.27 113 17:30 14.02.2022
5290 Rain 27 1011 81 10000 2.06 150 16:49 14.02.2022
5291 Clouds 28 1011 78 10000 1.54 140 15:42 14.02.2022
5292 Clouds 28 1010 76 10000 0 0 13:35 14.02.2022
5293 Clouds 29 1010 76 10000 0.51 0 12:59 14.02.2022
5294 Clouds 29 1009 75 10000 0.89 340 12:32 14.02.2022
5295 Clouds 29 1009 74 10000 1.54 0 11:39 14.02.2022
5296 Clouds 29 1008 70 10000 1.03 0 10:21 14.02.2022
5297 Clouds 30 1008 66 10000 2.57 100 08:18 14.02.2022
5298 Clouds 30 1008 63 10000 1.34 62 07:26 14.02.2022
5299 Clouds 25 1009 87 9000 2.57 60 22:49 13.02.2022
5300 Clouds 25 1009 87 9000 2.57 60 22:30 13.02.2022
5301 Clouds 25 1009 87 6000 2.57 60 21:59 13.02.2022
5302 Clouds 25 1008 87 6000 2.57 60 21:23 13.02.2022
5303 Clouds 25 1008 87 10000 1.54 130 20:27 13.02.2022
5304 Clouds 26 1009 86 8000 2.57 0 19:18 13.02.2022
5305 Clouds 27 1009 79 10000 2.06 130 18:41 13.02.2022
5306 Clouds 27 1009 77 10000 2.06 130 17:22 13.02.2022
5307 Clouds 27 1009 76 10000 2.57 120 15:51 13.02.2022
5308 Clouds 27 1009 75 10000 2.57 130 14:50 13.02.2022
5309 Clouds 28 1008 71 10000 2.06 120 13:27 13.02.2022
5310 Clouds 28 1008 73 10000 3.09 0 12:42 13.02.2022
5311 Clouds 30 1007 70 10000 4.12 120 10:43 13.02.2022
5312 Clouds 29 1007 69 10000 4.12 120 10:23 13.02.2022
5313 Clouds 31 1007 67 10000 4.12 120 08:56 13.02.2022
5314 Clouds 29 1010 69 10000 3.6 110 02:49 13.02.2022
5315 Clouds 26 1009 79 10000 1.54 0 00:32 13.02.2022
5316 Clouds 26 1008 81 10000 2.06 0 22:55 12.02.2022
5317 Clouds 26 1008 80 10000 2.24 272 22:30 12.02.2022
5318 Clouds 26 1008 79 10000 1.79 344 20:55 12.02.2022
5319 Clouds 26 1008 79 10000 1.54 80 20:23 12.02.2022
5320 Clouds 27 1009 75 10000 2.57 110 18:54 12.02.2022
5321 Clouds 27 1009 74 10000 2.57 110 18:36 12.02.2022
5322 Clouds 27 1009 74 10000 2.57 110 17:39 12.02.2022
5323 Clouds 27 1010 72 10000 3.6 0 16:46 12.02.2022
5324 Clouds 27 1010 72 10000 3.6 120 15:53 12.02.2022
5325 Clouds 27 1010 72 10000 3.6 120 15:20 12.02.2022
5326 Clouds 27 1010 71 10000 3.09 110 14:25 12.02.2022
5327 Clouds 28 1008 68 10000 4.12 110 11:31 12.02.2022
5328 Clouds 30 1007 64 10000 4.12 110 10:30 12.02.2022
5329 Clouds 30 1007 63 10000 4.63 120 09:37 12.02.2022
5330 Clouds 31 1007 62 10000 4.63 120 08:46 12.02.2022
5331 Clouds 32 1008 59 10000 3.58 167 07:44 12.02.2022
5332 Clouds 31 1010 59 10000 4.12 280 04:47 12.02.2022
5333 Clouds 28 1011 60 10000 2.24 9 02:19 12.02.2022
5334 Clouds 24 1010 80 10000 1.03 90 23:34 11.02.2022
5335 Clouds 25 1009 78 10000 1.54 100 22:23 11.02.2022
5336 Clouds 25 1009 77 10000 1.03 0 21:34 11.02.2022
5337 Clouds 25 1009 78 10000 1.54 70 20:28 11.02.2022
5338 Clouds 26 1009 75 10000 2.57 110 19:29 11.02.2022
5339 Clouds 26 1010 74 10000 3.6 120 18:41 11.02.2022
5340 Clouds 26 1010 75 10000 3.09 110 17:27 11.02.2022
5341 Clouds 27 1010 74 10000 4.12 110 16:40 11.02.2022
5342 Clouds 27 1011 73 10000 2.57 120 15:19 11.02.2022
5343 Clouds 27 1010 73 10000 2.57 110 14:37 11.02.2022
5344 Clouds 27 1010 73 10000 2.57 110 14:19 11.02.2022
5345 Clouds 27 1010 72 10000 3.09 110 13:40 11.02.2022
5346 Clouds 27 1010 73 10000 3.09 110 13:21 11.02.2022
5347 Clouds 28 1009 67 10000 4.63 120 10:59 11.02.2022
5348 Rain 30 1009 62 10000 5.66 100 09:32 11.02.2022
5349 Clouds 30 1008 64 10000 5.14 120 08:33 11.02.2022
5350 Rain 31 1009 61 10000 4.12 120 07:45 11.02.2022
5351 Clouds 31 1011 60 10000 5.14 120 06:22 11.02.2022
5352 Clouds 28 1012 64 10000 1.54 130 02:21 11.02.2022
5353 Clouds 26 1011 76 10000 1.54 90 23:45 10.02.2022
5354 Clouds 26 1010 74 10000 3.6 100 22:26 10.02.2022
5355 Clouds 26 1009 74 10000 2.06 110 21:41 10.02.2022
5356 Clouds 26 1009 74 10000 2.06 110 20:50 10.02.2022
5357 Clouds 26 1009 74 10000 3.09 90 19:51 10.02.2022
5358 Clouds 26 1009 72 10000 3.09 90 19:22 10.02.2022
5359 Clouds 26 1010 74 10000 4.12 110 18:22 10.02.2022
5360 Clouds 27 1010 71 10000 3.09 120 17:21 10.02.2022
5361 Clouds 26 1011 72 10000 1.54 130 16:39 10.02.2022
5362 Clouds 26 1011 74 10000 3.09 120 15:39 10.02.2022
5363 Clouds 26 1011 74 10000 3.09 120 15:20 10.02.2022
5364 Clouds 27 1011 72 10000 2.57 120 14:34 10.02.2022
5365 Clouds 27 1011 70 10000 4.12 120 13:37 10.02.2022
5366 Clouds 27 1011 70 10000 4.12 120 13:18 10.02.2022
5367 Clouds 28 1010 66 10000 5.14 120 11:50 10.02.2022
5368 Clouds 28 1010 65 10000 5.14 120 11:28 10.02.2022
5369 Clouds 30 1009 61 10000 4.92 66 10:22 10.02.2022
5370 Clouds 31 1008 59 10000 5.14 110 09:37 10.02.2022
5371 Clouds 32 1008 53 10000 5.14 110 08:25 10.02.2022
5372 Clouds 32 1010 53 10000 4.12 110 06:32 10.02.2022
5373 Clouds 29 1013 64 10000 1.54 50 02:43 10.02.2022
5374 Clouds 26 1012 73 10000 1.03 0 00:52 10.02.2022
5375 Clouds 26 1012 74 10000 1.03 0 00:30 10.02.2022
5376 Clouds 26 1012 74 10000 1.03 0 00:30 10.02.2022
5377 Clouds 25 1012 76 10000 1.03 0 23:53 09.02.2022
5378 Clouds 25 1011 77 10000 0.89 6 22:51 09.02.2022
5379 Clouds 25 1011 77 10000 0.45 10 22:30 09.02.2022
5380 Clouds 25 1011 77 10000 1.54 240 21:45 09.02.2022
5381 Clouds 25 1011 76 10000 1.54 240 21:24 09.02.2022
5382 Clouds 25 1011 78 10000 2.06 60 20:41 09.02.2022
5383 Clouds 25 1011 78 10000 2.06 60 20:21 09.02.2022
5384 Clouds 25 1011 78 10000 2.06 60 20:21 09.02.2022
5385 Clouds 26 1011 74 10000 2.06 110 19:39 09.02.2022
5386 Clouds 26 1012 74 10000 3.6 110 17:50 09.02.2022
5387 Clouds 26 1012 71 10000 3.6 110 16:54 09.02.2022
5388 Clouds 27 1012 73 10000 4.12 120 15:55 09.02.2022
5389 Clouds 27 1012 73 10000 4.12 120 15:19 09.02.2022
5390 Clouds 28 1011 65 10000 3.09 110 12:42 09.02.2022
5391 Clouds 29 1010 59 10000 3.09 90 11:20 09.02.2022
5392 Clouds 31 1010 55 10000 4.63 80 10:32 09.02.2022
5393 Clouds 31 1009 55 10000 4.63 130 09:42 09.02.2022
5394 Clouds 32 1009 55 10000 5.81 69 09:20 09.02.2022
5395 Clouds 32 1009 55 10000 3.6 100 08:26 09.02.2022
5396 Clouds 31 1012 55 10000 2.68 56 05:30 09.02.2022
5397 Clouds 30 1014 56 10000 2.57 110 03:51 09.02.2022
5398 Clouds 27 1013 68 10000 2.24 358 01:28 09.02.2022
5399 Clouds 25 1012 79 10000 1.54 130 23:39 08.02.2022
5400 Clouds 25 1011 78 10000 2.06 110 22:51 08.02.2022
5401 Clouds 25 1011 78 10000 2.06 110 22:22 08.02.2022
5402 Clouds 26 1011 74 10000 2.57 110 21:52 08.02.2022
5403 Clouds 26 1011 73 10000 2.57 110 21:21 08.02.2022
5404 Clouds 26 1011 73 10000 2.57 110 20:45 08.02.2022
5405 Clouds 26 1012 76 10000 3.09 110 19:52 08.02.2022
5406 Clouds 27 1013 75 10000 3.09 120 18:52 08.02.2022
5407 Clouds 27 1013 75 10000 3.09 110 17:50 08.02.2022
5408 Clouds 27 1013 74 10000 3.09 110 16:35 08.02.2022
5409 Clouds 27 1013 74 10000 2.57 110 15:39 08.02.2022
5410 Clouds 28 1013 72 10000 3.09 120 14:44 08.02.2022
5411 Clouds 28 1012 73 10000 3.09 110 13:29 08.02.2022
5412 Clouds 29 1011 71 10000 3.6 100 11:55 08.02.2022
5413 Clouds 29 1010 70 10000 3.6 120 10:23 08.02.2022
5414 Clouds 30 1011 66 10000 3.6 110 09:45 08.02.2022
5415 Clouds 31 1010 64 10000 5.14 120 07:55 08.02.2022
5416 Clouds 31 1012 62 10000 4.12 120 05:41 08.02.2022
5417 Clouds 31 1013 63 10000 4.12 120 04:39 08.02.2022
5418 Clouds 30 1013 65 10000 4.12 120 04:21 08.02.2022
5419 Clouds 30 1014 69 10000 3.09 0 03:36 08.02.2022
5420 Clouds 29 1014 67 10000 3.09 0 03:18 08.02.2022
5421 Clouds 29 1013 71 10000 2.24 326 02:59 08.02.2022
5422 Clouds 29 1013 69 10000 2.24 14 02:36 08.02.2022
5423 Clouds 29 1013 69 10000 2.24 3 02:18 08.02.2022
5424 Clouds 28 1013 71 10000 1.34 4 02:18 08.02.2022
5425 Clouds 27 1013 77 10000 3.13 5 01:44 08.02.2022
5426 Clouds 27 1013 80 10000 1.34 17 01:24 08.02.2022
5427 Clouds 26 1013 82 10000 1.03 0 00:54 08.02.2022
5428 Clouds 25 1012 86 10000 0 0 23:55 07.02.2022
5429 Clouds 25 1012 86 10000 0 0 23:37 07.02.2022
5430 Clouds 25 1012 87 10000 0 0 23:18 07.02.2022
5431 Clouds 25 1011 86 10000 1.03 0 22:20 07.02.2022
5432 Clouds 25 1011 86 10000 0.51 0 21:55 07.02.2022
5433 Clouds 25 1011 86 10000 0.51 0 21:29 07.02.2022
5434 Clouds 25 1011 85 10000 1.03 180 20:59 07.02.2022
5435 Clouds 25 1011 85 10000 1.03 180 20:40 07.02.2022
5436 Clouds 26 1011 83 10000 1.03 0 19:50 07.02.2022
5437 Clouds 26 1011 83 10000 1.03 0 19:32 07.02.2022
5438 Clouds 26 1012 83 10000 4.52 85 17:52 07.02.2022
5439 Clouds 26 1013 85 10000 0.45 323 16:53 07.02.2022
5440 Clouds 26 1013 83 10000 1.54 90 15:49 07.02.2022
5441 Clouds 27 1013 80 10000 2.06 120 14:55 07.02.2022
5442 Clouds 27 1012 76 10000 3.09 100 13:28 07.02.2022
5443 Clouds 27 1011 76 10000 0.89 12 12:42 07.02.2022
5444 Clouds 28 1011 73 10000 0.45 8 11:57 07.02.2022
5445 Clouds 28 1010 74 10000 0.89 17 11:34 07.02.2022
5446 Clouds 28 1010 72 10000 3.13 204 10:49 07.02.2022
5447 Clouds 29 1010 72 10000 1.34 180 10:29 07.02.2022
5448 Clouds 29 1010 70 10000 4.63 110 09:53 07.02.2022
5449 Clouds 29 1010 70 10000 4.63 110 09:18 07.02.2022
5450 Clouds 30 1010 68 10000 5.36 216 08:24 07.02.2022
5451 Clouds 30 1010 65 10000 2.68 347 06:52 07.02.2022
5452 Clouds 30 1011 64 10000 4.02 323 06:33 07.02.2022
5453 Clouds 28 1014 73 10000 0.45 342 02:56 07.02.2022
5454 Clouds 26 1013 79 10000 1.34 354 00:42 07.02.2022
5455 Clouds 25 1012 79 10000 1.79 12 23:42 06.02.2022
5456 Clouds 25 1012 78 10000 1.34 355 22:47 06.02.2022
5457 Clouds 25 1012 79 10000 0.89 4 21:52 06.02.2022
5458 Clouds 26 1012 78 10000 2.06 110 21:30 06.02.2022
5459 Clouds 26 1012 76 10000 2.57 90 20:52 06.02.2022
5460 Clouds 26 1012 76 10000 0.89 4 20:28 06.02.2022
5461 Clouds 26 1013 75 10000 2.24 1 19:32 06.02.2022
5462 Clouds 26 1013 75 10000 2.57 100 18:38 06.02.2022
5463 Clouds 26 1013 75 10000 3.09 100 17:54 06.02.2022
5464 Clouds 26 1013 74 10000 4.12 110 16:53 06.02.2022
5465 Clouds 26 1013 73 10000 4.12 110 16:32 06.02.2022
5466 Clouds 26 1013 73 10000 3.09 100 15:47 06.02.2022
5467 Clouds 27 1013 73 10000 0.45 351 15:26 06.02.2022
5468 Clouds 27 1013 71 10000 0.89 23 14:27 06.02.2022
5469 Clouds 27 1013 71 10000 0.89 12 13:24 06.02.2022
5470 Clouds 27 1012 70 10000 1.79 335 12:45 06.02.2022
5471 Clouds 28 1012 65 10000 0.45 349 11:19 06.02.2022
5472 Clouds 29 1011 63 10000 3.13 280 09:48 06.02.2022
5473 Clouds 31 1011 59 10000 2.68 251 08:47 06.02.2022
5474 Clouds 31 1011 57 10000 2.68 239 07:36 06.02.2022
5475 Clouds 31 1011 57 10000 2.68 239 07:36 06.02.2022
5476 Clouds 31 1013 56 10000 1.79 47 05:29 06.02.2022
5477 Clouds 28 1014 62 10000 0.45 232 02:26 06.02.2022
5478 Clouds 27 1014 66 10000 4.63 100 01:21 06.02.2022
5479 Clouds 26 1013 70 10000 4.12 100 00:24 06.02.2022
5480 Clouds 26 1012 72 10000 0.45 345 22:18 05.02.2022
5481 Clouds 26 1012 71 10000 1.34 348 20:48 05.02.2022
5482 Clouds 26 1012 70 10000 3.6 120 20:23 05.02.2022
5483 Clouds 26 1012 70 10000 0.45 341 19:44 05.02.2022
5484 Clouds 26 1013 71 10000 2.57 110 18:48 05.02.2022
5485 Clouds 27 1013 68 10000 0.89 354 17:37 05.02.2022
5486 Clouds 27 1013 68 10000 3.09 100 16:36 05.02.2022
5487 Clouds 27 1013 67 10000 1.34 8 15:33 05.02.2022
5488 Clouds 27 1013 66 10000 0.45 9 14:40 05.02.2022
5489 Clouds 27 1013 64 10000 0.45 5 12:46 05.02.2022
5490 Clouds 28 1012 62 10000 1.79 9 11:47 05.02.2022
5491 Clouds 29 1011 58 10000 1.79 31 10:46 05.02.2022
5492 Clouds 30 1011 56 10000 3.13 5 09:51 05.02.2022
5493 Clouds 30 1011 56 10000 2.24 62 09:23 05.02.2022
5494 Clouds 31 1012 54 10000 2.68 347 07:32 05.02.2022
5495 Clouds 30 1012 54 10000 5.81 101 06:55 05.02.2022
5496 Clouds 29 1013 59 10000 2.68 69 02:43 05.02.2022
5497 Clouds 27 1013 70 10000 1.03 0 01:18 05.02.2022
5498 Clouds 25 1013 76 10000 1.03 0 00:36 05.02.2022
5499 Clouds 25 1012 74 10000 1.03 0 23:33 04.02.2022
5500 Clouds 25 1012 76 10000 1.03 0 22:55 04.02.2022
5501 Clouds 25 1011 78 10000 0.89 54 21:36 04.02.2022
5502 Clouds 25 1011 78 10000 0.89 49 21:18 04.02.2022
5503 Clouds 25 1011 78 10000 2.06 60 20:40 04.02.2022
5504 Clouds 25 1012 76 10000 1.54 70 19:29 04.02.2022
5505 Clouds 26 1013 72 10000 2.06 110 16:50 04.02.2022
5506 Clouds 27 1013 69 10000 0.89 58 15:33 04.02.2022
5507 Clouds 27 1013 68 10000 0.89 79 14:47 04.02.2022
5508 Clouds 28 1012 64 10000 2.68 77 12:43 04.02.2022
5509 Clouds 29 1011 59 10000 2.24 52 11:45 04.02.2022
5510 Clouds 30 1011 53 10000 1.79 21 10:56 04.02.2022
5511 Clouds 30 1010 55 10000 5.81 69 10:22 04.02.2022
5512 Clouds 32 1010 48 10000 1.34 22 08:30 04.02.2022
5513 Clouds 30 1013 57 10000 2.24 355 03:47 04.02.2022
5514 Clouds 29 1012 61 10000 1.34 71 02:38 04.02.2022
5515 Clouds 24 1011 83 10000 0.45 23 23:56 03.02.2022
5516 Clouds 24 1011 81 10000 0.89 7 22:51 03.02.2022
5517 Clouds 25 1011 81 10000 2.06 0 21:52 03.02.2022
5518 Clouds 25 1010 80 10000 2.06 0 21:29 03.02.2022
5519 Clouds 25 1010 80 10000 1.54 110 20:22 03.02.2022
5520 Clouds 25 1010 80 10000 1.54 110 20:22 03.02.2022
5521 Clouds 25 1011 79 10000 1.03 0 19:46 03.02.2022
5522 Clouds 26 1011 76 10000 2.06 100 18:56 03.02.2022
5523 Clouds 26 1011 76 10000 2.06 120 17:59 03.02.2022
5524 Clouds 26 1011 76 10000 2.06 110 16:55 03.02.2022
5525 Clouds 27 1012 71 10000 2.06 120 15:28 03.02.2022
5526 Clouds 27 1011 73 10000 1.54 110 13:45 03.02.2022
5527 Clouds 28 1011 73 10000 2.06 0 11:47 03.02.2022
5528 Clouds 29 1010 67 10000 2.68 197 08:55 03.02.2022
5529 Clouds 29 1010 67 10000 1.34 207 07:41 03.02.2022
5530 Clouds 26 1012 75 10000 2.24 355 00:35 03.02.2022
5531 Clouds 25 1012 76 10000 0.45 4 23:47 02.02.2022
5532 Clouds 25 1011 75 10000 0.51 0 22:38 02.02.2022
5533 Clouds 25 1011 75 10000 0.45 3 21:42 02.02.2022
5534 Clouds 25 1011 75 10000 1.54 290 21:24 02.02.2022
5535 Clouds 26 1011 74 10000 1.54 290 20:19 02.02.2022
5536 Clouds 26 1011 76 10000 0.51 0 19:45 02.02.2022
5537 Clouds 26 1012 76 10000 0.45 353 18:53 02.02.2022
5538 Clouds 26 1012 76 10000 1.03 100 18:22 02.02.2022
5539 Rain 26 1012 73 10000 1.03 0 17:20 02.02.2022
5540 Clouds 26 1013 71 10000 0.45 25 16:48 02.02.2022
5541 Clouds 27 1013 66 10000 2.06 110 14:21 02.02.2022
5542 Clouds 28 1012 59 10000 3.6 80 12:26 02.02.2022
5543 Clouds 28 1012 59 10000 1.34 61 11:40 02.02.2022
5544 Clouds 28 1011 59 10000 4.02 84 10:38 02.02.2022
5545 Clouds 31 1011 56 10000 0.45 0 07:59 02.02.2022
5546 Clouds 27 1014 69 10000 0.89 153 01:36 02.02.2022
5547 Rain 24 1012 81 10000 0.89 359 21:59 01.02.2022
5548 Rain 24 1012 81 10000 0.45 12 20:49 01.02.2022
5549 Clouds 25 1013 74 10000 2.57 120 18:35 01.02.2022
5550 Clouds 26 1013 74 10000 2.57 110 16:44 01.02.2022
5551 Rain 26 1013 72 10000 2.06 0 15:30 01.02.2022
5552 Rain 27 1012 70 10000 0.45 56 12:49 01.02.2022
5553 Rain 28 1011 67 10000 1.79 71 11:48 01.02.2022
5554 Clouds 30 1010 59 10000 1.34 241 08:34 01.02.2022
5555 Clouds 25 1012 77 10000 0.45 8 23:54 31.01.2022
5556 Clouds 25 1012 77 10000 0.45 8 23:54 31.01.2022
5557 Clouds 25 1012 78 10000 1.34 351 23:36 31.01.2022
5558 Clouds 25 1012 78 10000 1.34 351 23:36 31.01.2022
5559 Clouds 25 1011 78 10000 1.54 100 22:27 31.01.2022
5560 Clouds 26 1011 78 10000 2.57 110 21:34 31.01.2022
5561 Clouds 26 1011 76 10000 0.45 7 20:34 31.01.2022
5562 Clouds 26 1012 75 10000 3.09 110 19:46 31.01.2022
5563 Clouds 26 1012 77 10000 4.12 120 18:31 31.01.2022
5564 Clouds 26 1012 77 10000 4.12 120 18:31 31.01.2022
5565 Clouds 26 1012 77 10000 0.45 21 18:31 31.01.2022
5566 Clouds 26 1012 75 10000 3.6 120 17:53 31.01.2022
5567 Clouds 26 1012 75 10000 3.09 120 16:58 31.01.2022
5568 Clouds 27 1012 74 10000 4.12 120 15:44 31.01.2022
5569 Clouds 27 1012 73 10000 0.45 350 14:25 31.01.2022
5570 Clouds 28 1011 70 10000 3.6 120 12:55 31.01.2022
5571 Clouds 28 1010 69 10000 0.89 28 11:59 31.01.2022
5572 Clouds 30 1009 63 10000 1.34 18 10:54 31.01.2022
5573 Clouds 30 1009 62 10000 2.68 34 10:36 31.01.2022
5574 Clouds 30 1009 62 10000 4.02 65 09:34 31.01.2022
5575 Clouds 31 1009 58 10000 2.24 27 08:52 31.01.2022
5576 Clouds 32 1009 57 10000 4.02 74 08:20 31.01.2022
5577 Clouds 32 1010 56 10000 0.45 357 06:36 31.01.2022
5578 Clouds 31 1011 56 10000 1.34 103 05:20 31.01.2022
5579 Clouds 26 1011 83 10000 0.45 39 23:30 30.01.2022
5580 Clouds 26 1010 84 10000 2.06 20 22:30 30.01.2022
5581 Clouds 26 1010 84 10000 2.06 20 22:30 30.01.2022
5582 Clouds 26 1010 86 10000 0.45 5 21:43 30.01.2022
5583 Clouds 26 1010 86 10000 0.45 29 21:21 30.01.2022
5584 Clouds 25 1010 87 10000 1.34 13 20:50 30.01.2022
5585 Clouds 25 1010 87 10000 0.89 11 20:29 30.01.2022
5586 Clouds 25 1010 85 10000 1.03 60 19:53 30.01.2022
5587 Clouds 26 1010 84 10000 0.45 8 18:44 30.01.2022
5588 Clouds 26 1010 85 10000 0 0 18:20 30.01.2022
5589 Clouds 26 1011 85 10000 1.19 79 17:28 30.01.2022
5590 Clouds 26 1011 84 10000 0.45 359 16:41 30.01.2022
5591 Clouds 26 1011 84 10000 1.79 351 16:22 30.01.2022
5592 Clouds 26 1011 83 10000 0.45 13 15:52 30.01.2022
5593 Clouds 26 1011 83 10000 0.89 7 15:32 30.01.2022
5594 Clouds 26 1010 84 10000 0.89 358 14:46 30.01.2022
5595 Clouds 27 1010 85 10000 1.34 11 12:54 30.01.2022
5596 Clouds 27 1009 85 10000 1.34 16 12:33 30.01.2022
5597 Rain 26 1008 86 10000 5.66 270 10:36 30.01.2022
5598 Clear 27 1008 87 10000 2.24 51 09:56 30.01.2022
5599 Clouds 27 1008 84 10000 6.69 280 09:21 30.01.2022
5600 Clouds 30 1008 72 10000 3.58 334 07:56 30.01.2022
5601 Clouds 29 1010 75 10000 4.02 189 02:42 30.01.2022
5602 Clouds 28 1010 78 10000 4.92 193 01:39 30.01.2022
5603 Clouds 26 1008 88 10000 1.34 207 23:21 29.01.2022
5604 Clouds 26 1008 89 10000 0.89 158 21:59 29.01.2022
5605 Clouds 26 1008 88 10000 1.34 159 21:26 29.01.2022
5606 Clouds 26 1008 88 10000 1.34 202 20:36 29.01.2022
5607 Clouds 27 1008 86 10000 2.24 197 19:36 29.01.2022
5608 Clouds 27 1009 86 10000 2.24 213 18:58 29.01.2022
5609 Clouds 27 1009 86 10000 1.79 200 18:26 29.01.2022
5610 Clouds 27 1009 85 10000 0.45 273 17:35 29.01.2022
5611 Clouds 27 1009 85 10000 0.89 245 16:38 29.01.2022
5612 Clouds 28 1009 82 10000 2.68 212 14:24 29.01.2022
5613 Clouds 28 1008 82 10000 2.68 172 13:45 29.01.2022
5614 Clouds 28 1008 81 10000 2.24 208 13:24 29.01.2022
5615 Clouds 28 1008 79 10000 2.68 221 12:35 29.01.2022
5616 Clouds 29 1007 78 10000 3.58 222 11:27 29.01.2022
5617 Clouds 31 1006 68 10000 4.92 217 09:29 29.01.2022
5618 Clouds 32 1007 61 10000 4.47 211 06:55 29.01.2022
5619 Clouds 26 1010 84 9000 0.51 0 00:37 29.01.2022
5620 Clouds 26 1010 84 9000 0.51 0 00:37 29.01.2022
5621 Clouds 26 1009 85 10000 1.03 0 23:59 28.01.2022
5622 Clouds 26 1009 85 10000 0.51 0 22:51 28.01.2022
5623 Clouds 26 1009 85 10000 0.51 0 22:22 28.01.2022
5624 Clouds 26 1009 85 10000 0 0 21:37 28.01.2022
5625 Clouds 26 1009 84 10000 0.45 3 20:30 28.01.2022
5626 Clouds 27 1010 85 10000 1.03 0 19:33 28.01.2022
5627 Clouds 27 1010 86 10000 2.49 100 18:46 28.01.2022
5628 Clouds 28 1010 76 10000 2.06 130 17:31 28.01.2022
5629 Clouds 28 1011 74 10000 2.57 120 15:21 28.01.2022
5630 Clouds 28 1010 73 10000 0.89 212 13:57 28.01.2022
5631 Clouds 29 1009 70 10000 0.89 160 12:31 28.01.2022
5632 Clouds 30 1008 68 10000 0.89 228 11:25 28.01.2022
5633 Clouds 31 1008 63 10000 1.34 199 09:52 28.01.2022
5634 Rain 32 1008 62 10000 3.58 207 08:22 28.01.2022
5635 Clouds 33 1008 61 10000 3.58 226 07:34 28.01.2022
5636 Clouds 30 1010 70 10000 1.79 333 03:57 28.01.2022
5637 Clouds 30 1010 69 10000 1.34 306 03:20 28.01.2022
5638 Clouds 30 1010 66 10000 1.34 242 02:22 28.01.2022
5639 Clouds 29 1010 71 10000 0.45 180 01:31 28.01.2022
5640 Rain 26 1009 85 10000 1.54 70 22:52 27.01.2022
5641 Clouds 27 1009 81 10000 1.03 0 21:47 27.01.2022
5642 Rain 27 1009 81 10000 1.03 0 21:29 27.01.2022
5643 Clouds 27 1009 82 10000 1.03 0 20:25 27.01.2022
5644 Clouds 27 1010 82 10000 1.54 140 18:26 27.01.2022
5645 Clouds 28 1010 79 10000 2.06 110 17:55 27.01.2022
5646 Clouds 28 1010 77 10000 2.57 120 14:42 27.01.2022
5647 Clouds 28 1010 76 10000 2.57 130 13:26 27.01.2022
5648 Clouds 29 1009 75 10000 3.6 110 12:39 27.01.2022
5649 Clouds 32 1007 66 10000 2.68 341 09:56 27.01.2022
5650 Clouds 32 1007 62 10000 2.24 209 08:48 27.01.2022
5651 Clouds 33 1007 62 10000 2.24 78 08:28 27.01.2022
5652 Clouds 31 1010 71 10000 0.45 95 03:47 27.01.2022
5653 Clouds 26 1010 89 10000 0.89 356 00:25 27.01.2022
5654 Clouds 25 1008 93 9000 1.54 100 22:39 26.01.2022
5655 Clouds 25 1008 92 9000 2.06 70 21:45 26.01.2022
5656 Clouds 25 1008 91 9000 2.06 70 21:26 26.01.2022
5657 Clouds 26 1008 89 9000 1.03 0 20:35 26.01.2022
5658 Clouds 26 1009 89 10000 2.06 60 19:52 26.01.2022
5659 Clouds 26 1009 89 10000 2.06 60 19:18 26.01.2022
5660 Clouds 26 1009 89 10000 1.03 0 18:26 26.01.2022
5661 Clouds 26 1009 91 10000 0.51 0 17:49 26.01.2022
5662 Clouds 26 1009 92 10000 0.51 0 17:19 26.01.2022
5663 Clouds 26 1009 92 10000 1.03 0 16:26 26.01.2022
5664 Clouds 26 1010 92 10000 0.45 358 15:24 26.01.2022
5665 Clouds 25 1010 93 9000 1.03 0 12:54 26.01.2022
5666 Rain 25 1009 95 7000 0.51 0 11:34 26.01.2022
5667 Clouds 26 1008 89 9000 3.6 60 09:59 26.01.2022
5668 Clouds 26 1008 90 9000 3.6 60 09:40 26.01.2022
5669 Clouds 30 1007 70 9000 3.13 341 07:28 26.01.2022
5670 Clouds 26 1009 75 10000 1.03 0 00:44 26.01.2022
5671 Clouds 26 1009 75 10000 1.34 7 23:44 25.01.2022
5672 Clouds 26 1009 75 10000 0.89 15 22:50 25.01.2022
5673 Clouds 26 1008 74 10000 1.34 357 22:21 25.01.2022
5674 Clouds 26 1008 73 10000 0.45 3 21:35 25.01.2022
5675 Clouds 26 1008 71 10000 0.45 0 20:46 25.01.2022
5676 Clouds 26 1008 71 10000 1.54 290 19:59 25.01.2022
5677 Clouds 26 1008 71 10000 0.45 4 19:34 25.01.2022
5678 Clouds 26 1009 68 10000 1.54 0 18:20 25.01.2022
5679 Clouds 26 1009 66 10000 0.45 4 17:39 25.01.2022
5680 Clouds 27 1009 62 10000 1.54 80 16:35 25.01.2022
5681 Clouds 27 1009 64 10000 0.45 26 15:39 25.01.2022
5682 Clouds 27 1009 65 10000 0.89 18 15:20 25.01.2022
5683 Clouds 27 1010 65 10000 1.54 100 14:56 25.01.2022
5684 Clouds 28 1009 61 10000 1.34 14 12:23 25.01.2022
5685 Clouds 31 1007 54 10000 4.02 340 09:39 25.01.2022
5686 Clouds 32 1007 52 10000 1.79 327 08:21 25.01.2022
5687 Clouds 32 1007 52 10000 3.13 32 07:27 25.01.2022
5688 Clouds 31 1009 56 10000 3.13 83 05:54 25.01.2022
5689 Clouds 25 1010 79 10000 0 0 00:57 25.01.2022
5690 Clouds 25 1009 81 10000 1.03 0 23:36 24.01.2022
5691 Clouds 25 1009 81 10000 1.03 0 23:18 24.01.2022
5692 Clouds 25 1009 79 10000 1.03 0 22:42 24.01.2022
5693 Clouds 25 1009 79 10000 1.03 0 22:23 24.01.2022
5694 Clouds 25 1008 78 10000 1.03 0 21:42 24.01.2022
5695 Clouds 25 1008 78 10000 1.03 0 21:24 24.01.2022
5696 Clouds 25 1008 82 10000 2.57 60 20:27 24.01.2022
5697 Clouds 25 1008 77 10000 1.54 80 19:38 24.01.2022
5698 Clouds 26 1009 75 10000 1.03 0 18:50 24.01.2022
5699 Clouds 27 1009 72 10000 2.06 110 17:39 24.01.2022
5700 Clouds 27 1009 72 10000 2.06 110 17:21 24.01.2022
5701 Clouds 27 1009 72 10000 1.54 100 16:31 24.01.2022
5702 Clouds 27 1009 70 10000 2.06 140 15:25 24.01.2022
5703 Clouds 28 1009 69 10000 2.57 120 13:58 24.01.2022
5704 Clouds 28 1008 68 10000 3.09 120 12:34 24.01.2022
5705 Clouds 29 1008 66 10000 0.89 60 11:41 24.01.2022
5706 Clouds 31 1007 62 10000 3.6 130 10:19 24.01.2022
5707 Clouds 30 1007 64 10000 0.89 264 09:44 24.01.2022
5708 Clouds 29 1008 77 10000 1.34 214 07:45 24.01.2022
5709 Clouds 27 1010 76 10000 1.54 0 01:38 24.01.2022
5710 Clouds 26 1010 82 10000 0.51 0 00:55 24.01.2022
5711 Clouds 25 1010 84 10000 0.51 0 00:30 24.01.2022
5712 Clouds 25 1009 85 10000 1.03 0 23:39 23.01.2022
5713 Clouds 25 1008 83 10000 0 0 21:53 23.01.2022
5714 Clouds 25 1008 84 10000 0.89 3 21:29 23.01.2022
5715 Clouds 25 1008 84 10000 0.51 0 20:57 23.01.2022
5716 Clouds 26 1008 82 10000 0.45 5 20:21 23.01.2022
5717 Clouds 26 1009 79 10000 1.34 8 18:53 23.01.2022
5718 Clouds 26 1009 78 10000 1.54 140 18:22 23.01.2022
5719 Clouds 27 1010 76 10000 0.89 9 16:55 23.01.2022
5720 Clouds 27 1009 73 10000 2.7 107 15:56 23.01.2022
5721 Clouds 27 1010 76 10000 3.09 140 14:50 23.01.2022
5722 Clouds 27 1010 76 10000 3.09 140 14:18 23.01.2022
5723 Clouds 28 1009 74 10000 3.09 130 12:45 23.01.2022
5724 Clouds 28 1009 74 10000 3.09 130 12:19 23.01.2022
5725 Clouds 29 1009 69 10000 0.89 260 11:26 23.01.2022
5726 Clouds 30 1008 69 10000 2.57 0 10:57 23.01.2022
5727 Clouds 30 1008 68 10000 0.89 212 10:25 23.01.2022
5728 Clouds 30 1007 65 10000 3.13 359 09:31 23.01.2022
5729 Clouds 31 1007 63 10000 3.13 3 08:33 23.01.2022
5730 Clouds 29 1011 65 10000 2.57 0 03:34 23.01.2022
5731 Clouds 27 1011 78 10000 1.79 353 01:37 23.01.2022
5732 Clouds 25 1010 85 10000 0.45 20 00:47 23.01.2022
5733 Clouds 25 1010 83 10000 0.89 5 23:59 22.01.2022
5734 Clouds 26 1009 83 10000 2.06 90 22:53 22.01.2022
5735 Clouds 26 1009 83 10000 2.06 90 22:19 22.01.2022
5736 Clouds 26 1009 83 10000 2.06 110 20:33 22.01.2022
5737 Clouds 26 1009 83 10000 2.06 100 19:46 22.01.2022
5738 Clouds 27 1010 77 10000 2.57 110 18:37 22.01.2022
5739 Clouds 27 1010 75 10000 2.06 120 17:46 22.01.2022
5740 Clouds 27 1010 75 10000 2.06 120 17:24 22.01.2022
5741 Clouds 27 1011 74 10000 2.57 100 16:54 22.01.2022
5742 Clouds 27 1011 73 10000 2.57 110 15:45 22.01.2022
5743 Clouds 27 1010 73 10000 3.09 120 14:52 22.01.2022
5744 Clouds 28 1010 71 10000 0.45 49 13:30 22.01.2022
5745 Clouds 28 1009 70 10000 0.45 316 12:37 22.01.2022
5746 Clouds 28 1009 70 10000 5.7 104 12:19 22.01.2022
5747 Clouds 30 1008 67 10000 2.68 344 10:54 22.01.2022
5748 Clouds 30 1008 65 10000 0.45 12 10:23 22.01.2022
5749 Clouds 31 1007 59 10000 1.34 358 08:59 22.01.2022
5750 Clouds 31 1007 58 10000 0.89 353 08:39 22.01.2022
5751 Clouds 31 1009 60 10000 1.34 19 06:46 22.01.2022
5752 Clouds 29 1012 66 10000 0.45 161 02:40 22.01.2022
5753 Clouds 24 1011 85 10000 0.51 0 23:50 21.01.2022
5754 Clouds 24 1010 84 10000 0.51 0 23:21 21.01.2022
5755 Clouds 25 1010 81 10000 1.03 0 21:34 21.01.2022
5756 Clouds 26 1010 80 10000 1.34 344 19:35 21.01.2022
5757 Clouds 26 1011 80 10000 1.54 0 17:51 21.01.2022
5758 Clouds 26 1011 80 10000 1.79 354 15:56 21.01.2022
5759 Clouds 26 1011 77 10000 2.06 110 15:23 21.01.2022
5760 Clouds 27 1010 75 10000 3.09 120 12:48 21.01.2022
5761 Clouds 27 1009 74 10000 0.45 55 11:29 21.01.2022
5762 Clouds 27 1009 76 10000 3.6 110 10:47 21.01.2022
5763 Clouds 28 1009 76 9000 4.12 100 08:59 21.01.2022
5764 Clouds 29 1010 71 9000 3.6 120 07:58 21.01.2022
5765 Clouds 27 1012 72 10000 3.58 353 01:55 21.01.2022
5766 Clouds 25 1010 79 10000 1.03 0 22:51 20.01.2022
5767 Clouds 25 1009 78 10000 0.51 0 21:49 20.01.2022
5768 Clouds 26 1009 78 10000 0.51 0 21:25 20.01.2022
5769 Clouds 25 1010 79 10000 0 0 19:54 20.01.2022
5770 Clouds 25 1010 79 10000 0 0 19:18 20.01.2022
5771 Clouds 26 1010 76 10000 2.06 120 17:37 20.01.2022
5772 Clouds 26 1010 77 10000 1.79 4 16:19 20.01.2022
5773 Clouds 26 1011 76 10000 0.89 357 15:29 20.01.2022
5774 Clouds 26 1011 75 10000 0.89 2 14:19 20.01.2022
5775 Clouds 27 1010 70 10000 3.09 110 12:49 20.01.2022
5776 Clouds 27 1010 69 10000 1.34 355 12:29 20.01.2022
5777 Clouds 27 1009 68 10000 1.34 356 11:19 20.01.2022
5778 Clouds 29 1008 61 10000 1.34 26 09:50 20.01.2022
5779 Clouds 29 1008 62 10000 0.45 357 08:45 20.01.2022
5780 Clouds 30 1009 63 10000 1.34 356 06:49 20.01.2022
5781 Clouds 25 1011 81 10000 0.51 0 00:30 20.01.2022
5782 Clouds 25 1009 80 10000 2.06 50 22:38 19.01.2022
5783 Clouds 25 1008 80 10000 2.57 110 21:33 19.01.2022
5784 Clouds 25 1008 82 10000 2.06 90 20:55 19.01.2022
5785 Clouds 25 1008 81 10000 2.06 90 20:30 19.01.2022
5786 Clouds 25 1009 81 10000 2.57 120 18:49 19.01.2022
5787 Clouds 25 1010 80 10000 1.54 160 17:50 19.01.2022
5788 Clouds 25 1009 80 10000 1.79 82 17:18 19.01.2022
5789 Clouds 25 1009 80 10000 1.79 82 17:18 19.01.2022
5790 Clouds 26 1010 76 10000 0.89 3 15:31 19.01.2022
5791 Clouds 27 1010 73 10000 0.89 66 13:20 19.01.2022
5792 Clouds 28 1009 70 10000 1.54 270 11:58 19.01.2022
5793 Clouds 28 1008 69 10000 1.34 29 11:22 19.01.2022
5794 Clouds 28 1007 67 10000 2.24 213 09:35 19.01.2022
5795 Clouds 28 1007 67 10000 5.81 222 09:35 19.01.2022
5796 Clouds 29 1007 65 10000 3.64 90 08:20 19.01.2022
5797 Clouds 29 1010 61 10000 4.47 319 05:19 19.01.2022
5798 Clouds 23 1010 74 10000 1.54 20 00:18 19.01.2022
5799 Clouds 23 1010 73 10000 0.45 354 23:18 18.01.2022
5800 Clouds 24 1010 73 10000 0.45 351 21:43 18.01.2022
5801 Clouds 24 1010 74 10000 0.45 359 20:21 18.01.2022
5802 Clouds 24 1010 70 10000 2.06 100 19:39 18.01.2022
5803 Clouds 24 1010 71 10000 2.06 100 19:21 18.01.2022
5804 Clouds 25 1011 70 10000 1.54 130 18:18 18.01.2022
5805 Clouds 25 1012 68 10000 2.06 110 17:31 18.01.2022
5806 Clouds 25 1012 68 10000 3.09 120 16:18 18.01.2022
5807 Clouds 25 1012 68 10000 3.6 110 15:25 18.01.2022
5808 Clouds 25 1012 67 10000 3.09 120 14:18 18.01.2022
5809 Clouds 27 1010 57 10000 1.34 64 11:20 18.01.2022
5810 Clouds 29 1009 54 10000 1.79 38 09:59 18.01.2022
5811 Clouds 29 1009 53 10000 1.34 234 08:29 18.01.2022
5812 Clouds 29 1010 58 10000 0.45 338 07:31 18.01.2022
5813 Clouds 22 1013 79 10000 0 0 00:22 18.01.2022
5814 Clouds 22 1013 79 10000 0.45 347 22:31 17.01.2022
5815 Clouds 23 1013 79 10000 0.51 0 21:36 17.01.2022
5816 Clouds 23 1013 76 10000 0.51 0 20:39 17.01.2022
5817 Clouds 24 1013 73 10000 1.54 110 18:46 17.01.2022
5818 Clouds 24 1013 71 10000 1.54 110 18:23 17.01.2022
5819 Clouds 24 1014 70 10000 1.03 0 16:53 17.01.2022
5820 Clouds 25 1014 70 10000 2.57 120 15:31 17.01.2022
5821 Clouds 25 1014 71 10000 3.09 120 14:58 17.01.2022
5822 Clouds 25 1014 70 10000 0.45 49 13:42 17.01.2022
5823 Clouds 26 1013 69 10000 4.12 120 12:57 17.01.2022
5824 Clouds 26 1013 68 10000 3.6 120 11:50 17.01.2022
5825 Clouds 28 1011 60 10000 1.79 83 10:43 17.01.2022
5826 Clouds 29 1011 55 10000 2.24 54 09:35 17.01.2022
5827 Clouds 29 1012 57 10000 3.58 52 07:47 17.01.2022
5828 Clouds 30 1012 57 10000 1.34 12 07:19 17.01.2022
5829 Clouds 23 1015 76 10000 0.45 0 00:57 17.01.2022
5830 Clouds 23 1014 77 10000 1.54 60 22:53 16.01.2022
5831 Clouds 24 1014 73 10000 2.57 100 20:40 16.01.2022
5832 Clouds 24 1015 70 10000 3.09 110 18:53 16.01.2022
5833 Clouds 24 1015 70 10000 3.09 110 18:18 16.01.2022
5834 Clouds 25 1015 70 10000 3.09 100 17:25 16.01.2022
5835 Clouds 25 1015 70 10000 3.09 100 16:45 16.01.2022
5836 Clouds 25 1015 70 10000 3.6 110 15:19 16.01.2022
5837 Clouds 25 1015 69 10000 3.09 100 14:28 16.01.2022
5838 Clouds 26 1014 68 10000 2.06 110 12:51 16.01.2022
5839 Clouds 27 1014 66 10000 0.45 354 11:47 16.01.2022
5840 Clouds 27 1013 64 10000 0.89 337 10:55 16.01.2022
5841 Clouds 28 1012 62 10000 3.58 21 10:26 16.01.2022
5842 Clouds 28 1012 63 10000 2.24 208 09:52 16.01.2022
5843 Clouds 28 1012 63 10000 0.89 56 09:22 16.01.2022
5844 Clouds 29 1012 65 10000 6.17 110 08:37 16.01.2022
5845 Clouds 28 1015 62 10000 0.89 1 02:36 16.01.2022
5846 Clouds 23 1014 77 10000 1.03 0 23:49 15.01.2022
5847 Clouds 23 1013 76 10000 1.03 0 21:46 15.01.2022
5848 Clouds 23 1014 76 10000 1.03 0 21:19 15.01.2022
5849 Clouds 23 1014 78 10000 2.06 60 20:40 15.01.2022
5850 Clouds 23 1014 77 10000 2.06 80 19:29 15.01.2022
5851 Clouds 23 1015 78 10000 3.09 70 18:45 15.01.2022
5852 Clouds 24 1016 73 10000 3.09 110 17:29 15.01.2022
5853 Clouds 25 1016 70 10000 3.6 120 15:50 15.01.2022
5854 Clouds 25 1015 68 10000 2.57 110 13:55 15.01.2022
5855 Clouds 26 1014 62 10000 5.14 70 11:46 15.01.2022
5856 Clouds 28 1013 55 10000 1.34 37 10:36 15.01.2022
5857 Clouds 29 1013 56 10000 3.13 245 07:48 15.01.2022
5858 Clouds 24 1014 80 10000 0.89 0 23:50 14.01.2022
5859 Clouds 23 1013 79 10000 1.54 70 21:52 14.01.2022
5860 Clouds 23 1012 80 10000 3.09 40 20:37 14.01.2022
5861 Clouds 23 1013 78 10000 2.57 80 19:58 14.01.2022
5862 Clouds 24 1014 76 10000 0.45 16 18:48 14.01.2022
5863 Clouds 24 1014 76 10000 0.89 5 17:57 14.01.2022
5864 Clouds 24 1014 77 10000 0.45 56 16:48 14.01.2022
5865 Clouds 24 1014 76 10000 0.89 11 15:33 14.01.2022
5866 Clouds 24 1014 75 10000 3.09 100 14:38 14.01.2022
5867 Clouds 25 1014 74 10000 0.45 326 13:34 14.01.2022
5868 Clouds 25 1013 73 10000 4.12 110 12:24 14.01.2022
5869 Clouds 26 1012 71 10000 5.66 100 10:47 14.01.2022
5870 Clouds 27 1012 67 10000 5.14 110 08:54 14.01.2022
5871 Clouds 27 1012 65 10000 0.45 9 07:57 14.01.2022
5872 Clouds 27 1015 66 10000 1.34 211 03:55 14.01.2022
5873 Clouds 24 1014 75 10000 0.45 13 00:50 14.01.2022
5874 Clouds 24 1013 78 10000 1.34 66 22:35 13.01.2022
5875 Clouds 24 1012 78 10000 1.34 8 21:30 13.01.2022
5876 Clouds 24 1013 77 10000 2.06 70 20:54 13.01.2022
5877 Clouds 25 1013 75 10000 1.54 90 19:32 13.01.2022
5878 Clouds 25 1014 74 10000 2.57 100 18:51 13.01.2022
5879 Clouds 25 1014 74 10000 3.6 110 17:25 13.01.2022
5880 Clouds 25 1014 73 10000 0.45 58 16:18 13.01.2022
5881 Clouds 25 1014 75 10000 0.89 222 15:31 13.01.2022
5882 Clouds 26 1013 72 10000 3.6 110 13:47 13.01.2022
5883 Clouds 26 1012 72 10000 1.79 65 12:20 13.01.2022
5884 Clouds 28 1011 66 10000 1.34 22 09:38 13.01.2022
5885 Clouds 28 1011 64 10000 2.68 8 08:54 13.01.2022
5886 Clouds 29 1011 62 10000 2.68 90 08:22 13.01.2022
5887 Clouds 28 1012 64 10000 1.79 9 07:21 13.01.2022
5888 Clouds 28 1013 66 10000 4.92 87 05:56 13.01.2022
5889 Clouds 28 1013 65 10000 2.68 0 05:18 13.01.2022
5890 Clouds 26 1015 69 10000 1.79 7 01:49 13.01.2022
5891 Clouds 24 1014 77 10000 1.34 49 23:54 12.01.2022
5892 Clouds 24 1014 77 10000 0.45 0 23:35 12.01.2022
5893 Clouds 25 1013 75 10000 2.06 10 22:56 12.01.2022
5894 Clouds 25 1013 78 10000 2.68 1 21:56 12.01.2022
5895 Clouds 24 1013 79 10000 0.89 13 21:21 12.01.2022
5896 Clouds 24 1012 79 10000 1.79 11 20:56 12.01.2022
5897 Clouds 25 1013 78 10000 1.54 140 19:28 12.01.2022
5898 Clouds 25 1014 77 10000 2.06 130 18:28 12.01.2022
5899 Clouds 25 1014 75 10000 3.6 120 16:59 12.01.2022
5900 Clouds 26 1014 74 10000 1.34 58 15:53 12.01.2022
5901 Clouds 26 1014 74 10000 0.89 42 14:46 12.01.2022
5902 Clouds 26 1013 72 10000 0.45 17 12:58 12.01.2022
5903 Clouds 26 1013 72 10000 0.45 17 12:58 12.01.2022
5904 Clouds 29 1011 63 10000 4.02 32 09:59 12.01.2022
5905 Clouds 30 1011 60 10000 1.03 0 08:34 12.01.2022
5906 Clouds 29 1011 59 10000 4.02 204 07:34 12.01.2022
5907 Clouds 30 1012 59 10000 2.68 4 05:30 12.01.2022
5908 Clouds 23 1012 80 10000 1.03 0 23:30 11.01.2022
5909 Clouds 24 1012 80 10000 1.34 8 22:41 11.01.2022
5910 Clouds 24 1012 80 10000 1.34 11 22:21 11.01.2022
5911 Clouds 24 1011 79 10000 1.34 5 20:49 11.01.2022
5912 Clouds 24 1011 77 10000 1.79 354 19:42 11.01.2022
5913 Clouds 24 1012 78 10000 2.24 4 18:25 11.01.2022
5914 Clouds 24 1012 76 10000 0.89 359 17:18 11.01.2022
5915 Clouds 25 1013 75 10000 2.24 3 16:36 11.01.2022
5916 Clouds 25 1013 72 10000 2.68 346 14:59 11.01.2022
5917 Clouds 26 1013 72 10000 3.58 17 14:40 11.01.2022
5918 Clouds 26 1012 68 10000 4.02 359 13:54 11.01.2022
5919 Clouds 27 1012 68 10000 3.58 0 13:31 11.01.2022
5920 Clouds 28 1012 62 10000 5.36 349 12:37 11.01.2022
5921 Clouds 30 1010 56 10000 1.79 358 10:52 11.01.2022
5922 Clouds 31 1010 52 10000 0.89 2 08:53 11.01.2022
5923 Clouds 31 1011 57 10000 2.24 339 06:22 11.01.2022
5924 Clouds 25 1013 76 10000 2.24 7 00:30 11.01.2022
5925 Clouds 25 1012 80 10000 3.13 11 23:41 10.01.2022
5926 Clouds 25 1011 80 10000 1.34 20 22:43 10.01.2022
5927 Clouds 25 1011 80 10000 1.79 21 22:18 10.01.2022
5928 Clouds 25 1011 80 10000 3.6 30 21:42 10.01.2022
5929 Clouds 26 1011 79 10000 2.24 359 21:18 10.01.2022
5930 Clouds 26 1010 79 10000 1.79 17 20:55 10.01.2022
5931 Clouds 26 1010 79 10000 1.79 8 20:24 10.01.2022
5932 Clouds 26 1010 80 9000 1.34 13 19:41 10.01.2022
5933 Clouds 26 1010 80 9000 1.79 2 19:19 10.01.2022
5934 Clouds 26 1011 82 9000 2.24 18 18:48 10.01.2022
5935 Clouds 26 1012 79 10000 1.79 4 16:59 10.01.2022
5936 Clouds 27 1012 79 10000 1.34 22 16:41 10.01.2022
5937 Clouds 27 1011 79 10000 1.34 193 14:58 10.01.2022
5938 Clouds 28 1011 77 10000 1.79 174 13:35 10.01.2022
5939 Clouds 29 1010 72 10000 1.79 221 11:57 10.01.2022
5940 Clouds 29 1010 71 10000 0.89 350 11:24 10.01.2022
5941 Clouds 31 1009 60 10000 1.34 6 09:41 10.01.2022
5942 Clouds 30 1011 68 10000 2.68 339 05:52 10.01.2022
5943 Clouds 30 1011 69 10000 3.13 6 05:23 10.01.2022
5944 Clouds 26 1012 79 10000 0.45 11 01:24 10.01.2022
5945 Clouds 24 1012 88 10000 0 0 00:23 10.01.2022
5946 Clouds 25 1011 87 10000 1.03 0 23:28 09.01.2022
5947 Clouds 25 1010 88 10000 0.51 0 22:21 09.01.2022
5948 Clouds 25 1010 88 10000 0.51 0 21:42 09.01.2022
5949 Clouds 25 1010 88 10000 0.51 0 21:42 09.01.2022
5950 Clouds 25 1010 88 10000 0.51 0 21:23 09.01.2022
5951 Clouds 25 1010 88 10000 0.51 0 21:23 09.01.2022
5952 Clouds 25 1009 83 10000 0.89 358 20:49 09.01.2022
5953 Clouds 25 1009 83 10000 0.51 0 20:29 09.01.2022
5954 Clouds 26 1010 84 10000 1.54 200 19:44 09.01.2022
5955 Clouds 26 1010 84 10000 1.54 200 19:22 09.01.2022
5956 Clouds 26 1010 83 10000 1.79 195 18:49 09.01.2022
5957 Clouds 26 1010 82 10000 1.79 221 18:30 09.01.2022
5958 Clouds 26 1011 81 10000 1.34 194 17:30 09.01.2022
5959 Clouds 26 1011 81 10000 2.06 160 16:51 09.01.2022
5960 Clouds 26 1011 80 10000 0.45 3 15:52 09.01.2022
5961 Clouds 26 1011 80 10000 2.06 180 15:33 09.01.2022
5962 Clouds 27 1011 77 10000 0.45 190 14:39 09.01.2022
5963 Clouds 28 1011 73 10000 3.58 212 13:50 09.01.2022
5964 Clouds 28 1010 72 10000 2.24 179 12:44 09.01.2022
5965 Clouds 29 1009 70 10000 1.79 199 11:48 09.01.2022
5966 Clouds 31 1008 62 10000 3.13 353 09:59 09.01.2022
5967 Clouds 31 1008 61 10000 1.34 11 09:41 09.01.2022
5968 Clouds 32 1008 59 10000 0.89 194 08:30 09.01.2022
5969 Clouds 28 1012 73 10000 4.02 218 02:31 09.01.2022
5970 Clouds 26 1012 76 10000 1.54 190 01:20 09.01.2022
5971 Clouds 24 1011 83 10000 1.03 0 23:38 08.01.2022
5972 Clouds 25 1010 82 10000 1.79 0 22:59 08.01.2022
5973 Clouds 25 1010 83 10000 0.45 3 21:33 08.01.2022
5974 Clouds 25 1010 85 10000 0.51 0 20:45 08.01.2022
5975 Clouds 25 1010 86 10000 0.45 356 20:23 08.01.2022
5976 Clouds 25 1011 83 10000 0.89 27 19:55 08.01.2022
5977 Clouds 26 1011 80 10000 1.54 0 17:49 08.01.2022
5978 Clouds 26 1011 79 10000 1.54 0 17:21 08.01.2022
5979 Clouds 26 1012 80 10000 1.54 140 15:47 08.01.2022
5980 Clouds 27 1012 77 10000 2.06 130 14:40 08.01.2022
5981 Clouds 28 1011 74 10000 2.06 120 12:36 08.01.2022
5982 Clouds 29 1010 68 10000 0.45 44 10:49 08.01.2022
5983 Clouds 29 1010 67 10000 2.57 50 10:24 08.01.2022
5984 Clouds 29 1010 66 10000 3.6 60 09:34 08.01.2022
5985 Clouds 30 1010 62 10000 0.45 1 07:18 08.01.2022
5986 Clouds 28 1013 68 10000 2.24 206 02:33 08.01.2022
5987 Clouds 24 1013 78 10000 0 0 00:40 08.01.2022
5988 Clouds 24 1012 79 10000 1.79 356 22:40 07.01.2022
5989 Clouds 25 1012 78 10000 2.24 345 20:56 07.01.2022
5990 Clouds 25 1012 77 10000 0.89 2 19:39 07.01.2022
5991 Clouds 25 1012 77 10000 2.24 342 18:53 07.01.2022
5992 Clouds 25 1012 76 10000 0.45 345 18:30 07.01.2022
5993 Clouds 25 1013 74 10000 1.54 140 17:25 07.01.2022
5994 Clouds 26 1013 71 10000 2.06 130 16:22 07.01.2022
5995 Clouds 27 1013 68 10000 2.57 130 13:53 07.01.2022
5996 Clouds 27 1013 67 10000 2.24 67 13:19 07.01.2022
5997 Clouds 27 1012 66 10000 2.24 84 12:35 07.01.2022
5998 Clouds 31 1011 56 10000 0.89 339 07:31 07.01.2022
5999 Clouds 28 1015 61 10000 2.68 271 02:54 07.01.2022
6000 Clouds 27 1015 66 10000 2.68 334 01:52 07.01.2022
6001 Clouds 26 1015 68 10000 2.24 356 01:27 07.01.2022
6002 Clouds 24 1014 74 10000 1.34 7 00:57 07.01.2022
6003 Clouds 23 1013 80 10000 1.03 0 22:46 06.01.2022
6004 Clouds 24 1012 77 10000 2.57 80 21:23 06.01.2022
6005 Clouds 24 1012 74 10000 2.57 110 20:20 06.01.2022
6006 Clouds 25 1012 73 10000 3.09 110 19:40 06.01.2022
6007 Clouds 25 1013 72 10000 3.09 130 17:53 06.01.2022
6008 Clouds 25 1013 71 10000 3.09 130 17:32 06.01.2022
6009 Clouds 25 1013 71 10000 3.6 120 16:40 06.01.2022
6010 Clouds 26 1013 72 10000 3.09 130 15:45 06.01.2022
6011 Clouds 26 1013 73 10000 3.09 130 15:23 06.01.2022
6012 Clouds 26 1013 69 10000 4.91 102 14:21 06.01.2022
6013 Clouds 26 1013 70 10000 4.12 120 13:46 06.01.2022
6014 Clouds 27 1012 68 10000 4.12 110 12:41 06.01.2022
6015 Clouds 27 1012 65 10000 1.34 56 11:41 06.01.2022
6016 Clouds 27 1012 66 10000 0.89 60 11:20 06.01.2022
6017 Clouds 28 1011 66 10000 0.45 179 08:50 06.01.2022
6018 Clouds 25 1013 76 10000 1.54 80 00:42 06.01.2022
6019 Clouds 24 1012 78 10000 1.03 0 23:36 05.01.2022
6020 Clouds 25 1012 78 10000 0.89 35 22:51 05.01.2022
6021 Clouds 25 1011 77 10000 2.06 110 22:29 05.01.2022
6022 Clouds 25 1011 76 10000 1.34 7 21:45 05.01.2022
6023 Clouds 25 1011 74 10000 1.03 0 20:45 05.01.2022
6024 Clouds 25 1012 75 10000 1.03 0 19:58 05.01.2022
6025 Clouds 25 1013 76 10000 0.51 0 18:33 05.01.2022
6026 Clouds 26 1013 73 10000 0.45 7 17:23 05.01.2022
6027 Clouds 26 1013 72 10000 1.34 342 16:24 05.01.2022
6028 Clouds 26 1013 71 10000 3.09 110 15:20 05.01.2022
6029 Clouds 27 1012 69 10000 3.6 120 13:39 05.01.2022
6030 Clouds 27 1012 69 10000 3.6 110 12:51 05.01.2022
6031 Clouds 30 1010 60 10000 4.02 199 08:58 05.01.2022
6032 Clouds 30 1010 59 10000 0.89 179 07:34 05.01.2022
6033 Clouds 28 1014 64 10000 0.89 0 03:32 05.01.2022
6034 Clouds 24 1013 78 10000 1.34 354 00:33 05.01.2022
6035 Clouds 24 1012 78 10000 0.45 355 23:26 04.01.2022
6036 Clouds 25 1012 76 10000 2.06 100 22:27 04.01.2022
6037 Clouds 25 1012 76 10000 1.54 120 20:50 04.01.2022
6038 Clouds 25 1012 74 10000 1.79 70 19:19 04.01.2022
6039 Clouds 26 1014 72 10000 3.6 100 17:38 04.01.2022
6040 Clouds 26 1014 72 10000 2.57 120 16:40 04.01.2022
6041 Clouds 26 1014 72 10000 2.57 120 16:40 04.01.2022
6042 Clouds 26 1014 73 10000 2.57 120 16:21 04.01.2022
6043 Clouds 26 1014 71 10000 3.09 110 14:51 04.01.2022
6044 Clouds 26 1014 72 10000 3.09 110 14:33 04.01.2022
6045 Clouds 26 1014 69 10000 2.57 100 13:26 04.01.2022
6046 Clouds 29 1013 60 10000 5.66 110 10:40 04.01.2022
6047 Clouds 30 1011 55 10000 0.89 355 08:59 04.01.2022
6048 Clouds 30 1011 55 10000 2.24 237 08:23 04.01.2022
6049 Clouds 25 1014 70 10000 1.79 2 01:19 04.01.2022
6050 Clouds 24 1014 73 10000 1.34 9 00:40 04.01.2022
6051 Clouds 24 1013 76 10000 1.03 0 22:41 03.01.2022
6052 Clouds 24 1013 76 10000 0.45 359 21:41 03.01.2022
6053 Clouds 24 1013 76 10000 0.45 338 21:23 03.01.2022
6054 Clouds 25 1013 71 10000 2.57 110 19:46 03.01.2022
6055 Clouds 25 1014 71 10000 2.57 100 18:33 03.01.2022
6056 Clouds 25 1014 68 10000 3.36 58 17:40 03.01.2022
6057 Clouds 25 1014 66 10000 2.57 120 16:57 03.01.2022
6058 Clouds 26 1014 64 10000 2.57 120 14:54 03.01.2022
6059 Clouds 26 1014 64 10000 2.57 100 13:53 03.01.2022
6060 Clouds 26 1014 60 10000 1.79 63 12:33 03.01.2022
6061 Clouds 27 1013 59 10000 1.79 28 11:31 03.01.2022
6062 Clouds 29 1012 54 10000 3.13 7 09:42 03.01.2022
6063 Clouds 30 1011 51 10000 3.58 62 08:28 03.01.2022
6064 Clouds 30 1012 50 10000 4.02 340 06:31 03.01.2022
6065 Clouds 24 1014 75 10000 0.45 5 23:45 02.01.2022
6066 Clouds 24 1013 77 10000 2.06 110 22:57 02.01.2022
6067 Clouds 24 1013 77 10000 2.06 110 22:38 02.01.2022
6068 Clouds 24 1013 76 10000 1.03 0 21:26 02.01.2022
6069 Clouds 24 1013 75 10000 2.57 130 20:30 02.01.2022
6070 Clouds 24 1013 75 10000 2.57 120 19:49 02.01.2022
6071 Clouds 24 1013 75 10000 0.45 3 19:25 02.01.2022
6072 Clouds 25 1014 74 10000 1.79 351 18:30 02.01.2022
6073 Clouds 25 1014 74 10000 0.45 344 17:43 02.01.2022
6074 Clouds 25 1014 73 10000 1.54 0 17:21 02.01.2022
6075 Clouds 25 1015 73 10000 0.45 349 16:30 02.01.2022
6076 Clouds 25 1014 73 10000 1.54 100 15:49 02.01.2022
6077 Clouds 25 1014 70 10000 1.54 100 13:57 02.01.2022
6078 Clouds 26 1014 67 10000 3.09 110 12:33 02.01.2022
6079 Clouds 27 1014 62 10000 0.45 2 11:55 02.01.2022
6080 Clouds 28 1013 59 10000 1.79 49 10:55 02.01.2022
6081 Clouds 28 1013 58 10000 3.13 23 10:18 02.01.2022
6082 Clouds 28 1013 56 10000 4.02 3 07:44 02.01.2022
6083 Clouds 26 1015 67 10000 1.79 356 02:57 02.01.2022
6084 Clouds 24 1014 68 10000 0.89 354 23:50 01.01.2022
6085 Clouds 24 1014 67 10000 0.45 1 23:27 01.01.2022
6086 Clouds 24 1013 67 10000 0.45 341 22:26 01.01.2022
6087 Clouds 25 1013 65 10000 1.79 333 21:54 01.01.2022
6088 Clouds 25 1013 64 10000 0.45 19 21:36 01.01.2022
6089 Clouds 25 1014 66 10000 5.36 69 20:36 01.01.2022
6090 Clouds 25 1014 67 10000 0.45 15 19:45 01.01.2022
6091 Clouds 25 1015 67 10000 0.45 12 18:52 01.01.2022
6092 Clouds 25 1016 65 10000 3.6 110 17:41 01.01.2022
6093 Clouds 26 1016 65 10000 3.09 110 16:35 01.01.2022
6094 Clouds 26 1017 67 10000 2.57 100 15:42 01.01.2022
6095 Clouds 26 1016 68 10000 2.57 110 14:39 01.01.2022
6096 Clouds 26 1016 67 10000 2.06 110 13:41 01.01.2022
6097 Clouds 26 1016 64 10000 2.57 90 12:25 01.01.2022
6098 Clouds 27 1015 61 10000 5.14 70 11:25 01.01.2022
6099 Clouds 27 1015 60 10000 5.66 80 10:58 01.01.2022
6100 Clouds 28 1014 59 10000 6.17 80 09:48 01.01.2022
6101 Clouds 29 1014 55 10000 6.17 80 08:39 01.01.2022
6102 Clouds 28 1014 56 10000 6.17 80 07:57 01.01.2022
6103 Clouds 28 1014 56 10000 6.17 80 07:37 01.01.2022
6104 Clouds 29 1015 56 10000 5.66 90 06:44 01.01.2022
6105 Clouds 28 1017 61 10000 5.66 100 04:40 01.01.2022
6106 Clouds 28 1017 66 10000 8.05 69 03:52 01.01.2022
6107 Clouds 24 1016 82 7000 1.03 0 23:55 31.12.2021
6108 Clouds 24 1015 82 8000 2.06 70 22:24 31.12.2021
6109 Clouds 25 1015 75 8000 1.03 0 21:47 31.12.2021
6110 Clouds 24 1015 78 10000 1.03 0 19:48 31.12.2021
6111 Clouds 25 1016 73 9000 1.54 70 18:50 31.12.2021
6112 Clouds 25 1017 74 10000 1.54 100 17:56 31.12.2021
6113 Clouds 25 1017 74 10000 1.54 100 17:26 31.12.2021
6114 Clouds 26 1017 72 10000 2.57 90 16:52 31.12.2021
6115 Clouds 26 1016 70 10000 2.57 90 16:18 31.12.2021
6116 Clouds 26 1016 70 10000 2.57 90 15:45 31.12.2021
6117 Clouds 26 1016 70 10000 1.79 13 15:26 31.12.2021
6118 Clouds 26 1017 71 10000 3.6 100 14:38 31.12.2021
6119 Clouds 26 1016 66 10000 0.45 352 13:51 31.12.2021
6120 Clouds 27 1015 62 10000 3.6 110 12:50 31.12.2021
6121 Clouds 27 1015 62 10000 3.6 110 12:20 31.12.2021
6122 Clouds 27 1014 55 10000 1.79 68 11:41 31.12.2021
6123 Clouds 28 1014 53 10000 0.89 69 10:50 31.12.2021
6124 Clouds 28 1014 53 10000 4.47 97 10:28 31.12.2021
6125 Clouds 29 1013 51 10000 3.13 85 09:34 31.12.2021
6126 Clouds 30 1013 50 10000 4.02 20 08:51 31.12.2021
6127 Clouds 30 1013 47 10000 4.47 29 07:55 31.12.2021
6128 Clouds 29 1016 53 10000 5.36 62 04:54 31.12.2021
6129 Clouds 23 1015 79 10000 0.89 358 23:18 30.12.2021
6130 Clouds 23 1015 77 10000 1.54 230 22:31 30.12.2021
6131 Clouds 23 1015 78 10000 0 0 21:39 30.12.2021
6132 Clouds 23 1015 77 10000 0 0 21:18 30.12.2021
6133 Clouds 24 1015 75 10000 1.03 70 20:39 30.12.2021
6134 Clouds 24 1015 76 10000 2.06 60 19:55 30.12.2021
6135 Clouds 24 1015 76 10000 2.06 60 19:31 30.12.2021
6136 Clouds 24 1016 73 10000 1.54 90 18:26 30.12.2021
6137 Clouds 25 1016 69 10000 0.45 12 16:53 30.12.2021
6138 Clouds 26 1016 70 10000 2.57 100 15:53 30.12.2021
6139 Clouds 26 1016 70 10000 2.06 120 14:55 30.12.2021
6140 Clouds 26 1016 70 10000 2.06 120 14:36 30.12.2021
6141 Clouds 26 1015 67 10000 3.6 110 13:25 30.12.2021
6142 Clouds 27 1015 63 10000 2.24 13 11:57 30.12.2021
6143 Clouds 28 1014 59 10000 0.89 8 10:35 30.12.2021
6144 Clouds 28 1014 57 10000 0.89 122 09:46 30.12.2021
6145 Clouds 31 1014 52 10000 2.24 347 06:58 30.12.2021
6146 Clouds 28 1015 65 10000 4.92 333 05:20 30.12.2021
6147 Clouds 28 1015 65 10000 4.92 333 05:20 30.12.2021
6148 Clouds 28 1016 65 10000 4.02 339 03:40 30.12.2021
6149 Clouds 28 1016 62 10000 1.34 20 02:27 30.12.2021
6150 Clouds 24 1015 78 10000 1.54 0 23:37 29.12.2021
6151 Clouds 25 1014 77 10000 0.89 3 22:42 29.12.2021
6152 Clouds 25 1014 77 10000 1.03 0 21:56 29.12.2021
6153 Clouds 25 1014 78 10000 0 0 20:58 29.12.2021
6154 Clouds 25 1013 77 10000 0 0 20:29 29.12.2021
6155 Clouds 25 1014 74 10000 1.03 200 19:31 29.12.2021
6156 Clouds 25 1014 74 10000 1.54 90 18:42 29.12.2021
6157 Clouds 26 1014 73 10000 1.54 110 17:49 29.12.2021
6158 Clouds 26 1014 73 10000 1.54 110 17:26 29.12.2021
6159 Clouds 26 1015 74 10000 1.54 90 16:21 29.12.2021
6160 Clouds 26 1015 74 10000 0 0 15:21 29.12.2021
6161 Clouds 27 1015 69 10000 2.57 100 12:57 29.12.2021
6162 Clouds 27 1015 69 10000 0.45 4 12:34 29.12.2021
6163 Clouds 27 1014 63 10000 2.68 15 11:23 29.12.2021
6164 Clouds 29 1013 57 10000 0.89 32 09:35 29.12.2021
6165 Clouds 30 1013 57 10000 3.13 359 07:45 29.12.2021
6166 Clouds 30 1014 60 10000 0.89 354 06:33 29.12.2021
6167 Clouds 29 1015 61 9000 1.79 351 05:56 29.12.2021
6168 Clouds 28 1016 63 10000 0.89 0 04:58 29.12.2021
6169 Clouds 24 1015 78 10000 1.34 6 00:45 29.12.2021
6170 Clouds 24 1015 78 10000 0.89 15 23:58 28.12.2021
6171 Clouds 24 1014 79 10000 2.24 358 22:57 28.12.2021
6172 Clouds 24 1014 78 10000 0 0 22:25 28.12.2021
6173 Clouds 24 1014 78 10000 0 0 21:54 28.12.2021
6174 Clouds 24 1014 77 10000 1.79 343 21:35 28.12.2021
6175 Clouds 25 1014 76 10000 1.03 0 20:25 28.12.2021
6176 Clouds 25 1015 74 10000 1.54 100 18:54 28.12.2021
6177 Clouds 26 1015 74 10000 1.54 100 18:27 28.12.2021
6178 Clouds 26 1015 73 10000 3.6 110 17:34 28.12.2021
6179 Clouds 26 1015 72 10000 3.09 110 16:20 28.12.2021
6180 Clouds 26 1015 72 10000 3.09 0 15:41 28.12.2021
6181 Clouds 26 1015 71 10000 2.57 110 14:56 28.12.2021
6182 Clouds 26 1015 70 10000 2.57 110 14:38 28.12.2021
6183 Clouds 26 1015 70 10000 0.45 358 14:19 28.12.2021
6184 Clouds 26 1015 71 10000 3.09 120 13:37 28.12.2021
6185 Clouds 27 1015 70 10000 2.06 110 12:56 28.12.2021
6186 Clouds 27 1015 70 10000 2.06 110 12:21 28.12.2021
6187 Clouds 27 1013 66 10000 0.89 10 10:47 28.12.2021
6188 Clouds 29 1012 58 10000 3.58 87 07:38 28.12.2021
6189 Clouds 27 1016 67 10000 1.34 10 03:37 28.12.2021
6190 Clouds 25 1015 76 10000 0.89 25 23:40 27.12.2021
6191 Clouds 25 1014 75 10000 0 0 22:21 27.12.2021
6192 Clouds 25 1014 74 10000 0.89 29 21:31 27.12.2021
6193 Clouds 25 1014 73 10000 1.03 0 20:39 27.12.2021
6194 Clouds 25 1014 75 10000 0.89 30 19:49 27.12.2021
6195 Clouds 25 1014 75 10000 1.34 4 19:27 27.12.2021
6196 Clouds 26 1015 75 10000 0.45 27 17:54 27.12.2021
6197 Clouds 26 1015 75 10000 0.45 27 17:54 27.12.2021
6198 Clouds 26 1015 76 10000 0.89 14 17:28 27.12.2021
6199 Clouds 26 1016 75 10000 1.34 11 16:23 27.12.2021
6200 Clouds 26 1016 73 10000 2.24 59 15:44 27.12.2021
6201 Clouds 26 1016 73 10000 1.79 11 14:24 27.12.2021
6202 Clouds 26 1015 72 10000 0.45 37 12:56 27.12.2021
6203 Clouds 26 1014 73 9000 3.58 17 11:20 27.12.2021
6204 Clouds 27 1014 70 10000 2.24 340 10:27 27.12.2021
6205 Clouds 27 1013 68 10000 3.58 7 09:27 27.12.2021
6206 Clouds 29 1013 68 10000 3.09 40 07:34 27.12.2021
6207 Clouds 29 1014 61 10000 3.09 90 06:29 27.12.2021
6208 Clouds 26 1015 77 10000 0.89 3 01:57 27.12.2021
6209 Clouds 25 1014 84 10000 1.03 20 23:50 26.12.2021
6210 Clouds 25 1013 84 10000 1.03 20 23:20 26.12.2021
6211 Clouds 24 1012 86 10000 1.54 60 21:41 26.12.2021
6212 Clouds 25 1013 85 10000 0.89 74 20:25 26.12.2021
6213 Clouds 24 1013 89 10000 1.54 70 18:53 26.12.2021
6214 Clouds 24 1013 90 10000 1.54 70 18:22 26.12.2021
6215 Clouds 24 1015 91 9000 1.03 0 15:54 26.12.2021
6216 Clouds 26 1015 85 9000 2.24 3 13:51 26.12.2021
6217 Clouds 26 1014 80 9000 2.57 110 13:32 26.12.2021
6218 Clouds 27 1014 75 10000 1.34 20 12:37 26.12.2021
6219 Clouds 27 1013 74 10000 1.34 359 11:56 26.12.2021
6220 Clouds 29 1011 71 10000 4.02 9 09:42 26.12.2021
6221 Clouds 29 1011 69 10000 0.89 358 08:50 26.12.2021
6222 Clouds 29 1011 68 10000 1.79 5 08:27 26.12.2021
6223 Clouds 30 1011 58 10000 3.58 70 05:59 26.12.2021
6224 Clouds 26 1014 74 10000 1.34 358 00:44 26.12.2021
6225 Clouds 25 1013 74 10000 0.51 0 23:49 25.12.2021
6226 Clouds 25 1013 75 10000 0.51 0 23:25 25.12.2021
6227 Clouds 25 1012 75 10000 1.54 290 22:21 25.12.2021
6228 Clouds 25 1011 71 10000 1.03 0 20:36 25.12.2021
6229 Clouds 26 1012 73 10000 1.03 0 19:20 25.12.2021
6230 Clouds 26 1012 71 10000 1.03 0 18:51 25.12.2021
6231 Clouds 27 1013 68 10000 0.89 31 16:52 25.12.2021
6232 Clouds 27 1013 71 10000 2.06 80 15:48 25.12.2021
6233 Clouds 27 1013 74 10000 0.45 6 14:24 25.12.2021
6234 Clouds 28 1012 74 10000 0.45 55 12:42 25.12.2021
6235 Clouds 28 1011 74 10000 3.09 120 11:21 25.12.2021
6236 Clouds 29 1010 67 10000 4.63 60 09:49 25.12.2021
6237 Clouds 32 1010 60 10000 0.45 251 07:39 25.12.2021
6238 Clouds 28 1013 71 10000 0.45 9 01:45 25.12.2021
6239 Clouds 26 1012 82 10000 1.54 60 00:27 25.12.2021
6240 Clouds 26 1011 83 10000 1.54 130 22:28 24.12.2021
6241 Clouds 26 1011 81 10000 1.54 110 19:36 24.12.2021
6242 Clouds 26 1011 81 10000 1.54 110 19:18 24.12.2021
6243 Clouds 27 1012 78 10000 1.54 110 16:50 24.12.2021
6244 Clouds 27 1013 78 10000 1.03 110 15:53 24.12.2021
6245 Clouds 27 1013 78 10000 1.03 110 15:34 24.12.2021
6246 Clouds 27 1012 77 10000 1.54 110 14:36 24.12.2021
6247 Clouds 27 1012 77 10000 1.54 110 14:36 24.12.2021
6248 Clouds 27 1012 77 10000 1.54 110 14:18 24.12.2021
6249 Clouds 28 1012 75 10000 2.57 130 13:33 24.12.2021
6250 Clouds 29 1011 71 10000 3.09 120 12:47 24.12.2021
6251 Clouds 29 1010 72 10000 3.09 120 11:47 24.12.2021
6252 Clouds 29 1010 72 10000 3.09 120 11:24 24.12.2021
6253 Clouds 30 1009 71 10000 0.89 230 10:45 24.12.2021
6254 Clouds 30 1009 70 10000 3.13 225 09:25 24.12.2021
6255 Clouds 29 1009 71 10000 0.45 243 08:19 24.12.2021
6256 Clouds 29 1009 79 10000 0.89 211 07:44 24.12.2021
6257 Clouds 26 1012 82 10000 0.51 0 00:48 24.12.2021
6258 Clouds 25 1011 86 10000 1.03 0 23:54 23.12.2021
6259 Clouds 25 1011 88 10000 1.54 70 22:54 23.12.2021
6260 Clouds 25 1010 88 10000 1.54 70 22:27 23.12.2021
6261 Clouds 25 1010 83 10000 1.03 130 21:59 23.12.2021
6262 Clouds 26 1010 83 10000 1.54 50 20:54 23.12.2021
6263 Clouds 26 1010 85 10000 1.03 110 19:39 23.12.2021
6264 Clouds 27 1011 80 10000 1.54 130 18:34 23.12.2021
6265 Clouds 27 1011 80 10000 2.57 130 17:55 23.12.2021
6266 Clouds 27 1012 78 10000 1.54 140 16:43 23.12.2021
6267 Clouds 27 1012 77 10000 1.54 140 16:23 23.12.2021
6268 Clouds 27 1012 77 10000 2.06 120 15:31 23.12.2021
6269 Clouds 27 1012 77 10000 2.06 120 15:31 23.12.2021
6270 Clouds 28 1012 76 10000 2.57 110 14:42 23.12.2021
6271 Clouds 28 1012 76 10000 2.57 110 14:19 23.12.2021
6272 Clouds 28 1011 76 10000 4.47 109 12:48 23.12.2021
6273 Clouds 30 1009 71 10000 0.45 288 10:41 23.12.2021
6274 Clouds 30 1008 66 10000 0.45 210 09:34 23.12.2021
6275 Clouds 31 1008 65 10000 3.09 130 08:59 23.12.2021
6276 Clouds 31 1009 67 10000 2.57 120 06:48 23.12.2021
6277 Clouds 29 1012 76 7000 3.13 262 03:41 23.12.2021
6278 Clouds 25 1011 90 9000 0 0 22:55 22.12.2021
6279 Clouds 25 1010 90 9000 0 0 22:23 22.12.2021
6280 Clouds 25 1010 88 10000 0 0 21:53 22.12.2021
6281 Clouds 25 1010 88 10000 0 0 21:27 22.12.2021
6282 Clouds 26 1010 88 10000 1.03 220 20:41 22.12.2021
6283 Clouds 26 1011 88 10000 0.51 0 19:59 22.12.2021
6284 Clouds 26 1011 90 10000 1.03 0 18:57 22.12.2021
6285 Clouds 26 1011 87 10000 1.49 49 17:39 22.12.2021
6286 Clouds 27 1012 85 10000 1.03 0 16:34 22.12.2021
6287 Clouds 27 1012 84 10000 1.03 0 15:24 22.12.2021
6288 Clouds 28 1011 81 9000 1.03 0 13:23 22.12.2021
6289 Clouds 28 1011 82 10000 0.51 0 12:19 22.12.2021
6290 Clouds 29 1010 74 10000 1.54 200 09:53 22.12.2021
6291 Clouds 29 1009 74 10000 1.54 200 09:31 22.12.2021
6292 Clouds 26 1011 94 7000 3.6 60 07:22 22.12.2021
6293 Clouds 30 1011 73 9000 3.58 8 05:40 22.12.2021
6294 Clouds 30 1011 73 9000 0.89 33 05:21 22.12.2021
6295 Clouds 30 1012 73 8000 0.89 7 04:43 22.12.2021
6296 Clouds 29 1012 77 8000 1.79 355 03:56 22.12.2021
6297 Clouds 29 1012 75 8000 4.02 4 03:31 22.12.2021
6298 Clouds 27 1011 84 10000 1.54 10 23:57 21.12.2021
6299 Clouds 27 1011 84 10000 1.03 0 22:44 21.12.2021
6300 Clouds 27 1011 84 10000 0.89 333 22:24 21.12.2021
6301 Clouds 26 1010 85 10000 1.49 16 21:42 21.12.2021
6302 Clouds 27 1011 86 9000 0.89 358 20:44 21.12.2021
6303 Clouds 27 1011 86 9000 1.54 310 20:20 21.12.2021
6304 Clouds 27 1011 86 9000 1.54 310 20:20 21.12.2021
6305 Clouds 27 1011 86 9000 1.03 0 19:40 21.12.2021
6306 Clouds 27 1012 86 10000 1.03 0 18:33 21.12.2021
6307 Clouds 27 1012 85 10000 1.03 0 17:59 21.12.2021
6308 Clouds 27 1012 85 10000 1.03 0 17:40 21.12.2021
6309 Clouds 28 1011 83 10000 1.54 0 15:46 21.12.2021
6310 Clouds 28 1012 81 10000 2.06 140 14:29 21.12.2021
6311 Clouds 29 1012 77 10000 2.57 0 13:42 21.12.2021
6312 Clouds 29 1011 77 10000 2.57 130 12:39 21.12.2021
6313 Clouds 31 1010 69 10000 2.06 140 10:52 21.12.2021
6314 Clouds 31 1009 67 10000 3.6 0 09:56 21.12.2021
6315 Clouds 31 1010 65 10000 3.6 130 08:57 21.12.2021
6316 Clouds 32 1010 65 10000 1.34 349 07:45 21.12.2021
6317 Clouds 32 1010 63 10000 1.79 254 07:23 21.12.2021
6318 Clouds 30 1013 69 10000 2.57 120 04:26 21.12.2021
6319 Clouds 29 1013 72 10000 2.06 310 02:30 21.12.2021
6320 Clouds 25 1013 89 10000 0.51 0 23:54 20.12.2021
6321 Clouds 25 1012 87 10000 0.51 0 22:36 20.12.2021
6322 Clouds 25 1012 86 10000 0.51 0 21:59 20.12.2021
6323 Clouds 26 1011 86 10000 0.51 0 21:27 20.12.2021
6324 Clouds 26 1011 88 10000 1.03 0 20:54 20.12.2021
6325 Clouds 26 1011 88 10000 1.03 0 20:23 20.12.2021
6326 Clouds 26 1012 88 10000 2.43 72 19:38 20.12.2021
6327 Clouds 26 1012 88 10000 2.74 82 19:19 20.12.2021
6328 Clouds 26 1012 85 10000 2.57 100 18:32 20.12.2021
6329 Clouds 26 1013 83 10000 3.6 120 17:50 20.12.2021
6330 Clouds 27 1013 83 10000 3.6 120 16:47 20.12.2021
6331 Clouds 27 1013 83 10000 2.57 110 15:57 20.12.2021
6332 Clouds 27 1013 84 10000 2.57 110 15:35 20.12.2021
6333 Clouds 27 1013 82 10000 2.06 120 13:32 20.12.2021
6334 Clouds 27 1013 82 10000 2.06 120 13:32 20.12.2021
6335 Clouds 27 1012 82 10000 2.57 110 12:30 20.12.2021
6336 Clouds 28 1011 80 10000 3.6 90 10:36 20.12.2021
6337 Clouds 29 1011 78 10000 3.6 100 09:39 20.12.2021
6338 Clouds 31 1011 70 10000 1.79 345 08:49 20.12.2021
6339 Clouds 31 1011 70 10000 3.58 337 08:31 20.12.2021
6340 Clouds 30 1010 72 10000 0.89 326 07:32 20.12.2021
6341 Clouds 30 1012 69 10000 1.34 4 06:39 20.12.2021
6342 Clouds 24 1013 92 8000 1.54 30 00:20 20.12.2021
6343 Clouds 24 1012 93 8000 0.51 0 22:56 19.12.2021
6344 Clouds 24 1012 93 8000 0.51 0 22:24 19.12.2021
6345 Clouds 24 1012 93 10000 1.54 20 21:32 19.12.2021
6346 Clouds 24 1012 93 10000 0.51 0 20:36 19.12.2021
6347 Clouds 24 1012 93 10000 1.54 350 19:53 19.12.2021
6348 Clouds 24 1012 93 10000 1.54 350 19:34 19.12.2021
6349 Clouds 24 1013 93 9000 2.06 0 18:35 19.12.2021
6350 Clouds 25 1013 93 9000 1.54 320 17:53 19.12.2021
6351 Clouds 25 1013 92 9000 1.34 349 17:28 19.12.2021
6352 Clouds 26 1013 92 9000 1.03 0 16:27 19.12.2021
6353 Clouds 26 1013 91 9000 1.54 270 15:51 19.12.2021
6354 Clouds 26 1013 91 9000 0.45 351 15:23 19.12.2021
6355 Clouds 26 1013 91 9000 0.51 0 14:45 19.12.2021
6356 Clouds 26 1013 91 9000 0 0 13:26 19.12.2021
6357 Clouds 26 1012 90 10000 1.03 0 12:50 19.12.2021
6358 Clouds 26 1012 90 10000 1.03 0 12:28 19.12.2021
6359 Clouds 26 1011 88 9000 0 0 11:30 19.12.2021
6360 Clouds 26 1011 87 9000 1.54 210 10:30 19.12.2021
6361 Clouds 26 1010 87 9000 2.06 270 09:53 19.12.2021
6362 Clouds 26 1010 87 8000 2.06 0 08:46 19.12.2021
6363 Rain 26 1012 84 7000 3.09 280 05:37 19.12.2021
6364 Clouds 23 1013 96 5000 2.06 140 01:39 19.12.2021
6365 Clouds 23 1013 94 5000 1.54 330 00:53 19.12.2021
6366 Clouds 23 1011 93 6000 1.34 347 22:50 18.12.2021
6367 Rain 23 1011 93 6000 1.79 1 22:20 18.12.2021
6368 Clouds 23 1011 93 7000 0.89 344 21:41 18.12.2021
6369 Clouds 23 1010 93 7000 1.34 341 21:22 18.12.2021
6370 Clouds 24 1010 93 6000 3.58 345 20:20 18.12.2021
6371 Clouds 24 1010 94 7000 1.34 356 19:25 18.12.2021
6372 Clouds 25 1011 94 3000 0.89 352 18:22 18.12.2021
6373 Clouds 25 1011 94 8000 0.45 4 17:48 18.12.2021
6374 Clouds 25 1011 91 9000 1.79 13 16:26 18.12.2021
6375 Clouds 26 1011 87 10000 2.68 7 15:28 18.12.2021
6376 Clouds 26 1011 89 10000 1.79 18 14:51 18.12.2021
6377 Clouds 26 1010 89 10000 2.24 5 13:29 18.12.2021
6378 Clouds 26 1010 89 10000 2.24 5 13:29 18.12.2021
6379 Clouds 28 1009 82 10000 1.79 5 11:47 18.12.2021
6380 Clouds 29 1008 76 10000 1.34 8 09:52 18.12.2021
6381 Clouds 30 1007 75 10000 4.63 120 08:48 18.12.2021
6382 Clouds 30 1007 74 10000 0.89 51 08:27 18.12.2021
6383 Clouds 32 1010 66 10000 3.6 130 05:56 18.12.2021
6384 Clouds 26 1009 86 10000 1.03 60 00:34 18.12.2021
6385 Clouds 26 1008 87 10000 0.45 49 23:46 17.12.2021
6386 Clouds 26 1008 89 10000 1.03 0 21:58 17.12.2021
6387 Clouds 26 1007 89 10000 0.45 1 21:20 17.12.2021
6388 Clouds 26 1007 91 10000 0.45 343 20:41 17.12.2021
6389 Clouds 27 1007 85 10000 2.06 100 19:28 17.12.2021
6390 Clouds 27 1007 87 10000 0.89 75 18:39 17.12.2021
6391 Clouds 27 1007 86 10000 0.45 21 17:33 17.12.2021
6392 Clouds 27 1008 85 10000 0.45 67 16:50 17.12.2021
6393 Clouds 27 1008 86 10000 1.34 344 16:22 17.12.2021
6394 Clouds 27 1007 85 10000 6.68 80 15:25 17.12.2021
6395 Clouds 26 1007 88 10000 1.34 78 14:40 17.12.2021
6396 Clouds 26 1006 88 10000 0.45 1 13:21 17.12.2021
6397 Rain 26 1006 92 7000 3.09 70 11:50 17.12.2021
6398 Rain 27 1005 85 6000 1.54 110 10:37 17.12.2021
6399 Rain 28 1004 80 8000 0.45 13 09:34 17.12.2021
6400 Clouds 30 1003 69 10000 4.02 347 08:30 17.12.2021
6401 Rain 30 1004 73 10000 3.58 32 06:47 17.12.2021
6402 Rain 30 1007 71 10000 2.68 229 02:54 17.12.2021
6403 Clouds 27 1005 76 10000 2.68 7 23:40 16.12.2021
6404 Rain 27 1005 76 10000 1.79 15 22:24 16.12.2021
6405 Rain 27 1005 76 10000 1.79 15 22:24 16.12.2021
6406 Clouds 27 1005 76 10000 4.02 356 21:50 16.12.2021
6407 Clouds 27 1005 77 10000 3.58 359 21:30 16.12.2021
6408 Rain 27 1005 77 10000 3.58 6 20:31 16.12.2021
6409 Clouds 27 1006 77 9000 2.68 12 19:44 16.12.2021
6410 Clouds 27 1007 77 10000 2.68 2 18:39 16.12.2021
6411 Rain 27 1008 76 10000 1.34 3 17:56 16.12.2021
6412 Rain 28 1008 75 10000 4.47 22 17:30 16.12.2021
6413 Clouds 28 1008 75 10000 4.47 20 16:21 16.12.2021
6414 Clouds 28 1008 74 10000 1.34 344 14:50 16.12.2021
6415 Clouds 29 1008 68 10000 1.79 32 13:29 16.12.2021
6416 Clouds 29 1007 68 10000 4.47 4 11:20 16.12.2021
6417 Clouds 29 1007 66 10000 1.79 16 10:59 16.12.2021
6418 Clouds 29 1007 67 10000 5.36 41 10:20 16.12.2021
6419 Clouds 31 1007 61 10000 3.13 12 07:48 16.12.2021
6420 Clouds 31 1007 60 10000 5.36 57 06:21 16.12.2021
6421 Clouds 26 1010 70 10000 1.79 29 00:54 16.12.2021
6422 Clouds 25 1010 70 10000 1.34 354 23:25 15.12.2021
6423 Clouds 25 1009 72 10000 2.24 19 22:41 15.12.2021
6424 Clouds 25 1009 72 10000 3.58 9 21:55 15.12.2021
6425 Clouds 25 1009 72 10000 1.34 4 21:26 15.12.2021
6426 Clouds 25 1009 72 10000 1.03 0 20:18 15.12.2021
6427 Clouds 25 1009 73 10000 0.89 17 19:45 15.12.2021
6428 Clouds 25 1010 71 10000 1.34 1 18:37 15.12.2021
6429 Clouds 26 1011 72 10000 1.79 14 17:51 15.12.2021
6430 Clouds 26 1011 72 10000 1.79 14 17:51 15.12.2021
6431 Clouds 26 1011 71 10000 1.79 350 17:32 15.12.2021
6432 Clouds 26 1011 69 10000 2.68 344 16:27 15.12.2021
6433 Clouds 26 1011 72 10000 0.45 1 15:46 15.12.2021
6434 Clouds 26 1011 71 10000 0.45 6 15:27 15.12.2021
6435 Clouds 26 1011 71 10000 0.89 347 14:18 15.12.2021
6436 Clouds 27 1010 67 10000 2.24 54 12:32 15.12.2021
6437 Clouds 29 1009 62 10000 2.24 351 10:25 15.12.2021
6438 Clouds 29 1008 64 9000 2.24 0 08:54 15.12.2021
6439 Clouds 30 1009 64 9000 1.34 57 06:45 15.12.2021
6440 Clouds 24 1011 76 10000 2.06 360 00:52 15.12.2021
6441 Clouds 24 1010 79 10000 2.24 13 23:41 14.12.2021
6442 Clouds 24 1010 78 10000 0 0 22:48 14.12.2021
6443 Clouds 24 1010 78 10000 0 0 22:18 14.12.2021
6444 Clouds 24 1010 79 10000 1.34 9 20:27 14.12.2021
6445 Clouds 25 1010 74 10000 1.03 50 19:40 14.12.2021
6446 Clouds 25 1011 75 10000 0.89 342 18:44 14.12.2021
6447 Clouds 25 1011 74 10000 0.89 5 17:58 14.12.2021
6448 Clouds 25 1011 74 10000 0.89 5 17:58 14.12.2021
6449 Clouds 25 1011 74 10000 1.03 0 17:27 14.12.2021
6450 Clouds 26 1012 73 10000 2.06 130 16:38 14.12.2021
6451 Clouds 26 1012 71 10000 2.57 120 14:52 14.12.2021
6452 Clouds 26 1011 70 10000 3.6 130 13:31 14.12.2021
6453 Clouds 28 1010 63 10000 1.79 52 11:57 14.12.2021
6454 Clouds 28 1010 62 10000 2.24 54 11:23 14.12.2021
6455 Clouds 29 1009 56 10000 1.79 54 09:56 14.12.2021
6456 Clouds 30 1009 54 10000 2.24 58 09:34 14.12.2021
6457 Clouds 31 1009 50 10000 3.13 348 08:23 14.12.2021
6458 Clouds 32 1009 49 10000 4.92 15 07:43 14.12.2021
6459 Clouds 27 1012 66 10000 2.06 270 01:46 14.12.2021
6460 Clouds 25 1010 73 10000 1.54 100 22:49 13.12.2021
6461 Clouds 25 1010 75 10000 0.89 353 21:52 13.12.2021
6462 Clouds 25 1010 75 10000 0.89 353 21:52 13.12.2021
6463 Clouds 25 1010 73 10000 0.89 4 20:59 13.12.2021
6464 Clouds 25 1010 72 10000 0.89 349 20:31 13.12.2021
6465 Clouds 26 1010 73 10000 2.57 110 19:52 13.12.2021
6466 Clouds 26 1011 72 10000 1.54 0 17:56 13.12.2021
6467 Clouds 26 1011 72 10000 1.54 0 17:23 13.12.2021
6468 Clouds 26 1011 72 10000 1.54 0 17:23 13.12.2021
6469 Clouds 26 1011 73 10000 0.45 333 15:49 13.12.2021
6470 Clouds 26 1011 74 10000 2.06 120 15:18 13.12.2021
6471 Clouds 27 1011 71 10000 0.45 323 13:38 13.12.2021
6472 Clouds 27 1010 71 10000 0.45 20 12:42 13.12.2021
6473 Clouds 27 1010 72 10000 0.45 14 11:54 13.12.2021
6474 Clouds 27 1010 71 10000 1.34 354 11:35 13.12.2021
6475 Clouds 28 1009 68 10000 1.79 5 10:41 13.12.2021
6476 Clouds 30 1009 64 10000 4.12 80 08:52 13.12.2021
6477 Clouds 31 1008 60 10000 4.47 51 07:37 13.12.2021
6478 Clouds 31 1011 62 10000 5.14 100 05:23 13.12.2021
6479 Clouds 27 1011 76 10000 0.89 30 00:42 13.12.2021
6480 Clouds 25 1009 80 10000 1.03 250 21:59 12.12.2021
6481 Clouds 25 1009 80 10000 1.03 250 21:30 12.12.2021
6482 Clouds 26 1010 79 10000 1.03 0 19:38 12.12.2021
6483 Clouds 26 1011 79 10000 0 0 18:24 12.12.2021
6484 Clouds 26 1011 79 10000 1.54 120 16:47 12.12.2021
6485 Clouds 26 1011 78 10000 1.54 120 16:22 12.12.2021
6486 Clouds 27 1011 77 10000 0.89 18 15:28 12.12.2021
6487 Clouds 27 1011 76 10000 1.54 0 14:54 12.12.2021
6488 Clouds 27 1011 76 10000 1.54 0 14:22 12.12.2021
6489 Clouds 27 1010 76 10000 0.45 12 12:51 12.12.2021
6490 Clouds 27 1010 75 10000 2.24 11 12:23 12.12.2021
6491 Clouds 27 1010 75 10000 2.24 11 12:23 12.12.2021
6492 Clouds 28 1010 70 10000 0.51 0 11:43 12.12.2021
6493 Clouds 29 1010 65 10000 1.79 7 10:44 12.12.2021
6494 Clouds 29 1010 65 10000 1.79 7 10:44 12.12.2021
6495 Clouds 29 1010 65 10000 4.47 5 10:21 12.12.2021
6496 Clouds 29 1009 66 10000 2.24 11 08:48 12.12.2021
6497 Clouds 30 1009 65 10000 4.92 14 07:28 12.12.2021
6498 Clouds 30 1011 63 10000 2.68 96 05:29 12.12.2021
6499 Clouds 29 1012 67 10000 0.89 72 04:53 12.12.2021
6500 Clouds 27 1012 75 10000 0.89 359 01:26 12.12.2021
6501 Clouds 25 1011 81 10000 2.68 1 23:26 11.12.2021
6502 Clouds 26 1011 81 10000 0.51 0 22:21 11.12.2021
6503 Clouds 26 1011 81 10000 0.89 9 21:35 11.12.2021
6504 Clouds 26 1011 79 10000 0.89 12 20:19 11.12.2021
6505 Rain 26 1011 80 10000 1.03 0 19:21 11.12.2021
6506 Clouds 26 1011 80 10000 1.34 352 18:48 11.12.2021
6507 Clouds 26 1011 77 10000 0.45 17 17:54 11.12.2021
6508 Clouds 27 1012 76 10000 0.89 51 16:37 11.12.2021
6509 Clouds 27 1012 74 10000 2.24 45 15:41 11.12.2021
6510 Clouds 27 1012 76 10000 0.89 353 14:36 11.12.2021
6511 Clouds 27 1011 76 10000 1.54 90 12:31 11.12.2021
6512 Rain 28 1011 72 10000 3.13 6 10:50 11.12.2021
6513 Clouds 28 1010 72 10000 0.89 37 09:43 11.12.2021
6514 Clouds 29 1013 66 10000 1.34 89 03:58 11.12.2021
6515 Clouds 26 1013 73 10000 2.24 348 00:48 11.12.2021
6516 Clouds 24 1011 79 10000 4.02 329 23:44 10.12.2021
6517 Clouds 24 1011 79 10000 1.03 0 22:47 10.12.2021
6518 Clouds 25 1010 80 10000 1.34 3 21:41 10.12.2021
6519 Clouds 25 1010 79 10000 0.45 352 20:28 10.12.2021
6520 Clouds 25 1011 79 10000 1.34 358 19:19 10.12.2021
6521 Clouds 26 1012 74 10000 1.34 0 17:46 10.12.2021
6522 Clouds 26 1012 72 10000 1.03 0 16:37 10.12.2021
6523 Clouds 27 1012 69 10000 2.06 100 15:45 10.12.2021
6524 Clouds 27 1012 69 10000 2.06 100 15:26 10.12.2021
6525 Clouds 27 1012 68 10000 0.89 355 14:35 10.12.2021
6526 Clouds 27 1012 66 10000 2.06 100 13:49 10.12.2021
6527 Clouds 27 1012 66 10000 3.6 90 12:56 10.12.2021
6528 Clouds 28 1011 65 10000 1.79 358 11:43 10.12.2021
6529 Clouds 29 1010 62 10000 0.89 357 10:57 10.12.2021
6530 Clouds 30 1010 56 10000 4.47 81 09:46 10.12.2021
6531 Clouds 31 1009 51 10000 4.47 65 07:28 10.12.2021
6532 Clouds 31 1012 54 10000 3.13 41 04:57 10.12.2021
6533 Clouds 28 1013 62 10000 0.89 260 02:42 10.12.2021
6534 Clouds 25 1012 75 10000 0.51 0 23:42 09.12.2021
6535 Clouds 25 1011 75 10000 1.03 0 22:41 09.12.2021
6536 Clouds 25 1011 75 10000 0.89 334 22:22 09.12.2021
6537 Clouds 25 1011 75 10000 0.89 2 21:40 09.12.2021
6538 Clouds 25 1011 74 10000 1.03 0 20:35 09.12.2021
6539 Clouds 25 1010 74 10000 0 0 19:43 09.12.2021
6540 Clouds 25 1010 73 10000 0.45 1 19:20 09.12.2021
6541 Clouds 26 1011 72 10000 1.03 0 18:19 09.12.2021
6542 Clouds 26 1012 100 10000 1.03 0 17:48 09.12.2021
6543 Clouds 26 1012 100 10000 0.89 352 17:24 09.12.2021
6544 Clouds 26 1012 70 10000 1.34 353 16:36 09.12.2021
6545 Clouds 27 1012 68 10000 2.57 90 15:18 09.12.2021
6546 Clouds 27 1012 67 10000 2.24 353 14:30 09.12.2021
6547 Clouds 27 1012 71 10000 0.89 4 12:48 09.12.2021
6548 Clouds 28 1012 62 10000 1.79 5 11:51 09.12.2021
6549 Clouds 29 1011 60 10000 3.13 50 10:28 09.12.2021
6550 Clouds 31 1011 50 10000 5.81 85 07:34 09.12.2021
6551 Clouds 29 1014 56 10000 3.13 20 03:56 09.12.2021
6552 Clouds 25 1014 71 10000 1.03 0 00:26 09.12.2021
6553 Clouds 25 1013 72 10000 2.68 10 23:37 08.12.2021
6554 Clouds 25 1013 72 10000 4.92 343 22:57 08.12.2021
6555 Clouds 25 1013 72 10000 1.79 352 22:36 08.12.2021
6556 Clouds 26 1012 72 10000 2.68 1 21:38 08.12.2021
6557 Clouds 26 1012 72 10000 1.79 24 20:50 08.12.2021
6558 Clouds 25 1012 75 10000 0.45 11 19:57 08.12.2021
6559 Clouds 25 1012 74 10000 1.79 358 19:20 08.12.2021
6560 Clouds 25 1013 74 10000 1.54 140 18:22 08.12.2021
6561 Clouds 26 1013 72 10000 1.03 0 16:53 08.12.2021
6562 Clouds 26 1014 70 10000 0.45 346 15:42 08.12.2021
6563 Clouds 26 1014 69 10000 0.45 42 15:22 08.12.2021
6564 Clouds 26 1013 69 10000 2.06 0 13:26 08.12.2021
6565 Clouds 28 1011 62 10000 0.45 355 10:44 08.12.2021
6566 Clouds 29 1010 58 10000 3.13 355 09:32 08.12.2021
6567 Clouds 30 1011 55 10000 4.02 47 08:31 08.12.2021
6568 Clouds 31 1012 48 10000 2.68 35 05:37 08.12.2021
6569 Clouds 25 1013 66 10000 4.02 352 00:41 08.12.2021
6570 Clouds 25 1012 70 10000 1.34 334 23:22 07.12.2021
6571 Clouds 25 1011 70 10000 4.47 3 21:25 07.12.2021
6572 Clouds 25 1011 71 10000 0.89 7 20:25 07.12.2021
6573 Clouds 25 1011 71 10000 0.89 7 20:25 07.12.2021
6574 Clouds 26 1012 70 10000 1.34 65 18:59 07.12.2021
6575 Clouds 26 1012 71 10000 0.89 42 18:21 07.12.2021
6576 Clouds 26 1012 71 10000 0.45 28 17:24 07.12.2021
6577 Clouds 25 1012 73 10000 0.45 346 16:42 07.12.2021
6578 Clouds 26 1013 71 10000 1.54 80 15:59 07.12.2021
6579 Clouds 25 1013 72 10000 1.03 0 14:37 07.12.2021
6580 Clouds 26 1013 69 10000 5.69 67 13:38 07.12.2021
6581 Clouds 27 1012 68 10000 1.54 110 12:22 07.12.2021
6582 Clouds 27 1011 71 10000 1.34 347 10:48 07.12.2021
6583 Clouds 27 1010 73 10000 2.68 18 09:20 07.12.2021
6584 Clouds 28 1010 68 10000 3.13 20 06:50 07.12.2021
6585 Clouds 28 1011 68 8000 3.58 37 05:50 07.12.2021
6586 Clouds 28 1012 63 10000 2.24 59 02:35 07.12.2021
6587 Clouds 23 1010 83 10000 0.51 0 23:21 06.12.2021
6588 Clouds 23 1010 83 10000 0 0 22:40 06.12.2021
6589 Clouds 24 1009 81 10000 0.51 0 21:59 06.12.2021
6590 Clouds 24 1009 81 10000 0.51 0 21:27 06.12.2021
6591 Clouds 24 1009 81 10000 0 0 20:32 06.12.2021
6592 Clouds 24 1009 78 10000 0 0 19:24 06.12.2021
6593 Clouds 25 1010 76 10000 0.45 350 18:34 06.12.2021
6594 Clouds 25 1010 76 10000 0.51 0 17:53 06.12.2021
6595 Clouds 25 1010 75 10000 0.51 0 17:30 06.12.2021
6596 Clouds 25 1011 72 10000 1.03 0 15:51 06.12.2021
6597 Clouds 26 1011 70 10000 1.54 110 14:35 06.12.2021
6598 Clouds 27 1010 67 10000 0.89 57 12:40 06.12.2021
6599 Clouds 27 1009 68 10000 1.54 280 11:55 06.12.2021
6600 Clouds 29 1008 64 10000 0.45 12 09:44 06.12.2021
6601 Clouds 29 1008 60 10000 0.89 30 07:18 06.12.2021
6602 Clouds 27 1011 64 10000 1.79 353 02:20 06.12.2021
6603 Clouds 23 1009 76 10000 1.54 360 22:20 05.12.2021
6604 Clouds 23 1009 75 10000 0.45 22 21:25 05.12.2021
6605 Clouds 23 1009 75 10000 2.06 10 20:20 05.12.2021
6606 Clouds 23 1009 77 10000 2.24 356 19:58 05.12.2021
6607 Clouds 24 1009 76 10000 0.89 353 19:23 05.12.2021
6608 Clouds 24 1010 74 10000 0.89 8 18:26 05.12.2021
6609 Clouds 25 1010 70 10000 1.54 300 17:49 05.12.2021
6610 Clouds 25 1011 72 10000 0.45 12 16:58 05.12.2021
6611 Clouds 25 1011 72 10000 0.45 358 16:28 05.12.2021
6612 Clouds 25 1011 72 10000 1.03 0 15:58 05.12.2021
6613 Clouds 25 1011 72 10000 0.51 0 14:47 05.12.2021
6614 Clouds 25 1011 72 10000 0.45 357 14:29 05.12.2021
6615 Clouds 26 1011 68 10000 2.57 90 13:31 05.12.2021
6616 Clouds 26 1010 68 10000 0.45 40 12:41 05.12.2021
6617 Clouds 26 1010 68 10000 4.05 82 12:23 05.12.2021
6618 Clouds 27 1010 64 10000 0.45 13 11:37 05.12.2021
6619 Clouds 28 1009 60 10000 0.89 53 10:21 05.12.2021
6620 Clouds 29 1009 58 10000 1.34 353 09:26 05.12.2021
6621 Clouds 29 1012 58 10000 2.06 310 04:56 05.12.2021
6622 Clouds 26 1013 65 10000 0.45 46 01:23 05.12.2021
6623 Clouds 23 1012 74 10000 0.45 9 22:42 04.12.2021
6624 Clouds 23 1011 72 10000 1.03 0 21:37 04.12.2021
6625 Clouds 24 1011 69 10000 0.45 2 20:40 04.12.2021
6626 Clouds 24 1012 65 10000 4.63 80 19:33 04.12.2021
6627 Clouds 25 1013 67 10000 3.09 90 18:43 04.12.2021
6628 Clouds 25 1013 69 10000 2.06 90 17:47 04.12.2021
6629 Clouds 25 1013 70 10000 2.06 90 17:20 04.12.2021
6630 Clouds 25 1013 71 10000 0.45 343 16:46 04.12.2021
6631 Clouds 25 1013 71 10000 2.06 90 16:27 04.12.2021
6632 Clouds 26 1012 71 10000 3.09 100 12:44 04.12.2021
6633 Clouds 26 1011 69 10000 1.34 2 11:34 04.12.2021
6634 Clouds 27 1011 67 10000 3.13 0 10:57 04.12.2021
6635 Clouds 27 1010 66 10000 2.68 14 09:40 04.12.2021
6636 Clouds 28 1010 64 10000 1.34 44 08:28 04.12.2021
6637 Clouds 29 1012 61 10000 2.68 76 04:43 04.12.2021
6638 Clouds 24 1013 77 10000 0.89 349 00:49 04.12.2021
6639 Clouds 23 1011 80 10000 0.89 350 23:33 03.12.2021
6640 Clouds 24 1011 78 10000 1.34 358 22:51 03.12.2021
6641 Clouds 24 1010 77 10000 0.45 338 2